<?xml version="1.0" encoding="UTF-8" standalone="no" ?>
<gpx xmlns="http://www.topografix.com/GPX/1/1" xmlns:xsi="http://www.w3.org/2001/XMLSchema-instance" xsi:schemaLocation="http://www.topografix.com/GPX/1/1 http://www.topografix.com/GPX/1/1/gpx.xsd" version="1.1" creator="VisuGPX - https://www.visugpx.com">
  <metadata>
    <name>Champagnat Cyclisme sur route</name>
  </metadata>
  <trk>
    <name><![CDATA[Champagnat Cyclisme sur route_1]]></name>
    <trkseg>
      <trkpt lat="46.48269" lon="5.36834">
        <ele>274</ele>
        <time>2021-12-17T12:03:27Z</time>
      </trkpt>
      <trkpt lat="46.48261" lon="5.36825">
        <ele>273.2</ele>
        <time>2021-12-17T12:03:28Z</time>
      </trkpt>
      <trkpt lat="46.48252" lon="5.36814">
        <ele>273</ele>
        <time>2021-12-17T12:03:29Z</time>
      </trkpt>
      <trkpt lat="46.48242" lon="5.36805">
        <ele>272.2</ele>
        <time>2021-12-17T12:03:30Z</time>
      </trkpt>
      <trkpt lat="46.4823" lon="5.36795">
        <ele>270.8</ele>
        <time>2021-12-17T12:03:31Z</time>
      </trkpt>
      <trkpt lat="46.48211" lon="5.3678">
        <ele>269.2</ele>
        <time>2021-12-17T12:03:33Z</time>
      </trkpt>
      <trkpt lat="46.48201" lon="5.36771">
        <ele>268.4</ele>
        <time>2021-12-17T12:03:34Z</time>
      </trkpt>
      <trkpt lat="46.48189" lon="5.36761">
        <ele>267.2</ele>
        <time>2021-12-17T12:03:35Z</time>
      </trkpt>
      <trkpt lat="46.48168" lon="5.36745">
        <ele>266</ele>
        <time>2021-12-17T12:03:37Z</time>
      </trkpt>
      <trkpt lat="46.48151" lon="5.3673">
        <ele>264.4</ele>
        <time>2021-12-17T12:03:39Z</time>
      </trkpt>
      <trkpt lat="46.4813" lon="5.36715">
        <ele>263.2</ele>
        <time>2021-12-17T12:03:41Z</time>
      </trkpt>
      <trkpt lat="46.48123" lon="5.3671">
        <ele>262.2</ele>
        <time>2021-12-17T12:03:42Z</time>
      </trkpt>
      <trkpt lat="46.48116" lon="5.36704">
        <ele>262</ele>
        <time>2021-12-17T12:03:43Z</time>
      </trkpt>
      <trkpt lat="46.4811" lon="5.36698">
        <ele>261.2</ele>
        <time>2021-12-17T12:03:44Z</time>
      </trkpt>
      <trkpt lat="46.48107" lon="5.36688">
        <ele>260.8</ele>
        <time>2021-12-17T12:03:45Z</time>
      </trkpt>
      <trkpt lat="46.48109" lon="5.36674">
        <ele>259</ele>
        <time>2021-12-17T12:03:47Z</time>
      </trkpt>
      <trkpt lat="46.48113" lon="5.36667">
        <ele>258.6</ele>
        <time>2021-12-17T12:03:48Z</time>
      </trkpt>
      <trkpt lat="46.48119" lon="5.36661">
        <ele>257.6</ele>
        <time>2021-12-17T12:03:49Z</time>
      </trkpt>
      <trkpt lat="46.48133" lon="5.36646">
        <ele>256.6</ele>
        <time>2021-12-17T12:03:51Z</time>
      </trkpt>
      <trkpt lat="46.48138" lon="5.36641">
        <ele>256.6</ele>
        <time>2021-12-17T12:03:52Z</time>
      </trkpt>
      <trkpt lat="46.4816" lon="5.36622">
        <ele>255</ele>
        <time>2021-12-17T12:03:55Z</time>
      </trkpt>
      <trkpt lat="46.48178" lon="5.36608">
        <ele>254.6</ele>
        <time>2021-12-17T12:03:57Z</time>
      </trkpt>
      <trkpt lat="46.48187" lon="5.36603">
        <ele>254.2</ele>
        <time>2021-12-17T12:03:58Z</time>
      </trkpt>
      <trkpt lat="46.48204" lon="5.36597">
        <ele>254.2</ele>
        <time>2021-12-17T12:04:00Z</time>
      </trkpt>
      <trkpt lat="46.48216" lon="5.36584">
        <ele>254</ele>
        <time>2021-12-17T12:04:02Z</time>
      </trkpt>
      <trkpt lat="46.48219" lon="5.36575">
        <ele>254</ele>
        <time>2021-12-17T12:04:03Z</time>
      </trkpt>
      <trkpt lat="46.48223" lon="5.36565">
        <ele>254</ele>
        <time>2021-12-17T12:04:04Z</time>
      </trkpt>
      <trkpt lat="46.48227" lon="5.36556">
        <ele>254</ele>
        <time>2021-12-17T12:04:05Z</time>
      </trkpt>
      <trkpt lat="46.48253" lon="5.36526">
        <ele>253.4</ele>
        <time>2021-12-17T12:04:09Z</time>
      </trkpt>
      <trkpt lat="46.48273" lon="5.36505">
        <ele>252.8</ele>
        <time>2021-12-17T12:04:12Z</time>
      </trkpt>
      <trkpt lat="46.48306" lon="5.36468">
        <ele>251.8</ele>
        <time>2021-12-17T12:04:17Z</time>
      </trkpt>
      <trkpt lat="46.4832" lon="5.36454">
        <ele>251.2</ele>
        <time>2021-12-17T12:04:19Z</time>
      </trkpt>
      <trkpt lat="46.48347" lon="5.36424">
        <ele>250.4</ele>
        <time>2021-12-17T12:04:23Z</time>
      </trkpt>
      <trkpt lat="46.48361" lon="5.36409">
        <ele>249.8</ele>
        <time>2021-12-17T12:04:25Z</time>
      </trkpt>
      <trkpt lat="46.48367" lon="5.36402">
        <ele>249.4</ele>
        <time>2021-12-17T12:04:26Z</time>
      </trkpt>
      <trkpt lat="46.48395" lon="5.36373">
        <ele>248.6</ele>
        <time>2021-12-17T12:04:30Z</time>
      </trkpt>
      <trkpt lat="46.48402" lon="5.36367">
        <ele>248.4</ele>
        <time>2021-12-17T12:04:31Z</time>
      </trkpt>
      <trkpt lat="46.48431" lon="5.3635">
        <ele>247.6</ele>
        <time>2021-12-17T12:04:35Z</time>
      </trkpt>
      <trkpt lat="46.48446" lon="5.36346">
        <ele>247.2</ele>
        <time>2021-12-17T12:04:37Z</time>
      </trkpt>
      <trkpt lat="46.48468" lon="5.36343">
        <ele>247</ele>
        <time>2021-12-17T12:04:40Z</time>
      </trkpt>
      <trkpt lat="46.48511" lon="5.36336">
        <ele>246.6</ele>
        <time>2021-12-17T12:04:46Z</time>
      </trkpt>
      <trkpt lat="46.48525" lon="5.36334">
        <ele>246.6</ele>
        <time>2021-12-17T12:04:48Z</time>
      </trkpt>
      <trkpt lat="46.48547" lon="5.3633">
        <ele>246.2</ele>
        <time>2021-12-17T12:04:51Z</time>
      </trkpt>
      <trkpt lat="46.48592" lon="5.36324">
        <ele>245.6</ele>
        <time>2021-12-17T12:04:57Z</time>
      </trkpt>
      <trkpt lat="46.48608" lon="5.36321">
        <ele>245</ele>
        <time>2021-12-17T12:04:59Z</time>
      </trkpt>
      <trkpt lat="46.48622" lon="5.36311">
        <ele>244.6</ele>
        <time>2021-12-17T12:05:01Z</time>
      </trkpt>
      <trkpt lat="46.48631" lon="5.36291">
        <ele>244.2</ele>
        <time>2021-12-17T12:05:03Z</time>
      </trkpt>
      <trkpt lat="46.48634" lon="5.36279">
        <ele>243.6</ele>
        <time>2021-12-17T12:05:04Z</time>
      </trkpt>
      <trkpt lat="46.48639" lon="5.3624">
        <ele>242.2</ele>
        <time>2021-12-17T12:05:07Z</time>
      </trkpt>
      <trkpt lat="46.48642" lon="5.36214">
        <ele>241.4</ele>
        <time>2021-12-17T12:05:09Z</time>
      </trkpt>
      <trkpt lat="46.48643" lon="5.36201">
        <ele>241</ele>
        <time>2021-12-17T12:05:10Z</time>
      </trkpt>
      <trkpt lat="46.48645" lon="5.36163">
        <ele>240.2</ele>
        <time>2021-12-17T12:05:13Z</time>
      </trkpt>
      <trkpt lat="46.48647" lon="5.3615">
        <ele>239.8</ele>
        <time>2021-12-17T12:05:14Z</time>
      </trkpt>
      <trkpt lat="46.4865" lon="5.36126">
        <ele>239.4</ele>
        <time>2021-12-17T12:05:16Z</time>
      </trkpt>
      <trkpt lat="46.48665" lon="5.36058">
        <ele>238.8</ele>
        <time>2021-12-17T12:05:22Z</time>
      </trkpt>
      <trkpt lat="46.48674" lon="5.36013">
        <ele>239</ele>
        <time>2021-12-17T12:05:27Z</time>
      </trkpt>
      <trkpt lat="46.48679" lon="5.35971">
        <ele>239.8</ele>
        <time>2021-12-17T12:05:32Z</time>
      </trkpt>
      <trkpt lat="46.48682" lon="5.35952">
        <ele>240.2</ele>
        <time>2021-12-17T12:05:34Z</time>
      </trkpt>
      <trkpt lat="46.48687" lon="5.35922">
        <ele>240.6</ele>
        <time>2021-12-17T12:05:37Z</time>
      </trkpt>
      <trkpt lat="46.48707" lon="5.35864">
        <ele>240.2</ele>
        <time>2021-12-17T12:05:43Z</time>
      </trkpt>
      <trkpt lat="46.48734" lon="5.35797">
        <ele>239</ele>
        <time>2021-12-17T12:05:50Z</time>
      </trkpt>
      <trkpt lat="46.48739" lon="5.35789">
        <ele>239</ele>
        <time>2021-12-17T12:05:51Z</time>
      </trkpt>
      <trkpt lat="46.48767" lon="5.35725">
        <ele>238</ele>
        <time>2021-12-17T12:05:58Z</time>
      </trkpt>
      <trkpt lat="46.48774" lon="5.35708">
        <ele>237.6</ele>
        <time>2021-12-17T12:06:00Z</time>
      </trkpt>
      <trkpt lat="46.48804" lon="5.35641">
        <ele>237.2</ele>
        <time>2021-12-17T12:06:08Z</time>
      </trkpt>
      <trkpt lat="46.48808" lon="5.35632">
        <ele>237.2</ele>
        <time>2021-12-17T12:06:09Z</time>
      </trkpt>
      <trkpt lat="46.48833" lon="5.35573">
        <ele>237.4</ele>
        <time>2021-12-17T12:06:16Z</time>
      </trkpt>
      <trkpt lat="46.48866" lon="5.35501">
        <ele>238</ele>
        <time>2021-12-17T12:06:25Z</time>
      </trkpt>
      <trkpt lat="46.48884" lon="5.35458">
        <ele>238</ele>
        <time>2021-12-17T12:06:30Z</time>
      </trkpt>
      <trkpt lat="46.48899" lon="5.35424">
        <ele>237.8</ele>
        <time>2021-12-17T12:06:34Z</time>
      </trkpt>
      <trkpt lat="46.48931" lon="5.35352">
        <ele>237.2</ele>
        <time>2021-12-17T12:06:42Z</time>
      </trkpt>
      <trkpt lat="46.48951" lon="5.35308">
        <ele>236.8</ele>
        <time>2021-12-17T12:06:47Z</time>
      </trkpt>
      <trkpt lat="46.48958" lon="5.35291">
        <ele>236.6</ele>
        <time>2021-12-17T12:06:49Z</time>
      </trkpt>
      <trkpt lat="46.48984" lon="5.35235">
        <ele>236.8</ele>
        <time>2021-12-17T12:06:56Z</time>
      </trkpt>
      <trkpt lat="46.49007" lon="5.35185">
        <ele>237.2</ele>
        <time>2021-12-17T12:07:03Z</time>
      </trkpt>
      <trkpt lat="46.49025" lon="5.35147">
        <ele>237.6</ele>
        <time>2021-12-17T12:07:09Z</time>
      </trkpt>
      <trkpt lat="46.49028" lon="5.35141">
        <ele>237.8</ele>
        <time>2021-12-17T12:07:10Z</time>
      </trkpt>
      <trkpt lat="46.49031" lon="5.35134">
        <ele>238</ele>
        <time>2021-12-17T12:07:11Z</time>
      </trkpt>
      <trkpt lat="46.49045" lon="5.35115">
        <ele>238.2</ele>
        <time>2021-12-17T12:07:14Z</time>
      </trkpt>
      <trkpt lat="46.49085" lon="5.35078">
        <ele>238.4</ele>
        <time>2021-12-17T12:07:21Z</time>
      </trkpt>
      <trkpt lat="46.49128" lon="5.3504">
        <ele>237.8</ele>
        <time>2021-12-17T12:07:28Z</time>
      </trkpt>
      <trkpt lat="46.49157" lon="5.35014">
        <ele>237.2</ele>
        <time>2021-12-17T12:07:33Z</time>
      </trkpt>
      <trkpt lat="46.49163" lon="5.35008">
        <ele>237</ele>
        <time>2021-12-17T12:07:34Z</time>
      </trkpt>
      <trkpt lat="46.49186" lon="5.34983">
        <ele>236.6</ele>
        <time>2021-12-17T12:07:38Z</time>
      </trkpt>
      <trkpt lat="46.49191" lon="5.34976">
        <ele>236.6</ele>
        <time>2021-12-17T12:07:39Z</time>
      </trkpt>
      <trkpt lat="46.492" lon="5.34963">
        <ele>236.6</ele>
        <time>2021-12-17T12:07:41Z</time>
      </trkpt>
      <trkpt lat="46.4924" lon="5.349">
        <ele>236.4</ele>
        <time>2021-12-17T12:07:50Z</time>
      </trkpt>
      <trkpt lat="46.49272" lon="5.34855">
        <ele>236</ele>
        <time>2021-12-17T12:07:57Z</time>
      </trkpt>
      <trkpt lat="46.49277" lon="5.3485">
        <ele>236</ele>
        <time>2021-12-17T12:07:58Z</time>
      </trkpt>
      <trkpt lat="46.49283" lon="5.34846">
        <ele>236</ele>
        <time>2021-12-17T12:07:59Z</time>
      </trkpt>
      <trkpt lat="46.49306" lon="5.34835">
        <ele>236</ele>
        <time>2021-12-17T12:08:03Z</time>
      </trkpt>
      <trkpt lat="46.49312" lon="5.34834">
        <ele>235.8</ele>
        <time>2021-12-17T12:08:04Z</time>
      </trkpt>
      <trkpt lat="46.49338" lon="5.34829">
        <ele>235.4</ele>
        <time>2021-12-17T12:08:08Z</time>
      </trkpt>
      <trkpt lat="46.49345" lon="5.34827">
        <ele>235.6</ele>
        <time>2021-12-17T12:08:09Z</time>
      </trkpt>
      <trkpt lat="46.49375" lon="5.34823">
        <ele>235.4</ele>
        <time>2021-12-17T12:08:14Z</time>
      </trkpt>
      <trkpt lat="46.49414" lon="5.34804">
        <ele>236</ele>
        <time>2021-12-17T12:08:21Z</time>
      </trkpt>
      <trkpt lat="46.49442" lon="5.34779">
        <ele>235.8</ele>
        <time>2021-12-17T12:08:26Z</time>
      </trkpt>
      <trkpt lat="46.49447" lon="5.34772">
        <ele>235.6</ele>
        <time>2021-12-17T12:08:27Z</time>
      </trkpt>
      <trkpt lat="46.49483" lon="5.34734">
        <ele>234</ele>
        <time>2021-12-17T12:08:32Z</time>
      </trkpt>
      <trkpt lat="46.49505" lon="5.34707">
        <ele>233</ele>
        <time>2021-12-17T12:08:35Z</time>
      </trkpt>
      <trkpt lat="46.49527" lon="5.34682">
        <ele>231.8</ele>
        <time>2021-12-17T12:08:38Z</time>
      </trkpt>
      <trkpt lat="46.49557" lon="5.34645">
        <ele>230.8</ele>
        <time>2021-12-17T12:08:42Z</time>
      </trkpt>
      <trkpt lat="46.49565" lon="5.34636">
        <ele>229.8</ele>
        <time>2021-12-17T12:08:43Z</time>
      </trkpt>
      <trkpt lat="46.49572" lon="5.34628">
        <ele>229.2</ele>
        <time>2021-12-17T12:08:44Z</time>
      </trkpt>
      <trkpt lat="46.49585" lon="5.34609">
        <ele>227.8</ele>
        <time>2021-12-17T12:08:46Z</time>
      </trkpt>
      <trkpt lat="46.4961" lon="5.34571">
        <ele>226.6</ele>
        <time>2021-12-17T12:08:50Z</time>
      </trkpt>
      <trkpt lat="46.49615" lon="5.34562">
        <ele>226.4</ele>
        <time>2021-12-17T12:08:51Z</time>
      </trkpt>
      <trkpt lat="46.49621" lon="5.34554">
        <ele>225.4</ele>
        <time>2021-12-17T12:08:52Z</time>
      </trkpt>
      <trkpt lat="46.49638" lon="5.34538">
        <ele>224.2</ele>
        <time>2021-12-17T12:08:55Z</time>
      </trkpt>
      <trkpt lat="46.49643" lon="5.34536">
        <ele>224</ele>
        <time>2021-12-17T12:08:56Z</time>
      </trkpt>
      <trkpt lat="46.4965" lon="5.34531">
        <ele>223.6</ele>
        <time>2021-12-17T12:08:58Z</time>
      </trkpt>
      <trkpt lat="46.49656" lon="5.34523">
        <ele>223.4</ele>
        <time>2021-12-17T12:09:00Z</time>
      </trkpt>
      <trkpt lat="46.4966" lon="5.3451">
        <ele>223</ele>
        <time>2021-12-17T12:09:02Z</time>
      </trkpt>
      <trkpt lat="46.49667" lon="5.3448">
        <ele>223.2</ele>
        <time>2021-12-17T12:09:06Z</time>
      </trkpt>
      <trkpt lat="46.49672" lon="5.34466">
        <ele>223.2</ele>
        <time>2021-12-17T12:09:08Z</time>
      </trkpt>
      <trkpt lat="46.49682" lon="5.34429">
        <ele>224.4</ele>
        <time>2021-12-17T12:09:13Z</time>
      </trkpt>
      <trkpt lat="46.49685" lon="5.34413">
        <ele>224.8</ele>
        <time>2021-12-17T12:09:15Z</time>
      </trkpt>
      <trkpt lat="46.49687" lon="5.34406">
        <ele>225</ele>
        <time>2021-12-17T12:09:16Z</time>
      </trkpt>
      <trkpt lat="46.49691" lon="5.3439">
        <ele>225.6</ele>
        <time>2021-12-17T12:09:18Z</time>
      </trkpt>
      <trkpt lat="46.49695" lon="5.34376">
        <ele>225.8</ele>
        <time>2021-12-17T12:09:20Z</time>
      </trkpt>
      <trkpt lat="46.49699" lon="5.34361">
        <ele>226</ele>
        <time>2021-12-17T12:09:22Z</time>
      </trkpt>
      <trkpt lat="46.497" lon="5.34353">
        <ele>226</ele>
        <time>2021-12-17T12:09:23Z</time>
      </trkpt>
      <trkpt lat="46.49703" lon="5.34341">
        <ele>226.4</ele>
        <time>2021-12-17T12:09:25Z</time>
      </trkpt>
      <trkpt lat="46.49705" lon="5.34335">
        <ele>226.8</ele>
        <time>2021-12-17T12:09:26Z</time>
      </trkpt>
      <trkpt lat="46.49709" lon="5.34321">
        <ele>227.2</ele>
        <time>2021-12-17T12:09:28Z</time>
      </trkpt>
      <trkpt lat="46.49712" lon="5.34312">
        <ele>227.4</ele>
        <time>2021-12-17T12:09:29Z</time>
      </trkpt>
      <trkpt lat="46.49719" lon="5.34293">
        <ele>227.8</ele>
        <time>2021-12-17T12:09:31Z</time>
      </trkpt>
      <trkpt lat="46.49727" lon="5.34277">
        <ele>228</ele>
        <time>2021-12-17T12:09:33Z</time>
      </trkpt>
      <trkpt lat="46.49747" lon="5.34244">
        <ele>228.2</ele>
        <time>2021-12-17T12:09:38Z</time>
      </trkpt>
      <trkpt lat="46.49777" lon="5.34194">
        <ele>228.2</ele>
        <time>2021-12-17T12:09:46Z</time>
      </trkpt>
      <trkpt lat="46.49796" lon="5.34164">
        <ele>228.4</ele>
        <time>2021-12-17T12:09:51Z</time>
      </trkpt>
      <trkpt lat="46.498" lon="5.34157">
        <ele>228.4</ele>
        <time>2021-12-17T12:09:52Z</time>
      </trkpt>
      <trkpt lat="46.49826" lon="5.34113">
        <ele>229</ele>
        <time>2021-12-17T12:09:59Z</time>
      </trkpt>
      <trkpt lat="46.49861" lon="5.34063">
        <ele>228.8</ele>
        <time>2021-12-17T12:10:07Z</time>
      </trkpt>
      <trkpt lat="46.49906" lon="5.34012">
        <ele>228.8</ele>
        <time>2021-12-17T12:10:16Z</time>
      </trkpt>
      <trkpt lat="46.49923" lon="5.33994">
        <ele>229.2</ele>
        <time>2021-12-17T12:10:20Z</time>
      </trkpt>
      <trkpt lat="46.49927" lon="5.3399">
        <ele>229.4</ele>
        <time>2021-12-17T12:10:21Z</time>
      </trkpt>
      <trkpt lat="46.49931" lon="5.33986">
        <ele>229.4</ele>
        <time>2021-12-17T12:10:22Z</time>
      </trkpt>
      <trkpt lat="46.49957" lon="5.33962">
        <ele>230</ele>
        <time>2021-12-17T12:10:28Z</time>
      </trkpt>
      <trkpt lat="46.49964" lon="5.33955">
        <ele>230.4</ele>
        <time>2021-12-17T12:10:30Z</time>
      </trkpt>
      <trkpt lat="46.49972" lon="5.33945">
        <ele>230.8</ele>
        <time>2021-12-17T12:10:32Z</time>
      </trkpt>
      <trkpt lat="46.49981" lon="5.33936">
        <ele>231</ele>
        <time>2021-12-17T12:10:34Z</time>
      </trkpt>
      <trkpt lat="46.49995" lon="5.33922">
        <ele>231.2</ele>
        <time>2021-12-17T12:10:37Z</time>
      </trkpt>
      <trkpt lat="46.50016" lon="5.33899">
        <ele>231.4</ele>
        <time>2021-12-17T12:10:41Z</time>
      </trkpt>
      <trkpt lat="46.50021" lon="5.33893">
        <ele>231.6</ele>
        <time>2021-12-17T12:10:42Z</time>
      </trkpt>
      <trkpt lat="46.50066" lon="5.33842">
        <ele>231.4</ele>
        <time>2021-12-17T12:10:50Z</time>
      </trkpt>
      <trkpt lat="46.50072" lon="5.33835">
        <ele>231.2</ele>
        <time>2021-12-17T12:10:51Z</time>
      </trkpt>
      <trkpt lat="46.50102" lon="5.33801">
        <ele>230.4</ele>
        <time>2021-12-17T12:10:56Z</time>
      </trkpt>
      <trkpt lat="46.50121" lon="5.3378">
        <ele>229.8</ele>
        <time>2021-12-17T12:10:59Z</time>
      </trkpt>
      <trkpt lat="46.50138" lon="5.33762">
        <ele>229.2</ele>
        <time>2021-12-17T12:11:02Z</time>
      </trkpt>
      <trkpt lat="46.50165" lon="5.33735">
        <ele>229</ele>
        <time>2021-12-17T12:11:07Z</time>
      </trkpt>
      <trkpt lat="46.50208" lon="5.33694">
        <ele>229.6</ele>
        <time>2021-12-17T12:11:15Z</time>
      </trkpt>
      <trkpt lat="46.50218" lon="5.33683">
        <ele>229.6</ele>
        <time>2021-12-17T12:11:17Z</time>
      </trkpt>
      <trkpt lat="46.50229" lon="5.33671">
        <ele>229.6</ele>
        <time>2021-12-17T12:11:19Z</time>
      </trkpt>
      <trkpt lat="46.50262" lon="5.33634">
        <ele>229.6</ele>
        <time>2021-12-17T12:11:25Z</time>
      </trkpt>
      <trkpt lat="46.50296" lon="5.33595">
        <ele>229.8</ele>
        <time>2021-12-17T12:11:31Z</time>
      </trkpt>
      <trkpt lat="46.50318" lon="5.33569">
        <ele>229.6</ele>
        <time>2021-12-17T12:11:35Z</time>
      </trkpt>
      <trkpt lat="46.50363" lon="5.33519">
        <ele>228.4</ele>
        <time>2021-12-17T12:11:43Z</time>
      </trkpt>
      <trkpt lat="46.50379" lon="5.33501">
        <ele>228.2</ele>
        <time>2021-12-17T12:11:46Z</time>
      </trkpt>
      <trkpt lat="46.50396" lon="5.33484">
        <ele>227.8</ele>
        <time>2021-12-17T12:11:49Z</time>
      </trkpt>
      <trkpt lat="46.50436" lon="5.3344">
        <ele>227.4</ele>
        <time>2021-12-17T12:11:56Z</time>
      </trkpt>
      <trkpt lat="46.50453" lon="5.33406">
        <ele>226.8</ele>
        <time>2021-12-17T12:12:00Z</time>
      </trkpt>
      <trkpt lat="46.50456" lon="5.33397">
        <ele>226.6</ele>
        <time>2021-12-17T12:12:01Z</time>
      </trkpt>
      <trkpt lat="46.50462" lon="5.33377">
        <ele>226.4</ele>
        <time>2021-12-17T12:12:03Z</time>
      </trkpt>
      <trkpt lat="46.50464" lon="5.33356">
        <ele>226</ele>
        <time>2021-12-17T12:12:05Z</time>
      </trkpt>
      <trkpt lat="46.50465" lon="5.33333">
        <ele>225.8</ele>
        <time>2021-12-17T12:12:07Z</time>
      </trkpt>
      <trkpt lat="46.50465" lon="5.33324">
        <ele>225.8</ele>
        <time>2021-12-17T12:12:08Z</time>
      </trkpt>
      <trkpt lat="46.50465" lon="5.3329">
        <ele>225.8</ele>
        <time>2021-12-17T12:12:11Z</time>
      </trkpt>
      <trkpt lat="46.50465" lon="5.33225">
        <ele>226.2</ele>
        <time>2021-12-17T12:12:18Z</time>
      </trkpt>
      <trkpt lat="46.50465" lon="5.33195">
        <ele>226.2</ele>
        <time>2021-12-17T12:12:21Z</time>
      </trkpt>
      <trkpt lat="46.50464" lon="5.33177">
        <ele>226.2</ele>
        <time>2021-12-17T12:12:23Z</time>
      </trkpt>
      <trkpt lat="46.50464" lon="5.33167">
        <ele>226.2</ele>
        <time>2021-12-17T12:12:24Z</time>
      </trkpt>
      <trkpt lat="46.50464" lon="5.33142">
        <ele>226.2</ele>
        <time>2021-12-17T12:12:26Z</time>
      </trkpt>
      <trkpt lat="46.50465" lon="5.33121">
        <ele>226.2</ele>
        <time>2021-12-17T12:12:28Z</time>
      </trkpt>
      <trkpt lat="46.50468" lon="5.33034">
        <ele>224.8</ele>
        <time>2021-12-17T12:12:35Z</time>
      </trkpt>
      <trkpt lat="46.50469" lon="5.33023">
        <ele>224</ele>
        <time>2021-12-17T12:12:36Z</time>
      </trkpt>
      <trkpt lat="46.50469" lon="5.32994">
        <ele>222.8</ele>
        <time>2021-12-17T12:12:38Z</time>
      </trkpt>
      <trkpt lat="46.5047" lon="5.32966">
        <ele>221.8</ele>
        <time>2021-12-17T12:12:40Z</time>
      </trkpt>
      <trkpt lat="46.5047" lon="5.32955">
        <ele>221.4</ele>
        <time>2021-12-17T12:12:41Z</time>
      </trkpt>
      <trkpt lat="46.50471" lon="5.32941">
        <ele>220.8</ele>
        <time>2021-12-17T12:12:42Z</time>
      </trkpt>
      <trkpt lat="46.50471" lon="5.329">
        <ele>219.4</ele>
        <time>2021-12-17T12:12:45Z</time>
      </trkpt>
      <trkpt lat="46.50472" lon="5.32857">
        <ele>218.2</ele>
        <time>2021-12-17T12:12:48Z</time>
      </trkpt>
      <trkpt lat="46.50472" lon="5.32843">
        <ele>217.8</ele>
        <time>2021-12-17T12:12:49Z</time>
      </trkpt>
      <trkpt lat="46.50473" lon="5.32815">
        <ele>216.8</ele>
        <time>2021-12-17T12:12:51Z</time>
      </trkpt>
      <trkpt lat="46.50473" lon="5.32774">
        <ele>215.4</ele>
        <time>2021-12-17T12:12:54Z</time>
      </trkpt>
      <trkpt lat="46.50474" lon="5.32737">
        <ele>214.2</ele>
        <time>2021-12-17T12:12:57Z</time>
      </trkpt>
      <trkpt lat="46.50474" lon="5.32724">
        <ele>213.8</ele>
        <time>2021-12-17T12:12:58Z</time>
      </trkpt>
      <trkpt lat="46.50475" lon="5.32675">
        <ele>213.2</ele>
        <time>2021-12-17T12:13:02Z</time>
      </trkpt>
      <trkpt lat="46.50476" lon="5.32614">
        <ele>212.4</ele>
        <time>2021-12-17T12:13:07Z</time>
      </trkpt>
      <trkpt lat="46.50476" lon="5.32588">
        <ele>212</ele>
        <time>2021-12-17T12:13:09Z</time>
      </trkpt>
      <trkpt lat="46.50473" lon="5.32517">
        <ele>211</ele>
        <time>2021-12-17T12:13:15Z</time>
      </trkpt>
      <trkpt lat="46.50468" lon="5.32445">
        <ele>210</ele>
        <time>2021-12-17T12:13:21Z</time>
      </trkpt>
      <trkpt lat="46.50463" lon="5.32411">
        <ele>209.6</ele>
        <time>2021-12-17T12:13:24Z</time>
      </trkpt>
      <trkpt lat="46.50446" lon="5.32334">
        <ele>209.2</ele>
        <time>2021-12-17T12:13:31Z</time>
      </trkpt>
      <trkpt lat="46.50444" lon="5.32324">
        <ele>209</ele>
        <time>2021-12-17T12:13:32Z</time>
      </trkpt>
      <trkpt lat="46.50433" lon="5.32262">
        <ele>209</ele>
        <time>2021-12-17T12:13:38Z</time>
      </trkpt>
      <trkpt lat="46.50432" lon="5.32253">
        <ele>209</ele>
        <time>2021-12-17T12:13:39Z</time>
      </trkpt>
      <trkpt lat="46.50432" lon="5.32192">
        <ele>208.8</ele>
        <time>2021-12-17T12:13:45Z</time>
      </trkpt>
      <trkpt lat="46.50434" lon="5.32105">
        <ele>208</ele>
        <time>2021-12-17T12:13:53Z</time>
      </trkpt>
      <trkpt lat="46.50434" lon="5.32084">
        <ele>208</ele>
        <time>2021-12-17T12:13:55Z</time>
      </trkpt>
      <trkpt lat="46.50436" lon="5.31999">
        <ele>207</ele>
        <time>2021-12-17T12:14:03Z</time>
      </trkpt>
      <trkpt lat="46.50436" lon="5.31988">
        <ele>206.8</ele>
        <time>2021-12-17T12:14:04Z</time>
      </trkpt>
      <trkpt lat="46.50436" lon="5.31976">
        <ele>206.6</ele>
        <time>2021-12-17T12:14:05Z</time>
      </trkpt>
      <trkpt lat="46.50438" lon="5.31892">
        <ele>205.8</ele>
        <time>2021-12-17T12:14:13Z</time>
      </trkpt>
      <trkpt lat="46.50438" lon="5.31882">
        <ele>205.8</ele>
        <time>2021-12-17T12:14:14Z</time>
      </trkpt>
      <trkpt lat="46.50437" lon="5.31871">
        <ele>205.8</ele>
        <time>2021-12-17T12:14:15Z</time>
      </trkpt>
      <trkpt lat="46.50429" lon="5.31824">
        <ele>205.6</ele>
        <time>2021-12-17T12:14:20Z</time>
      </trkpt>
      <trkpt lat="46.50409" lon="5.31747">
        <ele>205.4</ele>
        <time>2021-12-17T12:14:28Z</time>
      </trkpt>
      <trkpt lat="46.50407" lon="5.3174">
        <ele>205.4</ele>
        <time>2021-12-17T12:14:29Z</time>
      </trkpt>
      <trkpt lat="46.50382" lon="5.31691">
        <ele>205.2</ele>
        <time>2021-12-17T12:14:35Z</time>
      </trkpt>
      <trkpt lat="46.50372" lon="5.31673">
        <ele>205.2</ele>
        <time>2021-12-17T12:14:37Z</time>
      </trkpt>
      <trkpt lat="46.50356" lon="5.31655">
        <ele>205</ele>
        <time>2021-12-17T12:14:40Z</time>
      </trkpt>
      <trkpt lat="46.50325" lon="5.3163">
        <ele>204.8</ele>
        <time>2021-12-17T12:14:45Z</time>
      </trkpt>
      <trkpt lat="46.50311" lon="5.3162">
        <ele>204.4</ele>
        <time>2021-12-17T12:14:47Z</time>
      </trkpt>
      <trkpt lat="46.50264" lon="5.3158">
        <ele>204.2</ele>
        <time>2021-12-17T12:14:55Z</time>
      </trkpt>
      <trkpt lat="46.50258" lon="5.31574">
        <ele>204.2</ele>
        <time>2021-12-17T12:14:56Z</time>
      </trkpt>
      <trkpt lat="46.50229" lon="5.31536">
        <ele>204.2</ele>
        <time>2021-12-17T12:15:02Z</time>
      </trkpt>
      <trkpt lat="46.50211" lon="5.31497">
        <ele>204.8</ele>
        <time>2021-12-17T12:15:08Z</time>
      </trkpt>
      <trkpt lat="46.50201" lon="5.31465">
        <ele>205.4</ele>
        <time>2021-12-17T12:15:13Z</time>
      </trkpt>
      <trkpt lat="46.50198" lon="5.3146">
        <ele>205.6</ele>
        <time>2021-12-17T12:15:14Z</time>
      </trkpt>
      <trkpt lat="46.50196" lon="5.31453">
        <ele>205.8</ele>
        <time>2021-12-17T12:15:15Z</time>
      </trkpt>
      <trkpt lat="46.50186" lon="5.31426">
        <ele>206.8</ele>
        <time>2021-12-17T12:15:20Z</time>
      </trkpt>
      <trkpt lat="46.50184" lon="5.3142">
        <ele>207.2</ele>
        <time>2021-12-17T12:15:21Z</time>
      </trkpt>
      <trkpt lat="46.50178" lon="5.31404">
        <ele>208</ele>
        <time>2021-12-17T12:15:24Z</time>
      </trkpt>
      <trkpt lat="46.50172" lon="5.31384">
        <ele>208.6</ele>
        <time>2021-12-17T12:15:28Z</time>
      </trkpt>
      <trkpt lat="46.50168" lon="5.31373">
        <ele>209</ele>
        <time>2021-12-17T12:15:30Z</time>
      </trkpt>
      <trkpt lat="46.50158" lon="5.31345">
        <ele>210.4</ele>
        <time>2021-12-17T12:15:35Z</time>
      </trkpt>
      <trkpt lat="46.50155" lon="5.31339">
        <ele>210.4</ele>
        <time>2021-12-17T12:15:36Z</time>
      </trkpt>
      <trkpt lat="46.50136" lon="5.31279">
        <ele>211.4</ele>
        <time>2021-12-17T12:15:45Z</time>
      </trkpt>
      <trkpt lat="46.50116" lon="5.31216">
        <ele>211.4</ele>
        <time>2021-12-17T12:15:53Z</time>
      </trkpt>
      <trkpt lat="46.50091" lon="5.31143">
        <ele>210.6</ele>
        <time>2021-12-17T12:16:01Z</time>
      </trkpt>
      <trkpt lat="46.50085" lon="5.31126">
        <ele>210.2</ele>
        <time>2021-12-17T12:16:03Z</time>
      </trkpt>
      <trkpt lat="46.50068" lon="5.31077">
        <ele>210</ele>
        <time>2021-12-17T12:16:09Z</time>
      </trkpt>
      <trkpt lat="46.50054" lon="5.31037">
        <ele>210.6</ele>
        <time>2021-12-17T12:16:15Z</time>
      </trkpt>
      <trkpt lat="46.50047" lon="5.31015">
        <ele>211.6</ele>
        <time>2021-12-17T12:16:19Z</time>
      </trkpt>
      <trkpt lat="46.50045" lon="5.31006">
        <ele>211.8</ele>
        <time>2021-12-17T12:16:21Z</time>
      </trkpt>
      <trkpt lat="46.50035" lon="5.30982">
        <ele>212.8</ele>
        <time>2021-12-17T12:16:26Z</time>
      </trkpt>
      <trkpt lat="46.50031" lon="5.3097">
        <ele>213.4</ele>
        <time>2021-12-17T12:16:28Z</time>
      </trkpt>
      <trkpt lat="46.50025" lon="5.30956">
        <ele>214.2</ele>
        <time>2021-12-17T12:16:31Z</time>
      </trkpt>
      <trkpt lat="46.50017" lon="5.30935">
        <ele>215.2</ele>
        <time>2021-12-17T12:16:35Z</time>
      </trkpt>
      <trkpt lat="46.50013" lon="5.30925">
        <ele>215.4</ele>
        <time>2021-12-17T12:16:37Z</time>
      </trkpt>
      <trkpt lat="46.50007" lon="5.30906">
        <ele>216.2</ele>
        <time>2021-12-17T12:16:41Z</time>
      </trkpt>
      <trkpt lat="46.5" lon="5.30885">
        <ele>217.2</ele>
        <time>2021-12-17T12:16:45Z</time>
      </trkpt>
      <trkpt lat="46.49998" lon="5.30879">
        <ele>217.6</ele>
        <time>2021-12-17T12:16:46Z</time>
      </trkpt>
      <trkpt lat="46.49989" lon="5.30856">
        <ele>218.6</ele>
        <time>2021-12-17T12:16:51Z</time>
      </trkpt>
      <trkpt lat="46.49985" lon="5.30845">
        <ele>219</ele>
        <time>2021-12-17T12:16:53Z</time>
      </trkpt>
      <trkpt lat="46.49978" lon="5.30823">
        <ele>219.8</ele>
        <time>2021-12-17T12:16:57Z</time>
      </trkpt>
      <trkpt lat="46.49969" lon="5.30792">
        <ele>220.8</ele>
        <time>2021-12-17T12:17:02Z</time>
      </trkpt>
      <trkpt lat="46.49964" lon="5.30767">
        <ele>221.4</ele>
        <time>2021-12-17T12:17:06Z</time>
      </trkpt>
      <trkpt lat="46.49961" lon="5.30748">
        <ele>221.8</ele>
        <time>2021-12-17T12:17:09Z</time>
      </trkpt>
      <trkpt lat="46.49959" lon="5.30741">
        <ele>221.8</ele>
        <time>2021-12-17T12:17:10Z</time>
      </trkpt>
      <trkpt lat="46.49958" lon="5.30734">
        <ele>222</ele>
        <time>2021-12-17T12:17:11Z</time>
      </trkpt>
      <trkpt lat="46.49951" lon="5.30701">
        <ele>222.2</ele>
        <time>2021-12-17T12:17:16Z</time>
      </trkpt>
      <trkpt lat="46.49946" lon="5.30667">
        <ele>222.2</ele>
        <time>2021-12-17T12:17:20Z</time>
      </trkpt>
      <trkpt lat="46.49944" lon="5.3066">
        <ele>222.2</ele>
        <time>2021-12-17T12:17:21Z</time>
      </trkpt>
      <trkpt lat="46.49934" lon="5.30603">
        <ele>220.8</ele>
        <time>2021-12-17T12:17:27Z</time>
      </trkpt>
      <trkpt lat="46.49933" lon="5.30591">
        <ele>220.6</ele>
        <time>2021-12-17T12:17:28Z</time>
      </trkpt>
      <trkpt lat="46.49932" lon="5.30581">
        <ele>220.4</ele>
        <time>2021-12-17T12:17:29Z</time>
      </trkpt>
      <trkpt lat="46.49933" lon="5.30548">
        <ele>219.6</ele>
        <time>2021-12-17T12:17:32Z</time>
      </trkpt>
      <trkpt lat="46.49935" lon="5.30538">
        <ele>219.4</ele>
        <time>2021-12-17T12:17:33Z</time>
      </trkpt>
      <trkpt lat="46.49943" lon="5.30506">
        <ele>218.6</ele>
        <time>2021-12-17T12:17:36Z</time>
      </trkpt>
      <trkpt lat="46.49946" lon="5.30496">
        <ele>218.6</ele>
        <time>2021-12-17T12:17:37Z</time>
      </trkpt>
      <trkpt lat="46.4996" lon="5.30469">
        <ele>217.4</ele>
        <time>2021-12-17T12:17:40Z</time>
      </trkpt>
      <trkpt lat="46.49972" lon="5.30452">
        <ele>217</ele>
        <time>2021-12-17T12:17:42Z</time>
      </trkpt>
      <trkpt lat="46.49985" lon="5.30438">
        <ele>216.6</ele>
        <time>2021-12-17T12:17:44Z</time>
      </trkpt>
      <trkpt lat="46.49992" lon="5.30432">
        <ele>216.2</ele>
        <time>2021-12-17T12:17:45Z</time>
      </trkpt>
      <trkpt lat="46.50007" lon="5.30421">
        <ele>215.8</ele>
        <time>2021-12-17T12:17:47Z</time>
      </trkpt>
      <trkpt lat="46.50022" lon="5.3041">
        <ele>215.2</ele>
        <time>2021-12-17T12:17:49Z</time>
      </trkpt>
      <trkpt lat="46.50048" lon="5.30384">
        <ele>214.4</ele>
        <time>2021-12-17T12:17:53Z</time>
      </trkpt>
      <trkpt lat="46.50054" lon="5.30377">
        <ele>214.2</ele>
        <time>2021-12-17T12:17:54Z</time>
      </trkpt>
      <trkpt lat="46.50071" lon="5.30343">
        <ele>214</ele>
        <time>2021-12-17T12:17:58Z</time>
      </trkpt>
      <trkpt lat="46.50083" lon="5.30304">
        <ele>214.2</ele>
        <time>2021-12-17T12:18:03Z</time>
      </trkpt>
      <trkpt lat="46.50084" lon="5.30296">
        <ele>214.4</ele>
        <time>2021-12-17T12:18:04Z</time>
      </trkpt>
      <trkpt lat="46.50086" lon="5.30263">
        <ele>214.8</ele>
        <time>2021-12-17T12:18:08Z</time>
      </trkpt>
      <trkpt lat="46.50087" lon="5.30238">
        <ele>215</ele>
        <time>2021-12-17T12:18:11Z</time>
      </trkpt>
      <trkpt lat="46.50086" lon="5.30231">
        <ele>215.2</ele>
        <time>2021-12-17T12:18:12Z</time>
      </trkpt>
      <trkpt lat="46.50087" lon="5.30215">
        <ele>215.6</ele>
        <time>2021-12-17T12:18:14Z</time>
      </trkpt>
      <trkpt lat="46.50086" lon="5.30206">
        <ele>215.8</ele>
        <time>2021-12-17T12:18:15Z</time>
      </trkpt>
      <trkpt lat="46.50085" lon="5.30191">
        <ele>216</ele>
        <time>2021-12-17T12:18:17Z</time>
      </trkpt>
      <trkpt lat="46.50086" lon="5.30183">
        <ele>216</ele>
        <time>2021-12-17T12:18:18Z</time>
      </trkpt>
      <trkpt lat="46.50086" lon="5.30173">
        <ele>216.2</ele>
        <time>2021-12-17T12:18:19Z</time>
      </trkpt>
      <trkpt lat="46.50088" lon="5.30111">
        <ele>216.8</ele>
        <time>2021-12-17T12:18:26Z</time>
      </trkpt>
      <trkpt lat="46.50088" lon="5.30076">
        <ele>217.2</ele>
        <time>2021-12-17T12:18:30Z</time>
      </trkpt>
      <trkpt lat="46.50088" lon="5.30042">
        <ele>217.8</ele>
        <time>2021-12-17T12:18:34Z</time>
      </trkpt>
      <trkpt lat="46.50083" lon="5.29983">
        <ele>218.2</ele>
        <time>2021-12-17T12:18:41Z</time>
      </trkpt>
      <trkpt lat="46.50081" lon="5.29974">
        <ele>218.2</ele>
        <time>2021-12-17T12:18:42Z</time>
      </trkpt>
      <trkpt lat="46.50066" lon="5.29929">
        <ele>218.2</ele>
        <time>2021-12-17T12:18:48Z</time>
      </trkpt>
      <trkpt lat="46.50039" lon="5.29887">
        <ele>217.4</ele>
        <time>2021-12-17T12:18:54Z</time>
      </trkpt>
      <trkpt lat="46.50018" lon="5.29863">
        <ele>217.2</ele>
        <time>2021-12-17T12:18:58Z</time>
      </trkpt>
      <trkpt lat="46.50013" lon="5.29858">
        <ele>217.2</ele>
        <time>2021-12-17T12:18:59Z</time>
      </trkpt>
      <trkpt lat="46.50007" lon="5.29854">
        <ele>217</ele>
        <time>2021-12-17T12:19:00Z</time>
      </trkpt>
      <trkpt lat="46.50001" lon="5.29851">
        <ele>217</ele>
        <time>2021-12-17T12:19:01Z</time>
      </trkpt>
      <trkpt lat="46.49988" lon="5.29848">
        <ele>216.8</ele>
        <time>2021-12-17T12:19:03Z</time>
      </trkpt>
      <trkpt lat="46.49982" lon="5.29848">
        <ele>216.6</ele>
        <time>2021-12-17T12:19:04Z</time>
      </trkpt>
      <trkpt lat="46.49942" lon="5.29843">
        <ele>216.4</ele>
        <time>2021-12-17T12:19:11Z</time>
      </trkpt>
      <trkpt lat="46.49903" lon="5.29829">
        <ele>217.2</ele>
        <time>2021-12-17T12:19:18Z</time>
      </trkpt>
      <trkpt lat="46.49863" lon="5.29812">
        <ele>218</ele>
        <time>2021-12-17T12:19:26Z</time>
      </trkpt>
      <trkpt lat="46.49836" lon="5.29804">
        <ele>218.2</ele>
        <time>2021-12-17T12:19:31Z</time>
      </trkpt>
      <trkpt lat="46.4983" lon="5.29802">
        <ele>218.4</ele>
        <time>2021-12-17T12:19:32Z</time>
      </trkpt>
      <trkpt lat="46.49821" lon="5.29797">
        <ele>218.6</ele>
        <time>2021-12-17T12:19:34Z</time>
      </trkpt>
      <trkpt lat="46.49783" lon="5.29786">
        <ele>219.2</ele>
        <time>2021-12-17T12:19:41Z</time>
      </trkpt>
      <trkpt lat="46.49772" lon="5.29785">
        <ele>219.4</ele>
        <time>2021-12-17T12:19:43Z</time>
      </trkpt>
      <trkpt lat="46.49754" lon="5.29781">
        <ele>219.4</ele>
        <time>2021-12-17T12:19:46Z</time>
      </trkpt>
      <trkpt lat="46.49749" lon="5.29777">
        <ele>219.2</ele>
        <time>2021-12-17T12:19:47Z</time>
      </trkpt>
      <trkpt lat="46.49745" lon="5.2977">
        <ele>219.2</ele>
        <time>2021-12-17T12:19:48Z</time>
      </trkpt>
      <trkpt lat="46.49736" lon="5.29748">
        <ele>219.4</ele>
        <time>2021-12-17T12:19:51Z</time>
      </trkpt>
      <trkpt lat="46.49725" lon="5.29725">
        <ele>219.2</ele>
        <time>2021-12-17T12:19:54Z</time>
      </trkpt>
      <trkpt lat="46.49707" lon="5.29697">
        <ele>219</ele>
        <time>2021-12-17T12:19:58Z</time>
      </trkpt>
      <trkpt lat="46.49673" lon="5.29636">
        <ele>219</ele>
        <time>2021-12-17T12:20:07Z</time>
      </trkpt>
      <trkpt lat="46.49646" lon="5.29588">
        <ele>219.6</ele>
        <time>2021-12-17T12:20:15Z</time>
      </trkpt>
      <trkpt lat="46.49614" lon="5.29529">
        <ele>220.2</ele>
        <time>2021-12-17T12:20:24Z</time>
      </trkpt>
      <trkpt lat="46.49607" lon="5.29516">
        <ele>220.2</ele>
        <time>2021-12-17T12:20:26Z</time>
      </trkpt>
      <trkpt lat="46.4957" lon="5.2945">
        <ele>220</ele>
        <time>2021-12-17T12:20:36Z</time>
      </trkpt>
      <trkpt lat="46.49533" lon="5.29384">
        <ele>219.4</ele>
        <time>2021-12-17T12:20:45Z</time>
      </trkpt>
      <trkpt lat="46.49525" lon="5.29365">
        <ele>218.8</ele>
        <time>2021-12-17T12:20:47Z</time>
      </trkpt>
      <trkpt lat="46.49518" lon="5.29343">
        <ele>218.6</ele>
        <time>2021-12-17T12:20:49Z</time>
      </trkpt>
      <trkpt lat="46.49513" lon="5.29306">
        <ele>218</ele>
        <time>2021-12-17T12:20:52Z</time>
      </trkpt>
      <trkpt lat="46.49512" lon="5.29292">
        <ele>217.8</ele>
        <time>2021-12-17T12:20:53Z</time>
      </trkpt>
      <trkpt lat="46.49513" lon="5.29278">
        <ele>217.4</ele>
        <time>2021-12-17T12:20:54Z</time>
      </trkpt>
      <trkpt lat="46.49517" lon="5.29251">
        <ele>216.6</ele>
        <time>2021-12-17T12:20:56Z</time>
      </trkpt>
      <trkpt lat="46.4952" lon="5.29237">
        <ele>216.4</ele>
        <time>2021-12-17T12:20:57Z</time>
      </trkpt>
      <trkpt lat="46.49525" lon="5.29224">
        <ele>216</ele>
        <time>2021-12-17T12:20:58Z</time>
      </trkpt>
      <trkpt lat="46.4953" lon="5.29211">
        <ele>214.8</ele>
        <time>2021-12-17T12:20:59Z</time>
      </trkpt>
      <trkpt lat="46.49542" lon="5.29187">
        <ele>213.4</ele>
        <time>2021-12-17T12:21:01Z</time>
      </trkpt>
      <trkpt lat="46.49559" lon="5.2915">
        <ele>212.2</ele>
        <time>2021-12-17T12:21:04Z</time>
      </trkpt>
      <trkpt lat="46.49563" lon="5.29136">
        <ele>211.4</ele>
        <time>2021-12-17T12:21:05Z</time>
      </trkpt>
      <trkpt lat="46.49566" lon="5.29122">
        <ele>210.6</ele>
        <time>2021-12-17T12:21:06Z</time>
      </trkpt>
      <trkpt lat="46.49572" lon="5.29093">
        <ele>208.8</ele>
        <time>2021-12-17T12:21:08Z</time>
      </trkpt>
      <trkpt lat="46.49577" lon="5.29063">
        <ele>207.6</ele>
        <time>2021-12-17T12:21:10Z</time>
      </trkpt>
      <trkpt lat="46.4958" lon="5.29049">
        <ele>207.4</ele>
        <time>2021-12-17T12:21:11Z</time>
      </trkpt>
      <trkpt lat="46.49583" lon="5.29034">
        <ele>206.6</ele>
        <time>2021-12-17T12:21:12Z</time>
      </trkpt>
      <trkpt lat="46.4959" lon="5.28989">
        <ele>205</ele>
        <time>2021-12-17T12:21:15Z</time>
      </trkpt>
      <trkpt lat="46.49598" lon="5.28945">
        <ele>203.6</ele>
        <time>2021-12-17T12:21:18Z</time>
      </trkpt>
      <trkpt lat="46.49603" lon="5.28916">
        <ele>202.4</ele>
        <time>2021-12-17T12:21:20Z</time>
      </trkpt>
      <trkpt lat="46.49606" lon="5.28902">
        <ele>201.8</ele>
        <time>2021-12-17T12:21:21Z</time>
      </trkpt>
      <trkpt lat="46.49608" lon="5.28889">
        <ele>200.2</ele>
        <time>2021-12-17T12:21:22Z</time>
      </trkpt>
      <trkpt lat="46.49617" lon="5.28838">
        <ele>199</ele>
        <time>2021-12-17T12:21:26Z</time>
      </trkpt>
      <trkpt lat="46.49619" lon="5.28826">
        <ele>198.4</ele>
        <time>2021-12-17T12:21:27Z</time>
      </trkpt>
      <trkpt lat="46.49624" lon="5.28804">
        <ele>197.8</ele>
        <time>2021-12-17T12:21:29Z</time>
      </trkpt>
      <trkpt lat="46.49633" lon="5.2875">
        <ele>197.2</ele>
        <time>2021-12-17T12:21:34Z</time>
      </trkpt>
      <trkpt lat="46.49647" lon="5.2869">
        <ele>196.8</ele>
        <time>2021-12-17T12:21:40Z</time>
      </trkpt>
      <trkpt lat="46.49668" lon="5.28609">
        <ele>197</ele>
        <time>2021-12-17T12:21:49Z</time>
      </trkpt>
      <trkpt lat="46.49678" lon="5.2856">
        <ele>197.6</ele>
        <time>2021-12-17T12:21:55Z</time>
      </trkpt>
      <trkpt lat="46.49692" lon="5.28484">
        <ele>198.2</ele>
        <time>2021-12-17T12:22:04Z</time>
      </trkpt>
      <trkpt lat="46.49694" lon="5.28474">
        <ele>198.2</ele>
        <time>2021-12-17T12:22:05Z</time>
      </trkpt>
      <trkpt lat="46.49705" lon="5.28391">
        <ele>197.2</ele>
        <time>2021-12-17T12:22:14Z</time>
      </trkpt>
      <trkpt lat="46.49725" lon="5.28316">
        <ele>197.4</ele>
        <time>2021-12-17T12:22:23Z</time>
      </trkpt>
      <trkpt lat="46.49743" lon="5.28243">
        <ele>197</ele>
        <time>2021-12-17T12:22:32Z</time>
      </trkpt>
      <trkpt lat="46.49755" lon="5.28165">
        <ele>197</ele>
        <time>2021-12-17T12:22:41Z</time>
      </trkpt>
      <trkpt lat="46.49758" lon="5.28148">
        <ele>197</ele>
        <time>2021-12-17T12:22:43Z</time>
      </trkpt>
      <trkpt lat="46.49768" lon="5.28068">
        <ele>197</ele>
        <time>2021-12-17T12:22:52Z</time>
      </trkpt>
      <trkpt lat="46.49768" lon="5.2806">
        <ele>197</ele>
        <time>2021-12-17T12:22:53Z</time>
      </trkpt>
      <trkpt lat="46.49766" lon="5.27973">
        <ele>197.4</ele>
        <time>2021-12-17T12:23:03Z</time>
      </trkpt>
      <trkpt lat="46.49765" lon="5.27909">
        <ele>198.4</ele>
        <time>2021-12-17T12:23:11Z</time>
      </trkpt>
      <trkpt lat="46.49764" lon="5.27861">
        <ele>198.8</ele>
        <time>2021-12-17T12:23:17Z</time>
      </trkpt>
      <trkpt lat="46.4976" lon="5.2783">
        <ele>199</ele>
        <time>2021-12-17T12:23:21Z</time>
      </trkpt>
      <trkpt lat="46.4975" lon="5.27769">
        <ele>199.6</ele>
        <time>2021-12-17T12:23:29Z</time>
      </trkpt>
      <trkpt lat="46.49744" lon="5.2774">
        <ele>200</ele>
        <time>2021-12-17T12:23:33Z</time>
      </trkpt>
      <trkpt lat="46.49739" lon="5.27714">
        <ele>200.6</ele>
        <time>2021-12-17T12:23:37Z</time>
      </trkpt>
      <trkpt lat="46.49737" lon="5.27702">
        <ele>201</ele>
        <time>2021-12-17T12:23:39Z</time>
      </trkpt>
      <trkpt lat="46.49732" lon="5.27671">
        <ele>201.8</ele>
        <time>2021-12-17T12:23:44Z</time>
      </trkpt>
      <trkpt lat="46.49731" lon="5.2766">
        <ele>202</ele>
        <time>2021-12-17T12:23:46Z</time>
      </trkpt>
      <trkpt lat="46.49725" lon="5.2762">
        <ele>203</ele>
        <time>2021-12-17T12:23:53Z</time>
      </trkpt>
      <trkpt lat="46.49725" lon="5.27614">
        <ele>203.2</ele>
        <time>2021-12-17T12:23:54Z</time>
      </trkpt>
      <trkpt lat="46.49726" lon="5.27581">
        <ele>204.4</ele>
        <time>2021-12-17T12:24:00Z</time>
      </trkpt>
      <trkpt lat="46.49727" lon="5.27554">
        <ele>205.4</ele>
        <time>2021-12-17T12:24:05Z</time>
      </trkpt>
      <trkpt lat="46.49728" lon="5.27528">
        <ele>206.2</ele>
        <time>2021-12-17T12:24:10Z</time>
      </trkpt>
      <trkpt lat="46.49728" lon="5.27518">
        <ele>206.4</ele>
        <time>2021-12-17T12:24:12Z</time>
      </trkpt>
      <trkpt lat="46.49729" lon="5.27491">
        <ele>207.6</ele>
        <time>2021-12-17T12:24:17Z</time>
      </trkpt>
      <trkpt lat="46.49729" lon="5.27475">
        <ele>208</ele>
        <time>2021-12-17T12:24:20Z</time>
      </trkpt>
      <trkpt lat="46.49728" lon="5.27466">
        <ele>208.6</ele>
        <time>2021-12-17T12:24:22Z</time>
      </trkpt>
      <trkpt lat="46.49724" lon="5.27444">
        <ele>209.4</ele>
        <time>2021-12-17T12:24:26Z</time>
      </trkpt>
      <trkpt lat="46.49718" lon="5.27419">
        <ele>210.6</ele>
        <time>2021-12-17T12:24:31Z</time>
      </trkpt>
      <trkpt lat="46.49711" lon="5.274">
        <ele>211.8</ele>
        <time>2021-12-17T12:24:35Z</time>
      </trkpt>
      <trkpt lat="46.4971" lon="5.27396">
        <ele>212</ele>
        <time>2021-12-17T12:24:36Z</time>
      </trkpt>
      <trkpt lat="46.49701" lon="5.27375">
        <ele>212.8</ele>
        <time>2021-12-17T12:24:41Z</time>
      </trkpt>
      <trkpt lat="46.49693" lon="5.27359">
        <ele>213.8</ele>
        <time>2021-12-17T12:24:45Z</time>
      </trkpt>
      <trkpt lat="46.49692" lon="5.27355">
        <ele>214</ele>
        <time>2021-12-17T12:24:46Z</time>
      </trkpt>
      <trkpt lat="46.4968" lon="5.27332">
        <ele>215</ele>
        <time>2021-12-17T12:24:52Z</time>
      </trkpt>
      <trkpt lat="46.49678" lon="5.27328">
        <ele>215.4</ele>
        <time>2021-12-17T12:24:53Z</time>
      </trkpt>
      <trkpt lat="46.49667" lon="5.27304">
        <ele>216.4</ele>
        <time>2021-12-17T12:24:59Z</time>
      </trkpt>
      <trkpt lat="46.49664" lon="5.27299">
        <ele>216.6</ele>
        <time>2021-12-17T12:25:00Z</time>
      </trkpt>
      <trkpt lat="46.49654" lon="5.27273">
        <ele>217.4</ele>
        <time>2021-12-17T12:25:06Z</time>
      </trkpt>
      <trkpt lat="46.4965" lon="5.2726">
        <ele>218</ele>
        <time>2021-12-17T12:25:09Z</time>
      </trkpt>
      <trkpt lat="46.49645" lon="5.27244">
        <ele>218.8</ele>
        <time>2021-12-17T12:25:13Z</time>
      </trkpt>
      <trkpt lat="46.49641" lon="5.27221">
        <ele>219.6</ele>
        <time>2021-12-17T12:25:18Z</time>
      </trkpt>
      <trkpt lat="46.49638" lon="5.27185">
        <ele>220.6</ele>
        <time>2021-12-17T12:25:25Z</time>
      </trkpt>
      <trkpt lat="46.49638" lon="5.27181">
        <ele>220.8</ele>
        <time>2021-12-17T12:25:26Z</time>
      </trkpt>
      <trkpt lat="46.4964" lon="5.27151">
        <ele>221.8</ele>
        <time>2021-12-17T12:25:32Z</time>
      </trkpt>
      <trkpt lat="46.49641" lon="5.27145">
        <ele>221.8</ele>
        <time>2021-12-17T12:25:33Z</time>
      </trkpt>
      <trkpt lat="46.49647" lon="5.27115">
        <ele>222.8</ele>
        <time>2021-12-17T12:25:39Z</time>
      </trkpt>
      <trkpt lat="46.49648" lon="5.27111">
        <ele>222.8</ele>
        <time>2021-12-17T12:25:40Z</time>
      </trkpt>
      <trkpt lat="46.49647" lon="5.27104">
        <ele>223</ele>
        <time>2021-12-17T12:25:41Z</time>
      </trkpt>
      <trkpt lat="46.49644" lon="5.271">
        <ele>223</ele>
        <time>2021-12-17T12:25:42Z</time>
      </trkpt>
      <trkpt lat="46.49641" lon="5.27098">
        <ele>223.2</ele>
        <time>2021-12-17T12:25:43Z</time>
      </trkpt>
      <trkpt lat="46.49633" lon="5.27098">
        <ele>223.4</ele>
        <time>2021-12-17T12:25:45Z</time>
      </trkpt>
      <trkpt lat="46.49617" lon="5.27101">
        <ele>223.6</ele>
        <time>2021-12-17T12:25:48Z</time>
      </trkpt>
      <trkpt lat="46.49607" lon="5.27102">
        <ele>223.6</ele>
        <time>2021-12-17T12:25:50Z</time>
      </trkpt>
      <trkpt lat="46.49573" lon="5.2711">
        <ele>223.6</ele>
        <time>2021-12-17T12:25:56Z</time>
      </trkpt>
      <trkpt lat="46.49549" lon="5.27129">
        <ele>223.4</ele>
        <time>2021-12-17T12:26:01Z</time>
      </trkpt>
      <trkpt lat="46.49545" lon="5.27135">
        <ele>223.4</ele>
        <time>2021-12-17T12:26:02Z</time>
      </trkpt>
      <trkpt lat="46.49511" lon="5.27176">
        <ele>223.2</ele>
        <time>2021-12-17T12:26:10Z</time>
      </trkpt>
      <trkpt lat="46.49481" lon="5.27202">
        <ele>223.2</ele>
        <time>2021-12-17T12:26:16Z</time>
      </trkpt>
      <trkpt lat="46.49475" lon="5.27204">
        <ele>223.2</ele>
        <time>2021-12-17T12:26:17Z</time>
      </trkpt>
      <trkpt lat="46.49429" lon="5.27219">
        <ele>223.2</ele>
        <time>2021-12-17T12:26:25Z</time>
      </trkpt>
      <trkpt lat="46.4938" lon="5.27232">
        <ele>223.2</ele>
        <time>2021-12-17T12:26:33Z</time>
      </trkpt>
      <trkpt lat="46.49332" lon="5.27246">
        <ele>222.8</ele>
        <time>2021-12-17T12:26:41Z</time>
      </trkpt>
      <trkpt lat="46.49274" lon="5.27257">
        <ele>222.4</ele>
        <time>2021-12-17T12:26:50Z</time>
      </trkpt>
      <trkpt lat="46.4924" lon="5.27251">
        <ele>222.2</ele>
        <time>2021-12-17T12:26:55Z</time>
      </trkpt>
      <trkpt lat="46.49201" lon="5.27225">
        <ele>222.4</ele>
        <time>2021-12-17T12:27:02Z</time>
      </trkpt>
      <trkpt lat="46.49154" lon="5.27189">
        <ele>223</ele>
        <time>2021-12-17T12:27:11Z</time>
      </trkpt>
      <trkpt lat="46.49112" lon="5.27157">
        <ele>223.4</ele>
        <time>2021-12-17T12:27:19Z</time>
      </trkpt>
      <trkpt lat="46.49079" lon="5.27139">
        <ele>223.8</ele>
        <time>2021-12-17T12:27:25Z</time>
      </trkpt>
      <trkpt lat="46.49074" lon="5.27137">
        <ele>223.8</ele>
        <time>2021-12-17T12:27:26Z</time>
      </trkpt>
      <trkpt lat="46.49044" lon="5.27133">
        <ele>224</ele>
        <time>2021-12-17T12:27:31Z</time>
      </trkpt>
      <trkpt lat="46.48993" lon="5.27131">
        <ele>223.8</ele>
        <time>2021-12-17T12:27:39Z</time>
      </trkpt>
      <trkpt lat="46.48937" lon="5.27129">
        <ele>223.8</ele>
        <time>2021-12-17T12:27:48Z</time>
      </trkpt>
      <trkpt lat="46.48906" lon="5.27128">
        <ele>224</ele>
        <time>2021-12-17T12:27:53Z</time>
      </trkpt>
      <trkpt lat="46.48857" lon="5.27128">
        <ele>224</ele>
        <time>2021-12-17T12:28:01Z</time>
      </trkpt>
      <trkpt lat="46.48846" lon="5.27135">
        <ele>224</ele>
        <time>2021-12-17T12:28:03Z</time>
      </trkpt>
      <trkpt lat="46.48836" lon="5.27146">
        <ele>224</ele>
        <time>2021-12-17T12:28:05Z</time>
      </trkpt>
      <trkpt lat="46.4883" lon="5.27162">
        <ele>224</ele>
        <time>2021-12-17T12:28:07Z</time>
      </trkpt>
      <trkpt lat="46.48829" lon="5.27169">
        <ele>224</ele>
        <time>2021-12-17T12:28:08Z</time>
      </trkpt>
      <trkpt lat="46.48827" lon="5.2718">
        <ele>224</ele>
        <time>2021-12-17T12:28:09Z</time>
      </trkpt>
      <trkpt lat="46.48829" lon="5.27199">
        <ele>224</ele>
        <time>2021-12-17T12:28:11Z</time>
      </trkpt>
      <trkpt lat="46.48831" lon="5.27239">
        <ele>224</ele>
        <time>2021-12-17T12:28:15Z</time>
      </trkpt>
      <trkpt lat="46.48829" lon="5.27249">
        <ele>223.8</ele>
        <time>2021-12-17T12:28:16Z</time>
      </trkpt>
      <trkpt lat="46.48827" lon="5.27259">
        <ele>223.8</ele>
        <time>2021-12-17T12:28:17Z</time>
      </trkpt>
      <trkpt lat="46.48819" lon="5.27278">
        <ele>223.2</ele>
        <time>2021-12-17T12:28:19Z</time>
      </trkpt>
      <trkpt lat="46.48814" lon="5.27287">
        <ele>222.8</ele>
        <time>2021-12-17T12:28:20Z</time>
      </trkpt>
      <trkpt lat="46.48794" lon="5.27324">
        <ele>221.8</ele>
        <time>2021-12-17T12:28:24Z</time>
      </trkpt>
      <trkpt lat="46.4879" lon="5.27335">
        <ele>221.4</ele>
        <time>2021-12-17T12:28:25Z</time>
      </trkpt>
      <trkpt lat="46.48786" lon="5.27346">
        <ele>221.2</ele>
        <time>2021-12-17T12:28:26Z</time>
      </trkpt>
      <trkpt lat="46.48782" lon="5.27369">
        <ele>220.6</ele>
        <time>2021-12-17T12:28:28Z</time>
      </trkpt>
      <trkpt lat="46.48779" lon="5.27392">
        <ele>220.2</ele>
        <time>2021-12-17T12:28:30Z</time>
      </trkpt>
      <trkpt lat="46.48775" lon="5.27425">
        <ele>219</ele>
        <time>2021-12-17T12:28:33Z</time>
      </trkpt>
      <trkpt lat="46.48773" lon="5.27456">
        <ele>218.6</ele>
        <time>2021-12-17T12:28:36Z</time>
      </trkpt>
      <trkpt lat="46.48766" lon="5.27498">
        <ele>218.2</ele>
        <time>2021-12-17T12:28:40Z</time>
      </trkpt>
      <trkpt lat="46.48764" lon="5.27507">
        <ele>218</ele>
        <time>2021-12-17T12:28:41Z</time>
      </trkpt>
      <trkpt lat="46.4876" lon="5.27518">
        <ele>217.8</ele>
        <time>2021-12-17T12:28:42Z</time>
      </trkpt>
      <trkpt lat="46.48752" lon="5.27538">
        <ele>217.4</ele>
        <time>2021-12-17T12:28:44Z</time>
      </trkpt>
      <trkpt lat="46.48741" lon="5.27556">
        <ele>217</ele>
        <time>2021-12-17T12:28:46Z</time>
      </trkpt>
      <trkpt lat="46.48733" lon="5.27566">
        <ele>216.6</ele>
        <time>2021-12-17T12:28:47Z</time>
      </trkpt>
      <trkpt lat="46.48708" lon="5.2759">
        <ele>214.6</ele>
        <time>2021-12-17T12:28:50Z</time>
      </trkpt>
      <trkpt lat="46.48689" lon="5.27601">
        <ele>213.4</ele>
        <time>2021-12-17T12:28:52Z</time>
      </trkpt>
      <trkpt lat="46.4867" lon="5.27609">
        <ele>212.2</ele>
        <time>2021-12-17T12:28:54Z</time>
      </trkpt>
      <trkpt lat="46.48635" lon="5.27623">
        <ele>210.2</ele>
        <time>2021-12-17T12:28:57Z</time>
      </trkpt>
      <trkpt lat="46.48612" lon="5.27631">
        <ele>209</ele>
        <time>2021-12-17T12:28:59Z</time>
      </trkpt>
      <trkpt lat="46.48588" lon="5.2764">
        <ele>207.2</ele>
        <time>2021-12-17T12:29:01Z</time>
      </trkpt>
      <trkpt lat="46.48567" lon="5.27648">
        <ele>205.6</ele>
        <time>2021-12-17T12:29:03Z</time>
      </trkpt>
      <trkpt lat="46.4854" lon="5.27657">
        <ele>204.2</ele>
        <time>2021-12-17T12:29:05Z</time>
      </trkpt>
      <trkpt lat="46.48527" lon="5.27659">
        <ele>202.8</ele>
        <time>2021-12-17T12:29:06Z</time>
      </trkpt>
      <trkpt lat="46.48516" lon="5.2766">
        <ele>202.2</ele>
        <time>2021-12-17T12:29:07Z</time>
      </trkpt>
      <trkpt lat="46.48504" lon="5.27661">
        <ele>201.2</ele>
        <time>2021-12-17T12:29:08Z</time>
      </trkpt>
      <trkpt lat="46.48483" lon="5.2766">
        <ele>199.8</ele>
        <time>2021-12-17T12:29:10Z</time>
      </trkpt>
      <trkpt lat="46.48473" lon="5.27659">
        <ele>199.6</ele>
        <time>2021-12-17T12:29:11Z</time>
      </trkpt>
      <trkpt lat="46.48464" lon="5.27657">
        <ele>199.2</ele>
        <time>2021-12-17T12:29:12Z</time>
      </trkpt>
      <trkpt lat="46.48447" lon="5.27647">
        <ele>198.8</ele>
        <time>2021-12-17T12:29:14Z</time>
      </trkpt>
      <trkpt lat="46.48424" lon="5.27617">
        <ele>198.4</ele>
        <time>2021-12-17T12:29:18Z</time>
      </trkpt>
      <trkpt lat="46.48411" lon="5.27603">
        <ele>198.2</ele>
        <time>2021-12-17T12:29:20Z</time>
      </trkpt>
      <trkpt lat="46.48398" lon="5.27597">
        <ele>198.2</ele>
        <time>2021-12-17T12:29:22Z</time>
      </trkpt>
      <trkpt lat="46.48367" lon="5.27584">
        <ele>198.2</ele>
        <time>2021-12-17T12:29:26Z</time>
      </trkpt>
      <trkpt lat="46.48361" lon="5.27579">
        <ele>198.2</ele>
        <time>2021-12-17T12:29:27Z</time>
      </trkpt>
      <trkpt lat="46.48317" lon="5.27538">
        <ele>198.2</ele>
        <time>2021-12-17T12:29:34Z</time>
      </trkpt>
      <trkpt lat="46.48302" lon="5.27513">
        <ele>198.2</ele>
        <time>2021-12-17T12:29:37Z</time>
      </trkpt>
      <trkpt lat="46.48299" lon="5.27503">
        <ele>198.2</ele>
        <time>2021-12-17T12:29:38Z</time>
      </trkpt>
      <trkpt lat="46.4828" lon="5.27436">
        <ele>197.8</ele>
        <time>2021-12-17T12:29:45Z</time>
      </trkpt>
      <trkpt lat="46.48276" lon="5.27424">
        <ele>197.8</ele>
        <time>2021-12-17T12:29:46Z</time>
      </trkpt>
      <trkpt lat="46.48262" lon="5.27388">
        <ele>197.8</ele>
        <time>2021-12-17T12:29:50Z</time>
      </trkpt>
      <trkpt lat="46.48235" lon="5.27345">
        <ele>198</ele>
        <time>2021-12-17T12:29:56Z</time>
      </trkpt>
      <trkpt lat="46.48192" lon="5.27289">
        <ele>198.4</ele>
        <time>2021-12-17T12:30:05Z</time>
      </trkpt>
      <trkpt lat="46.48155" lon="5.27235">
        <ele>198.6</ele>
        <time>2021-12-17T12:30:13Z</time>
      </trkpt>
      <trkpt lat="46.48141" lon="5.27204">
        <ele>198.8</ele>
        <time>2021-12-17T12:30:17Z</time>
      </trkpt>
      <trkpt lat="46.48131" lon="5.27181">
        <ele>199</ele>
        <time>2021-12-17T12:30:20Z</time>
      </trkpt>
      <trkpt lat="46.48121" lon="5.27163">
        <ele>199.2</ele>
        <time>2021-12-17T12:30:23Z</time>
      </trkpt>
      <trkpt lat="46.48111" lon="5.2715">
        <ele>199.4</ele>
        <time>2021-12-17T12:30:25Z</time>
      </trkpt>
      <trkpt lat="46.48078" lon="5.27125">
        <ele>199.8</ele>
        <time>2021-12-17T12:30:31Z</time>
      </trkpt>
      <trkpt lat="46.48074" lon="5.27123">
        <ele>200</ele>
        <time>2021-12-17T12:30:32Z</time>
      </trkpt>
      <trkpt lat="46.48024" lon="5.27089">
        <ele>200.8</ele>
        <time>2021-12-17T12:30:41Z</time>
      </trkpt>
      <trkpt lat="46.48017" lon="5.27084">
        <ele>200.8</ele>
        <time>2021-12-17T12:30:42Z</time>
      </trkpt>
      <trkpt lat="46.47969" lon="5.27052">
        <ele>201</ele>
        <time>2021-12-17T12:30:50Z</time>
      </trkpt>
      <trkpt lat="46.47916" lon="5.27014">
        <ele>201.2</ele>
        <time>2021-12-17T12:30:59Z</time>
      </trkpt>
      <trkpt lat="46.47873" lon="5.26985">
        <ele>201.2</ele>
        <time>2021-12-17T12:31:06Z</time>
      </trkpt>
      <trkpt lat="46.47833" lon="5.26963">
        <ele>201.6</ele>
        <time>2021-12-17T12:31:13Z</time>
      </trkpt>
      <trkpt lat="46.47793" lon="5.26945">
        <ele>202</ele>
        <time>2021-12-17T12:31:20Z</time>
      </trkpt>
      <trkpt lat="46.47777" lon="5.26936">
        <ele>202.2</ele>
        <time>2021-12-17T12:31:23Z</time>
      </trkpt>
      <trkpt lat="46.47735" lon="5.26901">
        <ele>204.8</ele>
        <time>2021-12-17T12:31:31Z</time>
      </trkpt>
      <trkpt lat="46.47726" lon="5.26891">
        <ele>203</ele>
        <time>2021-12-17T12:31:33Z</time>
      </trkpt>
      <trkpt lat="46.47675" lon="5.26844">
        <ele>203.6</ele>
        <time>2021-12-17T12:31:43Z</time>
      </trkpt>
      <trkpt lat="46.47628" lon="5.26805">
        <ele>203.6</ele>
        <time>2021-12-17T12:31:52Z</time>
      </trkpt>
      <trkpt lat="46.47623" lon="5.26802">
        <ele>203.8</ele>
        <time>2021-12-17T12:31:53Z</time>
      </trkpt>
      <trkpt lat="46.47602" lon="5.26792">
        <ele>204</ele>
        <time>2021-12-17T12:31:57Z</time>
      </trkpt>
      <trkpt lat="46.47591" lon="5.2679">
        <ele>204.4</ele>
        <time>2021-12-17T12:31:59Z</time>
      </trkpt>
      <trkpt lat="46.47565" lon="5.26784">
        <ele>205.2</ele>
        <time>2021-12-17T12:32:04Z</time>
      </trkpt>
      <trkpt lat="46.47554" lon="5.26779">
        <ele>205.4</ele>
        <time>2021-12-17T12:32:06Z</time>
      </trkpt>
      <trkpt lat="46.47549" lon="5.26776">
        <ele>205.6</ele>
        <time>2021-12-17T12:32:07Z</time>
      </trkpt>
      <trkpt lat="46.47531" lon="5.26759">
        <ele>206.2</ele>
        <time>2021-12-17T12:32:11Z</time>
      </trkpt>
      <trkpt lat="46.47518" lon="5.26745">
        <ele>206.6</ele>
        <time>2021-12-17T12:32:14Z</time>
      </trkpt>
      <trkpt lat="46.47514" lon="5.26739">
        <ele>206.6</ele>
        <time>2021-12-17T12:32:15Z</time>
      </trkpt>
      <trkpt lat="46.47502" lon="5.26711">
        <ele>207.4</ele>
        <time>2021-12-17T12:32:19Z</time>
      </trkpt>
      <trkpt lat="46.47491" lon="5.26656">
        <ele>208</ele>
        <time>2021-12-17T12:32:26Z</time>
      </trkpt>
      <trkpt lat="46.47488" lon="5.26642">
        <ele>208.4</ele>
        <time>2021-12-17T12:32:28Z</time>
      </trkpt>
      <trkpt lat="46.47479" lon="5.266">
        <ele>209.2</ele>
        <time>2021-12-17T12:32:34Z</time>
      </trkpt>
      <trkpt lat="46.47473" lon="5.26584">
        <ele>209.8</ele>
        <time>2021-12-17T12:32:37Z</time>
      </trkpt>
      <trkpt lat="46.47467" lon="5.26569">
        <ele>210.2</ele>
        <time>2021-12-17T12:32:40Z</time>
      </trkpt>
      <trkpt lat="46.47463" lon="5.26561">
        <ele>210.8</ele>
        <time>2021-12-17T12:32:42Z</time>
      </trkpt>
      <trkpt lat="46.47453" lon="5.26547">
        <ele>212.2</ele>
        <time>2021-12-17T12:32:46Z</time>
      </trkpt>
      <trkpt lat="46.47442" lon="5.26533">
        <ele>213.6</ele>
        <time>2021-12-17T12:32:50Z</time>
      </trkpt>
      <trkpt lat="46.47435" lon="5.26527">
        <ele>214.2</ele>
        <time>2021-12-17T12:32:52Z</time>
      </trkpt>
      <trkpt lat="46.47426" lon="5.26519">
        <ele>214.8</ele>
        <time>2021-12-17T12:32:55Z</time>
      </trkpt>
      <trkpt lat="46.47409" lon="5.2651">
        <ele>216</ele>
        <time>2021-12-17T12:33:00Z</time>
      </trkpt>
      <trkpt lat="46.4739" lon="5.26502">
        <ele>217.2</ele>
        <time>2021-12-17T12:33:06Z</time>
      </trkpt>
      <trkpt lat="46.47384" lon="5.26498">
        <ele>217.6</ele>
        <time>2021-12-17T12:33:08Z</time>
      </trkpt>
      <trkpt lat="46.47374" lon="5.26495">
        <ele>218.4</ele>
        <time>2021-12-17T12:33:11Z</time>
      </trkpt>
      <trkpt lat="46.47361" lon="5.2649">
        <ele>219.6</ele>
        <time>2021-12-17T12:33:15Z</time>
      </trkpt>
      <trkpt lat="46.47354" lon="5.26487">
        <ele>220</ele>
        <time>2021-12-17T12:33:17Z</time>
      </trkpt>
      <trkpt lat="46.47343" lon="5.26481">
        <ele>220.6</ele>
        <time>2021-12-17T12:33:20Z</time>
      </trkpt>
      <trkpt lat="46.47325" lon="5.2647">
        <ele>221.4</ele>
        <time>2021-12-17T12:33:25Z</time>
      </trkpt>
      <trkpt lat="46.47317" lon="5.26466">
        <ele>221.6</ele>
        <time>2021-12-17T12:33:27Z</time>
      </trkpt>
      <trkpt lat="46.47295" lon="5.26454">
        <ele>222.8</ele>
        <time>2021-12-17T12:33:33Z</time>
      </trkpt>
      <trkpt lat="46.47288" lon="5.26451">
        <ele>223</ele>
        <time>2021-12-17T12:33:35Z</time>
      </trkpt>
      <trkpt lat="46.47255" lon="5.26441">
        <ele>224</ele>
        <time>2021-12-17T12:33:43Z</time>
      </trkpt>
      <trkpt lat="46.47237" lon="5.26438">
        <ele>224.6</ele>
        <time>2021-12-17T12:33:47Z</time>
      </trkpt>
      <trkpt lat="46.47224" lon="5.26437">
        <ele>225.2</ele>
        <time>2021-12-17T12:33:50Z</time>
      </trkpt>
      <trkpt lat="46.47196" lon="5.26437">
        <ele>225.6</ele>
        <time>2021-12-17T12:33:56Z</time>
      </trkpt>
      <trkpt lat="46.47164" lon="5.26447">
        <ele>226</ele>
        <time>2021-12-17T12:34:02Z</time>
      </trkpt>
      <trkpt lat="46.47159" lon="5.2645">
        <ele>226.2</ele>
        <time>2021-12-17T12:34:03Z</time>
      </trkpt>
      <trkpt lat="46.4713" lon="5.26463">
        <ele>226</ele>
        <time>2021-12-17T12:34:08Z</time>
      </trkpt>
      <trkpt lat="46.47074" lon="5.26482">
        <ele>226.4</ele>
        <time>2021-12-17T12:34:17Z</time>
      </trkpt>
      <trkpt lat="46.47016" lon="5.26499">
        <ele>226.4</ele>
        <time>2021-12-17T12:34:26Z</time>
      </trkpt>
      <trkpt lat="46.46998" lon="5.26504">
        <ele>226.4</ele>
        <time>2021-12-17T12:34:29Z</time>
      </trkpt>
      <trkpt lat="46.46969" lon="5.26518">
        <ele>226.4</ele>
        <time>2021-12-17T12:34:34Z</time>
      </trkpt>
      <trkpt lat="46.4692" lon="5.26543">
        <ele>226.2</ele>
        <time>2021-12-17T12:34:42Z</time>
      </trkpt>
      <trkpt lat="46.46914" lon="5.26545">
        <ele>226.2</ele>
        <time>2021-12-17T12:34:43Z</time>
      </trkpt>
      <trkpt lat="46.46859" lon="5.2655">
        <ele>227</ele>
        <time>2021-12-17T12:34:52Z</time>
      </trkpt>
      <trkpt lat="46.46812" lon="5.26552">
        <ele>226.6</ele>
        <time>2021-12-17T12:34:59Z</time>
      </trkpt>
      <trkpt lat="46.46754" lon="5.26549">
        <ele>225.8</ele>
        <time>2021-12-17T12:35:07Z</time>
      </trkpt>
      <trkpt lat="46.46713" lon="5.26535">
        <ele>225.6</ele>
        <time>2021-12-17T12:35:13Z</time>
      </trkpt>
      <trkpt lat="46.46664" lon="5.26511">
        <ele>225.4</ele>
        <time>2021-12-17T12:35:20Z</time>
      </trkpt>
      <trkpt lat="46.46655" lon="5.26508">
        <ele>225.2</ele>
        <time>2021-12-17T12:35:21Z</time>
      </trkpt>
      <trkpt lat="46.46602" lon="5.26484">
        <ele>225</ele>
        <time>2021-12-17T12:35:29Z</time>
      </trkpt>
      <trkpt lat="46.46593" lon="5.26481">
        <ele>225</ele>
        <time>2021-12-17T12:35:30Z</time>
      </trkpt>
      <trkpt lat="46.46544" lon="5.26453">
        <ele>225.2</ele>
        <time>2021-12-17T12:35:38Z</time>
      </trkpt>
      <trkpt lat="46.46511" lon="5.26421">
        <ele>225.8</ele>
        <time>2021-12-17T12:35:44Z</time>
      </trkpt>
      <trkpt lat="46.46481" lon="5.26385">
        <ele>226</ele>
        <time>2021-12-17T12:35:50Z</time>
      </trkpt>
      <trkpt lat="46.46461" lon="5.26368">
        <ele>226.2</ele>
        <time>2021-12-17T12:35:54Z</time>
      </trkpt>
      <trkpt lat="46.46455" lon="5.26365">
        <ele>226.4</ele>
        <time>2021-12-17T12:35:55Z</time>
      </trkpt>
      <trkpt lat="46.46418" lon="5.26349">
        <ele>227.2</ele>
        <time>2021-12-17T12:36:02Z</time>
      </trkpt>
      <trkpt lat="46.46408" lon="5.26345">
        <ele>227.4</ele>
        <time>2021-12-17T12:36:04Z</time>
      </trkpt>
      <trkpt lat="46.46374" lon="5.26331">
        <ele>228.6</ele>
        <time>2021-12-17T12:36:10Z</time>
      </trkpt>
      <trkpt lat="46.46361" lon="5.26326">
        <ele>229</ele>
        <time>2021-12-17T12:36:12Z</time>
      </trkpt>
      <trkpt lat="46.46321" lon="5.2631">
        <ele>229.4</ele>
        <time>2021-12-17T12:36:19Z</time>
      </trkpt>
      <trkpt lat="46.4628" lon="5.26281">
        <ele>229</ele>
        <time>2021-12-17T12:36:26Z</time>
      </trkpt>
      <trkpt lat="46.46241" lon="5.26266">
        <ele>228</ele>
        <time>2021-12-17T12:36:32Z</time>
      </trkpt>
      <trkpt lat="46.46221" lon="5.26259">
        <ele>227.4</ele>
        <time>2021-12-17T12:36:35Z</time>
      </trkpt>
      <trkpt lat="46.46194" lon="5.2625">
        <ele>226.8</ele>
        <time>2021-12-17T12:36:40Z</time>
      </trkpt>
      <trkpt lat="46.46189" lon="5.26247">
        <ele>226.6</ele>
        <time>2021-12-17T12:36:43Z</time>
      </trkpt>
      <trkpt lat="46.46187" lon="5.26246">
        <ele>226.4</ele>
        <time>2021-12-17T12:36:44Z</time>
      </trkpt>
      <trkpt lat="46.46175" lon="5.26241">
        <ele>226</ele>
        <time>2021-12-17T12:36:47Z</time>
      </trkpt>
      <trkpt lat="46.46142" lon="5.26223">
        <ele>225.8</ele>
        <time>2021-12-17T12:36:53Z</time>
      </trkpt>
      <trkpt lat="46.46103" lon="5.26201">
        <ele>226.6</ele>
        <time>2021-12-17T12:37:00Z</time>
      </trkpt>
      <trkpt lat="46.46061" lon="5.26178">
        <ele>227.2</ele>
        <time>2021-12-17T12:37:08Z</time>
      </trkpt>
      <trkpt lat="46.46055" lon="5.26175">
        <ele>227.4</ele>
        <time>2021-12-17T12:37:09Z</time>
      </trkpt>
      <trkpt lat="46.46035" lon="5.26166">
        <ele>228</ele>
        <time>2021-12-17T12:37:13Z</time>
      </trkpt>
      <trkpt lat="46.46024" lon="5.26164">
        <ele>228.2</ele>
        <time>2021-12-17T12:37:15Z</time>
      </trkpt>
      <trkpt lat="46.46018" lon="5.26164">
        <ele>228.4</ele>
        <time>2021-12-17T12:37:16Z</time>
      </trkpt>
      <trkpt lat="46.45971" lon="5.26162">
        <ele>229.4</ele>
        <time>2021-12-17T12:37:25Z</time>
      </trkpt>
      <trkpt lat="46.4596" lon="5.26162">
        <ele>229.4</ele>
        <time>2021-12-17T12:37:27Z</time>
      </trkpt>
      <trkpt lat="46.45924" lon="5.26161">
        <ele>230</ele>
        <time>2021-12-17T12:37:34Z</time>
      </trkpt>
      <trkpt lat="46.45892" lon="5.2616">
        <ele>230.4</ele>
        <time>2021-12-17T12:37:40Z</time>
      </trkpt>
      <trkpt lat="46.45862" lon="5.2616">
        <ele>230.8</ele>
        <time>2021-12-17T12:37:45Z</time>
      </trkpt>
      <trkpt lat="46.45805" lon="5.26159">
        <ele>230.8</ele>
        <time>2021-12-17T12:37:54Z</time>
      </trkpt>
      <trkpt lat="46.45778" lon="5.26162">
        <ele>230.8</ele>
        <time>2021-12-17T12:37:58Z</time>
      </trkpt>
      <trkpt lat="46.45767" lon="5.26169">
        <ele>230.8</ele>
        <time>2021-12-17T12:38:00Z</time>
      </trkpt>
      <trkpt lat="46.45759" lon="5.2618">
        <ele>230.8</ele>
        <time>2021-12-17T12:38:02Z</time>
      </trkpt>
      <trkpt lat="46.45751" lon="5.26198">
        <ele>230.8</ele>
        <time>2021-12-17T12:38:04Z</time>
      </trkpt>
      <trkpt lat="46.45736" lon="5.26261">
        <ele>230.2</ele>
        <time>2021-12-17T12:38:11Z</time>
      </trkpt>
      <trkpt lat="46.45716" lon="5.26342">
        <ele>230</ele>
        <time>2021-12-17T12:38:19Z</time>
      </trkpt>
      <trkpt lat="46.45715" lon="5.2635">
        <ele>230</ele>
        <time>2021-12-17T12:38:20Z</time>
      </trkpt>
      <trkpt lat="46.45703" lon="5.26414">
        <ele>229.4</ele>
        <time>2021-12-17T12:38:26Z</time>
      </trkpt>
      <trkpt lat="46.45702" lon="5.26424">
        <ele>229.4</ele>
        <time>2021-12-17T12:38:27Z</time>
      </trkpt>
      <trkpt lat="46.4569" lon="5.26504">
        <ele>229.2</ele>
        <time>2021-12-17T12:38:35Z</time>
      </trkpt>
      <trkpt lat="46.45675" lon="5.26568">
        <ele>228.6</ele>
        <time>2021-12-17T12:38:41Z</time>
      </trkpt>
      <trkpt lat="46.45656" lon="5.26606">
        <ele>228.2</ele>
        <time>2021-12-17T12:38:45Z</time>
      </trkpt>
      <trkpt lat="46.45644" lon="5.26622">
        <ele>227.6</ele>
        <time>2021-12-17T12:38:47Z</time>
      </trkpt>
      <trkpt lat="46.45639" lon="5.26626">
        <ele>227</ele>
        <time>2021-12-17T12:38:48Z</time>
      </trkpt>
      <trkpt lat="46.45631" lon="5.26631">
        <ele>226.6</ele>
        <time>2021-12-17T12:38:49Z</time>
      </trkpt>
      <trkpt lat="46.45614" lon="5.26638">
        <ele>226</ele>
        <time>2021-12-17T12:38:51Z</time>
      </trkpt>
      <trkpt lat="46.45608" lon="5.2664">
        <ele>225.8</ele>
        <time>2021-12-17T12:38:52Z</time>
      </trkpt>
      <trkpt lat="46.4557" lon="5.26648">
        <ele>224.6</ele>
        <time>2021-12-17T12:38:57Z</time>
      </trkpt>
      <trkpt lat="46.45563" lon="5.26648">
        <ele>224.6</ele>
        <time>2021-12-17T12:38:58Z</time>
      </trkpt>
      <trkpt lat="46.45528" lon="5.26637">
        <ele>224.4</ele>
        <time>2021-12-17T12:39:03Z</time>
      </trkpt>
      <trkpt lat="46.4548" lon="5.26615">
        <ele>225.2</ele>
        <time>2021-12-17T12:39:11Z</time>
      </trkpt>
      <trkpt lat="46.45455" lon="5.26603">
        <ele>225.8</ele>
        <time>2021-12-17T12:39:15Z</time>
      </trkpt>
      <trkpt lat="46.45444" lon="5.26596">
        <ele>226.2</ele>
        <time>2021-12-17T12:39:17Z</time>
      </trkpt>
      <trkpt lat="46.45409" lon="5.26575">
        <ele>227</ele>
        <time>2021-12-17T12:39:23Z</time>
      </trkpt>
      <trkpt lat="46.45403" lon="5.26572">
        <ele>227</ele>
        <time>2021-12-17T12:39:24Z</time>
      </trkpt>
      <trkpt lat="46.45361" lon="5.26556">
        <ele>227.8</ele>
        <time>2021-12-17T12:39:31Z</time>
      </trkpt>
      <trkpt lat="46.45356" lon="5.26554">
        <ele>228</ele>
        <time>2021-12-17T12:39:32Z</time>
      </trkpt>
      <trkpt lat="46.45305" lon="5.26544">
        <ele>228.2</ele>
        <time>2021-12-17T12:39:40Z</time>
      </trkpt>
      <trkpt lat="46.45256" lon="5.26553">
        <ele>228.4</ele>
        <time>2021-12-17T12:39:47Z</time>
      </trkpt>
      <trkpt lat="46.45201" lon="5.26556">
        <ele>228</ele>
        <time>2021-12-17T12:39:55Z</time>
      </trkpt>
      <trkpt lat="46.45193" lon="5.26555">
        <ele>228.2</ele>
        <time>2021-12-17T12:39:56Z</time>
      </trkpt>
      <trkpt lat="46.4516" lon="5.26543">
        <ele>228.2</ele>
        <time>2021-12-17T12:40:01Z</time>
      </trkpt>
      <trkpt lat="46.45107" lon="5.26523">
        <ele>228.4</ele>
        <time>2021-12-17T12:40:09Z</time>
      </trkpt>
      <trkpt lat="46.45101" lon="5.26521">
        <ele>228.4</ele>
        <time>2021-12-17T12:40:10Z</time>
      </trkpt>
      <trkpt lat="46.45062" lon="5.26514">
        <ele>228.6</ele>
        <time>2021-12-17T12:40:16Z</time>
      </trkpt>
      <trkpt lat="46.45002" lon="5.26513">
        <ele>228.4</ele>
        <time>2021-12-17T12:40:24Z</time>
      </trkpt>
      <trkpt lat="46.44957" lon="5.26517">
        <ele>227.6</ele>
        <time>2021-12-17T12:40:30Z</time>
      </trkpt>
      <trkpt lat="46.4494" lon="5.26523">
        <ele>227.4</ele>
        <time>2021-12-17T12:40:32Z</time>
      </trkpt>
      <trkpt lat="46.4492" lon="5.26533">
        <ele>227</ele>
        <time>2021-12-17T12:40:35Z</time>
      </trkpt>
      <trkpt lat="46.44913" lon="5.26537">
        <ele>226.8</ele>
        <time>2021-12-17T12:40:36Z</time>
      </trkpt>
      <trkpt lat="46.44879" lon="5.26554">
        <ele>226.6</ele>
        <time>2021-12-17T12:40:41Z</time>
      </trkpt>
      <trkpt lat="46.44867" lon="5.26565">
        <ele>226.6</ele>
        <time>2021-12-17T12:40:43Z</time>
      </trkpt>
      <trkpt lat="46.44853" lon="5.26583">
        <ele>226.6</ele>
        <time>2021-12-17T12:40:46Z</time>
      </trkpt>
      <trkpt lat="46.44846" lon="5.26596">
        <ele>227</ele>
        <time>2021-12-17T12:40:48Z</time>
      </trkpt>
      <trkpt lat="46.44841" lon="5.2661">
        <ele>227.4</ele>
        <time>2021-12-17T12:40:50Z</time>
      </trkpt>
      <trkpt lat="46.44838" lon="5.26618">
        <ele>227.6</ele>
        <time>2021-12-17T12:40:51Z</time>
      </trkpt>
      <trkpt lat="46.44835" lon="5.26631">
        <ele>228.2</ele>
        <time>2021-12-17T12:40:53Z</time>
      </trkpt>
      <trkpt lat="46.44831" lon="5.26645">
        <ele>229</ele>
        <time>2021-12-17T12:40:55Z</time>
      </trkpt>
      <trkpt lat="46.44828" lon="5.26651">
        <ele>229</ele>
        <time>2021-12-17T12:40:56Z</time>
      </trkpt>
      <trkpt lat="46.44824" lon="5.26656">
        <ele>229.2</ele>
        <time>2021-12-17T12:40:57Z</time>
      </trkpt>
      <trkpt lat="46.44814" lon="5.26662">
        <ele>229.6</ele>
        <time>2021-12-17T12:40:59Z</time>
      </trkpt>
      <trkpt lat="46.44802" lon="5.26663">
        <ele>229.8</ele>
        <time>2021-12-17T12:41:01Z</time>
      </trkpt>
      <trkpt lat="46.4479" lon="5.26666">
        <ele>230</ele>
        <time>2021-12-17T12:41:03Z</time>
      </trkpt>
      <trkpt lat="46.44765" lon="5.26684">
        <ele>230</ele>
        <time>2021-12-17T12:41:07Z</time>
      </trkpt>
      <trkpt lat="46.44728" lon="5.267">
        <ele>229.8</ele>
        <time>2021-12-17T12:41:12Z</time>
      </trkpt>
      <trkpt lat="46.4469" lon="5.26704">
        <ele>228.2</ele>
        <time>2021-12-17T12:41:16Z</time>
      </trkpt>
      <trkpt lat="46.44672" lon="5.267">
        <ele>227.2</ele>
        <time>2021-12-17T12:41:18Z</time>
      </trkpt>
      <trkpt lat="46.44655" lon="5.26691">
        <ele>226.2</ele>
        <time>2021-12-17T12:41:20Z</time>
      </trkpt>
      <trkpt lat="46.44647" lon="5.26686">
        <ele>226</ele>
        <time>2021-12-17T12:41:21Z</time>
      </trkpt>
      <trkpt lat="46.44611" lon="5.2666">
        <ele>225.4</ele>
        <time>2021-12-17T12:41:26Z</time>
      </trkpt>
      <trkpt lat="46.44582" lon="5.26641">
        <ele>226</ele>
        <time>2021-12-17T12:41:31Z</time>
      </trkpt>
      <trkpt lat="46.44567" lon="5.26636">
        <ele>227</ele>
        <time>2021-12-17T12:41:34Z</time>
      </trkpt>
      <trkpt lat="46.44555" lon="5.26637">
        <ele>227.6</ele>
        <time>2021-12-17T12:41:36Z</time>
      </trkpt>
      <trkpt lat="46.44544" lon="5.2664">
        <ele>228.4</ele>
        <time>2021-12-17T12:41:38Z</time>
      </trkpt>
      <trkpt lat="46.44526" lon="5.2665">
        <ele>228.6</ele>
        <time>2021-12-17T12:41:41Z</time>
      </trkpt>
      <trkpt lat="46.4452" lon="5.26654">
        <ele>228.6</ele>
        <time>2021-12-17T12:41:42Z</time>
      </trkpt>
      <trkpt lat="46.44508" lon="5.26667">
        <ele>228.6</ele>
        <time>2021-12-17T12:41:44Z</time>
      </trkpt>
      <trkpt lat="46.44503" lon="5.26674">
        <ele>228.6</ele>
        <time>2021-12-17T12:41:45Z</time>
      </trkpt>
      <trkpt lat="46.44476" lon="5.26707">
        <ele>228.2</ele>
        <time>2021-12-17T12:41:49Z</time>
      </trkpt>
      <trkpt lat="46.44468" lon="5.26713">
        <ele>227.8</ele>
        <time>2021-12-17T12:41:50Z</time>
      </trkpt>
      <trkpt lat="46.44461" lon="5.26716">
        <ele>227.4</ele>
        <time>2021-12-17T12:41:51Z</time>
      </trkpt>
      <trkpt lat="46.4445" lon="5.2672">
        <ele>226.6</ele>
        <time>2021-12-17T12:41:52Z</time>
      </trkpt>
      <trkpt lat="46.44434" lon="5.26725">
        <ele>225.8</ele>
        <time>2021-12-17T12:41:54Z</time>
      </trkpt>
      <trkpt lat="46.44425" lon="5.26727">
        <ele>225.6</ele>
        <time>2021-12-17T12:41:55Z</time>
      </trkpt>
      <trkpt lat="46.44404" lon="5.26733">
        <ele>224.2</ele>
        <time>2021-12-17T12:41:57Z</time>
      </trkpt>
      <trkpt lat="46.44386" lon="5.2674">
        <ele>223.4</ele>
        <time>2021-12-17T12:41:59Z</time>
      </trkpt>
      <trkpt lat="46.44379" lon="5.26745">
        <ele>223.2</ele>
        <time>2021-12-17T12:42:00Z</time>
      </trkpt>
      <trkpt lat="46.44371" lon="5.26752">
        <ele>222.6</ele>
        <time>2021-12-17T12:42:01Z</time>
      </trkpt>
      <trkpt lat="46.44365" lon="5.26763">
        <ele>222.4</ele>
        <time>2021-12-17T12:42:02Z</time>
      </trkpt>
      <trkpt lat="46.44358" lon="5.26778">
        <ele>221.8</ele>
        <time>2021-12-17T12:42:03Z</time>
      </trkpt>
      <trkpt lat="46.44348" lon="5.26799">
        <ele>220.6</ele>
        <time>2021-12-17T12:42:05Z</time>
      </trkpt>
      <trkpt lat="46.44341" lon="5.26809">
        <ele>220</ele>
        <time>2021-12-17T12:42:06Z</time>
      </trkpt>
      <trkpt lat="46.44331" lon="5.26818">
        <ele>219.6</ele>
        <time>2021-12-17T12:42:07Z</time>
      </trkpt>
      <trkpt lat="46.44323" lon="5.26822">
        <ele>219</ele>
        <time>2021-12-17T12:42:08Z</time>
      </trkpt>
      <trkpt lat="46.44316" lon="5.26825">
        <ele>219</ele>
        <time>2021-12-17T12:42:09Z</time>
      </trkpt>
      <trkpt lat="46.44287" lon="5.26833">
        <ele>217.8</ele>
        <time>2021-12-17T12:42:12Z</time>
      </trkpt>
      <trkpt lat="46.44254" lon="5.26848">
        <ele>217</ele>
        <time>2021-12-17T12:42:16Z</time>
      </trkpt>
      <trkpt lat="46.44244" lon="5.26854">
        <ele>216.4</ele>
        <time>2021-12-17T12:42:17Z</time>
      </trkpt>
      <trkpt lat="46.44208" lon="5.26882">
        <ele>215.4</ele>
        <time>2021-12-17T12:42:21Z</time>
      </trkpt>
      <trkpt lat="46.44201" lon="5.26889">
        <ele>214.8</ele>
        <time>2021-12-17T12:42:22Z</time>
      </trkpt>
      <trkpt lat="46.44193" lon="5.26899">
        <ele>214.2</ele>
        <time>2021-12-17T12:42:23Z</time>
      </trkpt>
      <trkpt lat="46.44186" lon="5.2691">
        <ele>213.4</ele>
        <time>2021-12-17T12:42:24Z</time>
      </trkpt>
      <trkpt lat="46.44176" lon="5.26922">
        <ele>213</ele>
        <time>2021-12-17T12:42:25Z</time>
      </trkpt>
      <trkpt lat="46.44167" lon="5.26929">
        <ele>212</ele>
        <time>2021-12-17T12:42:26Z</time>
      </trkpt>
      <trkpt lat="46.44157" lon="5.26932">
        <ele>211.6</ele>
        <time>2021-12-17T12:42:27Z</time>
      </trkpt>
      <trkpt lat="46.44149" lon="5.26931">
        <ele>210.8</ele>
        <time>2021-12-17T12:42:28Z</time>
      </trkpt>
      <trkpt lat="46.44139" lon="5.26928">
        <ele>210.4</ele>
        <time>2021-12-17T12:42:29Z</time>
      </trkpt>
      <trkpt lat="46.44129" lon="5.2692">
        <ele>209.6</ele>
        <time>2021-12-17T12:42:30Z</time>
      </trkpt>
      <trkpt lat="46.44091" lon="5.26885">
        <ele>208.4</ele>
        <time>2021-12-17T12:42:35Z</time>
      </trkpt>
      <trkpt lat="46.44079" lon="5.26873">
        <ele>208.4</ele>
        <time>2021-12-17T12:42:37Z</time>
      </trkpt>
      <trkpt lat="46.44032" lon="5.2683">
        <ele>208.8</ele>
        <time>2021-12-17T12:42:44Z</time>
      </trkpt>
      <trkpt lat="46.44001" lon="5.26801">
        <ele>209.8</ele>
        <time>2021-12-17T12:42:50Z</time>
      </trkpt>
      <trkpt lat="46.43996" lon="5.26796">
        <ele>210</ele>
        <time>2021-12-17T12:42:51Z</time>
      </trkpt>
      <trkpt lat="46.43991" lon="5.26792">
        <ele>210.2</ele>
        <time>2021-12-17T12:42:52Z</time>
      </trkpt>
      <trkpt lat="46.4398" lon="5.26786">
        <ele>210.6</ele>
        <time>2021-12-17T12:42:54Z</time>
      </trkpt>
      <trkpt lat="46.43974" lon="5.26785">
        <ele>210.8</ele>
        <time>2021-12-17T12:42:55Z</time>
      </trkpt>
      <trkpt lat="46.43957" lon="5.26782">
        <ele>211</ele>
        <time>2021-12-17T12:42:58Z</time>
      </trkpt>
      <trkpt lat="46.43952" lon="5.26777">
        <ele>211.2</ele>
        <time>2021-12-17T12:42:59Z</time>
      </trkpt>
      <trkpt lat="46.43943" lon="5.26766">
        <ele>211.2</ele>
        <time>2021-12-17T12:43:01Z</time>
      </trkpt>
      <trkpt lat="46.43931" lon="5.26761">
        <ele>211.2</ele>
        <time>2021-12-17T12:43:03Z</time>
      </trkpt>
      <trkpt lat="46.4392" lon="5.26762">
        <ele>211.2</ele>
        <time>2021-12-17T12:43:05Z</time>
      </trkpt>
      <trkpt lat="46.43915" lon="5.26766">
        <ele>211.2</ele>
        <time>2021-12-17T12:43:06Z</time>
      </trkpt>
      <trkpt lat="46.43909" lon="5.26772">
        <ele>211.2</ele>
        <time>2021-12-17T12:43:07Z</time>
      </trkpt>
      <trkpt lat="46.43901" lon="5.26787">
        <ele>211.2</ele>
        <time>2021-12-17T12:43:09Z</time>
      </trkpt>
      <trkpt lat="46.43899" lon="5.26793">
        <ele>211.2</ele>
        <time>2021-12-17T12:43:10Z</time>
      </trkpt>
      <trkpt lat="46.43888" lon="5.26807">
        <ele>211.2</ele>
        <time>2021-12-17T12:43:12Z</time>
      </trkpt>
      <trkpt lat="46.43877" lon="5.26816">
        <ele>211.4</ele>
        <time>2021-12-17T12:43:14Z</time>
      </trkpt>
      <trkpt lat="46.43869" lon="5.26827">
        <ele>211.4</ele>
        <time>2021-12-17T12:43:16Z</time>
      </trkpt>
      <trkpt lat="46.43866" lon="5.26834">
        <ele>211.6</ele>
        <time>2021-12-17T12:43:17Z</time>
      </trkpt>
      <trkpt lat="46.43864" lon="5.26842">
        <ele>211.6</ele>
        <time>2021-12-17T12:43:18Z</time>
      </trkpt>
      <trkpt lat="46.43863" lon="5.26859">
        <ele>211.8</ele>
        <time>2021-12-17T12:43:20Z</time>
      </trkpt>
      <trkpt lat="46.43862" lon="5.26867">
        <ele>212.2</ele>
        <time>2021-12-17T12:43:21Z</time>
      </trkpt>
      <trkpt lat="46.43861" lon="5.26902">
        <ele>212.8</ele>
        <time>2021-12-17T12:43:25Z</time>
      </trkpt>
      <trkpt lat="46.4386" lon="5.26911">
        <ele>212.8</ele>
        <time>2021-12-17T12:43:26Z</time>
      </trkpt>
      <trkpt lat="46.43858" lon="5.26919">
        <ele>213.2</ele>
        <time>2021-12-17T12:43:27Z</time>
      </trkpt>
      <trkpt lat="46.43849" lon="5.26943">
        <ele>213.6</ele>
        <time>2021-12-17T12:43:30Z</time>
      </trkpt>
      <trkpt lat="46.43841" lon="5.26958">
        <ele>213.6</ele>
        <time>2021-12-17T12:43:32Z</time>
      </trkpt>
      <trkpt lat="46.43836" lon="5.26965">
        <ele>213.6</ele>
        <time>2021-12-17T12:43:33Z</time>
      </trkpt>
      <trkpt lat="46.43817" lon="5.26981">
        <ele>213.6</ele>
        <time>2021-12-17T12:43:36Z</time>
      </trkpt>
      <trkpt lat="46.43803" lon="5.26988">
        <ele>213.2</ele>
        <time>2021-12-17T12:43:38Z</time>
      </trkpt>
      <trkpt lat="46.43787" lon="5.26991">
        <ele>212.8</ele>
        <time>2021-12-17T12:43:40Z</time>
      </trkpt>
      <trkpt lat="46.43751" lon="5.26983">
        <ele>212</ele>
        <time>2021-12-17T12:43:45Z</time>
      </trkpt>
      <trkpt lat="46.43744" lon="5.26981">
        <ele>211.8</ele>
        <time>2021-12-17T12:43:46Z</time>
      </trkpt>
      <trkpt lat="46.4369" lon="5.2696">
        <ele>211.8</ele>
        <time>2021-12-17T12:43:54Z</time>
      </trkpt>
      <trkpt lat="46.4364" lon="5.26941">
        <ele>212.2</ele>
        <time>2021-12-17T12:44:02Z</time>
      </trkpt>
      <trkpt lat="46.43596" lon="5.26925">
        <ele>212.8</ele>
        <time>2021-12-17T12:44:09Z</time>
      </trkpt>
      <trkpt lat="46.43539" lon="5.2691">
        <ele>213.4</ele>
        <time>2021-12-17T12:44:18Z</time>
      </trkpt>
      <trkpt lat="46.43482" lon="5.26899">
        <ele>213.6</ele>
        <time>2021-12-17T12:44:27Z</time>
      </trkpt>
      <trkpt lat="46.4347" lon="5.26897">
        <ele>213.8</ele>
        <time>2021-12-17T12:44:29Z</time>
      </trkpt>
      <trkpt lat="46.43423" lon="5.26888">
        <ele>214.4</ele>
        <time>2021-12-17T12:44:37Z</time>
      </trkpt>
      <trkpt lat="46.43396" lon="5.26881">
        <ele>214.8</ele>
        <time>2021-12-17T12:44:42Z</time>
      </trkpt>
      <trkpt lat="46.43368" lon="5.26875">
        <ele>215.6</ele>
        <time>2021-12-17T12:44:47Z</time>
      </trkpt>
      <trkpt lat="46.43357" lon="5.26874">
        <ele>216</ele>
        <time>2021-12-17T12:44:49Z</time>
      </trkpt>
      <trkpt lat="46.43312" lon="5.2687">
        <ele>216.8</ele>
        <time>2021-12-17T12:44:57Z</time>
      </trkpt>
      <trkpt lat="46.43254" lon="5.26873">
        <ele>217</ele>
        <time>2021-12-17T12:45:07Z</time>
      </trkpt>
      <trkpt lat="46.43249" lon="5.26873">
        <ele>217</ele>
        <time>2021-12-17T12:45:08Z</time>
      </trkpt>
      <trkpt lat="46.43196" lon="5.26868">
        <ele>217.4</ele>
        <time>2021-12-17T12:45:17Z</time>
      </trkpt>
      <trkpt lat="46.43166" lon="5.26862">
        <ele>218</ele>
        <time>2021-12-17T12:45:23Z</time>
      </trkpt>
      <trkpt lat="46.43156" lon="5.26859">
        <ele>218.4</ele>
        <time>2021-12-17T12:45:25Z</time>
      </trkpt>
      <trkpt lat="46.43127" lon="5.2685">
        <ele>219.2</ele>
        <time>2021-12-17T12:45:32Z</time>
      </trkpt>
      <trkpt lat="46.43119" lon="5.26848">
        <ele>220</ele>
        <time>2021-12-17T12:45:34Z</time>
      </trkpt>
      <trkpt lat="46.43115" lon="5.26846">
        <ele>220.6</ele>
        <time>2021-12-17T12:45:35Z</time>
      </trkpt>
      <trkpt lat="46.43099" lon="5.26842">
        <ele>221.6</ele>
        <time>2021-12-17T12:45:39Z</time>
      </trkpt>
      <trkpt lat="46.43092" lon="5.26841">
        <ele>222.2</ele>
        <time>2021-12-17T12:45:41Z</time>
      </trkpt>
      <trkpt lat="46.43083" lon="5.2684">
        <ele>222.6</ele>
        <time>2021-12-17T12:45:43Z</time>
      </trkpt>
      <trkpt lat="46.43073" lon="5.26838">
        <ele>223.8</ele>
        <time>2021-12-17T12:45:46Z</time>
      </trkpt>
      <trkpt lat="46.43058" lon="5.26837">
        <ele>224.8</ele>
        <time>2021-12-17T12:45:50Z</time>
      </trkpt>
      <trkpt lat="46.43054" lon="5.26837">
        <ele>225.2</ele>
        <time>2021-12-17T12:45:51Z</time>
      </trkpt>
      <trkpt lat="46.43042" lon="5.26837">
        <ele>226</ele>
        <time>2021-12-17T12:45:54Z</time>
      </trkpt>
      <trkpt lat="46.43021" lon="5.26837">
        <ele>227</ele>
        <time>2021-12-17T12:45:59Z</time>
      </trkpt>
      <trkpt lat="46.43014" lon="5.26837">
        <ele>227.4</ele>
        <time>2021-12-17T12:46:01Z</time>
      </trkpt>
      <trkpt lat="46.43002" lon="5.26839">
        <ele>228.4</ele>
        <time>2021-12-17T12:46:04Z</time>
      </trkpt>
      <trkpt lat="46.42971" lon="5.26842">
        <ele>229.4</ele>
        <time>2021-12-17T12:46:11Z</time>
      </trkpt>
      <trkpt lat="46.42963" lon="5.26843">
        <ele>229.4</ele>
        <time>2021-12-17T12:46:13Z</time>
      </trkpt>
      <trkpt lat="46.42919" lon="5.2685">
        <ele>230.4</ele>
        <time>2021-12-17T12:46:22Z</time>
      </trkpt>
      <trkpt lat="46.42915" lon="5.2685">
        <ele>230.4</ele>
        <time>2021-12-17T12:46:23Z</time>
      </trkpt>
      <trkpt lat="46.42861" lon="5.26856">
        <ele>230.6</ele>
        <time>2021-12-17T12:46:33Z</time>
      </trkpt>
      <trkpt lat="46.4284" lon="5.26854">
        <ele>230.2</ele>
        <time>2021-12-17T12:46:38Z</time>
      </trkpt>
      <trkpt lat="46.42837" lon="5.26848">
        <ele>229.8</ele>
        <time>2021-12-17T12:46:41Z</time>
      </trkpt>
      <trkpt lat="46.42837" lon="5.26845">
        <ele>229.4</ele>
        <time>2021-12-17T12:46:44Z</time>
      </trkpt>
      <trkpt lat="46.42837" lon="5.26844">
        <ele>229.2</ele>
        <time>2021-12-17T12:46:46Z</time>
      </trkpt>
      <trkpt lat="46.42838" lon="5.26847">
        <ele>229</ele>
        <time>2021-12-17T12:48:07Z</time>
      </trkpt>
      <trkpt lat="46.42835" lon="5.26852">
        <ele>229</ele>
        <time>2021-12-17T12:48:09Z</time>
      </trkpt>
      <trkpt lat="46.4282" lon="5.26853">
        <ele>229</ele>
        <time>2021-12-17T12:48:13Z</time>
      </trkpt>
      <trkpt lat="46.42788" lon="5.26847">
        <ele>228.6</ele>
        <time>2021-12-17T12:48:18Z</time>
      </trkpt>
      <trkpt lat="46.42767" lon="5.26842">
        <ele>228.4</ele>
        <time>2021-12-17T12:48:21Z</time>
      </trkpt>
      <trkpt lat="46.42743" lon="5.26836">
        <ele>227.4</ele>
        <time>2021-12-17T12:48:24Z</time>
      </trkpt>
      <trkpt lat="46.42734" lon="5.26834">
        <ele>227.2</ele>
        <time>2021-12-17T12:48:25Z</time>
      </trkpt>
      <trkpt lat="46.42707" lon="5.26828">
        <ele>226.2</ele>
        <time>2021-12-17T12:48:28Z</time>
      </trkpt>
      <trkpt lat="46.42688" lon="5.26823">
        <ele>225.2</ele>
        <time>2021-12-17T12:48:30Z</time>
      </trkpt>
      <trkpt lat="46.42678" lon="5.2682">
        <ele>225</ele>
        <time>2021-12-17T12:48:31Z</time>
      </trkpt>
      <trkpt lat="46.42659" lon="5.26816">
        <ele>223.6</ele>
        <time>2021-12-17T12:48:33Z</time>
      </trkpt>
      <trkpt lat="46.42638" lon="5.2681">
        <ele>222.6</ele>
        <time>2021-12-17T12:48:35Z</time>
      </trkpt>
      <trkpt lat="46.42616" lon="5.26805">
        <ele>221.2</ele>
        <time>2021-12-17T12:48:37Z</time>
      </trkpt>
      <trkpt lat="46.42592" lon="5.26799">
        <ele>220</ele>
        <time>2021-12-17T12:48:39Z</time>
      </trkpt>
      <trkpt lat="46.4257" lon="5.26793">
        <ele>219</ele>
        <time>2021-12-17T12:48:41Z</time>
      </trkpt>
      <trkpt lat="46.42549" lon="5.26789">
        <ele>217.8</ele>
        <time>2021-12-17T12:48:43Z</time>
      </trkpt>
      <trkpt lat="46.42536" lon="5.26786">
        <ele>217.4</ele>
        <time>2021-12-17T12:48:44Z</time>
      </trkpt>
      <trkpt lat="46.42525" lon="5.26783">
        <ele>216.6</ele>
        <time>2021-12-17T12:48:45Z</time>
      </trkpt>
      <trkpt lat="46.42504" lon="5.26778">
        <ele>215.6</ele>
        <time>2021-12-17T12:48:47Z</time>
      </trkpt>
      <trkpt lat="46.42465" lon="5.26768">
        <ele>214.6</ele>
        <time>2021-12-17T12:48:51Z</time>
      </trkpt>
      <trkpt lat="46.42457" lon="5.26766">
        <ele>214.4</ele>
        <time>2021-12-17T12:48:52Z</time>
      </trkpt>
      <trkpt lat="46.42424" lon="5.26759">
        <ele>214.4</ele>
        <time>2021-12-17T12:48:56Z</time>
      </trkpt>
      <trkpt lat="46.4238" lon="5.26746">
        <ele>215</ele>
        <time>2021-12-17T12:49:02Z</time>
      </trkpt>
      <trkpt lat="46.4236" lon="5.26742">
        <ele>215.6</ele>
        <time>2021-12-17T12:49:05Z</time>
      </trkpt>
      <trkpt lat="46.42325" lon="5.26735">
        <ele>216.2</ele>
        <time>2021-12-17T12:49:10Z</time>
      </trkpt>
      <trkpt lat="46.42304" lon="5.2673">
        <ele>216.8</ele>
        <time>2021-12-17T12:49:13Z</time>
      </trkpt>
      <trkpt lat="46.42266" lon="5.26722">
        <ele>218</ele>
        <time>2021-12-17T12:49:19Z</time>
      </trkpt>
      <trkpt lat="46.42232" lon="5.26711">
        <ele>219.2</ele>
        <time>2021-12-17T12:49:25Z</time>
      </trkpt>
      <trkpt lat="46.42215" lon="5.26704">
        <ele>219.8</ele>
        <time>2021-12-17T12:49:28Z</time>
      </trkpt>
      <trkpt lat="46.42198" lon="5.26697">
        <ele>220.2</ele>
        <time>2021-12-17T12:49:31Z</time>
      </trkpt>
      <trkpt lat="46.42162" lon="5.26685">
        <ele>221</ele>
        <time>2021-12-17T12:49:37Z</time>
      </trkpt>
      <trkpt lat="46.42115" lon="5.26667">
        <ele>220.8</ele>
        <time>2021-12-17T12:49:44Z</time>
      </trkpt>
      <trkpt lat="46.42059" lon="5.26647">
        <ele>220</ele>
        <time>2021-12-17T12:49:52Z</time>
      </trkpt>
      <trkpt lat="46.42051" lon="5.26644">
        <ele>219.8</ele>
        <time>2021-12-17T12:49:53Z</time>
      </trkpt>
      <trkpt lat="46.41995" lon="5.26621">
        <ele>219.2</ele>
        <time>2021-12-17T12:50:01Z</time>
      </trkpt>
      <trkpt lat="46.41981" lon="5.26616">
        <ele>219.4</ele>
        <time>2021-12-17T12:50:03Z</time>
      </trkpt>
      <trkpt lat="46.41974" lon="5.26613">
        <ele>219.4</ele>
        <time>2021-12-17T12:50:04Z</time>
      </trkpt>
      <trkpt lat="46.41918" lon="5.26591">
        <ele>219.6</ele>
        <time>2021-12-17T12:50:12Z</time>
      </trkpt>
      <trkpt lat="46.41898" lon="5.26582">
        <ele>219.6</ele>
        <time>2021-12-17T12:50:15Z</time>
      </trkpt>
      <trkpt lat="46.41843" lon="5.2656">
        <ele>219</ele>
        <time>2021-12-17T12:50:22Z</time>
      </trkpt>
      <trkpt lat="46.41836" lon="5.26557">
        <ele>219</ele>
        <time>2021-12-17T12:50:23Z</time>
      </trkpt>
      <trkpt lat="46.41793" lon="5.26539">
        <ele>218.4</ele>
        <time>2021-12-17T12:50:29Z</time>
      </trkpt>
      <trkpt lat="46.41769" lon="5.26529">
        <ele>218.4</ele>
        <time>2021-12-17T12:50:32Z</time>
      </trkpt>
      <trkpt lat="46.41713" lon="5.26508">
        <ele>218.4</ele>
        <time>2021-12-17T12:50:40Z</time>
      </trkpt>
      <trkpt lat="46.41699" lon="5.26505">
        <ele>218.6</ele>
        <time>2021-12-17T12:50:42Z</time>
      </trkpt>
      <trkpt lat="46.41643" lon="5.26503">
        <ele>218.6</ele>
        <time>2021-12-17T12:50:50Z</time>
      </trkpt>
      <trkpt lat="46.41589" lon="5.26523">
        <ele>218.2</ele>
        <time>2021-12-17T12:50:58Z</time>
      </trkpt>
      <trkpt lat="46.41545" lon="5.26555">
        <ele>218.2</ele>
        <time>2021-12-17T12:51:05Z</time>
      </trkpt>
      <trkpt lat="46.41499" lon="5.266">
        <ele>218.2</ele>
        <time>2021-12-17T12:51:13Z</time>
      </trkpt>
      <trkpt lat="46.41488" lon="5.26611">
        <ele>218.4</ele>
        <time>2021-12-17T12:51:15Z</time>
      </trkpt>
      <trkpt lat="46.41444" lon="5.26657">
        <ele>219</ele>
        <time>2021-12-17T12:51:24Z</time>
      </trkpt>
      <trkpt lat="46.4143" lon="5.26672">
        <ele>219.6</ele>
        <time>2021-12-17T12:51:27Z</time>
      </trkpt>
      <trkpt lat="46.41417" lon="5.26685">
        <ele>220.2</ele>
        <time>2021-12-17T12:51:30Z</time>
      </trkpt>
      <trkpt lat="46.41406" lon="5.26697">
        <ele>220.6</ele>
        <time>2021-12-17T12:51:33Z</time>
      </trkpt>
      <trkpt lat="46.41397" lon="5.26707">
        <ele>220.8</ele>
        <time>2021-12-17T12:51:35Z</time>
      </trkpt>
      <trkpt lat="46.41387" lon="5.2672">
        <ele>221.2</ele>
        <time>2021-12-17T12:51:38Z</time>
      </trkpt>
      <trkpt lat="46.41378" lon="5.26729">
        <ele>221.8</ele>
        <time>2021-12-17T12:51:40Z</time>
      </trkpt>
      <trkpt lat="46.41371" lon="5.26736">
        <ele>222.2</ele>
        <time>2021-12-17T12:51:42Z</time>
      </trkpt>
      <trkpt lat="46.41359" lon="5.26746">
        <ele>223</ele>
        <time>2021-12-17T12:51:45Z</time>
      </trkpt>
      <trkpt lat="46.41345" lon="5.26759">
        <ele>224</ele>
        <time>2021-12-17T12:51:49Z</time>
      </trkpt>
      <trkpt lat="46.41341" lon="5.26763">
        <ele>224.2</ele>
        <time>2021-12-17T12:51:50Z</time>
      </trkpt>
      <trkpt lat="46.41335" lon="5.26768">
        <ele>224.6</ele>
        <time>2021-12-17T12:51:52Z</time>
      </trkpt>
      <trkpt lat="46.4133" lon="5.26772">
        <ele>225</ele>
        <time>2021-12-17T12:51:53Z</time>
      </trkpt>
      <trkpt lat="46.41321" lon="5.26782">
        <ele>225.8</ele>
        <time>2021-12-17T12:51:56Z</time>
      </trkpt>
      <trkpt lat="46.41314" lon="5.2679">
        <ele>226</ele>
        <time>2021-12-17T12:51:58Z</time>
      </trkpt>
      <trkpt lat="46.41296" lon="5.26802">
        <ele>227</ele>
        <time>2021-12-17T12:52:03Z</time>
      </trkpt>
      <trkpt lat="46.41281" lon="5.2681">
        <ele>228.2</ele>
        <time>2021-12-17T12:52:07Z</time>
      </trkpt>
      <trkpt lat="46.41269" lon="5.26813">
        <ele>228.8</ele>
        <time>2021-12-17T12:52:10Z</time>
      </trkpt>
      <trkpt lat="46.41265" lon="5.26813">
        <ele>229.2</ele>
        <time>2021-12-17T12:52:11Z</time>
      </trkpt>
      <trkpt lat="46.41246" lon="5.26821">
        <ele>230.4</ele>
        <time>2021-12-17T12:52:16Z</time>
      </trkpt>
      <trkpt lat="46.41239" lon="5.26825">
        <ele>231.2</ele>
        <time>2021-12-17T12:52:18Z</time>
      </trkpt>
      <trkpt lat="46.41231" lon="5.2683">
        <ele>231.6</ele>
        <time>2021-12-17T12:52:20Z</time>
      </trkpt>
      <trkpt lat="46.41216" lon="5.26841">
        <ele>232</ele>
        <time>2021-12-17T12:52:24Z</time>
      </trkpt>
      <trkpt lat="46.41207" lon="5.26847">
        <ele>232.6</ele>
        <time>2021-12-17T12:52:26Z</time>
      </trkpt>
      <trkpt lat="46.41193" lon="5.26848">
        <ele>233.2</ele>
        <time>2021-12-17T12:52:29Z</time>
      </trkpt>
      <trkpt lat="46.41184" lon="5.26853">
        <ele>233.6</ele>
        <time>2021-12-17T12:52:31Z</time>
      </trkpt>
      <trkpt lat="46.41177" lon="5.26862">
        <ele>233.6</ele>
        <time>2021-12-17T12:52:33Z</time>
      </trkpt>
      <trkpt lat="46.41167" lon="5.26877">
        <ele>233.8</ele>
        <time>2021-12-17T12:52:36Z</time>
      </trkpt>
      <trkpt lat="46.4116" lon="5.26883">
        <ele>234</ele>
        <time>2021-12-17T12:52:38Z</time>
      </trkpt>
      <trkpt lat="46.41126" lon="5.26899">
        <ele>234.6</ele>
        <time>2021-12-17T12:52:45Z</time>
      </trkpt>
      <trkpt lat="46.41121" lon="5.269">
        <ele>234.6</ele>
        <time>2021-12-17T12:52:46Z</time>
      </trkpt>
      <trkpt lat="46.4108" lon="5.26905">
        <ele>235</ele>
        <time>2021-12-17T12:52:53Z</time>
      </trkpt>
      <trkpt lat="46.41034" lon="5.26902">
        <ele>234.4</ele>
        <time>2021-12-17T12:53:00Z</time>
      </trkpt>
      <trkpt lat="46.41026" lon="5.26903">
        <ele>234.2</ele>
        <time>2021-12-17T12:53:01Z</time>
      </trkpt>
      <trkpt lat="46.41003" lon="5.26907">
        <ele>233.6</ele>
        <time>2021-12-17T12:53:04Z</time>
      </trkpt>
      <trkpt lat="46.40996" lon="5.26908">
        <ele>233.4</ele>
        <time>2021-12-17T12:53:05Z</time>
      </trkpt>
      <trkpt lat="46.40949" lon="5.26915">
        <ele>232.6</ele>
        <time>2021-12-17T12:53:11Z</time>
      </trkpt>
      <trkpt lat="46.40942" lon="5.26917">
        <ele>232.4</ele>
        <time>2021-12-17T12:53:12Z</time>
      </trkpt>
      <trkpt lat="46.40892" lon="5.26934">
        <ele>231.4</ele>
        <time>2021-12-17T12:53:19Z</time>
      </trkpt>
      <trkpt lat="46.4084" lon="5.2696">
        <ele>230.4</ele>
        <time>2021-12-17T12:53:26Z</time>
      </trkpt>
      <trkpt lat="46.40832" lon="5.26964">
        <ele>230.2</ele>
        <time>2021-12-17T12:53:27Z</time>
      </trkpt>
      <trkpt lat="46.40796" lon="5.2698">
        <ele>230</ele>
        <time>2021-12-17T12:53:32Z</time>
      </trkpt>
      <trkpt lat="46.4078" lon="5.26982">
        <ele>229.6</ele>
        <time>2021-12-17T12:53:34Z</time>
      </trkpt>
      <trkpt lat="46.40737" lon="5.26976">
        <ele>229.4</ele>
        <time>2021-12-17T12:53:40Z</time>
      </trkpt>
      <trkpt lat="46.40699" lon="5.26968">
        <ele>229.6</ele>
        <time>2021-12-17T12:53:46Z</time>
      </trkpt>
      <trkpt lat="46.40652" lon="5.26955">
        <ele>231.2</ele>
        <time>2021-12-17T12:53:54Z</time>
      </trkpt>
      <trkpt lat="46.40608" lon="5.26931">
        <ele>231.2</ele>
        <time>2021-12-17T12:54:01Z</time>
      </trkpt>
      <trkpt lat="46.40552" lon="5.26902">
        <ele>231</ele>
        <time>2021-12-17T12:54:09Z</time>
      </trkpt>
      <trkpt lat="46.40546" lon="5.26899">
        <ele>230.8</ele>
        <time>2021-12-17T12:54:10Z</time>
      </trkpt>
      <trkpt lat="46.405" lon="5.26888">
        <ele>230.2</ele>
        <time>2021-12-17T12:54:16Z</time>
      </trkpt>
      <trkpt lat="46.4046" lon="5.26882">
        <ele>230</ele>
        <time>2021-12-17T12:54:22Z</time>
      </trkpt>
      <trkpt lat="46.40401" lon="5.26875">
        <ele>230.6</ele>
        <time>2021-12-17T12:54:30Z</time>
      </trkpt>
      <trkpt lat="46.40394" lon="5.26875">
        <ele>230.8</ele>
        <time>2021-12-17T12:54:31Z</time>
      </trkpt>
      <trkpt lat="46.40356" lon="5.26883">
        <ele>231</ele>
        <time>2021-12-17T12:54:37Z</time>
      </trkpt>
      <trkpt lat="46.40342" lon="5.26886">
        <ele>231.6</ele>
        <time>2021-12-17T12:54:40Z</time>
      </trkpt>
      <trkpt lat="46.40304" lon="5.2689">
        <ele>231.8</ele>
        <time>2021-12-17T12:54:45Z</time>
      </trkpt>
      <trkpt lat="46.40246" lon="5.26893">
        <ele>232</ele>
        <time>2021-12-17T12:54:54Z</time>
      </trkpt>
      <trkpt lat="46.4024" lon="5.26893">
        <ele>232</ele>
        <time>2021-12-17T12:54:55Z</time>
      </trkpt>
      <trkpt lat="46.40191" lon="5.26896">
        <ele>232.4</ele>
        <time>2021-12-17T12:55:04Z</time>
      </trkpt>
      <trkpt lat="46.40156" lon="5.26898">
        <ele>232.6</ele>
        <time>2021-12-17T12:55:09Z</time>
      </trkpt>
      <trkpt lat="46.40126" lon="5.26898">
        <ele>233.4</ele>
        <time>2021-12-17T12:55:14Z</time>
      </trkpt>
      <trkpt lat="46.40103" lon="5.26898">
        <ele>233.8</ele>
        <time>2021-12-17T12:55:18Z</time>
      </trkpt>
      <trkpt lat="46.40086" lon="5.26895">
        <ele>234</ele>
        <time>2021-12-17T12:55:21Z</time>
      </trkpt>
      <trkpt lat="46.40053" lon="5.26883">
        <ele>234.8</ele>
        <time>2021-12-17T12:55:27Z</time>
      </trkpt>
      <trkpt lat="46.40032" lon="5.26876">
        <ele>235.4</ele>
        <time>2021-12-17T12:55:31Z</time>
      </trkpt>
      <trkpt lat="46.40016" lon="5.26869">
        <ele>236</ele>
        <time>2021-12-17T12:55:34Z</time>
      </trkpt>
      <trkpt lat="46.39969" lon="5.26847">
        <ele>236.4</ele>
        <time>2021-12-17T12:55:42Z</time>
      </trkpt>
      <trkpt lat="46.39919" lon="5.26825">
        <ele>236</ele>
        <time>2021-12-17T12:55:49Z</time>
      </trkpt>
      <trkpt lat="46.39879" lon="5.26809">
        <ele>234.8</ele>
        <time>2021-12-17T12:55:54Z</time>
      </trkpt>
      <trkpt lat="46.3987" lon="5.26808">
        <ele>234.6</ele>
        <time>2021-12-17T12:55:55Z</time>
      </trkpt>
      <trkpt lat="46.39853" lon="5.26808">
        <ele>233.6</ele>
        <time>2021-12-17T12:55:57Z</time>
      </trkpt>
      <trkpt lat="46.39826" lon="5.26811">
        <ele>232.6</ele>
        <time>2021-12-17T12:56:00Z</time>
      </trkpt>
      <trkpt lat="46.39792" lon="5.26816">
        <ele>231.6</ele>
        <time>2021-12-17T12:56:04Z</time>
      </trkpt>
      <trkpt lat="46.39777" lon="5.2682">
        <ele>231.2</ele>
        <time>2021-12-17T12:56:06Z</time>
      </trkpt>
      <trkpt lat="46.39733" lon="5.26835">
        <ele>230.8</ele>
        <time>2021-12-17T12:56:13Z</time>
      </trkpt>
      <trkpt lat="46.39713" lon="5.2684">
        <ele>231</ele>
        <time>2021-12-17T12:56:15Z</time>
      </trkpt>
      <trkpt lat="46.39701" lon="5.2684">
        <ele>231.2</ele>
        <time>2021-12-17T12:56:17Z</time>
      </trkpt>
      <trkpt lat="46.39695" lon="5.26839">
        <ele>231.4</ele>
        <time>2021-12-17T12:56:18Z</time>
      </trkpt>
      <trkpt lat="46.39662" lon="5.26834">
        <ele>232.6</ele>
        <time>2021-12-17T12:56:24Z</time>
      </trkpt>
      <trkpt lat="46.39657" lon="5.26833">
        <ele>232.8</ele>
        <time>2021-12-17T12:56:25Z</time>
      </trkpt>
      <trkpt lat="46.39623" lon="5.26826">
        <ele>233.4</ele>
        <time>2021-12-17T12:56:31Z</time>
      </trkpt>
      <trkpt lat="46.39612" lon="5.26827">
        <ele>233.8</ele>
        <time>2021-12-17T12:56:33Z</time>
      </trkpt>
      <trkpt lat="46.39602" lon="5.26832">
        <ele>234.2</ele>
        <time>2021-12-17T12:56:35Z</time>
      </trkpt>
      <trkpt lat="46.39593" lon="5.26841">
        <ele>234.6</ele>
        <time>2021-12-17T12:56:37Z</time>
      </trkpt>
      <trkpt lat="46.39585" lon="5.2686">
        <ele>234.8</ele>
        <time>2021-12-17T12:56:40Z</time>
      </trkpt>
      <trkpt lat="46.39583" lon="5.26867">
        <ele>235</ele>
        <time>2021-12-17T12:56:41Z</time>
      </trkpt>
      <trkpt lat="46.39577" lon="5.2688">
        <ele>235.2</ele>
        <time>2021-12-17T12:56:43Z</time>
      </trkpt>
      <trkpt lat="46.39569" lon="5.2689">
        <ele>235.6</ele>
        <time>2021-12-17T12:56:45Z</time>
      </trkpt>
      <trkpt lat="46.39565" lon="5.26895">
        <ele>235.8</ele>
        <time>2021-12-17T12:56:46Z</time>
      </trkpt>
      <trkpt lat="46.3955" lon="5.26907">
        <ele>236.2</ele>
        <time>2021-12-17T12:56:49Z</time>
      </trkpt>
      <trkpt lat="46.39539" lon="5.26913">
        <ele>236.4</ele>
        <time>2021-12-17T12:56:51Z</time>
      </trkpt>
      <trkpt lat="46.39522" lon="5.2692">
        <ele>237</ele>
        <time>2021-12-17T12:56:54Z</time>
      </trkpt>
      <trkpt lat="46.39516" lon="5.26923">
        <ele>237</ele>
        <time>2021-12-17T12:56:55Z</time>
      </trkpt>
      <trkpt lat="46.395" lon="5.26937">
        <ele>237.2</ele>
        <time>2021-12-17T12:56:58Z</time>
      </trkpt>
      <trkpt lat="46.39487" lon="5.26959">
        <ele>237</ele>
        <time>2021-12-17T12:57:01Z</time>
      </trkpt>
      <trkpt lat="46.39474" lon="5.26984">
        <ele>236.8</ele>
        <time>2021-12-17T12:57:04Z</time>
      </trkpt>
      <trkpt lat="46.39452" lon="5.27043">
        <ele>236.2</ele>
        <time>2021-12-17T12:57:10Z</time>
      </trkpt>
      <trkpt lat="46.39449" lon="5.27054">
        <ele>236</ele>
        <time>2021-12-17T12:57:11Z</time>
      </trkpt>
      <trkpt lat="46.39446" lon="5.27064">
        <ele>235.8</ele>
        <time>2021-12-17T12:57:12Z</time>
      </trkpt>
      <trkpt lat="46.3944" lon="5.27085">
        <ele>235.6</ele>
        <time>2021-12-17T12:57:14Z</time>
      </trkpt>
      <trkpt lat="46.39436" lon="5.27094">
        <ele>235.2</ele>
        <time>2021-12-17T12:57:16Z</time>
      </trkpt>
      <trkpt lat="46.39425" lon="5.27109">
        <ele>235.2</ele>
        <time>2021-12-17T12:57:17Z</time>
      </trkpt>
      <trkpt lat="46.39419" lon="5.27114">
        <ele>235</ele>
        <time>2021-12-17T12:57:19Z</time>
      </trkpt>
      <trkpt lat="46.39398" lon="5.27126">
        <ele>234.8</ele>
        <time>2021-12-17T12:57:21Z</time>
      </trkpt>
      <trkpt lat="46.39379" lon="5.2714">
        <ele>234.8</ele>
        <time>2021-12-17T12:57:24Z</time>
      </trkpt>
      <trkpt lat="46.39329" lon="5.27175">
        <ele>234.8</ele>
        <time>2021-12-17T12:57:32Z</time>
      </trkpt>
      <trkpt lat="46.39324" lon="5.27177">
        <ele>234.8</ele>
        <time>2021-12-17T12:57:33Z</time>
      </trkpt>
      <trkpt lat="46.39275" lon="5.27203">
        <ele>235.8</ele>
        <time>2021-12-17T12:57:41Z</time>
      </trkpt>
      <trkpt lat="46.39269" lon="5.27205">
        <ele>235.8</ele>
        <time>2021-12-17T12:57:42Z</time>
      </trkpt>
      <trkpt lat="46.39252" lon="5.27215">
        <ele>236</ele>
        <time>2021-12-17T12:57:45Z</time>
      </trkpt>
      <trkpt lat="46.39237" lon="5.27229">
        <ele>236.4</ele>
        <time>2021-12-17T12:57:48Z</time>
      </trkpt>
      <trkpt lat="46.39224" lon="5.27248">
        <ele>236.8</ele>
        <time>2021-12-17T12:57:51Z</time>
      </trkpt>
      <trkpt lat="46.39218" lon="5.27263">
        <ele>237</ele>
        <time>2021-12-17T12:57:53Z</time>
      </trkpt>
      <trkpt lat="46.39199" lon="5.2733">
        <ele>238</ele>
        <time>2021-12-17T12:58:02Z</time>
      </trkpt>
      <trkpt lat="46.39196" lon="5.27337">
        <ele>238.2</ele>
        <time>2021-12-17T12:58:03Z</time>
      </trkpt>
      <trkpt lat="46.39185" lon="5.27375">
        <ele>238.4</ele>
        <time>2021-12-17T12:58:08Z</time>
      </trkpt>
      <trkpt lat="46.39181" lon="5.27382">
        <ele>238.6</ele>
        <time>2021-12-17T12:58:10Z</time>
      </trkpt>
      <trkpt lat="46.39173" lon="5.27394">
        <ele>238.6</ele>
        <time>2021-12-17T12:58:11Z</time>
      </trkpt>
      <trkpt lat="46.39158" lon="5.27409">
        <ele>238.8</ele>
        <time>2021-12-17T12:58:14Z</time>
      </trkpt>
      <trkpt lat="46.3911" lon="5.27449">
        <ele>238.6</ele>
        <time>2021-12-17T12:58:23Z</time>
      </trkpt>
      <trkpt lat="46.39077" lon="5.27472">
        <ele>238.6</ele>
        <time>2021-12-17T12:58:29Z</time>
      </trkpt>
      <trkpt lat="46.39066" lon="5.2748">
        <ele>238.6</ele>
        <time>2021-12-17T12:58:31Z</time>
      </trkpt>
      <trkpt lat="46.39061" lon="5.27484">
        <ele>238.6</ele>
        <time>2021-12-17T12:58:32Z</time>
      </trkpt>
      <trkpt lat="46.39013" lon="5.27519">
        <ele>238.6</ele>
        <time>2021-12-17T12:58:41Z</time>
      </trkpt>
      <trkpt lat="46.39005" lon="5.27525">
        <ele>238.6</ele>
        <time>2021-12-17T12:58:43Z</time>
      </trkpt>
      <trkpt lat="46.38993" lon="5.27534">
        <ele>238.8</ele>
        <time>2021-12-17T12:58:46Z</time>
      </trkpt>
      <trkpt lat="46.3898" lon="5.27543">
        <ele>239.4</ele>
        <time>2021-12-17T12:58:49Z</time>
      </trkpt>
      <trkpt lat="46.38976" lon="5.27546">
        <ele>239.4</ele>
        <time>2021-12-17T12:58:50Z</time>
      </trkpt>
      <trkpt lat="46.38966" lon="5.27551">
        <ele>239.6</ele>
        <time>2021-12-17T12:58:52Z</time>
      </trkpt>
      <trkpt lat="46.38945" lon="5.27559">
        <ele>240.2</ele>
        <time>2021-12-17T12:58:55Z</time>
      </trkpt>
      <trkpt lat="46.38926" lon="5.27564">
        <ele>240.2</ele>
        <time>2021-12-17T12:58:58Z</time>
      </trkpt>
      <trkpt lat="46.38913" lon="5.27563">
        <ele>240.4</ele>
        <time>2021-12-17T12:59:00Z</time>
      </trkpt>
      <trkpt lat="46.38907" lon="5.27561">
        <ele>240.4</ele>
        <time>2021-12-17T12:59:01Z</time>
      </trkpt>
      <trkpt lat="46.3888" lon="5.27546">
        <ele>240.4</ele>
        <time>2021-12-17T12:59:05Z</time>
      </trkpt>
      <trkpt lat="46.38849" lon="5.2753">
        <ele>240.4</ele>
        <time>2021-12-17T12:59:10Z</time>
      </trkpt>
      <trkpt lat="46.38844" lon="5.27526">
        <ele>240.4</ele>
        <time>2021-12-17T12:59:11Z</time>
      </trkpt>
      <trkpt lat="46.38832" lon="5.27519">
        <ele>240.6</ele>
        <time>2021-12-17T12:59:13Z</time>
      </trkpt>
      <trkpt lat="46.38818" lon="5.27513">
        <ele>240.6</ele>
        <time>2021-12-17T12:59:15Z</time>
      </trkpt>
      <trkpt lat="46.38812" lon="5.27512">
        <ele>240.6</ele>
        <time>2021-12-17T12:59:16Z</time>
      </trkpt>
      <trkpt lat="46.3879" lon="5.27502">
        <ele>240.6</ele>
        <time>2021-12-17T12:59:20Z</time>
      </trkpt>
      <trkpt lat="46.38785" lon="5.27501">
        <ele>240.6</ele>
        <time>2021-12-17T12:59:21Z</time>
      </trkpt>
      <trkpt lat="46.38772" lon="5.27498">
        <ele>240.6</ele>
        <time>2021-12-17T12:59:23Z</time>
      </trkpt>
      <trkpt lat="46.38754" lon="5.2749">
        <ele>240.8</ele>
        <time>2021-12-17T12:59:26Z</time>
      </trkpt>
      <trkpt lat="46.38748" lon="5.27486">
        <ele>240.8</ele>
        <time>2021-12-17T12:59:27Z</time>
      </trkpt>
      <trkpt lat="46.38743" lon="5.27482">
        <ele>240.8</ele>
        <time>2021-12-17T12:59:28Z</time>
      </trkpt>
      <trkpt lat="46.38727" lon="5.27471">
        <ele>241</ele>
        <time>2021-12-17T12:59:31Z</time>
      </trkpt>
      <trkpt lat="46.38718" lon="5.27468">
        <ele>241.2</ele>
        <time>2021-12-17T12:59:32Z</time>
      </trkpt>
      <trkpt lat="46.38712" lon="5.27464">
        <ele>241.2</ele>
        <time>2021-12-17T12:59:33Z</time>
      </trkpt>
      <trkpt lat="46.38679" lon="5.27429">
        <ele>241.8</ele>
        <time>2021-12-17T12:59:40Z</time>
      </trkpt>
      <trkpt lat="46.38665" lon="5.27418">
        <ele>242.2</ele>
        <time>2021-12-17T12:59:44Z</time>
      </trkpt>
      <trkpt lat="46.3865" lon="5.27407">
        <ele>242.4</ele>
        <time>2021-12-17T12:59:46Z</time>
      </trkpt>
      <trkpt lat="46.3864" lon="5.27404">
        <ele>242.6</ele>
        <time>2021-12-17T12:59:48Z</time>
      </trkpt>
      <trkpt lat="46.38629" lon="5.27407">
        <ele>242.6</ele>
        <time>2021-12-17T12:59:50Z</time>
      </trkpt>
      <trkpt lat="46.38625" lon="5.27412">
        <ele>242.6</ele>
        <time>2021-12-17T12:59:51Z</time>
      </trkpt>
      <trkpt lat="46.3862" lon="5.27418">
        <ele>242.6</ele>
        <time>2021-12-17T12:59:52Z</time>
      </trkpt>
      <trkpt lat="46.38609" lon="5.27438">
        <ele>242.6</ele>
        <time>2021-12-17T12:59:55Z</time>
      </trkpt>
      <trkpt lat="46.38604" lon="5.27445">
        <ele>242.6</ele>
        <time>2021-12-17T12:59:56Z</time>
      </trkpt>
      <trkpt lat="46.38586" lon="5.27466">
        <ele>242</ele>
        <time>2021-12-17T12:59:59Z</time>
      </trkpt>
      <trkpt lat="46.38572" lon="5.27478">
        <ele>241.6</ele>
        <time>2021-12-17T13:00:01Z</time>
      </trkpt>
      <trkpt lat="46.38563" lon="5.27483">
        <ele>241</ele>
        <time>2021-12-17T13:00:02Z</time>
      </trkpt>
      <trkpt lat="46.38554" lon="5.27489">
        <ele>240.8</ele>
        <time>2021-12-17T13:00:03Z</time>
      </trkpt>
      <trkpt lat="46.38545" lon="5.27494">
        <ele>240</ele>
        <time>2021-12-17T13:00:04Z</time>
      </trkpt>
      <trkpt lat="46.38516" lon="5.27512">
        <ele>238.6</ele>
        <time>2021-12-17T13:00:07Z</time>
      </trkpt>
      <trkpt lat="46.38506" lon="5.2752">
        <ele>237.8</ele>
        <time>2021-12-17T13:00:08Z</time>
      </trkpt>
      <trkpt lat="46.38497" lon="5.27529">
        <ele>237.4</ele>
        <time>2021-12-17T13:00:09Z</time>
      </trkpt>
      <trkpt lat="46.38478" lon="5.2755">
        <ele>235</ele>
        <time>2021-12-17T13:00:11Z</time>
      </trkpt>
      <trkpt lat="46.38468" lon="5.27561">
        <ele>234.6</ele>
        <time>2021-12-17T13:00:12Z</time>
      </trkpt>
      <trkpt lat="46.3846" lon="5.27572">
        <ele>233.2</ele>
        <time>2021-12-17T13:00:13Z</time>
      </trkpt>
      <trkpt lat="46.38442" lon="5.27595">
        <ele>230.8</ele>
        <time>2021-12-17T13:00:15Z</time>
      </trkpt>
      <trkpt lat="46.38425" lon="5.27616">
        <ele>229.2</ele>
        <time>2021-12-17T13:00:17Z</time>
      </trkpt>
      <trkpt lat="46.38408" lon="5.27637">
        <ele>228</ele>
        <time>2021-12-17T13:00:19Z</time>
      </trkpt>
      <trkpt lat="46.38399" lon="5.27646">
        <ele>227.4</ele>
        <time>2021-12-17T13:00:20Z</time>
      </trkpt>
      <trkpt lat="46.3839" lon="5.27655">
        <ele>227</ele>
        <time>2021-12-17T13:00:21Z</time>
      </trkpt>
      <trkpt lat="46.38361" lon="5.27675">
        <ele>225.4</ele>
        <time>2021-12-17T13:00:24Z</time>
      </trkpt>
      <trkpt lat="46.38342" lon="5.2769">
        <ele>224.2</ele>
        <time>2021-12-17T13:00:26Z</time>
      </trkpt>
      <trkpt lat="46.38316" lon="5.27709">
        <ele>223.2</ele>
        <time>2021-12-17T13:00:29Z</time>
      </trkpt>
      <trkpt lat="46.38299" lon="5.27718">
        <ele>222.6</ele>
        <time>2021-12-17T13:00:31Z</time>
      </trkpt>
      <trkpt lat="46.38273" lon="5.27727">
        <ele>221.8</ele>
        <time>2021-12-17T13:00:34Z</time>
      </trkpt>
      <trkpt lat="46.38247" lon="5.27735">
        <ele>221</ele>
        <time>2021-12-17T13:00:37Z</time>
      </trkpt>
      <trkpt lat="46.38238" lon="5.27739">
        <ele>220.8</ele>
        <time>2021-12-17T13:00:39Z</time>
      </trkpt>
      <trkpt lat="46.38223" lon="5.27748">
        <ele>220.6</ele>
        <time>2021-12-17T13:00:40Z</time>
      </trkpt>
      <trkpt lat="46.38208" lon="5.27759">
        <ele>220.4</ele>
        <time>2021-12-17T13:00:42Z</time>
      </trkpt>
      <trkpt lat="46.38187" lon="5.27778">
        <ele>219.8</ele>
        <time>2021-12-17T13:00:45Z</time>
      </trkpt>
      <trkpt lat="46.38182" lon="5.27786">
        <ele>219.6</ele>
        <time>2021-12-17T13:00:46Z</time>
      </trkpt>
      <trkpt lat="46.38178" lon="5.27796">
        <ele>219.4</ele>
        <time>2021-12-17T13:00:47Z</time>
      </trkpt>
      <trkpt lat="46.38174" lon="5.27819">
        <ele>218.8</ele>
        <time>2021-12-17T13:00:49Z</time>
      </trkpt>
      <trkpt lat="46.38173" lon="5.27842">
        <ele>218.4</ele>
        <time>2021-12-17T13:00:51Z</time>
      </trkpt>
      <trkpt lat="46.3817" lon="5.27886">
        <ele>218.2</ele>
        <time>2021-12-17T13:00:55Z</time>
      </trkpt>
      <trkpt lat="46.3816" lon="5.27958">
        <ele>218.4</ele>
        <time>2021-12-17T13:01:02Z</time>
      </trkpt>
      <trkpt lat="46.38158" lon="5.27968">
        <ele>218.6</ele>
        <time>2021-12-17T13:01:03Z</time>
      </trkpt>
      <trkpt lat="46.38153" lon="5.27984">
        <ele>218.6</ele>
        <time>2021-12-17T13:01:05Z</time>
      </trkpt>
      <trkpt lat="46.38149" lon="5.27992">
        <ele>218.6</ele>
        <time>2021-12-17T13:01:06Z</time>
      </trkpt>
      <trkpt lat="46.38145" lon="5.27998">
        <ele>218.8</ele>
        <time>2021-12-17T13:01:07Z</time>
      </trkpt>
      <trkpt lat="46.38122" lon="5.2803">
        <ele>219.4</ele>
        <time>2021-12-17T13:01:12Z</time>
      </trkpt>
      <trkpt lat="46.38108" lon="5.28049">
        <ele>219.4</ele>
        <time>2021-12-17T13:01:15Z</time>
      </trkpt>
      <trkpt lat="46.38092" lon="5.28075">
        <ele>219.8</ele>
        <time>2021-12-17T13:01:19Z</time>
      </trkpt>
      <trkpt lat="46.38073" lon="5.28104">
        <ele>220.6</ele>
        <time>2021-12-17T13:01:24Z</time>
      </trkpt>
      <trkpt lat="46.38065" lon="5.28115">
        <ele>220.8</ele>
        <time>2021-12-17T13:01:26Z</time>
      </trkpt>
      <trkpt lat="46.38032" lon="5.28164">
        <ele>221.8</ele>
        <time>2021-12-17T13:01:36Z</time>
      </trkpt>
      <trkpt lat="46.38018" lon="5.28177">
        <ele>222.8</ele>
        <time>2021-12-17T13:01:40Z</time>
      </trkpt>
      <trkpt lat="46.38015" lon="5.28179">
        <ele>223</ele>
        <time>2021-12-17T13:01:41Z</time>
      </trkpt>
      <trkpt lat="46.37998" lon="5.2819">
        <ele>224.4</ele>
        <time>2021-12-17T13:01:46Z</time>
      </trkpt>
      <trkpt lat="46.37987" lon="5.28198">
        <ele>225.6</ele>
        <time>2021-12-17T13:01:49Z</time>
      </trkpt>
      <trkpt lat="46.37975" lon="5.28211">
        <ele>226.4</ele>
        <time>2021-12-17T13:01:53Z</time>
      </trkpt>
      <trkpt lat="46.3797" lon="5.28218">
        <ele>226.8</ele>
        <time>2021-12-17T13:01:55Z</time>
      </trkpt>
      <trkpt lat="46.37963" lon="5.28228">
        <ele>228</ele>
        <time>2021-12-17T13:01:58Z</time>
      </trkpt>
      <trkpt lat="46.37961" lon="5.28231">
        <ele>228.2</ele>
        <time>2021-12-17T13:01:59Z</time>
      </trkpt>
      <trkpt lat="46.37955" lon="5.28243">
        <ele>229.2</ele>
        <time>2021-12-17T13:02:02Z</time>
      </trkpt>
      <trkpt lat="46.37948" lon="5.28253">
        <ele>230.4</ele>
        <time>2021-12-17T13:02:05Z</time>
      </trkpt>
      <trkpt lat="46.37945" lon="5.28261">
        <ele>231.4</ele>
        <time>2021-12-17T13:02:07Z</time>
      </trkpt>
      <trkpt lat="46.37943" lon="5.28265">
        <ele>231.6</ele>
        <time>2021-12-17T13:02:08Z</time>
      </trkpt>
      <trkpt lat="46.37937" lon="5.28278">
        <ele>232.6</ele>
        <time>2021-12-17T13:02:11Z</time>
      </trkpt>
      <trkpt lat="46.37926" lon="5.28301">
        <ele>234</ele>
        <time>2021-12-17T13:02:16Z</time>
      </trkpt>
      <trkpt lat="46.37912" lon="5.28329">
        <ele>234.4</ele>
        <time>2021-12-17T13:02:21Z</time>
      </trkpt>
      <trkpt lat="46.37889" lon="5.28369">
        <ele>234.2</ele>
        <time>2021-12-17T13:02:26Z</time>
      </trkpt>
      <trkpt lat="46.37874" lon="5.28404">
        <ele>232.8</ele>
        <time>2021-12-17T13:02:29Z</time>
      </trkpt>
      <trkpt lat="46.3787" lon="5.28417">
        <ele>232.4</ele>
        <time>2021-12-17T13:02:30Z</time>
      </trkpt>
      <trkpt lat="46.37865" lon="5.28431">
        <ele>231.6</ele>
        <time>2021-12-17T13:02:31Z</time>
      </trkpt>
      <trkpt lat="46.37856" lon="5.28461">
        <ele>230.6</ele>
        <time>2021-12-17T13:02:33Z</time>
      </trkpt>
      <trkpt lat="46.37852" lon="5.28477">
        <ele>229.8</ele>
        <time>2021-12-17T13:02:34Z</time>
      </trkpt>
      <trkpt lat="46.37848" lon="5.28493">
        <ele>229.2</ele>
        <time>2021-12-17T13:02:35Z</time>
      </trkpt>
      <trkpt lat="46.37845" lon="5.2851">
        <ele>228</ele>
        <time>2021-12-17T13:02:36Z</time>
      </trkpt>
      <trkpt lat="46.37841" lon="5.28543">
        <ele>226.6</ele>
        <time>2021-12-17T13:02:38Z</time>
      </trkpt>
      <trkpt lat="46.37839" lon="5.28559">
        <ele>226.2</ele>
        <time>2021-12-17T13:02:39Z</time>
      </trkpt>
      <trkpt lat="46.37837" lon="5.28574">
        <ele>224.6</ele>
        <time>2021-12-17T13:02:40Z</time>
      </trkpt>
      <trkpt lat="46.3783" lon="5.28603">
        <ele>223.6</ele>
        <time>2021-12-17T13:02:42Z</time>
      </trkpt>
      <trkpt lat="46.37826" lon="5.28615">
        <ele>222.8</ele>
        <time>2021-12-17T13:02:43Z</time>
      </trkpt>
      <trkpt lat="46.37821" lon="5.28627">
        <ele>222.4</ele>
        <time>2021-12-17T13:02:44Z</time>
      </trkpt>
      <trkpt lat="46.37806" lon="5.2866">
        <ele>221.4</ele>
        <time>2021-12-17T13:02:47Z</time>
      </trkpt>
      <trkpt lat="46.37802" lon="5.28671">
        <ele>221.4</ele>
        <time>2021-12-17T13:02:48Z</time>
      </trkpt>
      <trkpt lat="46.37784" lon="5.2873">
        <ele>221.4</ele>
        <time>2021-12-17T13:02:54Z</time>
      </trkpt>
      <trkpt lat="46.37777" lon="5.28763">
        <ele>223</ele>
        <time>2021-12-17T13:02:59Z</time>
      </trkpt>
      <trkpt lat="46.37772" lon="5.28786">
        <ele>224.2</ele>
        <time>2021-12-17T13:03:03Z</time>
      </trkpt>
      <trkpt lat="46.37767" lon="5.28804">
        <ele>225.6</ele>
        <time>2021-12-17T13:03:06Z</time>
      </trkpt>
      <trkpt lat="46.37765" lon="5.2881">
        <ele>225.8</ele>
        <time>2021-12-17T13:03:07Z</time>
      </trkpt>
      <trkpt lat="46.37761" lon="5.28821">
        <ele>226.8</ele>
        <time>2021-12-17T13:03:10Z</time>
      </trkpt>
      <trkpt lat="46.37749" lon="5.28856">
        <ele>227.8</ele>
        <time>2021-12-17T13:03:15Z</time>
      </trkpt>
      <trkpt lat="46.37747" lon="5.2886">
        <ele>228</ele>
        <time>2021-12-17T13:03:16Z</time>
      </trkpt>
      <trkpt lat="46.37742" lon="5.2887">
        <ele>228.2</ele>
        <time>2021-12-17T13:03:18Z</time>
      </trkpt>
      <trkpt lat="46.37732" lon="5.28884">
        <ele>229</ele>
        <time>2021-12-17T13:03:21Z</time>
      </trkpt>
      <trkpt lat="46.37726" lon="5.28891">
        <ele>229.4</ele>
        <time>2021-12-17T13:03:23Z</time>
      </trkpt>
      <trkpt lat="46.37722" lon="5.28895">
        <ele>229.6</ele>
        <time>2021-12-17T13:03:24Z</time>
      </trkpt>
      <trkpt lat="46.37716" lon="5.289">
        <ele>230</ele>
        <time>2021-12-17T13:03:26Z</time>
      </trkpt>
      <trkpt lat="46.3771" lon="5.28906">
        <ele>230.2</ele>
        <time>2021-12-17T13:03:28Z</time>
      </trkpt>
      <trkpt lat="46.377" lon="5.28913">
        <ele>231.4</ele>
        <time>2021-12-17T13:03:31Z</time>
      </trkpt>
      <trkpt lat="46.37691" lon="5.28918">
        <ele>232.2</ele>
        <time>2021-12-17T13:03:34Z</time>
      </trkpt>
      <trkpt lat="46.37688" lon="5.28919">
        <ele>232.8</ele>
        <time>2021-12-17T13:03:35Z</time>
      </trkpt>
      <trkpt lat="46.37674" lon="5.28927">
        <ele>233.8</ele>
        <time>2021-12-17T13:03:39Z</time>
      </trkpt>
      <trkpt lat="46.37665" lon="5.28933">
        <ele>234.8</ele>
        <time>2021-12-17T13:03:42Z</time>
      </trkpt>
      <trkpt lat="46.37661" lon="5.28936">
        <ele>235</ele>
        <time>2021-12-17T13:03:43Z</time>
      </trkpt>
      <trkpt lat="46.37651" lon="5.28946">
        <ele>236</ele>
        <time>2021-12-17T13:03:46Z</time>
      </trkpt>
      <trkpt lat="46.37641" lon="5.28956">
        <ele>236.6</ele>
        <time>2021-12-17T13:03:49Z</time>
      </trkpt>
      <trkpt lat="46.37637" lon="5.28961">
        <ele>236.8</ele>
        <time>2021-12-17T13:03:50Z</time>
      </trkpt>
      <trkpt lat="46.37614" lon="5.28986">
        <ele>237</ele>
        <time>2021-12-17T13:03:55Z</time>
      </trkpt>
      <trkpt lat="46.37579" lon="5.29029">
        <ele>236.4</ele>
        <time>2021-12-17T13:04:02Z</time>
      </trkpt>
      <trkpt lat="46.37561" lon="5.29047">
        <ele>236</ele>
        <time>2021-12-17T13:04:05Z</time>
      </trkpt>
      <trkpt lat="46.37539" lon="5.29071">
        <ele>235.6</ele>
        <time>2021-12-17T13:04:09Z</time>
      </trkpt>
      <trkpt lat="46.37502" lon="5.29115">
        <ele>235</ele>
        <time>2021-12-17T13:04:16Z</time>
      </trkpt>
      <trkpt lat="46.37498" lon="5.29123">
        <ele>234.8</ele>
        <time>2021-12-17T13:04:17Z</time>
      </trkpt>
      <trkpt lat="46.37487" lon="5.29145">
        <ele>234.8</ele>
        <time>2021-12-17T13:04:20Z</time>
      </trkpt>
      <trkpt lat="46.37484" lon="5.29153">
        <ele>235</ele>
        <time>2021-12-17T13:04:21Z</time>
      </trkpt>
      <trkpt lat="46.37475" lon="5.29193">
        <ele>235</ele>
        <time>2021-12-17T13:04:26Z</time>
      </trkpt>
      <trkpt lat="46.37467" lon="5.29231">
        <ele>236</ele>
        <time>2021-12-17T13:04:32Z</time>
      </trkpt>
      <trkpt lat="46.37466" lon="5.29237">
        <ele>236.2</ele>
        <time>2021-12-17T13:04:33Z</time>
      </trkpt>
      <trkpt lat="46.37461" lon="5.29257">
        <ele>237.4</ele>
        <time>2021-12-17T13:04:37Z</time>
      </trkpt>
      <trkpt lat="46.3746" lon="5.29262">
        <ele>238</ele>
        <time>2021-12-17T13:04:38Z</time>
      </trkpt>
      <trkpt lat="46.37457" lon="5.29267">
        <ele>238.4</ele>
        <time>2021-12-17T13:04:39Z</time>
      </trkpt>
      <trkpt lat="46.37454" lon="5.29272">
        <ele>238.6</ele>
        <time>2021-12-17T13:04:40Z</time>
      </trkpt>
      <trkpt lat="46.37445" lon="5.29274">
        <ele>239.2</ele>
        <time>2021-12-17T13:04:42Z</time>
      </trkpt>
      <trkpt lat="46.37441" lon="5.29271">
        <ele>239.4</ele>
        <time>2021-12-17T13:04:43Z</time>
      </trkpt>
      <trkpt lat="46.37438" lon="5.29266">
        <ele>239.6</ele>
        <time>2021-12-17T13:04:44Z</time>
      </trkpt>
      <trkpt lat="46.37435" lon="5.29262">
        <ele>239.8</ele>
        <time>2021-12-17T13:04:45Z</time>
      </trkpt>
      <trkpt lat="46.37425" lon="5.29247">
        <ele>240.2</ele>
        <time>2021-12-17T13:04:48Z</time>
      </trkpt>
      <trkpt lat="46.37416" lon="5.29231">
        <ele>240.6</ele>
        <time>2021-12-17T13:04:51Z</time>
      </trkpt>
      <trkpt lat="46.37414" lon="5.29224">
        <ele>240.8</ele>
        <time>2021-12-17T13:04:52Z</time>
      </trkpt>
      <trkpt lat="46.37412" lon="5.29217">
        <ele>241</ele>
        <time>2021-12-17T13:04:53Z</time>
      </trkpt>
      <trkpt lat="46.37404" lon="5.29188">
        <ele>241</ele>
        <time>2021-12-17T13:04:57Z</time>
      </trkpt>
      <trkpt lat="46.37398" lon="5.29175">
        <ele>241.2</ele>
        <time>2021-12-17T13:04:59Z</time>
      </trkpt>
      <trkpt lat="46.37387" lon="5.29158">
        <ele>241.2</ele>
        <time>2021-12-17T13:05:02Z</time>
      </trkpt>
      <trkpt lat="46.3736" lon="5.29113">
        <ele>241.6</ele>
        <time>2021-12-17T13:05:10Z</time>
      </trkpt>
      <trkpt lat="46.37351" lon="5.29076">
        <ele>242.2</ele>
        <time>2021-12-17T13:05:15Z</time>
      </trkpt>
      <trkpt lat="46.37349" lon="5.29069">
        <ele>242.2</ele>
        <time>2021-12-17T13:05:16Z</time>
      </trkpt>
      <trkpt lat="46.37342" lon="5.29057">
        <ele>242.4</ele>
        <time>2021-12-17T13:05:18Z</time>
      </trkpt>
      <trkpt lat="46.37338" lon="5.29052">
        <ele>242.6</ele>
        <time>2021-12-17T13:05:19Z</time>
      </trkpt>
      <trkpt lat="46.37333" lon="5.29048">
        <ele>242.6</ele>
        <time>2021-12-17T13:05:20Z</time>
      </trkpt>
      <trkpt lat="46.37329" lon="5.29044">
        <ele>242.8</ele>
        <time>2021-12-17T13:05:21Z</time>
      </trkpt>
      <trkpt lat="46.37314" lon="5.29036">
        <ele>243</ele>
        <time>2021-12-17T13:05:24Z</time>
      </trkpt>
      <trkpt lat="46.37309" lon="5.29034">
        <ele>243</ele>
        <time>2021-12-17T13:05:25Z</time>
      </trkpt>
      <trkpt lat="46.37283" lon="5.29029">
        <ele>243.4</ele>
        <time>2021-12-17T13:05:30Z</time>
      </trkpt>
      <trkpt lat="46.37278" lon="5.29029">
        <ele>243.4</ele>
        <time>2021-12-17T13:05:31Z</time>
      </trkpt>
      <trkpt lat="46.37267" lon="5.29033">
        <ele>244</ele>
        <time>2021-12-17T13:05:33Z</time>
      </trkpt>
      <trkpt lat="46.37262" lon="5.29036">
        <ele>244</ele>
        <time>2021-12-17T13:05:34Z</time>
      </trkpt>
      <trkpt lat="46.37258" lon="5.29039">
        <ele>244.4</ele>
        <time>2021-12-17T13:05:35Z</time>
      </trkpt>
      <trkpt lat="46.37234" lon="5.29059">
        <ele>244.8</ele>
        <time>2021-12-17T13:05:40Z</time>
      </trkpt>
      <trkpt lat="46.37229" lon="5.2906">
        <ele>245</ele>
        <time>2021-12-17T13:05:41Z</time>
      </trkpt>
      <trkpt lat="46.37207" lon="5.29062">
        <ele>245.4</ele>
        <time>2021-12-17T13:05:45Z</time>
      </trkpt>
      <trkpt lat="46.37185" lon="5.29063">
        <ele>246</ele>
        <time>2021-12-17T13:05:49Z</time>
      </trkpt>
      <trkpt lat="46.37178" lon="5.29062">
        <ele>246</ele>
        <time>2021-12-17T13:05:50Z</time>
      </trkpt>
      <trkpt lat="46.37167" lon="5.29058">
        <ele>246</ele>
        <time>2021-12-17T13:05:52Z</time>
      </trkpt>
      <trkpt lat="46.37158" lon="5.29037">
        <ele>246.2</ele>
        <time>2021-12-17T13:05:55Z</time>
      </trkpt>
      <trkpt lat="46.37153" lon="5.29022">
        <ele>246.2</ele>
        <time>2021-12-17T13:05:57Z</time>
      </trkpt>
      <trkpt lat="46.37144" lon="5.29011">
        <ele>246</ele>
        <time>2021-12-17T13:05:59Z</time>
      </trkpt>
      <trkpt lat="46.37132" lon="5.29006">
        <ele>246</ele>
        <time>2021-12-17T13:06:01Z</time>
      </trkpt>
      <trkpt lat="46.37121" lon="5.29005">
        <ele>245.8</ele>
        <time>2021-12-17T13:06:03Z</time>
      </trkpt>
      <trkpt lat="46.37114" lon="5.29005">
        <ele>245.8</ele>
        <time>2021-12-17T13:06:04Z</time>
      </trkpt>
      <trkpt lat="46.37084" lon="5.2901">
        <ele>245.6</ele>
        <time>2021-12-17T13:06:09Z</time>
      </trkpt>
      <trkpt lat="46.37041" lon="5.2902">
        <ele>245.8</ele>
        <time>2021-12-17T13:06:16Z</time>
      </trkpt>
      <trkpt lat="46.37036" lon="5.29025">
        <ele>245.6</ele>
        <time>2021-12-17T13:06:17Z</time>
      </trkpt>
      <trkpt lat="46.37033" lon="5.29033">
        <ele>245.6</ele>
        <time>2021-12-17T13:06:18Z</time>
      </trkpt>
      <trkpt lat="46.37032" lon="5.2905">
        <ele>245.6</ele>
        <time>2021-12-17T13:06:20Z</time>
      </trkpt>
      <trkpt lat="46.37035" lon="5.29066">
        <ele>245.6</ele>
        <time>2021-12-17T13:06:22Z</time>
      </trkpt>
      <trkpt lat="46.37041" lon="5.29091">
        <ele>245.6</ele>
        <time>2021-12-17T13:06:25Z</time>
      </trkpt>
      <trkpt lat="46.3705" lon="5.29133">
        <ele>245.4</ele>
        <time>2021-12-17T13:06:30Z</time>
      </trkpt>
      <trkpt lat="46.37049" lon="5.29149">
        <ele>245.2</ele>
        <time>2021-12-17T13:06:32Z</time>
      </trkpt>
      <trkpt lat="46.37041" lon="5.29162">
        <ele>245.2</ele>
        <time>2021-12-17T13:06:34Z</time>
      </trkpt>
      <trkpt lat="46.37029" lon="5.29166">
        <ele>245</ele>
        <time>2021-12-17T13:06:36Z</time>
      </trkpt>
      <trkpt lat="46.37017" lon="5.29165">
        <ele>245</ele>
        <time>2021-12-17T13:06:38Z</time>
      </trkpt>
      <trkpt lat="46.36968" lon="5.29164">
        <ele>244.8</ele>
        <time>2021-12-17T13:06:45Z</time>
      </trkpt>
      <trkpt lat="46.3694" lon="5.29152">
        <ele>244.6</ele>
        <time>2021-12-17T13:06:49Z</time>
      </trkpt>
      <trkpt lat="46.36933" lon="5.29147">
        <ele>244.6</ele>
        <time>2021-12-17T13:06:50Z</time>
      </trkpt>
      <trkpt lat="46.36927" lon="5.29141">
        <ele>244.6</ele>
        <time>2021-12-17T13:06:51Z</time>
      </trkpt>
      <trkpt lat="46.36905" lon="5.29113">
        <ele>244.4</ele>
        <time>2021-12-17T13:06:55Z</time>
      </trkpt>
      <trkpt lat="46.36877" lon="5.29084">
        <ele>244.2</ele>
        <time>2021-12-17T13:07:00Z</time>
      </trkpt>
      <trkpt lat="46.36871" lon="5.29079">
        <ele>244.2</ele>
        <time>2021-12-17T13:07:01Z</time>
      </trkpt>
      <trkpt lat="46.36857" lon="5.29072">
        <ele>244.2</ele>
        <time>2021-12-17T13:07:03Z</time>
      </trkpt>
      <trkpt lat="46.36836" lon="5.29067">
        <ele>244.2</ele>
        <time>2021-12-17T13:07:06Z</time>
      </trkpt>
      <trkpt lat="46.36799" lon="5.29071">
        <ele>243.4</ele>
        <time>2021-12-17T13:07:11Z</time>
      </trkpt>
      <trkpt lat="46.36792" lon="5.29074">
        <ele>243.4</ele>
        <time>2021-12-17T13:07:12Z</time>
      </trkpt>
      <trkpt lat="46.36786" lon="5.29076">
        <ele>243.2</ele>
        <time>2021-12-17T13:07:13Z</time>
      </trkpt>
      <trkpt lat="46.3678" lon="5.29076">
        <ele>243</ele>
        <time>2021-12-17T13:07:14Z</time>
      </trkpt>
      <trkpt lat="46.36775" lon="5.29075">
        <ele>242.8</ele>
        <time>2021-12-17T13:07:15Z</time>
      </trkpt>
      <trkpt lat="46.36767" lon="5.29069">
        <ele>242.4</ele>
        <time>2021-12-17T13:07:17Z</time>
      </trkpt>
      <trkpt lat="46.36763" lon="5.29064">
        <ele>242.2</ele>
        <time>2021-12-17T13:07:18Z</time>
      </trkpt>
      <trkpt lat="46.36759" lon="5.29058">
        <ele>242</ele>
        <time>2021-12-17T13:07:19Z</time>
      </trkpt>
      <trkpt lat="46.3674" lon="5.29034">
        <ele>241.8</ele>
        <time>2021-12-17T13:07:23Z</time>
      </trkpt>
      <trkpt lat="46.36735" lon="5.29027">
        <ele>241.8</ele>
        <time>2021-12-17T13:07:24Z</time>
      </trkpt>
      <trkpt lat="46.36722" lon="5.29018">
        <ele>241.6</ele>
        <time>2021-12-17T13:07:26Z</time>
      </trkpt>
      <trkpt lat="46.36715" lon="5.29015">
        <ele>241.6</ele>
        <time>2021-12-17T13:07:27Z</time>
      </trkpt>
      <trkpt lat="46.36707" lon="5.29015">
        <ele>241.6</ele>
        <time>2021-12-17T13:07:28Z</time>
      </trkpt>
      <trkpt lat="46.36675" lon="5.29019">
        <ele>241.6</ele>
        <time>2021-12-17T13:07:32Z</time>
      </trkpt>
      <trkpt lat="46.36629" lon="5.29025">
        <ele>240.8</ele>
        <time>2021-12-17T13:07:38Z</time>
      </trkpt>
      <trkpt lat="46.3657" lon="5.29034">
        <ele>240.8</ele>
        <time>2021-12-17T13:07:46Z</time>
      </trkpt>
      <trkpt lat="46.36562" lon="5.29036">
        <ele>240.8</ele>
        <time>2021-12-17T13:07:47Z</time>
      </trkpt>
      <trkpt lat="46.36502" lon="5.29041">
        <ele>240.6</ele>
        <time>2021-12-17T13:07:55Z</time>
      </trkpt>
      <trkpt lat="46.36467" lon="5.29044">
        <ele>240.6</ele>
        <time>2021-12-17T13:08:00Z</time>
      </trkpt>
      <trkpt lat="46.36403" lon="5.2905">
        <ele>241.2</ele>
        <time>2021-12-17T13:08:09Z</time>
      </trkpt>
      <trkpt lat="46.36389" lon="5.29051">
        <ele>241.4</ele>
        <time>2021-12-17T13:08:11Z</time>
      </trkpt>
      <trkpt lat="46.36346" lon="5.29059">
        <ele>241.4</ele>
        <time>2021-12-17T13:08:17Z</time>
      </trkpt>
      <trkpt lat="46.36301" lon="5.29068">
        <ele>241.4</ele>
        <time>2021-12-17T13:08:24Z</time>
      </trkpt>
      <trkpt lat="46.36277" lon="5.29072">
        <ele>242</ele>
        <time>2021-12-17T13:08:28Z</time>
      </trkpt>
      <trkpt lat="46.36265" lon="5.29075">
        <ele>242.2</ele>
        <time>2021-12-17T13:08:30Z</time>
      </trkpt>
      <trkpt lat="46.36259" lon="5.29078">
        <ele>242.4</ele>
        <time>2021-12-17T13:08:31Z</time>
      </trkpt>
      <trkpt lat="46.36254" lon="5.29082">
        <ele>242.6</ele>
        <time>2021-12-17T13:08:32Z</time>
      </trkpt>
      <trkpt lat="46.36246" lon="5.29094">
        <ele>242.6</ele>
        <time>2021-12-17T13:08:34Z</time>
      </trkpt>
      <trkpt lat="46.36239" lon="5.29109">
        <ele>243</ele>
        <time>2021-12-17T13:08:37Z</time>
      </trkpt>
      <trkpt lat="46.3623" lon="5.2912">
        <ele>243.2</ele>
        <time>2021-12-17T13:08:38Z</time>
      </trkpt>
      <trkpt lat="46.36225" lon="5.29124">
        <ele>243.2</ele>
        <time>2021-12-17T13:08:39Z</time>
      </trkpt>
      <trkpt lat="46.3621" lon="5.2913">
        <ele>243.4</ele>
        <time>2021-12-17T13:08:42Z</time>
      </trkpt>
      <trkpt lat="46.36203" lon="5.29141">
        <ele>244</ele>
        <time>2021-12-17T13:08:44Z</time>
      </trkpt>
      <trkpt lat="46.36203" lon="5.29166">
        <ele>244</ele>
        <time>2021-12-17T13:08:47Z</time>
      </trkpt>
      <trkpt lat="46.36204" lon="5.29175">
        <ele>244</ele>
        <time>2021-12-17T13:08:48Z</time>
      </trkpt>
      <trkpt lat="46.36211" lon="5.29204">
        <ele>244</ele>
        <time>2021-12-17T13:08:51Z</time>
      </trkpt>
      <trkpt lat="46.36215" lon="5.29214">
        <ele>244</ele>
        <time>2021-12-17T13:08:52Z</time>
      </trkpt>
      <trkpt lat="46.36229" lon="5.29266">
        <ele>243.4</ele>
        <time>2021-12-17T13:08:56Z</time>
      </trkpt>
      <trkpt lat="46.36232" lon="5.29281">
        <ele>242.6</ele>
        <time>2021-12-17T13:08:57Z</time>
      </trkpt>
      <trkpt lat="46.36236" lon="5.29311">
        <ele>241.2</ele>
        <time>2021-12-17T13:08:59Z</time>
      </trkpt>
      <trkpt lat="46.36239" lon="5.2934">
        <ele>239.8</ele>
        <time>2021-12-17T13:09:01Z</time>
      </trkpt>
      <trkpt lat="46.36242" lon="5.29366">
        <ele>238.8</ele>
        <time>2021-12-17T13:09:03Z</time>
      </trkpt>
      <trkpt lat="46.36247" lon="5.29403">
        <ele>238</ele>
        <time>2021-12-17T13:09:06Z</time>
      </trkpt>
      <trkpt lat="46.36251" lon="5.29446">
        <ele>237.8</ele>
        <time>2021-12-17T13:09:10Z</time>
      </trkpt>
      <trkpt lat="46.3625" lon="5.29455">
        <ele>238</ele>
        <time>2021-12-17T13:09:11Z</time>
      </trkpt>
      <trkpt lat="46.36247" lon="5.29462">
        <ele>238</ele>
        <time>2021-12-17T13:09:12Z</time>
      </trkpt>
      <trkpt lat="46.36243" lon="5.29466">
        <ele>238.2</ele>
        <time>2021-12-17T13:09:13Z</time>
      </trkpt>
      <trkpt lat="46.36238" lon="5.29468">
        <ele>238.2</ele>
        <time>2021-12-17T13:09:14Z</time>
      </trkpt>
      <trkpt lat="46.36227" lon="5.29473">
        <ele>238.6</ele>
        <time>2021-12-17T13:09:16Z</time>
      </trkpt>
      <trkpt lat="46.36222" lon="5.29476">
        <ele>239</ele>
        <time>2021-12-17T13:09:17Z</time>
      </trkpt>
      <trkpt lat="46.36217" lon="5.29479">
        <ele>239.8</ele>
        <time>2021-12-17T13:09:18Z</time>
      </trkpt>
      <trkpt lat="46.36203" lon="5.29492">
        <ele>241</ele>
        <time>2021-12-17T13:09:21Z</time>
      </trkpt>
      <trkpt lat="46.36194" lon="5.29502">
        <ele>241.6</ele>
        <time>2021-12-17T13:09:23Z</time>
      </trkpt>
      <trkpt lat="46.36185" lon="5.29511">
        <ele>242.2</ele>
        <time>2021-12-17T13:09:25Z</time>
      </trkpt>
      <trkpt lat="46.36175" lon="5.29518">
        <ele>242.8</ele>
        <time>2021-12-17T13:09:27Z</time>
      </trkpt>
      <trkpt lat="46.36169" lon="5.29521">
        <ele>243</ele>
        <time>2021-12-17T13:09:28Z</time>
      </trkpt>
      <trkpt lat="46.36163" lon="5.29524">
        <ele>243.4</ele>
        <time>2021-12-17T13:09:29Z</time>
      </trkpt>
      <trkpt lat="46.36135" lon="5.2953">
        <ele>243.8</ele>
        <time>2021-12-17T13:09:33Z</time>
      </trkpt>
      <trkpt lat="46.36081" lon="5.29536">
        <ele>243.2</ele>
        <time>2021-12-17T13:09:40Z</time>
      </trkpt>
      <trkpt lat="46.36073" lon="5.29537">
        <ele>243.2</ele>
        <time>2021-12-17T13:09:41Z</time>
      </trkpt>
      <trkpt lat="46.36015" lon="5.29542">
        <ele>242.6</ele>
        <time>2021-12-17T13:09:49Z</time>
      </trkpt>
      <trkpt lat="46.36001" lon="5.29544">
        <ele>242.4</ele>
        <time>2021-12-17T13:09:51Z</time>
      </trkpt>
      <trkpt lat="46.35979" lon="5.29546">
        <ele>242.2</ele>
        <time>2021-12-17T13:09:54Z</time>
      </trkpt>
      <trkpt lat="46.35944" lon="5.29551">
        <ele>242.2</ele>
        <time>2021-12-17T13:09:59Z</time>
      </trkpt>
      <trkpt lat="46.35897" lon="5.29552">
        <ele>242.4</ele>
        <time>2021-12-17T13:10:06Z</time>
      </trkpt>
      <trkpt lat="46.35891" lon="5.2955">
        <ele>242.4</ele>
        <time>2021-12-17T13:10:07Z</time>
      </trkpt>
      <trkpt lat="46.35885" lon="5.29549">
        <ele>242.6</ele>
        <time>2021-12-17T13:10:08Z</time>
      </trkpt>
      <trkpt lat="46.35869" lon="5.29544">
        <ele>243</ele>
        <time>2021-12-17T13:10:11Z</time>
      </trkpt>
      <trkpt lat="46.35859" lon="5.29543">
        <ele>243.2</ele>
        <time>2021-12-17T13:10:13Z</time>
      </trkpt>
      <trkpt lat="46.35853" lon="5.29542">
        <ele>243.4</ele>
        <time>2021-12-17T13:10:14Z</time>
      </trkpt>
      <trkpt lat="46.35842" lon="5.29541">
        <ele>243.8</ele>
        <time>2021-12-17T13:10:16Z</time>
      </trkpt>
      <trkpt lat="46.35825" lon="5.29542">
        <ele>244.6</ele>
        <time>2021-12-17T13:10:19Z</time>
      </trkpt>
      <trkpt lat="46.35801" lon="5.29543">
        <ele>245.4</ele>
        <time>2021-12-17T13:10:23Z</time>
      </trkpt>
      <trkpt lat="46.35783" lon="5.29544">
        <ele>245.8</ele>
        <time>2021-12-17T13:10:26Z</time>
      </trkpt>
      <trkpt lat="46.35766" lon="5.29544">
        <ele>246</ele>
        <time>2021-12-17T13:10:29Z</time>
      </trkpt>
      <trkpt lat="46.35736" lon="5.29544">
        <ele>246.8</ele>
        <time>2021-12-17T13:10:34Z</time>
      </trkpt>
      <trkpt lat="46.35725" lon="5.29545">
        <ele>247</ele>
        <time>2021-12-17T13:10:36Z</time>
      </trkpt>
      <trkpt lat="46.35704" lon="5.29554">
        <ele>247.6</ele>
        <time>2021-12-17T13:10:40Z</time>
      </trkpt>
      <trkpt lat="46.35699" lon="5.29558">
        <ele>247.8</ele>
        <time>2021-12-17T13:10:41Z</time>
      </trkpt>
      <trkpt lat="46.35694" lon="5.29562">
        <ele>247.8</ele>
        <time>2021-12-17T13:10:42Z</time>
      </trkpt>
      <trkpt lat="46.35694" lon="5.29562">
        <ele>247.8</ele>
        <time>2021-12-17T13:10:43Z</time>
      </trkpt>
      <trkpt lat="46.35669" lon="5.29585">
        <ele>248.2</ele>
        <time>2021-12-17T13:10:47Z</time>
      </trkpt>
      <trkpt lat="46.35663" lon="5.29589">
        <ele>248.2</ele>
        <time>2021-12-17T13:10:48Z</time>
      </trkpt>
      <trkpt lat="46.35622" lon="5.29612">
        <ele>248.4</ele>
        <time>2021-12-17T13:10:55Z</time>
      </trkpt>
      <trkpt lat="46.35563" lon="5.29638">
        <ele>248.8</ele>
        <time>2021-12-17T13:11:04Z</time>
      </trkpt>
      <trkpt lat="46.35557" lon="5.2964">
        <ele>248.8</ele>
        <time>2021-12-17T13:11:05Z</time>
      </trkpt>
      <trkpt lat="46.35505" lon="5.29651">
        <ele>248.4</ele>
        <time>2021-12-17T13:11:12Z</time>
      </trkpt>
      <trkpt lat="46.35505" lon="5.29651">
        <ele>248.6</ele>
        <time>2021-12-17T13:11:13Z</time>
      </trkpt>
      <trkpt lat="46.35493" lon="5.29662">
        <ele>248.4</ele>
        <time>2021-12-17T13:11:14Z</time>
      </trkpt>
      <trkpt lat="46.35488" lon="5.2967">
        <ele>248.2</ele>
        <time>2021-12-17T13:11:15Z</time>
      </trkpt>
      <trkpt lat="46.35478" lon="5.29686">
        <ele>248</ele>
        <time>2021-12-17T13:11:17Z</time>
      </trkpt>
      <trkpt lat="46.35472" lon="5.29692">
        <ele>248.2</ele>
        <time>2021-12-17T13:11:19Z</time>
      </trkpt>
      <trkpt lat="46.35458" lon="5.29694">
        <ele>248</ele>
        <time>2021-12-17T13:11:20Z</time>
      </trkpt>
      <trkpt lat="46.35451" lon="5.29692">
        <ele>248</ele>
        <time>2021-12-17T13:11:21Z</time>
      </trkpt>
      <trkpt lat="46.35398" lon="5.29673">
        <ele>248.4</ele>
        <time>2021-12-17T13:11:29Z</time>
      </trkpt>
      <trkpt lat="46.35391" lon="5.2967">
        <ele>248.4</ele>
        <time>2021-12-17T13:11:30Z</time>
      </trkpt>
      <trkpt lat="46.3535" lon="5.29657">
        <ele>249</ele>
        <time>2021-12-17T13:11:36Z</time>
      </trkpt>
      <trkpt lat="46.35336" lon="5.29653">
        <ele>249</ele>
        <time>2021-12-17T13:11:38Z</time>
      </trkpt>
      <trkpt lat="46.35278" lon="5.29642">
        <ele>249</ele>
        <time>2021-12-17T13:11:46Z</time>
      </trkpt>
      <trkpt lat="46.35218" lon="5.29644">
        <ele>248.6</ele>
        <time>2021-12-17T13:11:54Z</time>
      </trkpt>
      <trkpt lat="46.35157" lon="5.29656">
        <ele>248.2</ele>
        <time>2021-12-17T13:12:02Z</time>
      </trkpt>
      <trkpt lat="46.35148" lon="5.29657">
        <ele>248</ele>
        <time>2021-12-17T13:12:03Z</time>
      </trkpt>
      <trkpt lat="46.35139" lon="5.29658">
        <ele>248</ele>
        <time>2021-12-17T13:12:04Z</time>
      </trkpt>
      <trkpt lat="46.35105" lon="5.29662">
        <ele>246.8</ele>
        <time>2021-12-17T13:12:08Z</time>
      </trkpt>
      <trkpt lat="46.35089" lon="5.29662">
        <ele>246.4</ele>
        <time>2021-12-17T13:12:10Z</time>
      </trkpt>
      <trkpt lat="46.35057" lon="5.29653">
        <ele>245.8</ele>
        <time>2021-12-17T13:12:14Z</time>
      </trkpt>
      <trkpt lat="46.3505" lon="5.29649">
        <ele>245.6</ele>
        <time>2021-12-17T13:12:15Z</time>
      </trkpt>
      <trkpt lat="46.35031" lon="5.29638">
        <ele>245.6</ele>
        <time>2021-12-17T13:12:18Z</time>
      </trkpt>
      <trkpt lat="46.35018" lon="5.29634">
        <ele>245.6</ele>
        <time>2021-12-17T13:12:20Z</time>
      </trkpt>
      <trkpt lat="46.34982" lon="5.29632">
        <ele>246.4</ele>
        <time>2021-12-17T13:12:26Z</time>
      </trkpt>
      <trkpt lat="46.34976" lon="5.29633">
        <ele>246.4</ele>
        <time>2021-12-17T13:12:27Z</time>
      </trkpt>
      <trkpt lat="46.3497" lon="5.29635">
        <ele>247</ele>
        <time>2021-12-17T13:12:28Z</time>
      </trkpt>
      <trkpt lat="46.34964" lon="5.29638">
        <ele>247.2</ele>
        <time>2021-12-17T13:12:29Z</time>
      </trkpt>
      <trkpt lat="46.34958" lon="5.29642">
        <ele>247.6</ele>
        <time>2021-12-17T13:12:30Z</time>
      </trkpt>
      <trkpt lat="46.34953" lon="5.29647">
        <ele>247.6</ele>
        <time>2021-12-17T13:12:31Z</time>
      </trkpt>
      <trkpt lat="46.34941" lon="5.29659">
        <ele>247.8</ele>
        <time>2021-12-17T13:12:33Z</time>
      </trkpt>
      <trkpt lat="46.34934" lon="5.29662">
        <ele>247.8</ele>
        <time>2021-12-17T13:12:34Z</time>
      </trkpt>
      <trkpt lat="46.34927" lon="5.29663">
        <ele>247.8</ele>
        <time>2021-12-17T13:12:35Z</time>
      </trkpt>
      <trkpt lat="46.34913" lon="5.2966">
        <ele>247.8</ele>
        <time>2021-12-17T13:12:37Z</time>
      </trkpt>
      <trkpt lat="46.34884" lon="5.2964">
        <ele>247.8</ele>
        <time>2021-12-17T13:12:42Z</time>
      </trkpt>
      <trkpt lat="46.34866" lon="5.29629">
        <ele>247.8</ele>
        <time>2021-12-17T13:12:45Z</time>
      </trkpt>
      <trkpt lat="46.3486" lon="5.29626">
        <ele>248</ele>
        <time>2021-12-17T13:12:46Z</time>
      </trkpt>
      <trkpt lat="46.34848" lon="5.29621">
        <ele>248.2</ele>
        <time>2021-12-17T13:12:48Z</time>
      </trkpt>
      <trkpt lat="46.34809" lon="5.29613">
        <ele>248.6</ele>
        <time>2021-12-17T13:12:54Z</time>
      </trkpt>
      <trkpt lat="46.3476" lon="5.29618">
        <ele>248.4</ele>
        <time>2021-12-17T13:13:01Z</time>
      </trkpt>
      <trkpt lat="46.34745" lon="5.29624">
        <ele>248.4</ele>
        <time>2021-12-17T13:13:03Z</time>
      </trkpt>
      <trkpt lat="46.34731" lon="5.29633">
        <ele>248.2</ele>
        <time>2021-12-17T13:13:05Z</time>
      </trkpt>
      <trkpt lat="46.34716" lon="5.29641">
        <ele>247.8</ele>
        <time>2021-12-17T13:13:07Z</time>
      </trkpt>
      <trkpt lat="46.347" lon="5.29644">
        <ele>247.6</ele>
        <time>2021-12-17T13:13:09Z</time>
      </trkpt>
      <trkpt lat="46.34668" lon="5.29637">
        <ele>247</ele>
        <time>2021-12-17T13:13:13Z</time>
      </trkpt>
      <trkpt lat="46.3466" lon="5.29636">
        <ele>246.6</ele>
        <time>2021-12-17T13:13:14Z</time>
      </trkpt>
      <trkpt lat="46.34614" lon="5.29626">
        <ele>245.8</ele>
        <time>2021-12-17T13:13:20Z</time>
      </trkpt>
      <trkpt lat="46.3456" lon="5.29616">
        <ele>245.4</ele>
        <time>2021-12-17T13:13:27Z</time>
      </trkpt>
      <trkpt lat="46.34502" lon="5.29605">
        <ele>245.2</ele>
        <time>2021-12-17T13:13:35Z</time>
      </trkpt>
      <trkpt lat="46.34488" lon="5.29602">
        <ele>245.2</ele>
        <time>2021-12-17T13:13:37Z</time>
      </trkpt>
      <trkpt lat="46.34469" lon="5.29595">
        <ele>245.2</ele>
        <time>2021-12-17T13:13:40Z</time>
      </trkpt>
      <trkpt lat="46.34463" lon="5.2959">
        <ele>245.4</ele>
        <time>2021-12-17T13:13:41Z</time>
      </trkpt>
      <trkpt lat="46.34459" lon="5.29583">
        <ele>245.4</ele>
        <time>2021-12-17T13:13:42Z</time>
      </trkpt>
      <trkpt lat="46.34455" lon="5.29567">
        <ele>245.6</ele>
        <time>2021-12-17T13:13:44Z</time>
      </trkpt>
      <trkpt lat="46.34457" lon="5.29551">
        <ele>245.8</ele>
        <time>2021-12-17T13:13:46Z</time>
      </trkpt>
      <trkpt lat="46.34459" lon="5.29536">
        <ele>246</ele>
        <time>2021-12-17T13:13:48Z</time>
      </trkpt>
      <trkpt lat="46.34468" lon="5.2949">
        <ele>247</ele>
        <time>2021-12-17T13:13:54Z</time>
      </trkpt>
      <trkpt lat="46.3447" lon="5.2948">
        <ele>247.2</ele>
        <time>2021-12-17T13:13:55Z</time>
      </trkpt>
      <trkpt lat="46.3447" lon="5.29472">
        <ele>247.4</ele>
        <time>2021-12-17T13:13:56Z</time>
      </trkpt>
      <trkpt lat="46.34469" lon="5.29464">
        <ele>247.8</ele>
        <time>2021-12-17T13:13:57Z</time>
      </trkpt>
      <trkpt lat="46.34464" lon="5.29449">
        <ele>248.2</ele>
        <time>2021-12-17T13:13:59Z</time>
      </trkpt>
      <trkpt lat="46.34444" lon="5.29421">
        <ele>248.6</ele>
        <time>2021-12-17T13:14:04Z</time>
      </trkpt>
      <trkpt lat="46.34436" lon="5.29408">
        <ele>249.2</ele>
        <time>2021-12-17T13:14:06Z</time>
      </trkpt>
      <trkpt lat="46.34433" lon="5.294">
        <ele>249.2</ele>
        <time>2021-12-17T13:14:07Z</time>
      </trkpt>
      <trkpt lat="46.34426" lon="5.29385">
        <ele>249.6</ele>
        <time>2021-12-17T13:14:09Z</time>
      </trkpt>
      <trkpt lat="46.34416" lon="5.29363">
        <ele>249.8</ele>
        <time>2021-12-17T13:14:12Z</time>
      </trkpt>
      <trkpt lat="46.34406" lon="5.29351">
        <ele>249.8</ele>
        <time>2021-12-17T13:14:14Z</time>
      </trkpt>
      <trkpt lat="46.34394" lon="5.29342">
        <ele>249.8</ele>
        <time>2021-12-17T13:14:16Z</time>
      </trkpt>
      <trkpt lat="46.3438" lon="5.29337">
        <ele>249.8</ele>
        <time>2021-12-17T13:14:18Z</time>
      </trkpt>
      <trkpt lat="46.34359" lon="5.2933">
        <ele>249.6</ele>
        <time>2021-12-17T13:14:21Z</time>
      </trkpt>
      <trkpt lat="46.34352" lon="5.29326">
        <ele>249.4</ele>
        <time>2021-12-17T13:14:23Z</time>
      </trkpt>
      <trkpt lat="46.34338" lon="5.29317">
        <ele>249.2</ele>
        <time>2021-12-17T13:14:24Z</time>
      </trkpt>
      <trkpt lat="46.34326" lon="5.29307">
        <ele>249.2</ele>
        <time>2021-12-17T13:14:26Z</time>
      </trkpt>
      <trkpt lat="46.34312" lon="5.293">
        <ele>249</ele>
        <time>2021-12-17T13:14:28Z</time>
      </trkpt>
      <trkpt lat="46.34254" lon="5.29283">
        <ele>248.4</ele>
        <time>2021-12-17T13:14:36Z</time>
      </trkpt>
      <trkpt lat="46.34247" lon="5.29282">
        <ele>248</ele>
        <time>2021-12-17T13:14:37Z</time>
      </trkpt>
      <trkpt lat="46.34199" lon="5.29263">
        <ele>247.6</ele>
        <time>2021-12-17T13:14:44Z</time>
      </trkpt>
      <trkpt lat="46.34192" lon="5.29261">
        <ele>247.6</ele>
        <time>2021-12-17T13:14:45Z</time>
      </trkpt>
      <trkpt lat="46.34177" lon="5.29261">
        <ele>247.6</ele>
        <time>2021-12-17T13:14:47Z</time>
      </trkpt>
      <trkpt lat="46.34132" lon="5.29267">
        <ele>247</ele>
        <time>2021-12-17T13:14:53Z</time>
      </trkpt>
      <trkpt lat="46.34117" lon="5.29272">
        <ele>246.6</ele>
        <time>2021-12-17T13:14:55Z</time>
      </trkpt>
      <trkpt lat="46.34104" lon="5.29281">
        <ele>246.4</ele>
        <time>2021-12-17T13:14:57Z</time>
      </trkpt>
      <trkpt lat="46.34098" lon="5.29288">
        <ele>246.4</ele>
        <time>2021-12-17T13:14:58Z</time>
      </trkpt>
      <trkpt lat="46.34094" lon="5.29296">
        <ele>246.2</ele>
        <time>2021-12-17T13:14:59Z</time>
      </trkpt>
      <trkpt lat="46.34081" lon="5.29323">
        <ele>246.2</ele>
        <time>2021-12-17T13:15:02Z</time>
      </trkpt>
      <trkpt lat="46.34073" lon="5.2934">
        <ele>246</ele>
        <time>2021-12-17T13:15:04Z</time>
      </trkpt>
      <trkpt lat="46.34062" lon="5.29355">
        <ele>246</ele>
        <time>2021-12-17T13:15:06Z</time>
      </trkpt>
      <trkpt lat="46.3405" lon="5.29365">
        <ele>246</ele>
        <time>2021-12-17T13:15:08Z</time>
      </trkpt>
      <trkpt lat="46.34037" lon="5.2937">
        <ele>246</ele>
        <time>2021-12-17T13:15:10Z</time>
      </trkpt>
      <trkpt lat="46.34001" lon="5.29389">
        <ele>246.4</ele>
        <time>2021-12-17T13:15:16Z</time>
      </trkpt>
      <trkpt lat="46.33977" lon="5.29416">
        <ele>247</ele>
        <time>2021-12-17T13:15:21Z</time>
      </trkpt>
      <trkpt lat="46.33973" lon="5.29423">
        <ele>247.4</ele>
        <time>2021-12-17T13:15:22Z</time>
      </trkpt>
      <trkpt lat="46.33962" lon="5.29453">
        <ele>248.2</ele>
        <time>2021-12-17T13:15:26Z</time>
      </trkpt>
      <trkpt lat="46.33957" lon="5.29468">
        <ele>248.6</ele>
        <time>2021-12-17T13:15:28Z</time>
      </trkpt>
      <trkpt lat="46.33951" lon="5.29492">
        <ele>248.8</ele>
        <time>2021-12-17T13:15:31Z</time>
      </trkpt>
      <trkpt lat="46.33942" lon="5.29505">
        <ele>249.4</ele>
        <time>2021-12-17T13:15:33Z</time>
      </trkpt>
      <trkpt lat="46.33929" lon="5.29512">
        <ele>249.6</ele>
        <time>2021-12-17T13:15:35Z</time>
      </trkpt>
      <trkpt lat="46.33916" lon="5.29515">
        <ele>249.8</ele>
        <time>2021-12-17T13:15:37Z</time>
      </trkpt>
      <trkpt lat="46.33859" lon="5.29516">
        <ele>249.6</ele>
        <time>2021-12-17T13:15:45Z</time>
      </trkpt>
      <trkpt lat="46.33804" lon="5.29512">
        <ele>249.4</ele>
        <time>2021-12-17T13:15:53Z</time>
      </trkpt>
      <trkpt lat="46.33774" lon="5.29494">
        <ele>249.8</ele>
        <time>2021-12-17T13:15:58Z</time>
      </trkpt>
      <trkpt lat="46.33737" lon="5.29455">
        <ele>250</ele>
        <time>2021-12-17T13:16:05Z</time>
      </trkpt>
      <trkpt lat="46.33697" lon="5.29397">
        <ele>250.2</ele>
        <time>2021-12-17T13:16:14Z</time>
      </trkpt>
      <trkpt lat="46.33678" lon="5.29374">
        <ele>250.6</ele>
        <time>2021-12-17T13:16:18Z</time>
      </trkpt>
      <trkpt lat="46.33672" lon="5.2937">
        <ele>250.6</ele>
        <time>2021-12-17T13:16:19Z</time>
      </trkpt>
      <trkpt lat="46.33666" lon="5.29367">
        <ele>250.6</ele>
        <time>2021-12-17T13:16:20Z</time>
      </trkpt>
      <trkpt lat="46.33654" lon="5.29363">
        <ele>250.8</ele>
        <time>2021-12-17T13:16:22Z</time>
      </trkpt>
      <trkpt lat="46.33647" lon="5.29362">
        <ele>250.8</ele>
        <time>2021-12-17T13:16:23Z</time>
      </trkpt>
      <trkpt lat="46.33641" lon="5.29363">
        <ele>250.8</ele>
        <time>2021-12-17T13:16:24Z</time>
      </trkpt>
      <trkpt lat="46.33616" lon="5.29369">
        <ele>250.6</ele>
        <time>2021-12-17T13:16:28Z</time>
      </trkpt>
      <trkpt lat="46.3358" lon="5.29366">
        <ele>251</ele>
        <time>2021-12-17T13:16:34Z</time>
      </trkpt>
      <trkpt lat="46.33543" lon="5.29355">
        <ele>251.6</ele>
        <time>2021-12-17T13:16:40Z</time>
      </trkpt>
      <trkpt lat="46.33504" lon="5.29341">
        <ele>252</ele>
        <time>2021-12-17T13:16:46Z</time>
      </trkpt>
      <trkpt lat="46.33459" lon="5.29318">
        <ele>251.8</ele>
        <time>2021-12-17T13:16:53Z</time>
      </trkpt>
      <trkpt lat="46.33435" lon="5.29298">
        <ele>251.4</ele>
        <time>2021-12-17T13:16:57Z</time>
      </trkpt>
      <trkpt lat="46.33428" lon="5.29289">
        <ele>251</ele>
        <time>2021-12-17T13:16:59Z</time>
      </trkpt>
      <trkpt lat="46.33421" lon="5.29279">
        <ele>250.6</ele>
        <time>2021-12-17T13:17:02Z</time>
      </trkpt>
      <trkpt lat="46.33418" lon="5.29278">
        <ele>250.4</ele>
        <time>2021-12-17T13:17:03Z</time>
      </trkpt>
      <trkpt lat="46.33413" lon="5.29283">
        <ele>250.2</ele>
        <time>2021-12-17T13:17:05Z</time>
      </trkpt>
      <trkpt lat="46.33402" lon="5.29309">
        <ele>250</ele>
        <time>2021-12-17T13:17:09Z</time>
      </trkpt>
      <trkpt lat="46.33399" lon="5.29317">
        <ele>249.8</ele>
        <time>2021-12-17T13:17:10Z</time>
      </trkpt>
      <trkpt lat="46.33389" lon="5.29344">
        <ele>249.8</ele>
        <time>2021-12-17T13:17:13Z</time>
      </trkpt>
      <trkpt lat="46.33375" lon="5.29381">
        <ele>249.6</ele>
        <time>2021-12-17T13:17:17Z</time>
      </trkpt>
      <trkpt lat="46.3336" lon="5.29431">
        <ele>249.2</ele>
        <time>2021-12-17T13:17:22Z</time>
      </trkpt>
      <trkpt lat="46.33346" lon="5.29507">
        <ele>248.8</ele>
        <time>2021-12-17T13:17:29Z</time>
      </trkpt>
      <trkpt lat="46.33342" lon="5.29529">
        <ele>248.8</ele>
        <time>2021-12-17T13:17:31Z</time>
      </trkpt>
      <trkpt lat="46.33331" lon="5.29601">
        <ele>248</ele>
        <time>2021-12-17T13:17:38Z</time>
      </trkpt>
      <trkpt lat="46.33319" lon="5.29678">
        <ele>247.6</ele>
        <time>2021-12-17T13:17:46Z</time>
      </trkpt>
      <trkpt lat="46.33317" lon="5.29689">
        <ele>247.4</ele>
        <time>2021-12-17T13:17:47Z</time>
      </trkpt>
      <trkpt lat="46.3331" lon="5.29733">
        <ele>246.6</ele>
        <time>2021-12-17T13:17:51Z</time>
      </trkpt>
      <trkpt lat="46.33308" lon="5.29743">
        <ele>246.6</ele>
        <time>2021-12-17T13:17:52Z</time>
      </trkpt>
      <trkpt lat="46.33298" lon="5.29807">
        <ele>245.6</ele>
        <time>2021-12-17T13:17:58Z</time>
      </trkpt>
      <trkpt lat="46.33293" lon="5.29838">
        <ele>245.6</ele>
        <time>2021-12-17T13:18:01Z</time>
      </trkpt>
      <trkpt lat="46.3328" lon="5.29916">
        <ele>245</ele>
        <time>2021-12-17T13:18:08Z</time>
      </trkpt>
      <trkpt lat="46.33274" lon="5.29951">
        <ele>244.4</ele>
        <time>2021-12-17T13:18:11Z</time>
      </trkpt>
      <trkpt lat="46.33261" lon="5.30031">
        <ele>243.4</ele>
        <time>2021-12-17T13:18:18Z</time>
      </trkpt>
      <trkpt lat="46.3326" lon="5.30042">
        <ele>243.4</ele>
        <time>2021-12-17T13:18:19Z</time>
      </trkpt>
      <trkpt lat="46.33256" lon="5.30064">
        <ele>243</ele>
        <time>2021-12-17T13:18:21Z</time>
      </trkpt>
      <trkpt lat="46.33244" lon="5.30146">
        <ele>242.4</ele>
        <time>2021-12-17T13:18:29Z</time>
      </trkpt>
      <trkpt lat="46.33242" lon="5.30156">
        <ele>242.4</ele>
        <time>2021-12-17T13:18:30Z</time>
      </trkpt>
      <trkpt lat="46.33231" lon="5.30226">
        <ele>242.8</ele>
        <time>2021-12-17T13:18:37Z</time>
      </trkpt>
      <trkpt lat="46.3322" lon="5.30283">
        <ele>242.2</ele>
        <time>2021-12-17T13:18:42Z</time>
      </trkpt>
      <trkpt lat="46.33207" lon="5.30345">
        <ele>241.2</ele>
        <time>2021-12-17T13:18:47Z</time>
      </trkpt>
      <trkpt lat="46.33202" lon="5.3037">
        <ele>240.6</ele>
        <time>2021-12-17T13:18:49Z</time>
      </trkpt>
      <trkpt lat="46.332" lon="5.30383">
        <ele>240</ele>
        <time>2021-12-17T13:18:50Z</time>
      </trkpt>
      <trkpt lat="46.33189" lon="5.30437">
        <ele>238.8</ele>
        <time>2021-12-17T13:18:54Z</time>
      </trkpt>
      <trkpt lat="46.33184" lon="5.30464">
        <ele>237.6</ele>
        <time>2021-12-17T13:18:56Z</time>
      </trkpt>
      <trkpt lat="46.33179" lon="5.30491">
        <ele>236.6</ele>
        <time>2021-12-17T13:18:58Z</time>
      </trkpt>
      <trkpt lat="46.3317" lon="5.30533">
        <ele>235</ele>
        <time>2021-12-17T13:19:01Z</time>
      </trkpt>
      <trkpt lat="46.33162" lon="5.30576">
        <ele>234</ele>
        <time>2021-12-17T13:19:04Z</time>
      </trkpt>
      <trkpt lat="46.33156" lon="5.30604">
        <ele>232.2</ele>
        <time>2021-12-17T13:19:06Z</time>
      </trkpt>
      <trkpt lat="46.33147" lon="5.30646">
        <ele>231</ele>
        <time>2021-12-17T13:19:09Z</time>
      </trkpt>
      <trkpt lat="46.33137" lon="5.30699">
        <ele>230</ele>
        <time>2021-12-17T13:19:13Z</time>
      </trkpt>
      <trkpt lat="46.33129" lon="5.30736">
        <ele>229.4</ele>
        <time>2021-12-17T13:19:16Z</time>
      </trkpt>
      <trkpt lat="46.33123" lon="5.30771">
        <ele>229</ele>
        <time>2021-12-17T13:19:19Z</time>
      </trkpt>
      <trkpt lat="46.3312" lon="5.30783">
        <ele>228.8</ele>
        <time>2021-12-17T13:19:20Z</time>
      </trkpt>
      <trkpt lat="46.33106" lon="5.30862">
        <ele>228.2</ele>
        <time>2021-12-17T13:19:27Z</time>
      </trkpt>
      <trkpt lat="46.33101" lon="5.30884">
        <ele>228</ele>
        <time>2021-12-17T13:19:29Z</time>
      </trkpt>
      <trkpt lat="46.33099" lon="5.30895">
        <ele>227.8</ele>
        <time>2021-12-17T13:19:30Z</time>
      </trkpt>
      <trkpt lat="46.33084" lon="5.30972">
        <ele>227</ele>
        <time>2021-12-17T13:19:37Z</time>
      </trkpt>
      <trkpt lat="46.33079" lon="5.30995">
        <ele>226.8</ele>
        <time>2021-12-17T13:19:39Z</time>
      </trkpt>
      <trkpt lat="46.33077" lon="5.31006">
        <ele>226.4</ele>
        <time>2021-12-17T13:19:40Z</time>
      </trkpt>
      <trkpt lat="46.33061" lon="5.31084">
        <ele>225.8</ele>
        <time>2021-12-17T13:19:47Z</time>
      </trkpt>
      <trkpt lat="46.33059" lon="5.31094">
        <ele>225.8</ele>
        <time>2021-12-17T13:19:48Z</time>
      </trkpt>
      <trkpt lat="46.33053" lon="5.31125">
        <ele>225.6</ele>
        <time>2021-12-17T13:19:51Z</time>
      </trkpt>
      <trkpt lat="46.33042" lon="5.31176">
        <ele>224.6</ele>
        <time>2021-12-17T13:19:56Z</time>
      </trkpt>
      <trkpt lat="46.3304" lon="5.31187">
        <ele>224.4</ele>
        <time>2021-12-17T13:19:57Z</time>
      </trkpt>
      <trkpt lat="46.33029" lon="5.31242">
        <ele>223.6</ele>
        <time>2021-12-17T13:20:02Z</time>
      </trkpt>
      <trkpt lat="46.33023" lon="5.31273">
        <ele>223.4</ele>
        <time>2021-12-17T13:20:05Z</time>
      </trkpt>
      <trkpt lat="46.33016" lon="5.31303">
        <ele>223</ele>
        <time>2021-12-17T13:20:08Z</time>
      </trkpt>
      <trkpt lat="46.33009" lon="5.31321">
        <ele>222.8</ele>
        <time>2021-12-17T13:20:10Z</time>
      </trkpt>
      <trkpt lat="46.33004" lon="5.31329">
        <ele>222.8</ele>
        <time>2021-12-17T13:20:11Z</time>
      </trkpt>
      <trkpt lat="46.32989" lon="5.31347">
        <ele>222.8</ele>
        <time>2021-12-17T13:20:14Z</time>
      </trkpt>
      <trkpt lat="46.32983" lon="5.31353">
        <ele>222.8</ele>
        <time>2021-12-17T13:20:15Z</time>
      </trkpt>
      <trkpt lat="46.32978" lon="5.31359">
        <ele>222.8</ele>
        <time>2021-12-17T13:20:16Z</time>
      </trkpt>
      <trkpt lat="46.32972" lon="5.31374">
        <ele>222.8</ele>
        <time>2021-12-17T13:20:18Z</time>
      </trkpt>
      <trkpt lat="46.32976" lon="5.31391">
        <ele>223</ele>
        <time>2021-12-17T13:20:20Z</time>
      </trkpt>
      <trkpt lat="46.32985" lon="5.31408">
        <ele>223</ele>
        <time>2021-12-17T13:20:22Z</time>
      </trkpt>
      <trkpt lat="46.3299" lon="5.31427">
        <ele>223</ele>
        <time>2021-12-17T13:20:24Z</time>
      </trkpt>
      <trkpt lat="46.33" lon="5.31488">
        <ele>222.6</ele>
        <time>2021-12-17T13:20:30Z</time>
      </trkpt>
      <trkpt lat="46.33005" lon="5.31557">
        <ele>222.6</ele>
        <time>2021-12-17T13:20:37Z</time>
      </trkpt>
      <trkpt lat="46.33007" lon="5.31567">
        <ele>222.6</ele>
        <time>2021-12-17T13:20:38Z</time>
      </trkpt>
      <trkpt lat="46.33018" lon="5.31602">
        <ele>223</ele>
        <time>2021-12-17T13:20:42Z</time>
      </trkpt>
      <trkpt lat="46.33045" lon="5.31679">
        <ele>223</ele>
        <time>2021-12-17T13:20:51Z</time>
      </trkpt>
      <trkpt lat="46.3306" lon="5.31731">
        <ele>223</ele>
        <time>2021-12-17T13:20:57Z</time>
      </trkpt>
      <trkpt lat="46.33065" lon="5.31749">
        <ele>223</ele>
        <time>2021-12-17T13:20:59Z</time>
      </trkpt>
      <trkpt lat="46.33085" lon="5.31832">
        <ele>222.6</ele>
        <time>2021-12-17T13:21:08Z</time>
      </trkpt>
      <trkpt lat="46.33105" lon="5.31912">
        <ele>222.8</ele>
        <time>2021-12-17T13:21:17Z</time>
      </trkpt>
      <trkpt lat="46.33111" lon="5.31939">
        <ele>222.8</ele>
        <time>2021-12-17T13:21:20Z</time>
      </trkpt>
      <trkpt lat="46.33131" lon="5.32018">
        <ele>223.4</ele>
        <time>2021-12-17T13:21:29Z</time>
      </trkpt>
      <trkpt lat="46.33133" lon="5.32026">
        <ele>223.6</ele>
        <time>2021-12-17T13:21:30Z</time>
      </trkpt>
      <trkpt lat="46.33153" lon="5.32104">
        <ele>223.6</ele>
        <time>2021-12-17T13:21:39Z</time>
      </trkpt>
      <trkpt lat="46.33157" lon="5.32122">
        <ele>223.6</ele>
        <time>2021-12-17T13:21:41Z</time>
      </trkpt>
      <trkpt lat="46.33176" lon="5.32195">
        <ele>223.4</ele>
        <time>2021-12-17T13:21:50Z</time>
      </trkpt>
      <trkpt lat="46.33182" lon="5.32212">
        <ele>223.6</ele>
        <time>2021-12-17T13:21:52Z</time>
      </trkpt>
      <trkpt lat="46.33199" lon="5.3225">
        <ele>224</ele>
        <time>2021-12-17T13:21:57Z</time>
      </trkpt>
      <trkpt lat="46.33211" lon="5.32273">
        <ele>224</ele>
        <time>2021-12-17T13:22:00Z</time>
      </trkpt>
      <trkpt lat="46.33245" lon="5.32338">
        <ele>224.4</ele>
        <time>2021-12-17T13:22:09Z</time>
      </trkpt>
      <trkpt lat="46.33278" lon="5.32402">
        <ele>224.6</ele>
        <time>2021-12-17T13:22:18Z</time>
      </trkpt>
      <trkpt lat="46.33297" lon="5.32438">
        <ele>225</ele>
        <time>2021-12-17T13:22:23Z</time>
      </trkpt>
      <trkpt lat="46.33308" lon="5.3246">
        <ele>225.2</ele>
        <time>2021-12-17T13:22:26Z</time>
      </trkpt>
      <trkpt lat="46.33338" lon="5.32516">
        <ele>225.4</ele>
        <time>2021-12-17T13:22:34Z</time>
      </trkpt>
      <trkpt lat="46.33366" lon="5.32565">
        <ele>225.8</ele>
        <time>2021-12-17T13:22:42Z</time>
      </trkpt>
      <trkpt lat="46.33375" lon="5.3258">
        <ele>226</ele>
        <time>2021-12-17T13:22:44Z</time>
      </trkpt>
      <trkpt lat="46.33406" lon="5.32637">
        <ele>226.8</ele>
        <time>2021-12-17T13:22:52Z</time>
      </trkpt>
      <trkpt lat="46.33443" lon="5.3269">
        <ele>226.8</ele>
        <time>2021-12-17T13:23:00Z</time>
      </trkpt>
      <trkpt lat="46.33474" lon="5.32718">
        <ele>227.2</ele>
        <time>2021-12-17T13:23:06Z</time>
      </trkpt>
      <trkpt lat="46.3348" lon="5.32722">
        <ele>227.2</ele>
        <time>2021-12-17T13:23:07Z</time>
      </trkpt>
      <trkpt lat="46.33518" lon="5.3275">
        <ele>227.8</ele>
        <time>2021-12-17T13:23:14Z</time>
      </trkpt>
      <trkpt lat="46.33571" lon="5.32784">
        <ele>227.8</ele>
        <time>2021-12-17T13:23:23Z</time>
      </trkpt>
      <trkpt lat="46.33623" lon="5.32819">
        <ele>227.6</ele>
        <time>2021-12-17T13:23:31Z</time>
      </trkpt>
      <trkpt lat="46.33634" lon="5.32833">
        <ele>227.2</ele>
        <time>2021-12-17T13:23:33Z</time>
      </trkpt>
      <trkpt lat="46.33642" lon="5.32849">
        <ele>227</ele>
        <time>2021-12-17T13:23:35Z</time>
      </trkpt>
      <trkpt lat="46.33664" lon="5.32912">
        <ele>226.8</ele>
        <time>2021-12-17T13:23:42Z</time>
      </trkpt>
      <trkpt lat="46.33672" lon="5.32961">
        <ele>226.6</ele>
        <time>2021-12-17T13:23:47Z</time>
      </trkpt>
      <trkpt lat="46.33673" lon="5.32971">
        <ele>226.6</ele>
        <time>2021-12-17T13:23:48Z</time>
      </trkpt>
      <trkpt lat="46.33671" lon="5.33056">
        <ele>226.6</ele>
        <time>2021-12-17T13:23:56Z</time>
      </trkpt>
      <trkpt lat="46.33671" lon="5.33077">
        <ele>226.6</ele>
        <time>2021-12-17T13:23:58Z</time>
      </trkpt>
      <trkpt lat="46.33671" lon="5.33158">
        <ele>226.4</ele>
        <time>2021-12-17T13:24:06Z</time>
      </trkpt>
      <trkpt lat="46.33672" lon="5.33168">
        <ele>226.4</ele>
        <time>2021-12-17T13:24:07Z</time>
      </trkpt>
      <trkpt lat="46.33685" lon="5.33218">
        <ele>226.2</ele>
        <time>2021-12-17T13:24:12Z</time>
      </trkpt>
      <trkpt lat="46.33691" lon="5.33235">
        <ele>226</ele>
        <time>2021-12-17T13:24:14Z</time>
      </trkpt>
      <trkpt lat="46.33717" lon="5.33301">
        <ele>226</ele>
        <time>2021-12-17T13:24:21Z</time>
      </trkpt>
      <trkpt lat="46.33745" lon="5.33371">
        <ele>225.6</ele>
        <time>2021-12-17T13:24:29Z</time>
      </trkpt>
      <trkpt lat="46.33756" lon="5.33398">
        <ele>225.6</ele>
        <time>2021-12-17T13:24:32Z</time>
      </trkpt>
      <trkpt lat="46.33765" lon="5.33423">
        <ele>225</ele>
        <time>2021-12-17T13:24:35Z</time>
      </trkpt>
      <trkpt lat="46.33777" lon="5.33467">
        <ele>225.2</ele>
        <time>2021-12-17T13:24:40Z</time>
      </trkpt>
      <trkpt lat="46.33778" lon="5.33524">
        <ele>225.8</ele>
        <time>2021-12-17T13:24:46Z</time>
      </trkpt>
      <trkpt lat="46.33777" lon="5.33606">
        <ele>226.2</ele>
        <time>2021-12-17T13:24:55Z</time>
      </trkpt>
      <trkpt lat="46.33777" lon="5.33613">
        <ele>226.2</ele>
        <time>2021-12-17T13:24:56Z</time>
      </trkpt>
      <trkpt lat="46.33776" lon="5.3364">
        <ele>226.4</ele>
        <time>2021-12-17T13:24:59Z</time>
      </trkpt>
      <trkpt lat="46.33776" lon="5.3368">
        <ele>226.8</ele>
        <time>2021-12-17T13:25:04Z</time>
      </trkpt>
      <trkpt lat="46.33774" lon="5.33709">
        <ele>227.6</ele>
        <time>2021-12-17T13:25:08Z</time>
      </trkpt>
      <trkpt lat="46.33773" lon="5.33735">
        <ele>228</ele>
        <time>2021-12-17T13:25:12Z</time>
      </trkpt>
      <trkpt lat="46.3377" lon="5.33759">
        <ele>228.6</ele>
        <time>2021-12-17T13:25:16Z</time>
      </trkpt>
      <trkpt lat="46.33769" lon="5.33777">
        <ele>229</ele>
        <time>2021-12-17T13:25:19Z</time>
      </trkpt>
      <trkpt lat="46.33767" lon="5.33789">
        <ele>229.6</ele>
        <time>2021-12-17T13:25:21Z</time>
      </trkpt>
      <trkpt lat="46.33764" lon="5.33805">
        <ele>230.6</ele>
        <time>2021-12-17T13:25:24Z</time>
      </trkpt>
      <trkpt lat="46.33763" lon="5.33818">
        <ele>231</ele>
        <time>2021-12-17T13:25:26Z</time>
      </trkpt>
      <trkpt lat="46.33761" lon="5.3384">
        <ele>231.8</ele>
        <time>2021-12-17T13:25:30Z</time>
      </trkpt>
      <trkpt lat="46.3376" lon="5.33856">
        <ele>232.8</ele>
        <time>2021-12-17T13:25:33Z</time>
      </trkpt>
      <trkpt lat="46.33758" lon="5.33866">
        <ele>233.2</ele>
        <time>2021-12-17T13:25:35Z</time>
      </trkpt>
      <trkpt lat="46.33757" lon="5.33876">
        <ele>233.8</ele>
        <time>2021-12-17T13:25:37Z</time>
      </trkpt>
      <trkpt lat="46.33755" lon="5.33901">
        <ele>234.8</ele>
        <time>2021-12-17T13:25:42Z</time>
      </trkpt>
      <trkpt lat="46.33756" lon="5.33922">
        <ele>236</ele>
        <time>2021-12-17T13:25:46Z</time>
      </trkpt>
      <trkpt lat="46.33757" lon="5.33946">
        <ele>237</ele>
        <time>2021-12-17T13:25:51Z</time>
      </trkpt>
      <trkpt lat="46.33759" lon="5.33972">
        <ele>238.2</ele>
        <time>2021-12-17T13:25:56Z</time>
      </trkpt>
      <trkpt lat="46.3376" lon="5.33987">
        <ele>239</ele>
        <time>2021-12-17T13:25:59Z</time>
      </trkpt>
      <trkpt lat="46.33762" lon="5.33996">
        <ele>239.4</ele>
        <time>2021-12-17T13:26:01Z</time>
      </trkpt>
      <trkpt lat="46.33765" lon="5.34026">
        <ele>241</ele>
        <time>2021-12-17T13:26:07Z</time>
      </trkpt>
      <trkpt lat="46.33767" lon="5.34046">
        <ele>241.6</ele>
        <time>2021-12-17T13:26:11Z</time>
      </trkpt>
      <trkpt lat="46.33768" lon="5.34056">
        <ele>242</ele>
        <time>2021-12-17T13:26:13Z</time>
      </trkpt>
      <trkpt lat="46.33771" lon="5.34082">
        <ele>243.2</ele>
        <time>2021-12-17T13:26:18Z</time>
      </trkpt>
      <trkpt lat="46.33774" lon="5.34108">
        <ele>244.4</ele>
        <time>2021-12-17T13:26:23Z</time>
      </trkpt>
      <trkpt lat="46.33776" lon="5.34136">
        <ele>245.4</ele>
        <time>2021-12-17T13:26:28Z</time>
      </trkpt>
      <trkpt lat="46.33779" lon="5.34159">
        <ele>246.2</ele>
        <time>2021-12-17T13:26:32Z</time>
      </trkpt>
      <trkpt lat="46.33779" lon="5.34178">
        <ele>246.6</ele>
        <time>2021-12-17T13:26:35Z</time>
      </trkpt>
      <trkpt lat="46.33779" lon="5.34206">
        <ele>247</ele>
        <time>2021-12-17T13:26:39Z</time>
      </trkpt>
      <trkpt lat="46.33777" lon="5.34271">
        <ele>247.4</ele>
        <time>2021-12-17T13:26:47Z</time>
      </trkpt>
      <trkpt lat="46.33778" lon="5.34288">
        <ele>247.2</ele>
        <time>2021-12-17T13:26:49Z</time>
      </trkpt>
      <trkpt lat="46.33782" lon="5.34311">
        <ele>247.2</ele>
        <time>2021-12-17T13:26:52Z</time>
      </trkpt>
      <trkpt lat="46.33788" lon="5.34325">
        <ele>247.2</ele>
        <time>2021-12-17T13:26:54Z</time>
      </trkpt>
      <trkpt lat="46.33798" lon="5.34344">
        <ele>247.4</ele>
        <time>2021-12-17T13:26:57Z</time>
      </trkpt>
      <trkpt lat="46.33805" lon="5.34356">
        <ele>247.6</ele>
        <time>2021-12-17T13:26:59Z</time>
      </trkpt>
      <trkpt lat="46.33832" lon="5.344">
        <ele>248.6</ele>
        <time>2021-12-17T13:27:07Z</time>
      </trkpt>
      <trkpt lat="46.33835" lon="5.34406">
        <ele>248.6</ele>
        <time>2021-12-17T13:27:08Z</time>
      </trkpt>
      <trkpt lat="46.33846" lon="5.34431">
        <ele>249.6</ele>
        <time>2021-12-17T13:27:12Z</time>
      </trkpt>
      <trkpt lat="46.33849" lon="5.34438">
        <ele>249.8</ele>
        <time>2021-12-17T13:27:13Z</time>
      </trkpt>
      <trkpt lat="46.33851" lon="5.34445">
        <ele>249.8</ele>
        <time>2021-12-17T13:27:14Z</time>
      </trkpt>
      <trkpt lat="46.33856" lon="5.34467">
        <ele>250</ele>
        <time>2021-12-17T13:27:17Z</time>
      </trkpt>
      <trkpt lat="46.33859" lon="5.34525">
        <ele>250.8</ele>
        <time>2021-12-17T13:27:24Z</time>
      </trkpt>
      <trkpt lat="46.33857" lon="5.34609">
        <ele>251.6</ele>
        <time>2021-12-17T13:27:34Z</time>
      </trkpt>
      <trkpt lat="46.33856" lon="5.34643">
        <ele>251.8</ele>
        <time>2021-12-17T13:27:38Z</time>
      </trkpt>
      <trkpt lat="46.33853" lon="5.34687">
        <ele>252</ele>
        <time>2021-12-17T13:27:43Z</time>
      </trkpt>
      <trkpt lat="46.33842" lon="5.34765">
        <ele>252.2</ele>
        <time>2021-12-17T13:27:52Z</time>
      </trkpt>
      <trkpt lat="46.3384" lon="5.34782">
        <ele>252.2</ele>
        <time>2021-12-17T13:27:54Z</time>
      </trkpt>
      <trkpt lat="46.33838" lon="5.34791">
        <ele>252.4</ele>
        <time>2021-12-17T13:27:55Z</time>
      </trkpt>
      <trkpt lat="46.3383" lon="5.34834">
        <ele>252.8</ele>
        <time>2021-12-17T13:28:00Z</time>
      </trkpt>
      <trkpt lat="46.33821" lon="5.34911">
        <ele>253.2</ele>
        <time>2021-12-17T13:28:09Z</time>
      </trkpt>
      <trkpt lat="46.33819" lon="5.34978">
        <ele>253.8</ele>
        <time>2021-12-17T13:28:17Z</time>
      </trkpt>
      <trkpt lat="46.33819" lon="5.35003">
        <ele>254.2</ele>
        <time>2021-12-17T13:28:20Z</time>
      </trkpt>
      <trkpt lat="46.33816" lon="5.35083">
        <ele>254.4</ele>
        <time>2021-12-17T13:28:30Z</time>
      </trkpt>
      <trkpt lat="46.33812" lon="5.3514">
        <ele>254.8</ele>
        <time>2021-12-17T13:28:37Z</time>
      </trkpt>
      <trkpt lat="46.3381" lon="5.35148">
        <ele>255</ele>
        <time>2021-12-17T13:28:38Z</time>
      </trkpt>
      <trkpt lat="46.33808" lon="5.35185">
        <ele>255.4</ele>
        <time>2021-12-17T13:28:44Z</time>
      </trkpt>
      <trkpt lat="46.33808" lon="5.35185">
        <ele>255.4</ele>
        <time>2021-12-17T13:28:47Z</time>
      </trkpt>
      <trkpt lat="46.33803" lon="5.35185">
        <ele>255.2</ele>
        <time>2021-12-17T13:31:25Z</time>
      </trkpt>
      <trkpt lat="46.33802" lon="5.35192">
        <ele>255.2</ele>
        <time>2021-12-17T13:31:27Z</time>
      </trkpt>
      <trkpt lat="46.33802" lon="5.35222">
        <ele>255.4</ele>
        <time>2021-12-17T13:31:32Z</time>
      </trkpt>
      <trkpt lat="46.33802" lon="5.35236">
        <ele>255.4</ele>
        <time>2021-12-17T13:31:34Z</time>
      </trkpt>
      <trkpt lat="46.33804" lon="5.35267">
        <ele>255.8</ele>
        <time>2021-12-17T13:31:38Z</time>
      </trkpt>
      <trkpt lat="46.33809" lon="5.35289">
        <ele>256</ele>
        <time>2021-12-17T13:31:41Z</time>
      </trkpt>
      <trkpt lat="46.33817" lon="5.35317">
        <ele>256.6</ele>
        <time>2021-12-17T13:31:45Z</time>
      </trkpt>
      <trkpt lat="46.33821" lon="5.35331">
        <ele>257.2</ele>
        <time>2021-12-17T13:31:47Z</time>
      </trkpt>
      <trkpt lat="46.33832" lon="5.3537">
        <ele>258.2</ele>
        <time>2021-12-17T13:31:53Z</time>
      </trkpt>
      <trkpt lat="46.33834" lon="5.35376">
        <ele>258.2</ele>
        <time>2021-12-17T13:31:54Z</time>
      </trkpt>
      <trkpt lat="46.33842" lon="5.35408">
        <ele>259.6</ele>
        <time>2021-12-17T13:31:59Z</time>
      </trkpt>
      <trkpt lat="46.33847" lon="5.35427">
        <ele>260.2</ele>
        <time>2021-12-17T13:32:02Z</time>
      </trkpt>
      <trkpt lat="46.3385" lon="5.35439">
        <ele>260.6</ele>
        <time>2021-12-17T13:32:05Z</time>
      </trkpt>
      <trkpt lat="46.33863" lon="5.35481">
        <ele>261.6</ele>
        <time>2021-12-17T13:32:11Z</time>
      </trkpt>
      <trkpt lat="46.33868" lon="5.355">
        <ele>262</ele>
        <time>2021-12-17T13:32:14Z</time>
      </trkpt>
      <trkpt lat="46.33869" lon="5.35506">
        <ele>262.2</ele>
        <time>2021-12-17T13:32:15Z</time>
      </trkpt>
      <trkpt lat="46.33876" lon="5.35532">
        <ele>262.6</ele>
        <time>2021-12-17T13:32:19Z</time>
      </trkpt>
      <trkpt lat="46.33884" lon="5.35573">
        <ele>263.8</ele>
        <time>2021-12-17T13:32:25Z</time>
      </trkpt>
      <trkpt lat="46.33887" lon="5.35594">
        <ele>264</ele>
        <time>2021-12-17T13:32:28Z</time>
      </trkpt>
      <trkpt lat="46.33889" lon="5.35636">
        <ele>264.4</ele>
        <time>2021-12-17T13:32:34Z</time>
      </trkpt>
      <trkpt lat="46.33889" lon="5.35662">
        <ele>265.2</ele>
        <time>2021-12-17T13:32:38Z</time>
      </trkpt>
      <trkpt lat="46.33888" lon="5.35694">
        <ele>266</ele>
        <time>2021-12-17T13:32:43Z</time>
      </trkpt>
      <trkpt lat="46.33888" lon="5.35706">
        <ele>266.4</ele>
        <time>2021-12-17T13:32:45Z</time>
      </trkpt>
      <trkpt lat="46.33888" lon="5.35739">
        <ele>267.6</ele>
        <time>2021-12-17T13:32:50Z</time>
      </trkpt>
      <trkpt lat="46.33891" lon="5.35758">
        <ele>267.8</ele>
        <time>2021-12-17T13:32:53Z</time>
      </trkpt>
      <trkpt lat="46.33894" lon="5.35783">
        <ele>268.6</ele>
        <time>2021-12-17T13:32:57Z</time>
      </trkpt>
      <trkpt lat="46.33898" lon="5.35808">
        <ele>269.4</ele>
        <time>2021-12-17T13:33:01Z</time>
      </trkpt>
      <trkpt lat="46.33899" lon="5.35814">
        <ele>269.6</ele>
        <time>2021-12-17T13:33:02Z</time>
      </trkpt>
      <trkpt lat="46.33904" lon="5.35838">
        <ele>270.6</ele>
        <time>2021-12-17T13:33:06Z</time>
      </trkpt>
      <trkpt lat="46.33906" lon="5.3585">
        <ele>271.4</ele>
        <time>2021-12-17T13:33:08Z</time>
      </trkpt>
      <trkpt lat="46.33908" lon="5.35861">
        <ele>271.6</ele>
        <time>2021-12-17T13:33:10Z</time>
      </trkpt>
      <trkpt lat="46.3391" lon="5.35867">
        <ele>271.8</ele>
        <time>2021-12-17T13:33:11Z</time>
      </trkpt>
      <trkpt lat="46.33912" lon="5.35873">
        <ele>272</ele>
        <time>2021-12-17T13:33:12Z</time>
      </trkpt>
      <trkpt lat="46.33918" lon="5.35888">
        <ele>272.6</ele>
        <time>2021-12-17T13:33:15Z</time>
      </trkpt>
      <trkpt lat="46.33921" lon="5.35899">
        <ele>272.8</ele>
        <time>2021-12-17T13:33:17Z</time>
      </trkpt>
      <trkpt lat="46.33927" lon="5.35921">
        <ele>274.2</ele>
        <time>2021-12-17T13:33:21Z</time>
      </trkpt>
      <trkpt lat="46.33931" lon="5.35931">
        <ele>274.6</ele>
        <time>2021-12-17T13:33:23Z</time>
      </trkpt>
      <trkpt lat="46.33936" lon="5.35946">
        <ele>275.2</ele>
        <time>2021-12-17T13:33:26Z</time>
      </trkpt>
      <trkpt lat="46.33943" lon="5.35969">
        <ele>276.2</ele>
        <time>2021-12-17T13:33:30Z</time>
      </trkpt>
      <trkpt lat="46.33945" lon="5.35974">
        <ele>276.4</ele>
        <time>2021-12-17T13:33:31Z</time>
      </trkpt>
      <trkpt lat="46.33953" lon="5.35996">
        <ele>277.6</ele>
        <time>2021-12-17T13:33:35Z</time>
      </trkpt>
      <trkpt lat="46.3396" lon="5.36015">
        <ele>278.4</ele>
        <time>2021-12-17T13:33:39Z</time>
      </trkpt>
      <trkpt lat="46.33962" lon="5.3602">
        <ele>278.8</ele>
        <time>2021-12-17T13:33:40Z</time>
      </trkpt>
      <trkpt lat="46.33975" lon="5.36048">
        <ele>280</ele>
        <time>2021-12-17T13:33:46Z</time>
      </trkpt>
      <trkpt lat="46.33982" lon="5.3606">
        <ele>280.6</ele>
        <time>2021-12-17T13:33:49Z</time>
      </trkpt>
      <trkpt lat="46.33987" lon="5.36069">
        <ele>281</ele>
        <time>2021-12-17T13:33:51Z</time>
      </trkpt>
      <trkpt lat="46.33998" lon="5.3609">
        <ele>282.2</ele>
        <time>2021-12-17T13:33:56Z</time>
      </trkpt>
      <trkpt lat="46.34009" lon="5.36107">
        <ele>283.6</ele>
        <time>2021-12-17T13:34:00Z</time>
      </trkpt>
      <trkpt lat="46.34012" lon="5.36111">
        <ele>283.6</ele>
        <time>2021-12-17T13:34:01Z</time>
      </trkpt>
      <trkpt lat="46.34031" lon="5.36135">
        <ele>284.8</ele>
        <time>2021-12-17T13:34:06Z</time>
      </trkpt>
      <trkpt lat="46.34034" lon="5.36138">
        <ele>284.8</ele>
        <time>2021-12-17T13:34:07Z</time>
      </trkpt>
      <trkpt lat="46.34043" lon="5.36146">
        <ele>285</ele>
        <time>2021-12-17T13:34:09Z</time>
      </trkpt>
      <trkpt lat="46.3406" lon="5.36157">
        <ele>284.8</ele>
        <time>2021-12-17T13:34:12Z</time>
      </trkpt>
      <trkpt lat="46.34092" lon="5.36169">
        <ele>284.8</ele>
        <time>2021-12-17T13:34:18Z</time>
      </trkpt>
      <trkpt lat="46.34133" lon="5.36188">
        <ele>284.8</ele>
        <time>2021-12-17T13:34:25Z</time>
      </trkpt>
      <trkpt lat="46.34167" lon="5.3622">
        <ele>284.6</ele>
        <time>2021-12-17T13:34:32Z</time>
      </trkpt>
      <trkpt lat="46.34178" lon="5.36236">
        <ele>284.8</ele>
        <time>2021-12-17T13:34:35Z</time>
      </trkpt>
      <trkpt lat="46.34189" lon="5.36259">
        <ele>285</ele>
        <time>2021-12-17T13:34:38Z</time>
      </trkpt>
      <trkpt lat="46.34213" lon="5.36328">
        <ele>285.4</ele>
        <time>2021-12-17T13:34:47Z</time>
      </trkpt>
      <trkpt lat="46.34239" lon="5.36404">
        <ele>285.8</ele>
        <time>2021-12-17T13:34:57Z</time>
      </trkpt>
      <trkpt lat="46.34241" lon="5.36411">
        <ele>286</ele>
        <time>2021-12-17T13:34:58Z</time>
      </trkpt>
      <trkpt lat="46.34242" lon="5.3643">
        <ele>286</ele>
        <time>2021-12-17T13:35:00Z</time>
      </trkpt>
      <trkpt lat="46.34241" lon="5.36438">
        <ele>286.2</ele>
        <time>2021-12-17T13:35:01Z</time>
      </trkpt>
      <trkpt lat="46.34238" lon="5.36446">
        <ele>286.2</ele>
        <time>2021-12-17T13:35:02Z</time>
      </trkpt>
      <trkpt lat="46.3423" lon="5.36459">
        <ele>286.2</ele>
        <time>2021-12-17T13:35:04Z</time>
      </trkpt>
      <trkpt lat="46.34226" lon="5.36465">
        <ele>286.2</ele>
        <time>2021-12-17T13:35:05Z</time>
      </trkpt>
      <trkpt lat="46.34199" lon="5.36497">
        <ele>286.6</ele>
        <time>2021-12-17T13:35:12Z</time>
      </trkpt>
      <trkpt lat="46.34192" lon="5.36506">
        <ele>287</ele>
        <time>2021-12-17T13:35:14Z</time>
      </trkpt>
      <trkpt lat="46.34176" lon="5.36523">
        <ele>287.8</ele>
        <time>2021-12-17T13:35:19Z</time>
      </trkpt>
      <trkpt lat="46.34174" lon="5.36526">
        <ele>288.2</ele>
        <time>2021-12-17T13:35:20Z</time>
      </trkpt>
      <trkpt lat="46.34159" lon="5.36544">
        <ele>289.2</ele>
        <time>2021-12-17T13:35:25Z</time>
      </trkpt>
      <trkpt lat="46.34148" lon="5.36559">
        <ele>290.4</ele>
        <time>2021-12-17T13:35:29Z</time>
      </trkpt>
      <trkpt lat="46.34132" lon="5.3658">
        <ele>291.4</ele>
        <time>2021-12-17T13:35:35Z</time>
      </trkpt>
      <trkpt lat="46.34122" lon="5.36592">
        <ele>292.4</ele>
        <time>2021-12-17T13:35:39Z</time>
      </trkpt>
      <trkpt lat="46.3412" lon="5.36595">
        <ele>292.6</ele>
        <time>2021-12-17T13:35:40Z</time>
      </trkpt>
      <trkpt lat="46.34105" lon="5.36605">
        <ele>294</ele>
        <time>2021-12-17T13:35:45Z</time>
      </trkpt>
      <trkpt lat="46.34102" lon="5.36607">
        <ele>294.2</ele>
        <time>2021-12-17T13:35:46Z</time>
      </trkpt>
      <trkpt lat="46.34083" lon="5.36611">
        <ele>295.2</ele>
        <time>2021-12-17T13:35:51Z</time>
      </trkpt>
      <trkpt lat="46.34072" lon="5.36611">
        <ele>296</ele>
        <time>2021-12-17T13:35:54Z</time>
      </trkpt>
      <trkpt lat="46.34061" lon="5.36609">
        <ele>296.2</ele>
        <time>2021-12-17T13:35:57Z</time>
      </trkpt>
      <trkpt lat="46.3404" lon="5.36603">
        <ele>297.4</ele>
        <time>2021-12-17T13:36:03Z</time>
      </trkpt>
      <trkpt lat="46.34037" lon="5.36602">
        <ele>297.6</ele>
        <time>2021-12-17T13:36:04Z</time>
      </trkpt>
      <trkpt lat="46.34027" lon="5.36599">
        <ele>298.4</ele>
        <time>2021-12-17T13:36:07Z</time>
      </trkpt>
      <trkpt lat="46.34012" lon="5.36595">
        <ele>299.6</ele>
        <time>2021-12-17T13:36:12Z</time>
      </trkpt>
      <trkpt lat="46.34005" lon="5.36594">
        <ele>300.2</ele>
        <time>2021-12-17T13:36:14Z</time>
      </trkpt>
      <trkpt lat="46.33999" lon="5.36596">
        <ele>300.8</ele>
        <time>2021-12-17T13:36:16Z</time>
      </trkpt>
      <trkpt lat="46.3399" lon="5.36601">
        <ele>302</ele>
        <time>2021-12-17T13:36:19Z</time>
      </trkpt>
      <trkpt lat="46.33987" lon="5.36604">
        <ele>302.2</ele>
        <time>2021-12-17T13:36:20Z</time>
      </trkpt>
      <trkpt lat="46.33978" lon="5.36629">
        <ele>303.2</ele>
        <time>2021-12-17T13:36:25Z</time>
      </trkpt>
      <trkpt lat="46.33968" lon="5.36667">
        <ele>304.2</ele>
        <time>2021-12-17T13:36:32Z</time>
      </trkpt>
      <trkpt lat="46.3396" lon="5.36698">
        <ele>304.8</ele>
        <time>2021-12-17T13:36:37Z</time>
      </trkpt>
      <trkpt lat="46.33947" lon="5.3675">
        <ele>305</ele>
        <time>2021-12-17T13:36:44Z</time>
      </trkpt>
      <trkpt lat="46.33929" lon="5.36814">
        <ele>304.8</ele>
        <time>2021-12-17T13:36:52Z</time>
      </trkpt>
      <trkpt lat="46.33904" lon="5.36886">
        <ele>304.6</ele>
        <time>2021-12-17T13:37:01Z</time>
      </trkpt>
      <trkpt lat="46.33881" lon="5.36951">
        <ele>303</ele>
        <time>2021-12-17T13:37:08Z</time>
      </trkpt>
      <trkpt lat="46.33864" lon="5.36993">
        <ele>301.8</ele>
        <time>2021-12-17T13:37:13Z</time>
      </trkpt>
      <trkpt lat="46.33861" lon="5.37001">
        <ele>301.6</ele>
        <time>2021-12-17T13:37:14Z</time>
      </trkpt>
      <trkpt lat="46.33839" lon="5.37056">
        <ele>301</ele>
        <time>2021-12-17T13:37:20Z</time>
      </trkpt>
      <trkpt lat="46.33836" lon="5.37065">
        <ele>301</ele>
        <time>2021-12-17T13:37:21Z</time>
      </trkpt>
      <trkpt lat="46.33832" lon="5.37082">
        <ele>300.6</ele>
        <time>2021-12-17T13:37:23Z</time>
      </trkpt>
      <trkpt lat="46.3383" lon="5.3709">
        <ele>300.6</ele>
        <time>2021-12-17T13:37:24Z</time>
      </trkpt>
      <trkpt lat="46.33825" lon="5.37124">
        <ele>301</ele>
        <time>2021-12-17T13:37:29Z</time>
      </trkpt>
      <trkpt lat="46.33824" lon="5.3713">
        <ele>301.2</ele>
        <time>2021-12-17T13:37:30Z</time>
      </trkpt>
      <trkpt lat="46.33822" lon="5.37146">
        <ele>301.8</ele>
        <time>2021-12-17T13:37:33Z</time>
      </trkpt>
      <trkpt lat="46.3382" lon="5.37161">
        <ele>303</ele>
        <time>2021-12-17T13:37:36Z</time>
      </trkpt>
      <trkpt lat="46.33819" lon="5.37166">
        <ele>303.2</ele>
        <time>2021-12-17T13:37:37Z</time>
      </trkpt>
      <trkpt lat="46.33817" lon="5.37181">
        <ele>304</ele>
        <time>2021-12-17T13:37:40Z</time>
      </trkpt>
      <trkpt lat="46.33817" lon="5.37186">
        <ele>304.4</ele>
        <time>2021-12-17T13:37:41Z</time>
      </trkpt>
      <trkpt lat="46.33816" lon="5.37206">
        <ele>305.4</ele>
        <time>2021-12-17T13:37:45Z</time>
      </trkpt>
      <trkpt lat="46.33817" lon="5.37231">
        <ele>306.6</ele>
        <time>2021-12-17T13:37:50Z</time>
      </trkpt>
      <trkpt lat="46.33819" lon="5.37247">
        <ele>307.2</ele>
        <time>2021-12-17T13:37:53Z</time>
      </trkpt>
      <trkpt lat="46.3382" lon="5.37252">
        <ele>307.6</ele>
        <time>2021-12-17T13:37:54Z</time>
      </trkpt>
      <trkpt lat="46.33823" lon="5.37277">
        <ele>308.6</ele>
        <time>2021-12-17T13:37:59Z</time>
      </trkpt>
      <trkpt lat="46.33822" lon="5.37287">
        <ele>309.2</ele>
        <time>2021-12-17T13:38:01Z</time>
      </trkpt>
      <trkpt lat="46.3382" lon="5.37302">
        <ele>309.8</ele>
        <time>2021-12-17T13:38:04Z</time>
      </trkpt>
      <trkpt lat="46.33816" lon="5.37315">
        <ele>310.4</ele>
        <time>2021-12-17T13:38:07Z</time>
      </trkpt>
      <trkpt lat="46.33814" lon="5.37319">
        <ele>310.8</ele>
        <time>2021-12-17T13:38:08Z</time>
      </trkpt>
      <trkpt lat="46.33801" lon="5.37339">
        <ele>312</ele>
        <time>2021-12-17T13:38:14Z</time>
      </trkpt>
      <trkpt lat="46.33786" lon="5.3735">
        <ele>313.2</ele>
        <time>2021-12-17T13:38:19Z</time>
      </trkpt>
      <trkpt lat="46.3378" lon="5.37353">
        <ele>313.6</ele>
        <time>2021-12-17T13:38:21Z</time>
      </trkpt>
      <trkpt lat="46.33772" lon="5.37359">
        <ele>314.4</ele>
        <time>2021-12-17T13:38:24Z</time>
      </trkpt>
      <trkpt lat="46.33758" lon="5.37371">
        <ele>315.4</ele>
        <time>2021-12-17T13:38:29Z</time>
      </trkpt>
      <trkpt lat="46.33748" lon="5.37386">
        <ele>316.6</ele>
        <time>2021-12-17T13:38:33Z</time>
      </trkpt>
      <trkpt lat="46.33732" lon="5.3741">
        <ele>317.8</ele>
        <time>2021-12-17T13:38:39Z</time>
      </trkpt>
      <trkpt lat="46.33729" lon="5.37414">
        <ele>318</ele>
        <time>2021-12-17T13:38:40Z</time>
      </trkpt>
      <trkpt lat="46.33721" lon="5.37427">
        <ele>319</ele>
        <time>2021-12-17T13:38:44Z</time>
      </trkpt>
      <trkpt lat="46.33716" lon="5.37433">
        <ele>319.6</ele>
        <time>2021-12-17T13:38:46Z</time>
      </trkpt>
      <trkpt lat="46.33707" lon="5.37442">
        <ele>320.2</ele>
        <time>2021-12-17T13:38:49Z</time>
      </trkpt>
      <trkpt lat="46.33694" lon="5.37456">
        <ele>321</ele>
        <time>2021-12-17T13:38:54Z</time>
      </trkpt>
      <trkpt lat="46.33691" lon="5.37458">
        <ele>321.4</ele>
        <time>2021-12-17T13:38:55Z</time>
      </trkpt>
      <trkpt lat="46.33679" lon="5.37472">
        <ele>322.6</ele>
        <time>2021-12-17T13:39:00Z</time>
      </trkpt>
      <trkpt lat="46.33674" lon="5.37478">
        <ele>323.2</ele>
        <time>2021-12-17T13:39:02Z</time>
      </trkpt>
      <trkpt lat="46.33669" lon="5.37485">
        <ele>323.6</ele>
        <time>2021-12-17T13:39:04Z</time>
      </trkpt>
      <trkpt lat="46.33658" lon="5.37508">
        <ele>324.8</ele>
        <time>2021-12-17T13:39:10Z</time>
      </trkpt>
      <trkpt lat="46.33657" lon="5.37511">
        <ele>325.2</ele>
        <time>2021-12-17T13:39:11Z</time>
      </trkpt>
      <trkpt lat="46.33652" lon="5.37524">
        <ele>325.8</ele>
        <time>2021-12-17T13:39:14Z</time>
      </trkpt>
      <trkpt lat="46.33643" lon="5.37545">
        <ele>327</ele>
        <time>2021-12-17T13:39:19Z</time>
      </trkpt>
      <trkpt lat="46.33639" lon="5.37553">
        <ele>327.2</ele>
        <time>2021-12-17T13:39:21Z</time>
      </trkpt>
      <trkpt lat="46.33635" lon="5.3756">
        <ele>328</ele>
        <time>2021-12-17T13:39:23Z</time>
      </trkpt>
      <trkpt lat="46.33623" lon="5.37577">
        <ele>329.2</ele>
        <time>2021-12-17T13:39:28Z</time>
      </trkpt>
      <trkpt lat="46.33616" lon="5.37593">
        <ele>330.4</ele>
        <time>2021-12-17T13:39:32Z</time>
      </trkpt>
      <trkpt lat="46.33606" lon="5.37616">
        <ele>331.6</ele>
        <time>2021-12-17T13:39:38Z</time>
      </trkpt>
      <trkpt lat="46.33597" lon="5.37643">
        <ele>332.8</ele>
        <time>2021-12-17T13:39:44Z</time>
      </trkpt>
      <trkpt lat="46.33592" lon="5.37656">
        <ele>333.4</ele>
        <time>2021-12-17T13:39:47Z</time>
      </trkpt>
      <trkpt lat="46.33589" lon="5.37664">
        <ele>333.8</ele>
        <time>2021-12-17T13:39:49Z</time>
      </trkpt>
      <trkpt lat="46.33584" lon="5.37681">
        <ele>335.2</ele>
        <time>2021-12-17T13:39:53Z</time>
      </trkpt>
      <trkpt lat="46.33581" lon="5.3769">
        <ele>335.6</ele>
        <time>2021-12-17T13:39:55Z</time>
      </trkpt>
      <trkpt lat="46.33575" lon="5.37708">
        <ele>336.4</ele>
        <time>2021-12-17T13:39:59Z</time>
      </trkpt>
      <trkpt lat="46.33572" lon="5.37717">
        <ele>336.8</ele>
        <time>2021-12-17T13:40:01Z</time>
      </trkpt>
      <trkpt lat="46.33567" lon="5.3773">
        <ele>337.6</ele>
        <time>2021-12-17T13:40:04Z</time>
      </trkpt>
      <trkpt lat="46.3356" lon="5.37753">
        <ele>338.4</ele>
        <time>2021-12-17T13:40:09Z</time>
      </trkpt>
      <trkpt lat="46.33557" lon="5.37762">
        <ele>338.8</ele>
        <time>2021-12-17T13:40:11Z</time>
      </trkpt>
      <trkpt lat="46.33552" lon="5.37774">
        <ele>339.8</ele>
        <time>2021-12-17T13:40:14Z</time>
      </trkpt>
      <trkpt lat="46.33547" lon="5.37786">
        <ele>340.8</ele>
        <time>2021-12-17T13:40:17Z</time>
      </trkpt>
      <trkpt lat="46.33546" lon="5.37791">
        <ele>341</ele>
        <time>2021-12-17T13:40:18Z</time>
      </trkpt>
      <trkpt lat="46.3354" lon="5.37808">
        <ele>342.2</ele>
        <time>2021-12-17T13:40:22Z</time>
      </trkpt>
      <trkpt lat="46.33531" lon="5.3783">
        <ele>343.2</ele>
        <time>2021-12-17T13:40:27Z</time>
      </trkpt>
      <trkpt lat="46.33525" lon="5.37848">
        <ele>344.6</ele>
        <time>2021-12-17T13:40:31Z</time>
      </trkpt>
      <trkpt lat="46.3352" lon="5.37863">
        <ele>345</ele>
        <time>2021-12-17T13:40:34Z</time>
      </trkpt>
      <trkpt lat="46.33517" lon="5.37873">
        <ele>345.6</ele>
        <time>2021-12-17T13:40:36Z</time>
      </trkpt>
      <trkpt lat="46.3351" lon="5.37893">
        <ele>346.8</ele>
        <time>2021-12-17T13:40:40Z</time>
      </trkpt>
      <trkpt lat="46.33505" lon="5.3791">
        <ele>347.8</ele>
        <time>2021-12-17T13:40:44Z</time>
      </trkpt>
      <trkpt lat="46.33502" lon="5.37934">
        <ele>348.6</ele>
        <time>2021-12-17T13:40:49Z</time>
      </trkpt>
      <trkpt lat="46.33512" lon="5.37956">
        <ele>349</ele>
        <time>2021-12-17T13:40:54Z</time>
      </trkpt>
      <trkpt lat="46.33515" lon="5.37959">
        <ele>349.2</ele>
        <time>2021-12-17T13:40:55Z</time>
      </trkpt>
      <trkpt lat="46.33527" lon="5.37974">
        <ele>349.8</ele>
        <time>2021-12-17T13:40:59Z</time>
      </trkpt>
      <trkpt lat="46.33534" lon="5.37981">
        <ele>350.8</ele>
        <time>2021-12-17T13:41:01Z</time>
      </trkpt>
      <trkpt lat="46.33552" lon="5.38">
        <ele>352</ele>
        <time>2021-12-17T13:41:07Z</time>
      </trkpt>
      <trkpt lat="46.33559" lon="5.38006">
        <ele>352.4</ele>
        <time>2021-12-17T13:41:09Z</time>
      </trkpt>
      <trkpt lat="46.33567" lon="5.38017">
        <ele>353.6</ele>
        <time>2021-12-17T13:41:12Z</time>
      </trkpt>
      <trkpt lat="46.33576" lon="5.38032">
        <ele>354.6</ele>
        <time>2021-12-17T13:41:16Z</time>
      </trkpt>
      <trkpt lat="46.33585" lon="5.38053">
        <ele>355.8</ele>
        <time>2021-12-17T13:41:21Z</time>
      </trkpt>
      <trkpt lat="46.33587" lon="5.38057">
        <ele>356.2</ele>
        <time>2021-12-17T13:41:22Z</time>
      </trkpt>
      <trkpt lat="46.33589" lon="5.38065">
        <ele>356.6</ele>
        <time>2021-12-17T13:41:24Z</time>
      </trkpt>
      <trkpt lat="46.3359" lon="5.38071">
        <ele>356.8</ele>
        <time>2021-12-17T13:41:25Z</time>
      </trkpt>
      <trkpt lat="46.33594" lon="5.38087">
        <ele>358</ele>
        <time>2021-12-17T13:41:29Z</time>
      </trkpt>
      <trkpt lat="46.33597" lon="5.381">
        <ele>358.4</ele>
        <time>2021-12-17T13:41:32Z</time>
      </trkpt>
      <trkpt lat="46.33598" lon="5.38114">
        <ele>359</ele>
        <time>2021-12-17T13:41:35Z</time>
      </trkpt>
      <trkpt lat="46.33601" lon="5.38132">
        <ele>360.2</ele>
        <time>2021-12-17T13:41:39Z</time>
      </trkpt>
      <trkpt lat="46.33601" lon="5.38142">
        <ele>360.6</ele>
        <time>2021-12-17T13:41:41Z</time>
      </trkpt>
      <trkpt lat="46.33601" lon="5.38156">
        <ele>361.4</ele>
        <time>2021-12-17T13:41:44Z</time>
      </trkpt>
      <trkpt lat="46.33599" lon="5.3818">
        <ele>362.4</ele>
        <time>2021-12-17T13:41:49Z</time>
      </trkpt>
      <trkpt lat="46.33599" lon="5.38185">
        <ele>362.6</ele>
        <time>2021-12-17T13:41:50Z</time>
      </trkpt>
      <trkpt lat="46.33596" lon="5.38212">
        <ele>363.6</ele>
        <time>2021-12-17T13:41:56Z</time>
      </trkpt>
      <trkpt lat="46.33595" lon="5.3823">
        <ele>364.8</ele>
        <time>2021-12-17T13:42:00Z</time>
      </trkpt>
      <trkpt lat="46.33594" lon="5.38247">
        <ele>365.8</ele>
        <time>2021-12-17T13:42:04Z</time>
      </trkpt>
      <trkpt lat="46.33595" lon="5.38257">
        <ele>366.4</ele>
        <time>2021-12-17T13:42:06Z</time>
      </trkpt>
      <trkpt lat="46.33596" lon="5.3827">
        <ele>367</ele>
        <time>2021-12-17T13:42:09Z</time>
      </trkpt>
      <trkpt lat="46.33598" lon="5.38296">
        <ele>368</ele>
        <time>2021-12-17T13:42:15Z</time>
      </trkpt>
      <trkpt lat="46.336" lon="5.38319">
        <ele>369.2</ele>
        <time>2021-12-17T13:42:20Z</time>
      </trkpt>
      <trkpt lat="46.33601" lon="5.38338">
        <ele>370.2</ele>
        <time>2021-12-17T13:42:24Z</time>
      </trkpt>
      <trkpt lat="46.33601" lon="5.38343">
        <ele>370.2</ele>
        <time>2021-12-17T13:42:25Z</time>
      </trkpt>
      <trkpt lat="46.336" lon="5.38365">
        <ele>371.4</ele>
        <time>2021-12-17T13:42:30Z</time>
      </trkpt>
      <trkpt lat="46.33599" lon="5.38378">
        <ele>372.4</ele>
        <time>2021-12-17T13:42:33Z</time>
      </trkpt>
      <trkpt lat="46.33599" lon="5.38386">
        <ele>372.6</ele>
        <time>2021-12-17T13:42:35Z</time>
      </trkpt>
      <trkpt lat="46.33598" lon="5.384">
        <ele>373.8</ele>
        <time>2021-12-17T13:42:38Z</time>
      </trkpt>
      <trkpt lat="46.33599" lon="5.38417">
        <ele>374.6</ele>
        <time>2021-12-17T13:42:42Z</time>
      </trkpt>
      <trkpt lat="46.33598" lon="5.38431">
        <ele>375</ele>
        <time>2021-12-17T13:42:45Z</time>
      </trkpt>
      <trkpt lat="46.33596" lon="5.38448">
        <ele>376.2</ele>
        <time>2021-12-17T13:42:49Z</time>
      </trkpt>
      <trkpt lat="46.33592" lon="5.38474">
        <ele>377.4</ele>
        <time>2021-12-17T13:42:55Z</time>
      </trkpt>
      <trkpt lat="46.33588" lon="5.3849">
        <ele>378.4</ele>
        <time>2021-12-17T13:42:59Z</time>
      </trkpt>
      <trkpt lat="46.33583" lon="5.38517">
        <ele>379.6</ele>
        <time>2021-12-17T13:43:05Z</time>
      </trkpt>
      <trkpt lat="46.3358" lon="5.3853">
        <ele>380.4</ele>
        <time>2021-12-17T13:43:08Z</time>
      </trkpt>
      <trkpt lat="46.33575" lon="5.38544">
        <ele>380.8</ele>
        <time>2021-12-17T13:43:11Z</time>
      </trkpt>
      <trkpt lat="46.33566" lon="5.38565">
        <ele>382</ele>
        <time>2021-12-17T13:43:16Z</time>
      </trkpt>
      <trkpt lat="46.33561" lon="5.38573">
        <ele>382.4</ele>
        <time>2021-12-17T13:43:18Z</time>
      </trkpt>
      <trkpt lat="46.33554" lon="5.38589">
        <ele>383</ele>
        <time>2021-12-17T13:43:22Z</time>
      </trkpt>
      <trkpt lat="46.33547" lon="5.38605">
        <ele>383.6</ele>
        <time>2021-12-17T13:43:26Z</time>
      </trkpt>
      <trkpt lat="46.33546" lon="5.38619">
        <ele>384.2</ele>
        <time>2021-12-17T13:43:29Z</time>
      </trkpt>
      <trkpt lat="46.33548" lon="5.38627">
        <ele>384.8</ele>
        <time>2021-12-17T13:43:31Z</time>
      </trkpt>
      <trkpt lat="46.33558" lon="5.38638">
        <ele>385.4</ele>
        <time>2021-12-17T13:43:35Z</time>
      </trkpt>
      <trkpt lat="46.33561" lon="5.38639">
        <ele>385.6</ele>
        <time>2021-12-17T13:43:36Z</time>
      </trkpt>
      <trkpt lat="46.3357" lon="5.38641">
        <ele>386.4</ele>
        <time>2021-12-17T13:43:39Z</time>
      </trkpt>
      <trkpt lat="46.33582" lon="5.38638">
        <ele>387.6</ele>
        <time>2021-12-17T13:43:43Z</time>
      </trkpt>
      <trkpt lat="46.33594" lon="5.38631">
        <ele>388.6</ele>
        <time>2021-12-17T13:43:47Z</time>
      </trkpt>
      <trkpt lat="46.33608" lon="5.38618">
        <ele>389.6</ele>
        <time>2021-12-17T13:43:52Z</time>
      </trkpt>
      <trkpt lat="46.33611" lon="5.38616">
        <ele>389.8</ele>
        <time>2021-12-17T13:43:53Z</time>
      </trkpt>
      <trkpt lat="46.33619" lon="5.38607">
        <ele>391</ele>
        <time>2021-12-17T13:43:56Z</time>
      </trkpt>
      <trkpt lat="46.33629" lon="5.38595">
        <ele>392</ele>
        <time>2021-12-17T13:44:00Z</time>
      </trkpt>
      <trkpt lat="46.33631" lon="5.38592">
        <ele>392.2</ele>
        <time>2021-12-17T13:44:01Z</time>
      </trkpt>
      <trkpt lat="46.33643" lon="5.38577">
        <ele>393.2</ele>
        <time>2021-12-17T13:44:06Z</time>
      </trkpt>
      <trkpt lat="46.33654" lon="5.38562">
        <ele>394.2</ele>
        <time>2021-12-17T13:44:11Z</time>
      </trkpt>
      <trkpt lat="46.33667" lon="5.38544">
        <ele>395.6</ele>
        <time>2021-12-17T13:44:17Z</time>
      </trkpt>
      <trkpt lat="46.33673" lon="5.38534">
        <ele>396.6</ele>
        <time>2021-12-17T13:44:20Z</time>
      </trkpt>
      <trkpt lat="46.33684" lon="5.38517">
        <ele>397.8</ele>
        <time>2021-12-17T13:44:25Z</time>
      </trkpt>
      <trkpt lat="46.33693" lon="5.38502">
        <ele>398.6</ele>
        <time>2021-12-17T13:44:29Z</time>
      </trkpt>
      <trkpt lat="46.33695" lon="5.38498">
        <ele>398.8</ele>
        <time>2021-12-17T13:44:30Z</time>
      </trkpt>
      <trkpt lat="46.33713" lon="5.38466">
        <ele>400</ele>
        <time>2021-12-17T13:44:38Z</time>
      </trkpt>
      <trkpt lat="46.33726" lon="5.38447">
        <ele>401.2</ele>
        <time>2021-12-17T13:44:43Z</time>
      </trkpt>
      <trkpt lat="46.33735" lon="5.38436">
        <ele>402</ele>
        <time>2021-12-17T13:44:46Z</time>
      </trkpt>
      <trkpt lat="46.3374" lon="5.38429">
        <ele>402.6</ele>
        <time>2021-12-17T13:44:48Z</time>
      </trkpt>
      <trkpt lat="46.33753" lon="5.38408">
        <ele>403.6</ele>
        <time>2021-12-17T13:44:53Z</time>
      </trkpt>
      <trkpt lat="46.33756" lon="5.384">
        <ele>404</ele>
        <time>2021-12-17T13:44:55Z</time>
      </trkpt>
      <trkpt lat="46.3376" lon="5.38387">
        <ele>404.6</ele>
        <time>2021-12-17T13:44:58Z</time>
      </trkpt>
      <trkpt lat="46.33762" lon="5.38378">
        <ele>405</ele>
        <time>2021-12-17T13:45:00Z</time>
      </trkpt>
      <trkpt lat="46.33764" lon="5.38369">
        <ele>405.6</ele>
        <time>2021-12-17T13:45:02Z</time>
      </trkpt>
      <trkpt lat="46.33768" lon="5.38342">
        <ele>407</ele>
        <time>2021-12-17T13:45:08Z</time>
      </trkpt>
      <trkpt lat="46.3377" lon="5.38337">
        <ele>407</ele>
        <time>2021-12-17T13:45:09Z</time>
      </trkpt>
      <trkpt lat="46.33775" lon="5.38322">
        <ele>408.2</ele>
        <time>2021-12-17T13:45:13Z</time>
      </trkpt>
      <trkpt lat="46.33779" lon="5.3831">
        <ele>408.8</ele>
        <time>2021-12-17T13:45:16Z</time>
      </trkpt>
      <trkpt lat="46.33781" lon="5.38306">
        <ele>409.2</ele>
        <time>2021-12-17T13:45:17Z</time>
      </trkpt>
      <trkpt lat="46.3379" lon="5.38283">
        <ele>410.4</ele>
        <time>2021-12-17T13:45:23Z</time>
      </trkpt>
      <trkpt lat="46.33798" lon="5.38265">
        <ele>411.4</ele>
        <time>2021-12-17T13:45:28Z</time>
      </trkpt>
      <trkpt lat="46.338" lon="5.38262">
        <ele>411.8</ele>
        <time>2021-12-17T13:45:29Z</time>
      </trkpt>
      <trkpt lat="46.33812" lon="5.38236">
        <ele>413</ele>
        <time>2021-12-17T13:45:36Z</time>
      </trkpt>
      <trkpt lat="46.33814" lon="5.38232">
        <ele>413.2</ele>
        <time>2021-12-17T13:45:37Z</time>
      </trkpt>
      <trkpt lat="46.33825" lon="5.38216">
        <ele>414.4</ele>
        <time>2021-12-17T13:45:42Z</time>
      </trkpt>
      <trkpt lat="46.3383" lon="5.38209">
        <ele>414.6</ele>
        <time>2021-12-17T13:45:44Z</time>
      </trkpt>
      <trkpt lat="46.33837" lon="5.38198">
        <ele>415.6</ele>
        <time>2021-12-17T13:45:47Z</time>
      </trkpt>
      <trkpt lat="46.33846" lon="5.38183">
        <ele>416.2</ele>
        <time>2021-12-17T13:45:51Z</time>
      </trkpt>
      <trkpt lat="46.3385" lon="5.38176">
        <ele>416.6</ele>
        <time>2021-12-17T13:45:53Z</time>
      </trkpt>
      <trkpt lat="46.3386" lon="5.38156">
        <ele>417.8</ele>
        <time>2021-12-17T13:45:58Z</time>
      </trkpt>
      <trkpt lat="46.33863" lon="5.38149">
        <ele>418.4</ele>
        <time>2021-12-17T13:46:00Z</time>
      </trkpt>
      <trkpt lat="46.33868" lon="5.38139">
        <ele>419</ele>
        <time>2021-12-17T13:46:03Z</time>
      </trkpt>
      <trkpt lat="46.33874" lon="5.38136">
        <ele>419.6</ele>
        <time>2021-12-17T13:46:05Z</time>
      </trkpt>
      <trkpt lat="46.33879" lon="5.38139">
        <ele>419.8</ele>
        <time>2021-12-17T13:46:07Z</time>
      </trkpt>
      <trkpt lat="46.33879" lon="5.38141">
        <ele>420.2</ele>
        <time>2021-12-17T13:46:08Z</time>
      </trkpt>
      <trkpt lat="46.33877" lon="5.38157">
        <ele>421.2</ele>
        <time>2021-12-17T13:46:12Z</time>
      </trkpt>
      <trkpt lat="46.33876" lon="5.38161">
        <ele>421.4</ele>
        <time>2021-12-17T13:46:13Z</time>
      </trkpt>
      <trkpt lat="46.33872" lon="5.38173">
        <ele>422.4</ele>
        <time>2021-12-17T13:46:16Z</time>
      </trkpt>
      <trkpt lat="46.33868" lon="5.38192">
        <ele>423.6</ele>
        <time>2021-12-17T13:46:20Z</time>
      </trkpt>
      <trkpt lat="46.33867" lon="5.38198">
        <ele>424</ele>
        <time>2021-12-17T13:46:21Z</time>
      </trkpt>
      <trkpt lat="46.33863" lon="5.38223">
        <ele>424.8</ele>
        <time>2021-12-17T13:46:26Z</time>
      </trkpt>
      <trkpt lat="46.3386" lon="5.38243">
        <ele>425.8</ele>
        <time>2021-12-17T13:46:30Z</time>
      </trkpt>
      <trkpt lat="46.3386" lon="5.38247">
        <ele>426</ele>
        <time>2021-12-17T13:46:31Z</time>
      </trkpt>
      <trkpt lat="46.33856" lon="5.38269">
        <ele>427</ele>
        <time>2021-12-17T13:46:36Z</time>
      </trkpt>
      <trkpt lat="46.33854" lon="5.38287">
        <ele>427.6</ele>
        <time>2021-12-17T13:46:40Z</time>
      </trkpt>
      <trkpt lat="46.33853" lon="5.38297">
        <ele>428.2</ele>
        <time>2021-12-17T13:46:42Z</time>
      </trkpt>
      <trkpt lat="46.33852" lon="5.38317">
        <ele>429.4</ele>
        <time>2021-12-17T13:46:46Z</time>
      </trkpt>
      <trkpt lat="46.33851" lon="5.38323">
        <ele>429.4</ele>
        <time>2021-12-17T13:46:47Z</time>
      </trkpt>
      <trkpt lat="46.33851" lon="5.38357">
        <ele>430.4</ele>
        <time>2021-12-17T13:46:53Z</time>
      </trkpt>
      <trkpt lat="46.33851" lon="5.38367">
        <ele>430.8</ele>
        <time>2021-12-17T13:46:55Z</time>
      </trkpt>
      <trkpt lat="46.33852" lon="5.38377">
        <ele>431.6</ele>
        <time>2021-12-17T13:46:57Z</time>
      </trkpt>
      <trkpt lat="46.33854" lon="5.38394">
        <ele>432.6</ele>
        <time>2021-12-17T13:47:00Z</time>
      </trkpt>
      <trkpt lat="46.33854" lon="5.38399">
        <ele>432.8</ele>
        <time>2021-12-17T13:47:01Z</time>
      </trkpt>
      <trkpt lat="46.33858" lon="5.38415">
        <ele>433.8</ele>
        <time>2021-12-17T13:47:04Z</time>
      </trkpt>
      <trkpt lat="46.33863" lon="5.38442">
        <ele>435</ele>
        <time>2021-12-17T13:47:09Z</time>
      </trkpt>
      <trkpt lat="46.33866" lon="5.38467">
        <ele>436.4</ele>
        <time>2021-12-17T13:47:13Z</time>
      </trkpt>
      <trkpt lat="46.33865" lon="5.38477">
        <ele>437.2</ele>
        <time>2021-12-17T13:47:15Z</time>
      </trkpt>
      <trkpt lat="46.33864" lon="5.38482">
        <ele>437.4</ele>
        <time>2021-12-17T13:47:16Z</time>
      </trkpt>
      <trkpt lat="46.33863" lon="5.38487">
        <ele>437.6</ele>
        <time>2021-12-17T13:47:17Z</time>
      </trkpt>
      <trkpt lat="46.33856" lon="5.38505">
        <ele>438.8</ele>
        <time>2021-12-17T13:47:21Z</time>
      </trkpt>
      <trkpt lat="46.33849" lon="5.38521">
        <ele>440</ele>
        <time>2021-12-17T13:47:25Z</time>
      </trkpt>
      <trkpt lat="46.33842" lon="5.38537">
        <ele>441.2</ele>
        <time>2021-12-17T13:47:29Z</time>
      </trkpt>
      <trkpt lat="46.3384" lon="5.38541">
        <ele>441.4</ele>
        <time>2021-12-17T13:47:30Z</time>
      </trkpt>
      <trkpt lat="46.33834" lon="5.38558">
        <ele>442.6</ele>
        <time>2021-12-17T13:47:34Z</time>
      </trkpt>
      <trkpt lat="46.33829" lon="5.38576">
        <ele>443.4</ele>
        <time>2021-12-17T13:47:38Z</time>
      </trkpt>
      <trkpt lat="46.33827" lon="5.38581">
        <ele>443.6</ele>
        <time>2021-12-17T13:47:39Z</time>
      </trkpt>
      <trkpt lat="46.33823" lon="5.386">
        <ele>444.6</ele>
        <time>2021-12-17T13:47:43Z</time>
      </trkpt>
      <trkpt lat="46.33821" lon="5.38615">
        <ele>445.2</ele>
        <time>2021-12-17T13:47:46Z</time>
      </trkpt>
      <trkpt lat="46.33821" lon="5.38636">
        <ele>445.8</ele>
        <time>2021-12-17T13:47:50Z</time>
      </trkpt>
      <trkpt lat="46.33823" lon="5.38652">
        <ele>446.2</ele>
        <time>2021-12-17T13:47:53Z</time>
      </trkpt>
      <trkpt lat="46.33826" lon="5.38662">
        <ele>447</ele>
        <time>2021-12-17T13:47:55Z</time>
      </trkpt>
      <trkpt lat="46.33834" lon="5.38678">
        <ele>447.8</ele>
        <time>2021-12-17T13:47:59Z</time>
      </trkpt>
      <trkpt lat="46.3384" lon="5.38685">
        <ele>448</ele>
        <time>2021-12-17T13:48:01Z</time>
      </trkpt>
      <trkpt lat="46.33857" lon="5.38698">
        <ele>449.2</ele>
        <time>2021-12-17T13:48:06Z</time>
      </trkpt>
      <trkpt lat="46.33871" lon="5.38706">
        <ele>450.6</ele>
        <time>2021-12-17T13:48:10Z</time>
      </trkpt>
      <trkpt lat="46.33884" lon="5.38713">
        <ele>451.4</ele>
        <time>2021-12-17T13:48:14Z</time>
      </trkpt>
      <trkpt lat="46.33892" lon="5.38716">
        <ele>451.8</ele>
        <time>2021-12-17T13:48:16Z</time>
      </trkpt>
      <trkpt lat="46.33905" lon="5.38719">
        <ele>453</ele>
        <time>2021-12-17T13:48:19Z</time>
      </trkpt>
      <trkpt lat="46.33913" lon="5.38721">
        <ele>453.4</ele>
        <time>2021-12-17T13:48:21Z</time>
      </trkpt>
      <trkpt lat="46.33929" lon="5.38727">
        <ele>454</ele>
        <time>2021-12-17T13:48:25Z</time>
      </trkpt>
      <trkpt lat="46.33944" lon="5.38732">
        <ele>455</ele>
        <time>2021-12-17T13:48:29Z</time>
      </trkpt>
      <trkpt lat="46.33952" lon="5.38734">
        <ele>455.6</ele>
        <time>2021-12-17T13:48:31Z</time>
      </trkpt>
      <trkpt lat="46.33963" lon="5.38739">
        <ele>456.2</ele>
        <time>2021-12-17T13:48:34Z</time>
      </trkpt>
      <trkpt lat="46.33982" lon="5.38747">
        <ele>457</ele>
        <time>2021-12-17T13:48:39Z</time>
      </trkpt>
      <trkpt lat="46.33986" lon="5.38748">
        <ele>457.2</ele>
        <time>2021-12-17T13:48:40Z</time>
      </trkpt>
      <trkpt lat="46.34008" lon="5.3876">
        <ele>458.6</ele>
        <time>2021-12-17T13:48:46Z</time>
      </trkpt>
      <trkpt lat="46.34019" lon="5.38767">
        <ele>459.8</ele>
        <time>2021-12-17T13:48:49Z</time>
      </trkpt>
      <trkpt lat="46.34023" lon="5.3877">
        <ele>460</ele>
        <time>2021-12-17T13:48:50Z</time>
      </trkpt>
      <trkpt lat="46.34036" lon="5.38778">
        <ele>460.8</ele>
        <time>2021-12-17T13:48:53Z</time>
      </trkpt>
      <trkpt lat="46.34046" lon="5.38784">
        <ele>461.2</ele>
        <time>2021-12-17T13:48:55Z</time>
      </trkpt>
      <trkpt lat="46.34093" lon="5.38808">
        <ele>461.8</ele>
        <time>2021-12-17T13:49:04Z</time>
      </trkpt>
      <trkpt lat="46.34128" lon="5.38829">
        <ele>462</ele>
        <time>2021-12-17T13:49:11Z</time>
      </trkpt>
      <trkpt lat="46.34137" lon="5.38835">
        <ele>462</ele>
        <time>2021-12-17T13:49:13Z</time>
      </trkpt>
      <trkpt lat="46.34166" lon="5.38852">
        <ele>462</ele>
        <time>2021-12-17T13:49:18Z</time>
      </trkpt>
      <trkpt lat="46.34201" lon="5.3887">
        <ele>461.8</ele>
        <time>2021-12-17T13:49:23Z</time>
      </trkpt>
      <trkpt lat="46.34238" lon="5.3889">
        <ele>460.4</ele>
        <time>2021-12-17T13:49:28Z</time>
      </trkpt>
      <trkpt lat="46.34262" lon="5.38903">
        <ele>459.4</ele>
        <time>2021-12-17T13:49:31Z</time>
      </trkpt>
      <trkpt lat="46.3427" lon="5.38908">
        <ele>458.8</ele>
        <time>2021-12-17T13:49:32Z</time>
      </trkpt>
      <trkpt lat="46.34303" lon="5.3893">
        <ele>457.8</ele>
        <time>2021-12-17T13:49:36Z</time>
      </trkpt>
      <trkpt lat="46.34312" lon="5.38936">
        <ele>457</ele>
        <time>2021-12-17T13:49:37Z</time>
      </trkpt>
      <trkpt lat="46.3433" lon="5.38948">
        <ele>456.6</ele>
        <time>2021-12-17T13:49:39Z</time>
      </trkpt>
      <trkpt lat="46.3436" lon="5.38961">
        <ele>455.4</ele>
        <time>2021-12-17T13:49:42Z</time>
      </trkpt>
      <trkpt lat="46.3437" lon="5.38964">
        <ele>454.6</ele>
        <time>2021-12-17T13:49:43Z</time>
      </trkpt>
      <trkpt lat="46.3438" lon="5.38966">
        <ele>454.2</ele>
        <time>2021-12-17T13:49:44Z</time>
      </trkpt>
      <trkpt lat="46.34391" lon="5.38964">
        <ele>453.6</ele>
        <time>2021-12-17T13:49:45Z</time>
      </trkpt>
      <trkpt lat="46.34402" lon="5.3896">
        <ele>452.8</ele>
        <time>2021-12-17T13:49:46Z</time>
      </trkpt>
      <trkpt lat="46.34423" lon="5.38947">
        <ele>452</ele>
        <time>2021-12-17T13:49:48Z</time>
      </trkpt>
      <trkpt lat="46.34434" lon="5.3894">
        <ele>451.2</ele>
        <time>2021-12-17T13:49:49Z</time>
      </trkpt>
      <trkpt lat="46.34455" lon="5.38926">
        <ele>450</ele>
        <time>2021-12-17T13:49:51Z</time>
      </trkpt>
      <trkpt lat="46.34466" lon="5.38919">
        <ele>449</ele>
        <time>2021-12-17T13:49:52Z</time>
      </trkpt>
      <trkpt lat="46.34487" lon="5.38905">
        <ele>447.8</ele>
        <time>2021-12-17T13:49:54Z</time>
      </trkpt>
      <trkpt lat="46.34497" lon="5.38898">
        <ele>446.8</ele>
        <time>2021-12-17T13:49:55Z</time>
      </trkpt>
      <trkpt lat="46.34517" lon="5.38884">
        <ele>445.2</ele>
        <time>2021-12-17T13:49:57Z</time>
      </trkpt>
      <trkpt lat="46.34528" lon="5.38878">
        <ele>444.8</ele>
        <time>2021-12-17T13:49:58Z</time>
      </trkpt>
      <trkpt lat="46.34538" lon="5.38873">
        <ele>443.6</ele>
        <time>2021-12-17T13:49:59Z</time>
      </trkpt>
      <trkpt lat="46.34559" lon="5.38869">
        <ele>442.6</ele>
        <time>2021-12-17T13:50:01Z</time>
      </trkpt>
      <trkpt lat="46.34581" lon="5.38879">
        <ele>441.8</ele>
        <time>2021-12-17T13:50:03Z</time>
      </trkpt>
      <trkpt lat="46.3459" lon="5.38888">
        <ele>441</ele>
        <time>2021-12-17T13:50:04Z</time>
      </trkpt>
      <trkpt lat="46.34598" lon="5.389">
        <ele>440.4</ele>
        <time>2021-12-17T13:50:05Z</time>
      </trkpt>
      <trkpt lat="46.34605" lon="5.38914">
        <ele>439.6</ele>
        <time>2021-12-17T13:50:06Z</time>
      </trkpt>
      <trkpt lat="46.34621" lon="5.3894">
        <ele>438</ele>
        <time>2021-12-17T13:50:08Z</time>
      </trkpt>
      <trkpt lat="46.34639" lon="5.38962">
        <ele>436</ele>
        <time>2021-12-17T13:50:10Z</time>
      </trkpt>
      <trkpt lat="46.3466" lon="5.38979">
        <ele>434.6</ele>
        <time>2021-12-17T13:50:12Z</time>
      </trkpt>
      <trkpt lat="46.34682" lon="5.38996">
        <ele>433.4</ele>
        <time>2021-12-17T13:50:14Z</time>
      </trkpt>
      <trkpt lat="46.34692" lon="5.39006">
        <ele>432</ele>
        <time>2021-12-17T13:50:15Z</time>
      </trkpt>
      <trkpt lat="46.347" lon="5.39019">
        <ele>431.2</ele>
        <time>2021-12-17T13:50:16Z</time>
      </trkpt>
      <trkpt lat="46.34709" lon="5.39033">
        <ele>430.2</ele>
        <time>2021-12-17T13:50:17Z</time>
      </trkpt>
      <trkpt lat="46.34722" lon="5.39062">
        <ele>428.2</ele>
        <time>2021-12-17T13:50:19Z</time>
      </trkpt>
      <trkpt lat="46.34728" lon="5.39077">
        <ele>426.8</ele>
        <time>2021-12-17T13:50:20Z</time>
      </trkpt>
      <trkpt lat="46.34736" lon="5.39109">
        <ele>425.6</ele>
        <time>2021-12-17T13:50:22Z</time>
      </trkpt>
      <trkpt lat="46.3474" lon="5.39125">
        <ele>425.2</ele>
        <time>2021-12-17T13:50:23Z</time>
      </trkpt>
      <trkpt lat="46.34744" lon="5.39141">
        <ele>423.6</ele>
        <time>2021-12-17T13:50:24Z</time>
      </trkpt>
      <trkpt lat="46.34751" lon="5.39167">
        <ele>421.8</ele>
        <time>2021-12-17T13:50:26Z</time>
      </trkpt>
      <trkpt lat="46.34754" lon="5.39179">
        <ele>421.2</ele>
        <time>2021-12-17T13:50:27Z</time>
      </trkpt>
      <trkpt lat="46.3476" lon="5.39199">
        <ele>420</ele>
        <time>2021-12-17T13:50:29Z</time>
      </trkpt>
      <trkpt lat="46.34768" lon="5.39215">
        <ele>418.8</ele>
        <time>2021-12-17T13:50:31Z</time>
      </trkpt>
      <trkpt lat="46.34778" lon="5.39218">
        <ele>417.2</ele>
        <time>2021-12-17T13:50:33Z</time>
      </trkpt>
      <trkpt lat="46.34786" lon="5.39204">
        <ele>415.8</ele>
        <time>2021-12-17T13:50:35Z</time>
      </trkpt>
      <trkpt lat="46.34787" lon="5.39193">
        <ele>415</ele>
        <time>2021-12-17T13:50:36Z</time>
      </trkpt>
      <trkpt lat="46.34786" lon="5.39181">
        <ele>414.6</ele>
        <time>2021-12-17T13:50:37Z</time>
      </trkpt>
      <trkpt lat="46.34786" lon="5.39168">
        <ele>413.4</ele>
        <time>2021-12-17T13:50:38Z</time>
      </trkpt>
      <trkpt lat="46.34785" lon="5.39155">
        <ele>413</ele>
        <time>2021-12-17T13:50:39Z</time>
      </trkpt>
      <trkpt lat="46.34788" lon="5.39128">
        <ele>412</ele>
        <time>2021-12-17T13:50:41Z</time>
      </trkpt>
      <trkpt lat="46.3479" lon="5.39115">
        <ele>411.6</ele>
        <time>2021-12-17T13:50:42Z</time>
      </trkpt>
      <trkpt lat="46.34795" lon="5.39089">
        <ele>410.8</ele>
        <time>2021-12-17T13:50:44Z</time>
      </trkpt>
      <trkpt lat="46.34798" lon="5.39076">
        <ele>409.6</ele>
        <time>2021-12-17T13:50:45Z</time>
      </trkpt>
      <trkpt lat="46.34803" lon="5.39063">
        <ele>409.4</ele>
        <time>2021-12-17T13:50:46Z</time>
      </trkpt>
      <trkpt lat="46.3481" lon="5.39051">
        <ele>408.6</ele>
        <time>2021-12-17T13:50:47Z</time>
      </trkpt>
      <trkpt lat="46.34829" lon="5.39037">
        <ele>407.6</ele>
        <time>2021-12-17T13:50:49Z</time>
      </trkpt>
      <trkpt lat="46.3484" lon="5.39033">
        <ele>407.4</ele>
        <time>2021-12-17T13:50:50Z</time>
      </trkpt>
      <trkpt lat="46.34862" lon="5.39027">
        <ele>406</ele>
        <time>2021-12-17T13:50:52Z</time>
      </trkpt>
      <trkpt lat="46.34884" lon="5.39021">
        <ele>404.4</ele>
        <time>2021-12-17T13:50:54Z</time>
      </trkpt>
      <trkpt lat="46.34906" lon="5.39013">
        <ele>403.4</ele>
        <time>2021-12-17T13:50:56Z</time>
      </trkpt>
      <trkpt lat="46.34929" lon="5.39006">
        <ele>401.8</ele>
        <time>2021-12-17T13:50:58Z</time>
      </trkpt>
      <trkpt lat="46.34951" lon="5.38998">
        <ele>400</ele>
        <time>2021-12-17T13:51:00Z</time>
      </trkpt>
      <trkpt lat="46.34961" lon="5.38993">
        <ele>399.2</ele>
        <time>2021-12-17T13:51:01Z</time>
      </trkpt>
      <trkpt lat="46.34982" lon="5.38983">
        <ele>397.8</ele>
        <time>2021-12-17T13:51:03Z</time>
      </trkpt>
      <trkpt lat="46.35011" lon="5.38967">
        <ele>396.6</ele>
        <time>2021-12-17T13:51:06Z</time>
      </trkpt>
      <trkpt lat="46.35019" lon="5.38961">
        <ele>396</ele>
        <time>2021-12-17T13:51:07Z</time>
      </trkpt>
      <trkpt lat="46.35027" lon="5.38956">
        <ele>395.6</ele>
        <time>2021-12-17T13:51:08Z</time>
      </trkpt>
      <trkpt lat="46.35034" lon="5.38952">
        <ele>395.2</ele>
        <time>2021-12-17T13:51:09Z</time>
      </trkpt>
      <trkpt lat="46.35042" lon="5.3895">
        <ele>394.8</ele>
        <time>2021-12-17T13:51:10Z</time>
      </trkpt>
      <trkpt lat="46.35069" lon="5.38959">
        <ele>394</ele>
        <time>2021-12-17T13:51:14Z</time>
      </trkpt>
      <trkpt lat="46.35077" lon="5.38969">
        <ele>393.8</ele>
        <time>2021-12-17T13:51:16Z</time>
      </trkpt>
      <trkpt lat="46.3508" lon="5.38977">
        <ele>393.6</ele>
        <time>2021-12-17T13:51:17Z</time>
      </trkpt>
      <trkpt lat="46.35082" lon="5.38987">
        <ele>393.4</ele>
        <time>2021-12-17T13:51:18Z</time>
      </trkpt>
      <trkpt lat="46.35082" lon="5.39011">
        <ele>393.2</ele>
        <time>2021-12-17T13:51:20Z</time>
      </trkpt>
      <trkpt lat="46.35082" lon="5.39025">
        <ele>392.8</ele>
        <time>2021-12-17T13:51:21Z</time>
      </trkpt>
      <trkpt lat="46.35079" lon="5.39072">
        <ele>391.8</ele>
        <time>2021-12-17T13:51:24Z</time>
      </trkpt>
      <trkpt lat="46.35077" lon="5.39105">
        <ele>390.2</ele>
        <time>2021-12-17T13:51:26Z</time>
      </trkpt>
      <trkpt lat="46.35075" lon="5.39139">
        <ele>388.8</ele>
        <time>2021-12-17T13:51:28Z</time>
      </trkpt>
      <trkpt lat="46.35075" lon="5.39171">
        <ele>387.6</ele>
        <time>2021-12-17T13:51:30Z</time>
      </trkpt>
      <trkpt lat="46.35075" lon="5.39204">
        <ele>386.2</ele>
        <time>2021-12-17T13:51:32Z</time>
      </trkpt>
      <trkpt lat="46.35078" lon="5.39238">
        <ele>385.2</ele>
        <time>2021-12-17T13:51:34Z</time>
      </trkpt>
      <trkpt lat="46.3508" lon="5.39267">
        <ele>384.2</ele>
        <time>2021-12-17T13:51:36Z</time>
      </trkpt>
      <trkpt lat="46.35083" lon="5.39316">
        <ele>382.6</ele>
        <time>2021-12-17T13:51:39Z</time>
      </trkpt>
      <trkpt lat="46.35083" lon="5.39358">
        <ele>381.6</ele>
        <time>2021-12-17T13:51:42Z</time>
      </trkpt>
      <trkpt lat="46.35082" lon="5.39375">
        <ele>381.2</ele>
        <time>2021-12-17T13:51:43Z</time>
      </trkpt>
      <trkpt lat="46.35079" lon="5.39417">
        <ele>379.8</ele>
        <time>2021-12-17T13:51:46Z</time>
      </trkpt>
      <trkpt lat="46.35078" lon="5.39443">
        <ele>379.4</ele>
        <time>2021-12-17T13:51:48Z</time>
      </trkpt>
      <trkpt lat="46.35078" lon="5.39504">
        <ele>379</ele>
        <time>2021-12-17T13:51:53Z</time>
      </trkpt>
      <trkpt lat="46.35078" lon="5.39514">
        <ele>379</ele>
        <time>2021-12-17T13:51:54Z</time>
      </trkpt>
      <trkpt lat="46.35083" lon="5.39603">
        <ele>378.8</ele>
        <time>2021-12-17T13:52:01Z</time>
      </trkpt>
      <trkpt lat="46.35084" lon="5.39615">
        <ele>378.6</ele>
        <time>2021-12-17T13:52:02Z</time>
      </trkpt>
      <trkpt lat="46.35084" lon="5.39624">
        <ele>378.6</ele>
        <time>2021-12-17T13:52:03Z</time>
      </trkpt>
      <trkpt lat="46.35079" lon="5.39694">
        <ele>377.6</ele>
        <time>2021-12-17T13:52:09Z</time>
      </trkpt>
      <trkpt lat="46.3508" lon="5.39708">
        <ele>377.6</ele>
        <time>2021-12-17T13:52:10Z</time>
      </trkpt>
      <trkpt lat="46.35084" lon="5.39739">
        <ele>377.6</ele>
        <time>2021-12-17T13:52:13Z</time>
      </trkpt>
      <trkpt lat="46.351" lon="5.398">
        <ele>377.4</ele>
        <time>2021-12-17T13:52:19Z</time>
      </trkpt>
      <trkpt lat="46.35127" lon="5.39869">
        <ele>377.2</ele>
        <time>2021-12-17T13:52:26Z</time>
      </trkpt>
      <trkpt lat="46.35135" lon="5.39885">
        <ele>377.2</ele>
        <time>2021-12-17T13:52:28Z</time>
      </trkpt>
      <trkpt lat="46.35168" lon="5.39951">
        <ele>376.8</ele>
        <time>2021-12-17T13:52:35Z</time>
      </trkpt>
      <trkpt lat="46.35178" lon="5.39967">
        <ele>376.6</ele>
        <time>2021-12-17T13:52:37Z</time>
      </trkpt>
      <trkpt lat="46.35203" lon="5.40011">
        <ele>376</ele>
        <time>2021-12-17T13:52:42Z</time>
      </trkpt>
      <trkpt lat="46.35231" lon="5.40065">
        <ele>375.6</ele>
        <time>2021-12-17T13:52:48Z</time>
      </trkpt>
      <trkpt lat="46.35265" lon="5.40116">
        <ele>375.6</ele>
        <time>2021-12-17T13:52:55Z</time>
      </trkpt>
      <trkpt lat="46.35269" lon="5.40124">
        <ele>375.6</ele>
        <time>2021-12-17T13:52:56Z</time>
      </trkpt>
      <trkpt lat="46.35272" lon="5.40133">
        <ele>375.6</ele>
        <time>2021-12-17T13:52:57Z</time>
      </trkpt>
      <trkpt lat="46.35276" lon="5.40153">
        <ele>375.8</ele>
        <time>2021-12-17T13:52:59Z</time>
      </trkpt>
      <trkpt lat="46.35277" lon="5.40164">
        <ele>375.8</ele>
        <time>2021-12-17T13:53:00Z</time>
      </trkpt>
      <trkpt lat="46.35279" lon="5.40221">
        <ele>375.6</ele>
        <time>2021-12-17T13:53:05Z</time>
      </trkpt>
      <trkpt lat="46.35282" lon="5.40293">
        <ele>374.6</ele>
        <time>2021-12-17T13:53:11Z</time>
      </trkpt>
      <trkpt lat="46.35286" lon="5.40325">
        <ele>373.8</ele>
        <time>2021-12-17T13:53:14Z</time>
      </trkpt>
      <trkpt lat="46.3529" lon="5.40349">
        <ele>373.4</ele>
        <time>2021-12-17T13:53:16Z</time>
      </trkpt>
      <trkpt lat="46.35292" lon="5.40359">
        <ele>373.4</ele>
        <time>2021-12-17T13:53:17Z</time>
      </trkpt>
      <trkpt lat="46.35297" lon="5.40369">
        <ele>373.4</ele>
        <time>2021-12-17T13:53:18Z</time>
      </trkpt>
      <trkpt lat="46.35301" lon="5.40375">
        <ele>373.2</ele>
        <time>2021-12-17T13:53:19Z</time>
      </trkpt>
      <trkpt lat="46.35315" lon="5.40386">
        <ele>373.2</ele>
        <time>2021-12-17T13:53:21Z</time>
      </trkpt>
      <trkpt lat="46.35357" lon="5.40402">
        <ele>373</ele>
        <time>2021-12-17T13:53:27Z</time>
      </trkpt>
      <trkpt lat="46.35374" lon="5.4041">
        <ele>373.2</ele>
        <time>2021-12-17T13:53:30Z</time>
      </trkpt>
      <trkpt lat="46.35383" lon="5.40418">
        <ele>373.4</ele>
        <time>2021-12-17T13:53:32Z</time>
      </trkpt>
      <trkpt lat="46.35387" lon="5.40424">
        <ele>373.6</ele>
        <time>2021-12-17T13:53:33Z</time>
      </trkpt>
      <trkpt lat="46.35393" lon="5.40438">
        <ele>374.2</ele>
        <time>2021-12-17T13:53:35Z</time>
      </trkpt>
      <trkpt lat="46.35396" lon="5.40456">
        <ele>374.6</ele>
        <time>2021-12-17T13:53:37Z</time>
      </trkpt>
      <trkpt lat="46.35401" lon="5.40486">
        <ele>375.2</ele>
        <time>2021-12-17T13:53:40Z</time>
      </trkpt>
      <trkpt lat="46.35406" lon="5.40534">
        <ele>375.6</ele>
        <time>2021-12-17T13:53:45Z</time>
      </trkpt>
      <trkpt lat="46.35405" lon="5.40546">
        <ele>375.6</ele>
        <time>2021-12-17T13:53:46Z</time>
      </trkpt>
      <trkpt lat="46.354" lon="5.40586">
        <ele>375.6</ele>
        <time>2021-12-17T13:53:51Z</time>
      </trkpt>
      <trkpt lat="46.35398" lon="5.40602">
        <ele>375.8</ele>
        <time>2021-12-17T13:53:53Z</time>
      </trkpt>
      <trkpt lat="46.35394" lon="5.4063">
        <ele>376.8</ele>
        <time>2021-12-17T13:53:57Z</time>
      </trkpt>
      <trkpt lat="46.35391" lon="5.40646">
        <ele>377</ele>
        <time>2021-12-17T13:53:59Z</time>
      </trkpt>
      <trkpt lat="46.35388" lon="5.40659">
        <ele>377</ele>
        <time>2021-12-17T13:54:01Z</time>
      </trkpt>
      <trkpt lat="46.35383" lon="5.4067">
        <ele>377.4</ele>
        <time>2021-12-17T13:54:03Z</time>
      </trkpt>
      <trkpt lat="46.35376" lon="5.40679">
        <ele>378</ele>
        <time>2021-12-17T13:54:05Z</time>
      </trkpt>
      <trkpt lat="46.35372" lon="5.40682">
        <ele>378.2</ele>
        <time>2021-12-17T13:54:06Z</time>
      </trkpt>
      <trkpt lat="46.35368" lon="5.40685">
        <ele>378.2</ele>
        <time>2021-12-17T13:54:07Z</time>
      </trkpt>
      <trkpt lat="46.35365" lon="5.40688">
        <ele>378.6</ele>
        <time>2021-12-17T13:54:08Z</time>
      </trkpt>
      <trkpt lat="46.35353" lon="5.40696">
        <ele>379.4</ele>
        <time>2021-12-17T13:54:11Z</time>
      </trkpt>
      <trkpt lat="46.35342" lon="5.40704">
        <ele>380.6</ele>
        <time>2021-12-17T13:54:14Z</time>
      </trkpt>
      <trkpt lat="46.35335" lon="5.4071">
        <ele>381.4</ele>
        <time>2021-12-17T13:54:16Z</time>
      </trkpt>
      <trkpt lat="46.35332" lon="5.40713">
        <ele>381.6</ele>
        <time>2021-12-17T13:54:17Z</time>
      </trkpt>
      <trkpt lat="46.35325" lon="5.4072">
        <ele>382.2</ele>
        <time>2021-12-17T13:54:19Z</time>
      </trkpt>
      <trkpt lat="46.35323" lon="5.40724">
        <ele>382.6</ele>
        <time>2021-12-17T13:54:20Z</time>
      </trkpt>
      <trkpt lat="46.3532" lon="5.40729">
        <ele>382.8</ele>
        <time>2021-12-17T13:54:21Z</time>
      </trkpt>
      <trkpt lat="46.35314" lon="5.40743">
        <ele>383.8</ele>
        <time>2021-12-17T13:54:24Z</time>
      </trkpt>
      <trkpt lat="46.35312" lon="5.40757">
        <ele>384.6</ele>
        <time>2021-12-17T13:54:27Z</time>
      </trkpt>
      <trkpt lat="46.35319" lon="5.40764">
        <ele>385.2</ele>
        <time>2021-12-17T13:54:29Z</time>
      </trkpt>
      <trkpt lat="46.35326" lon="5.4077">
        <ele>386</ele>
        <time>2021-12-17T13:54:31Z</time>
      </trkpt>
      <trkpt lat="46.35329" lon="5.40773">
        <ele>386.2</ele>
        <time>2021-12-17T13:54:32Z</time>
      </trkpt>
      <trkpt lat="46.35339" lon="5.40782">
        <ele>387.2</ele>
        <time>2021-12-17T13:54:35Z</time>
      </trkpt>
      <trkpt lat="46.35348" lon="5.40784">
        <ele>387.8</ele>
        <time>2021-12-17T13:54:37Z</time>
      </trkpt>
      <trkpt lat="46.3536" lon="5.4078">
        <ele>388.6</ele>
        <time>2021-12-17T13:54:40Z</time>
      </trkpt>
      <trkpt lat="46.35372" lon="5.40777">
        <ele>389</ele>
        <time>2021-12-17T13:54:42Z</time>
      </trkpt>
      <trkpt lat="46.35396" lon="5.40776">
        <ele>389</ele>
        <time>2021-12-17T13:54:46Z</time>
      </trkpt>
      <trkpt lat="46.35403" lon="5.40774">
        <ele>388.8</ele>
        <time>2021-12-17T13:54:47Z</time>
      </trkpt>
      <trkpt lat="46.35417" lon="5.40767">
        <ele>388.4</ele>
        <time>2021-12-17T13:54:49Z</time>
      </trkpt>
      <trkpt lat="46.35429" lon="5.40759">
        <ele>387.8</ele>
        <time>2021-12-17T13:54:51Z</time>
      </trkpt>
      <trkpt lat="46.35437" lon="5.40754">
        <ele>387.6</ele>
        <time>2021-12-17T13:54:52Z</time>
      </trkpt>
      <trkpt lat="46.35459" lon="5.40743">
        <ele>386.8</ele>
        <time>2021-12-17T13:54:55Z</time>
      </trkpt>
      <trkpt lat="46.35467" lon="5.40741">
        <ele>386.6</ele>
        <time>2021-12-17T13:54:56Z</time>
      </trkpt>
      <trkpt lat="46.35477" lon="5.40741">
        <ele>386.4</ele>
        <time>2021-12-17T13:54:57Z</time>
      </trkpt>
      <trkpt lat="46.35492" lon="5.40741">
        <ele>385.4</ele>
        <time>2021-12-17T13:54:59Z</time>
      </trkpt>
      <trkpt lat="46.3551" lon="5.40741">
        <ele>384.8</ele>
        <time>2021-12-17T13:55:01Z</time>
      </trkpt>
      <trkpt lat="46.35526" lon="5.4074">
        <ele>384</ele>
        <time>2021-12-17T13:55:03Z</time>
      </trkpt>
      <trkpt lat="46.35562" lon="5.40747">
        <ele>382.6</ele>
        <time>2021-12-17T13:55:07Z</time>
      </trkpt>
      <trkpt lat="46.35589" lon="5.40758">
        <ele>381.6</ele>
        <time>2021-12-17T13:55:10Z</time>
      </trkpt>
      <trkpt lat="46.35615" lon="5.40768">
        <ele>380.8</ele>
        <time>2021-12-17T13:55:13Z</time>
      </trkpt>
      <trkpt lat="46.35622" lon="5.4077">
        <ele>380.4</ele>
        <time>2021-12-17T13:55:14Z</time>
      </trkpt>
      <trkpt lat="46.35656" lon="5.40777">
        <ele>379.4</ele>
        <time>2021-12-17T13:55:18Z</time>
      </trkpt>
      <trkpt lat="46.35697" lon="5.40775">
        <ele>378.8</ele>
        <time>2021-12-17T13:55:23Z</time>
      </trkpt>
      <trkpt lat="46.35734" lon="5.40767">
        <ele>378.4</ele>
        <time>2021-12-17T13:55:28Z</time>
      </trkpt>
      <trkpt lat="46.35742" lon="5.40763">
        <ele>378.4</ele>
        <time>2021-12-17T13:55:29Z</time>
      </trkpt>
      <trkpt lat="46.35761" lon="5.40751">
        <ele>378.4</ele>
        <time>2021-12-17T13:55:32Z</time>
      </trkpt>
      <trkpt lat="46.35775" lon="5.40746">
        <ele>378.2</ele>
        <time>2021-12-17T13:55:34Z</time>
      </trkpt>
      <trkpt lat="46.35789" lon="5.40746">
        <ele>378.6</ele>
        <time>2021-12-17T13:55:36Z</time>
      </trkpt>
      <trkpt lat="46.35828" lon="5.40752">
        <ele>378.4</ele>
        <time>2021-12-17T13:55:42Z</time>
      </trkpt>
      <trkpt lat="46.35874" lon="5.40767">
        <ele>378.6</ele>
        <time>2021-12-17T13:55:49Z</time>
      </trkpt>
      <trkpt lat="46.35915" lon="5.40779">
        <ele>379.2</ele>
        <time>2021-12-17T13:55:56Z</time>
      </trkpt>
      <trkpt lat="46.35921" lon="5.40782">
        <ele>379.2</ele>
        <time>2021-12-17T13:55:57Z</time>
      </trkpt>
      <trkpt lat="46.35933" lon="5.40791">
        <ele>379</ele>
        <time>2021-12-17T13:55:59Z</time>
      </trkpt>
      <trkpt lat="46.35937" lon="5.40796">
        <ele>379</ele>
        <time>2021-12-17T13:56:00Z</time>
      </trkpt>
      <trkpt lat="46.35951" lon="5.40815">
        <ele>379</ele>
        <time>2021-12-17T13:56:03Z</time>
      </trkpt>
      <trkpt lat="46.35961" lon="5.40826">
        <ele>379.2</ele>
        <time>2021-12-17T13:56:05Z</time>
      </trkpt>
      <trkpt lat="46.35997" lon="5.40861">
        <ele>379.6</ele>
        <time>2021-12-17T13:56:12Z</time>
      </trkpt>
      <trkpt lat="46.36001" lon="5.40867">
        <ele>379.6</ele>
        <time>2021-12-17T13:56:13Z</time>
      </trkpt>
      <trkpt lat="46.36021" lon="5.40903">
        <ele>379.8</ele>
        <time>2021-12-17T13:56:18Z</time>
      </trkpt>
      <trkpt lat="46.3603" lon="5.40913">
        <ele>379.8</ele>
        <time>2021-12-17T13:56:20Z</time>
      </trkpt>
      <trkpt lat="46.36047" lon="5.40926">
        <ele>380.2</ele>
        <time>2021-12-17T13:56:23Z</time>
      </trkpt>
      <trkpt lat="46.36086" lon="5.40944">
        <ele>380.6</ele>
        <time>2021-12-17T13:56:30Z</time>
      </trkpt>
      <trkpt lat="46.361" lon="5.40946">
        <ele>380.6</ele>
        <time>2021-12-17T13:56:32Z</time>
      </trkpt>
      <trkpt lat="46.36117" lon="5.40944">
        <ele>380.6</ele>
        <time>2021-12-17T13:56:35Z</time>
      </trkpt>
      <trkpt lat="46.36142" lon="5.40942">
        <ele>381</ele>
        <time>2021-12-17T13:56:39Z</time>
      </trkpt>
      <trkpt lat="46.36179" lon="5.40952">
        <ele>381.8</ele>
        <time>2021-12-17T13:56:45Z</time>
      </trkpt>
      <trkpt lat="46.36227" lon="5.40963">
        <ele>382.6</ele>
        <time>2021-12-17T13:56:53Z</time>
      </trkpt>
      <trkpt lat="46.36254" lon="5.40964">
        <ele>382.8</ele>
        <time>2021-12-17T13:56:57Z</time>
      </trkpt>
      <trkpt lat="46.36266" lon="5.40961">
        <ele>382.8</ele>
        <time>2021-12-17T13:56:59Z</time>
      </trkpt>
      <trkpt lat="46.36301" lon="5.40947">
        <ele>383.4</ele>
        <time>2021-12-17T13:57:05Z</time>
      </trkpt>
      <trkpt lat="46.36325" lon="5.40938">
        <ele>384</ele>
        <time>2021-12-17T13:57:09Z</time>
      </trkpt>
      <trkpt lat="46.36337" lon="5.40936">
        <ele>384</ele>
        <time>2021-12-17T13:57:11Z</time>
      </trkpt>
      <trkpt lat="46.36385" lon="5.40937">
        <ele>385</ele>
        <time>2021-12-17T13:57:19Z</time>
      </trkpt>
      <trkpt lat="46.36391" lon="5.40937">
        <ele>385</ele>
        <time>2021-12-17T13:57:20Z</time>
      </trkpt>
      <trkpt lat="46.36438" lon="5.40942">
        <ele>385.6</ele>
        <time>2021-12-17T13:57:28Z</time>
      </trkpt>
      <trkpt lat="46.3646" lon="5.40949">
        <ele>385.8</ele>
        <time>2021-12-17T13:57:32Z</time>
      </trkpt>
      <trkpt lat="46.36477" lon="5.40951">
        <ele>386</ele>
        <time>2021-12-17T13:57:35Z</time>
      </trkpt>
      <trkpt lat="46.36483" lon="5.40952">
        <ele>386</ele>
        <time>2021-12-17T13:57:36Z</time>
      </trkpt>
      <trkpt lat="46.36525" lon="5.40954">
        <ele>386.8</ele>
        <time>2021-12-17T13:57:43Z</time>
      </trkpt>
      <trkpt lat="46.36554" lon="5.40955">
        <ele>387</ele>
        <time>2021-12-17T13:57:48Z</time>
      </trkpt>
      <trkpt lat="46.3657" lon="5.40956">
        <ele>387.4</ele>
        <time>2021-12-17T13:57:51Z</time>
      </trkpt>
      <trkpt lat="46.36592" lon="5.40959">
        <ele>388.2</ele>
        <time>2021-12-17T13:57:55Z</time>
      </trkpt>
      <trkpt lat="46.3662" lon="5.40962">
        <ele>388.8</ele>
        <time>2021-12-17T13:58:00Z</time>
      </trkpt>
      <trkpt lat="46.36642" lon="5.40969">
        <ele>389.2</ele>
        <time>2021-12-17T13:58:04Z</time>
      </trkpt>
      <trkpt lat="46.36657" lon="5.40974">
        <ele>389.6</ele>
        <time>2021-12-17T13:58:07Z</time>
      </trkpt>
      <trkpt lat="46.36663" lon="5.40976">
        <ele>389.8</ele>
        <time>2021-12-17T13:58:08Z</time>
      </trkpt>
      <trkpt lat="46.36678" lon="5.40981">
        <ele>390</ele>
        <time>2021-12-17T13:58:11Z</time>
      </trkpt>
      <trkpt lat="46.36683" lon="5.40983">
        <ele>390</ele>
        <time>2021-12-17T13:58:12Z</time>
      </trkpt>
      <trkpt lat="46.36688" lon="5.40985">
        <ele>390.2</ele>
        <time>2021-12-17T13:58:13Z</time>
      </trkpt>
      <trkpt lat="46.36698" lon="5.40987">
        <ele>390.4</ele>
        <time>2021-12-17T13:58:15Z</time>
      </trkpt>
      <trkpt lat="46.36704" lon="5.40988">
        <ele>390.6</ele>
        <time>2021-12-17T13:58:16Z</time>
      </trkpt>
      <trkpt lat="46.36709" lon="5.40987">
        <ele>390.6</ele>
        <time>2021-12-17T13:58:17Z</time>
      </trkpt>
      <trkpt lat="46.36725" lon="5.40988">
        <ele>391</ele>
        <time>2021-12-17T13:58:20Z</time>
      </trkpt>
      <trkpt lat="46.3674" lon="5.4099">
        <ele>391.4</ele>
        <time>2021-12-17T13:58:23Z</time>
      </trkpt>
      <trkpt lat="46.36746" lon="5.40991">
        <ele>391.4</ele>
        <time>2021-12-17T13:58:24Z</time>
      </trkpt>
      <trkpt lat="46.36757" lon="5.40991">
        <ele>391.8</ele>
        <time>2021-12-17T13:58:26Z</time>
      </trkpt>
      <trkpt lat="46.36769" lon="5.40992">
        <ele>392.6</ele>
        <time>2021-12-17T13:58:29Z</time>
      </trkpt>
      <trkpt lat="46.36783" lon="5.40996">
        <ele>392.8</ele>
        <time>2021-12-17T13:58:32Z</time>
      </trkpt>
      <trkpt lat="46.36798" lon="5.40998">
        <ele>393.4</ele>
        <time>2021-12-17T13:58:35Z</time>
      </trkpt>
      <trkpt lat="46.36802" lon="5.40998">
        <ele>393.6</ele>
        <time>2021-12-17T13:58:36Z</time>
      </trkpt>
      <trkpt lat="46.36829" lon="5.40995">
        <ele>394.6</ele>
        <time>2021-12-17T13:58:41Z</time>
      </trkpt>
      <trkpt lat="46.36849" lon="5.40995">
        <ele>395.2</ele>
        <time>2021-12-17T13:58:45Z</time>
      </trkpt>
      <trkpt lat="46.36874" lon="5.40997">
        <ele>396</ele>
        <time>2021-12-17T13:58:50Z</time>
      </trkpt>
      <trkpt lat="46.36886" lon="5.40998">
        <ele>396.2</ele>
        <time>2021-12-17T13:58:52Z</time>
      </trkpt>
      <trkpt lat="46.36914" lon="5.40999">
        <ele>397.2</ele>
        <time>2021-12-17T13:58:57Z</time>
      </trkpt>
      <trkpt lat="46.36931" lon="5.40998">
        <ele>397.2</ele>
        <time>2021-12-17T13:59:00Z</time>
      </trkpt>
      <trkpt lat="46.36973" lon="5.40986">
        <ele>397.2</ele>
        <time>2021-12-17T13:59:07Z</time>
      </trkpt>
      <trkpt lat="46.37027" lon="5.40967">
        <ele>396.8</ele>
        <time>2021-12-17T13:59:16Z</time>
      </trkpt>
      <trkpt lat="46.37038" lon="5.40964">
        <ele>396.8</ele>
        <time>2021-12-17T13:59:18Z</time>
      </trkpt>
      <trkpt lat="46.37043" lon="5.40963">
        <ele>397</ele>
        <time>2021-12-17T13:59:19Z</time>
      </trkpt>
      <trkpt lat="46.37053" lon="5.40962">
        <ele>397.2</ele>
        <time>2021-12-17T13:59:21Z</time>
      </trkpt>
      <trkpt lat="46.37071" lon="5.40966">
        <ele>397.8</ele>
        <time>2021-12-17T13:59:24Z</time>
      </trkpt>
      <trkpt lat="46.37087" lon="5.40975">
        <ele>398.2</ele>
        <time>2021-12-17T13:59:27Z</time>
      </trkpt>
      <trkpt lat="46.37107" lon="5.40983">
        <ele>398.4</ele>
        <time>2021-12-17T13:59:30Z</time>
      </trkpt>
      <trkpt lat="46.37159" lon="5.41002">
        <ele>397.8</ele>
        <time>2021-12-17T13:59:38Z</time>
      </trkpt>
      <trkpt lat="46.37198" lon="5.4102">
        <ele>398</ele>
        <time>2021-12-17T13:59:45Z</time>
      </trkpt>
      <trkpt lat="46.37232" lon="5.41035">
        <ele>399.2</ele>
        <time>2021-12-17T13:59:53Z</time>
      </trkpt>
      <trkpt lat="46.3725" lon="5.41042">
        <ele>400.2</ele>
        <time>2021-12-17T13:59:57Z</time>
      </trkpt>
      <trkpt lat="46.37269" lon="5.41048">
        <ele>401.2</ele>
        <time>2021-12-17T14:00:01Z</time>
      </trkpt>
      <trkpt lat="46.37298" lon="5.41055">
        <ele>402.4</ele>
        <time>2021-12-17T14:00:07Z</time>
      </trkpt>
      <trkpt lat="46.37301" lon="5.41056">
        <ele>402.8</ele>
        <time>2021-12-17T14:00:08Z</time>
      </trkpt>
      <trkpt lat="46.37319" lon="5.41061">
        <ele>403.6</ele>
        <time>2021-12-17T14:00:12Z</time>
      </trkpt>
      <trkpt lat="46.3733" lon="5.41064">
        <ele>404.2</ele>
        <time>2021-12-17T14:00:15Z</time>
      </trkpt>
      <trkpt lat="46.37334" lon="5.41064">
        <ele>404.4</ele>
        <time>2021-12-17T14:00:16Z</time>
      </trkpt>
      <trkpt lat="46.37339" lon="5.41064">
        <ele>404.8</ele>
        <time>2021-12-17T14:00:17Z</time>
      </trkpt>
      <trkpt lat="46.37343" lon="5.41064">
        <ele>405</ele>
        <time>2021-12-17T14:00:18Z</time>
      </trkpt>
      <trkpt lat="46.37349" lon="5.41062">
        <ele>405.2</ele>
        <time>2021-12-17T14:00:20Z</time>
      </trkpt>
      <trkpt lat="46.37357" lon="5.41057">
        <ele>405.8</ele>
        <time>2021-12-17T14:00:22Z</time>
      </trkpt>
      <trkpt lat="46.37366" lon="5.41049">
        <ele>406.6</ele>
        <time>2021-12-17T14:00:25Z</time>
      </trkpt>
      <trkpt lat="46.37368" lon="5.41047">
        <ele>407</ele>
        <time>2021-12-17T14:00:26Z</time>
      </trkpt>
      <trkpt lat="46.37368" lon="5.41047">
        <ele>407.4</ele>
        <time>2021-12-17T14:00:29Z</time>
      </trkpt>
      <trkpt lat="46.3737" lon="5.41045">
        <ele>407.8</ele>
        <time>2021-12-17T14:02:26Z</time>
      </trkpt>
      <trkpt lat="46.37376" lon="5.41034">
        <ele>407.8</ele>
        <time>2021-12-17T14:02:29Z</time>
      </trkpt>
      <trkpt lat="46.37387" lon="5.41011">
        <ele>407.6</ele>
        <time>2021-12-17T14:02:33Z</time>
      </trkpt>
      <trkpt lat="46.3739" lon="5.41003">
        <ele>407.6</ele>
        <time>2021-12-17T14:02:34Z</time>
      </trkpt>
      <trkpt lat="46.37393" lon="5.40995">
        <ele>407.4</ele>
        <time>2021-12-17T14:02:35Z</time>
      </trkpt>
      <trkpt lat="46.37395" lon="5.40978">
        <ele>407.2</ele>
        <time>2021-12-17T14:02:37Z</time>
      </trkpt>
      <trkpt lat="46.37387" lon="5.40937">
        <ele>406.4</ele>
        <time>2021-12-17T14:02:41Z</time>
      </trkpt>
      <trkpt lat="46.3738" lon="5.40902">
        <ele>404.6</ele>
        <time>2021-12-17T14:02:44Z</time>
      </trkpt>
      <trkpt lat="46.37374" lon="5.40869">
        <ele>403.4</ele>
        <time>2021-12-17T14:02:47Z</time>
      </trkpt>
      <trkpt lat="46.37373" lon="5.40847">
        <ele>402.8</ele>
        <time>2021-12-17T14:02:49Z</time>
      </trkpt>
      <trkpt lat="46.37374" lon="5.4084">
        <ele>402</ele>
        <time>2021-12-17T14:02:50Z</time>
      </trkpt>
      <trkpt lat="46.37376" lon="5.40831">
        <ele>401.2</ele>
        <time>2021-12-17T14:02:51Z</time>
      </trkpt>
      <trkpt lat="46.37381" lon="5.40822">
        <ele>400.8</ele>
        <time>2021-12-17T14:02:52Z</time>
      </trkpt>
      <trkpt lat="46.37386" lon="5.40818">
        <ele>400.2</ele>
        <time>2021-12-17T14:02:53Z</time>
      </trkpt>
      <trkpt lat="46.37401" lon="5.40813">
        <ele>399.2</ele>
        <time>2021-12-17T14:02:55Z</time>
      </trkpt>
      <trkpt lat="46.3741" lon="5.40812">
        <ele>399</ele>
        <time>2021-12-17T14:02:56Z</time>
      </trkpt>
      <trkpt lat="46.37426" lon="5.40807">
        <ele>398</ele>
        <time>2021-12-17T14:02:58Z</time>
      </trkpt>
      <trkpt lat="46.3744" lon="5.40797">
        <ele>397.2</ele>
        <time>2021-12-17T14:03:00Z</time>
      </trkpt>
      <trkpt lat="46.37446" lon="5.40791">
        <ele>397</ele>
        <time>2021-12-17T14:03:01Z</time>
      </trkpt>
      <trkpt lat="46.37467" lon="5.40771">
        <ele>396.4</ele>
        <time>2021-12-17T14:03:04Z</time>
      </trkpt>
      <trkpt lat="46.3748" lon="5.40763">
        <ele>396.2</ele>
        <time>2021-12-17T14:03:06Z</time>
      </trkpt>
      <trkpt lat="46.37488" lon="5.40759">
        <ele>396</ele>
        <time>2021-12-17T14:03:07Z</time>
      </trkpt>
      <trkpt lat="46.37518" lon="5.40749">
        <ele>395.8</ele>
        <time>2021-12-17T14:03:11Z</time>
      </trkpt>
      <trkpt lat="46.37571" lon="5.40744">
        <ele>395</ele>
        <time>2021-12-17T14:03:18Z</time>
      </trkpt>
      <trkpt lat="46.37579" lon="5.40745">
        <ele>395</ele>
        <time>2021-12-17T14:03:19Z</time>
      </trkpt>
      <trkpt lat="46.37636" lon="5.40753">
        <ele>393.8</ele>
        <time>2021-12-17T14:03:27Z</time>
      </trkpt>
      <trkpt lat="46.37643" lon="5.40753">
        <ele>393.8</ele>
        <time>2021-12-17T14:03:28Z</time>
      </trkpt>
      <trkpt lat="46.37657" lon="5.4075">
        <ele>393.8</ele>
        <time>2021-12-17T14:03:30Z</time>
      </trkpt>
      <trkpt lat="46.37663" lon="5.40746">
        <ele>393.6</ele>
        <time>2021-12-17T14:03:31Z</time>
      </trkpt>
      <trkpt lat="46.3767" lon="5.4074">
        <ele>393.6</ele>
        <time>2021-12-17T14:03:32Z</time>
      </trkpt>
      <trkpt lat="46.37689" lon="5.40715">
        <ele>393.4</ele>
        <time>2021-12-17T14:03:35Z</time>
      </trkpt>
      <trkpt lat="46.37712" lon="5.40684">
        <ele>392.8</ele>
        <time>2021-12-17T14:03:39Z</time>
      </trkpt>
      <trkpt lat="46.37734" lon="5.40651">
        <ele>391.8</ele>
        <time>2021-12-17T14:03:43Z</time>
      </trkpt>
      <trkpt lat="46.37739" lon="5.40642">
        <ele>391.6</ele>
        <time>2021-12-17T14:03:44Z</time>
      </trkpt>
      <trkpt lat="46.37751" lon="5.40611">
        <ele>391.2</ele>
        <time>2021-12-17T14:03:47Z</time>
      </trkpt>
      <trkpt lat="46.37778" lon="5.40536">
        <ele>390.8</ele>
        <time>2021-12-17T14:03:55Z</time>
      </trkpt>
      <trkpt lat="46.37781" lon="5.40527">
        <ele>390.8</ele>
        <time>2021-12-17T14:03:56Z</time>
      </trkpt>
      <trkpt lat="46.37796" lon="5.40488">
        <ele>391.8</ele>
        <time>2021-12-17T14:04:01Z</time>
      </trkpt>
      <trkpt lat="46.37799" lon="5.40482">
        <ele>392</ele>
        <time>2021-12-17T14:04:02Z</time>
      </trkpt>
      <trkpt lat="46.37809" lon="5.40466">
        <ele>392.2</ele>
        <time>2021-12-17T14:04:04Z</time>
      </trkpt>
      <trkpt lat="46.37814" lon="5.4046">
        <ele>392.4</ele>
        <time>2021-12-17T14:04:05Z</time>
      </trkpt>
      <trkpt lat="46.37855" lon="5.40425">
        <ele>392.4</ele>
        <time>2021-12-17T14:04:12Z</time>
      </trkpt>
      <trkpt lat="46.37903" lon="5.40385">
        <ele>391.4</ele>
        <time>2021-12-17T14:04:19Z</time>
      </trkpt>
      <trkpt lat="46.37909" lon="5.40379">
        <ele>391.4</ele>
        <time>2021-12-17T14:04:20Z</time>
      </trkpt>
      <trkpt lat="46.37929" lon="5.40363">
        <ele>390.6</ele>
        <time>2021-12-17T14:04:23Z</time>
      </trkpt>
      <trkpt lat="46.37956" lon="5.40335">
        <ele>389.6</ele>
        <time>2021-12-17T14:04:27Z</time>
      </trkpt>
      <trkpt lat="46.37962" lon="5.40327">
        <ele>389.6</ele>
        <time>2021-12-17T14:04:28Z</time>
      </trkpt>
      <trkpt lat="46.37993" lon="5.40268">
        <ele>388.6</ele>
        <time>2021-12-17T14:04:35Z</time>
      </trkpt>
      <trkpt lat="46.3801" lon="5.40225">
        <ele>388.8</ele>
        <time>2021-12-17T14:04:40Z</time>
      </trkpt>
      <trkpt lat="46.38018" lon="5.4018">
        <ele>389</ele>
        <time>2021-12-17T14:04:45Z</time>
      </trkpt>
      <trkpt lat="46.38036" lon="5.40107">
        <ele>389.2</ele>
        <time>2021-12-17T14:04:53Z</time>
      </trkpt>
      <trkpt lat="46.38046" lon="5.40069">
        <ele>389.2</ele>
        <time>2021-12-17T14:04:57Z</time>
      </trkpt>
      <trkpt lat="46.38048" lon="5.40053">
        <ele>389.2</ele>
        <time>2021-12-17T14:04:59Z</time>
      </trkpt>
      <trkpt lat="46.38049" lon="5.39994">
        <ele>389.2</ele>
        <time>2021-12-17T14:05:05Z</time>
      </trkpt>
      <trkpt lat="46.38052" lon="5.39946">
        <ele>389.2</ele>
        <time>2021-12-17T14:05:10Z</time>
      </trkpt>
      <trkpt lat="46.38054" lon="5.39937">
        <ele>389</ele>
        <time>2021-12-17T14:05:11Z</time>
      </trkpt>
      <trkpt lat="46.38059" lon="5.39931">
        <ele>388.8</ele>
        <time>2021-12-17T14:05:12Z</time>
      </trkpt>
      <trkpt lat="46.38065" lon="5.39927">
        <ele>388.8</ele>
        <time>2021-12-17T14:05:13Z</time>
      </trkpt>
      <trkpt lat="46.38071" lon="5.39924">
        <ele>388.8</ele>
        <time>2021-12-17T14:05:14Z</time>
      </trkpt>
      <trkpt lat="46.38094" lon="5.39909">
        <ele>388.6</ele>
        <time>2021-12-17T14:05:18Z</time>
      </trkpt>
      <trkpt lat="46.3813" lon="5.39873">
        <ele>388.8</ele>
        <time>2021-12-17T14:05:25Z</time>
      </trkpt>
      <trkpt lat="46.38135" lon="5.39869">
        <ele>389</ele>
        <time>2021-12-17T14:05:26Z</time>
      </trkpt>
      <trkpt lat="46.38147" lon="5.39861">
        <ele>389</ele>
        <time>2021-12-17T14:05:28Z</time>
      </trkpt>
      <trkpt lat="46.38152" lon="5.39859">
        <ele>389.2</ele>
        <time>2021-12-17T14:05:29Z</time>
      </trkpt>
      <trkpt lat="46.38159" lon="5.39857">
        <ele>389.2</ele>
        <time>2021-12-17T14:05:30Z</time>
      </trkpt>
      <trkpt lat="46.38171" lon="5.39858">
        <ele>389.4</ele>
        <time>2021-12-17T14:05:32Z</time>
      </trkpt>
      <trkpt lat="46.38177" lon="5.39859">
        <ele>389.4</ele>
        <time>2021-12-17T14:05:33Z</time>
      </trkpt>
      <trkpt lat="46.38226" lon="5.39876">
        <ele>390.8</ele>
        <time>2021-12-17T14:05:42Z</time>
      </trkpt>
      <trkpt lat="46.38264" lon="5.39885">
        <ele>391.8</ele>
        <time>2021-12-17T14:05:49Z</time>
      </trkpt>
      <trkpt lat="46.38269" lon="5.39885">
        <ele>392</ele>
        <time>2021-12-17T14:05:50Z</time>
      </trkpt>
      <trkpt lat="46.38286" lon="5.39884">
        <ele>392.6</ele>
        <time>2021-12-17T14:05:53Z</time>
      </trkpt>
      <trkpt lat="46.38292" lon="5.39885">
        <ele>392.8</ele>
        <time>2021-12-17T14:05:54Z</time>
      </trkpt>
      <trkpt lat="46.38297" lon="5.39888">
        <ele>392.8</ele>
        <time>2021-12-17T14:05:55Z</time>
      </trkpt>
      <trkpt lat="46.38302" lon="5.39891">
        <ele>393</ele>
        <time>2021-12-17T14:05:56Z</time>
      </trkpt>
      <trkpt lat="46.38311" lon="5.39898">
        <ele>393.2</ele>
        <time>2021-12-17T14:05:58Z</time>
      </trkpt>
      <trkpt lat="46.3832" lon="5.39899">
        <ele>393.4</ele>
        <time>2021-12-17T14:06:00Z</time>
      </trkpt>
      <trkpt lat="46.38324" lon="5.39896">
        <ele>393.8</ele>
        <time>2021-12-17T14:06:01Z</time>
      </trkpt>
      <trkpt lat="46.38328" lon="5.39892">
        <ele>394</ele>
        <time>2021-12-17T14:06:02Z</time>
      </trkpt>
      <trkpt lat="46.38331" lon="5.39888">
        <ele>394.2</ele>
        <time>2021-12-17T14:06:03Z</time>
      </trkpt>
      <trkpt lat="46.38341" lon="5.39877">
        <ele>395.2</ele>
        <time>2021-12-17T14:06:06Z</time>
      </trkpt>
      <trkpt lat="46.38345" lon="5.39874">
        <ele>395.4</ele>
        <time>2021-12-17T14:06:07Z</time>
      </trkpt>
      <trkpt lat="46.38348" lon="5.39871">
        <ele>396</ele>
        <time>2021-12-17T14:06:08Z</time>
      </trkpt>
      <trkpt lat="46.38355" lon="5.39865">
        <ele>396.8</ele>
        <time>2021-12-17T14:06:10Z</time>
      </trkpt>
      <trkpt lat="46.38364" lon="5.39862">
        <ele>397.6</ele>
        <time>2021-12-17T14:06:12Z</time>
      </trkpt>
      <trkpt lat="46.38368" lon="5.3986">
        <ele>397.8</ele>
        <time>2021-12-17T14:06:13Z</time>
      </trkpt>
      <trkpt lat="46.38381" lon="5.39855">
        <ele>399</ele>
        <time>2021-12-17T14:06:16Z</time>
      </trkpt>
      <trkpt lat="46.38385" lon="5.39853">
        <ele>399.4</ele>
        <time>2021-12-17T14:06:17Z</time>
      </trkpt>
      <trkpt lat="46.38402" lon="5.39843">
        <ele>400.4</ele>
        <time>2021-12-17T14:06:21Z</time>
      </trkpt>
      <trkpt lat="46.38415" lon="5.39838">
        <ele>401</ele>
        <time>2021-12-17T14:06:24Z</time>
      </trkpt>
      <trkpt lat="46.3843" lon="5.39832">
        <ele>401.2</ele>
        <time>2021-12-17T14:06:27Z</time>
      </trkpt>
      <trkpt lat="46.38436" lon="5.39831">
        <ele>401.4</ele>
        <time>2021-12-17T14:06:28Z</time>
      </trkpt>
      <trkpt lat="46.38464" lon="5.39825">
        <ele>402.4</ele>
        <time>2021-12-17T14:06:34Z</time>
      </trkpt>
      <trkpt lat="46.38473" lon="5.39824">
        <ele>402.6</ele>
        <time>2021-12-17T14:06:36Z</time>
      </trkpt>
      <trkpt lat="46.38491" lon="5.39825">
        <ele>403.6</ele>
        <time>2021-12-17T14:06:40Z</time>
      </trkpt>
      <trkpt lat="46.385" lon="5.39826">
        <ele>403.8</ele>
        <time>2021-12-17T14:06:42Z</time>
      </trkpt>
      <trkpt lat="46.38523" lon="5.39828">
        <ele>404.6</ele>
        <time>2021-12-17T14:06:47Z</time>
      </trkpt>
      <trkpt lat="46.38542" lon="5.3983">
        <ele>405.2</ele>
        <time>2021-12-17T14:06:51Z</time>
      </trkpt>
      <trkpt lat="46.38561" lon="5.39832">
        <ele>405.8</ele>
        <time>2021-12-17T14:06:55Z</time>
      </trkpt>
      <trkpt lat="46.38582" lon="5.39834">
        <ele>406.6</ele>
        <time>2021-12-17T14:06:59Z</time>
      </trkpt>
      <trkpt lat="46.38617" lon="5.39838">
        <ele>406.8</ele>
        <time>2021-12-17T14:07:05Z</time>
      </trkpt>
      <trkpt lat="46.38623" lon="5.39838">
        <ele>406.8</ele>
        <time>2021-12-17T14:07:06Z</time>
      </trkpt>
      <trkpt lat="46.3866" lon="5.39842">
        <ele>407.2</ele>
        <time>2021-12-17T14:07:12Z</time>
      </trkpt>
      <trkpt lat="46.38707" lon="5.39848">
        <ele>407.4</ele>
        <time>2021-12-17T14:07:19Z</time>
      </trkpt>
      <trkpt lat="46.3876" lon="5.39852">
        <ele>406.6</ele>
        <time>2021-12-17T14:07:26Z</time>
      </trkpt>
      <trkpt lat="46.38785" lon="5.39853">
        <ele>406</ele>
        <time>2021-12-17T14:07:29Z</time>
      </trkpt>
      <trkpt lat="46.38827" lon="5.39856">
        <ele>404.8</ele>
        <time>2021-12-17T14:07:34Z</time>
      </trkpt>
      <trkpt lat="46.38879" lon="5.39858">
        <ele>404.6</ele>
        <time>2021-12-17T14:07:41Z</time>
      </trkpt>
      <trkpt lat="46.38928" lon="5.39861">
        <ele>405</ele>
        <time>2021-12-17T14:07:48Z</time>
      </trkpt>
      <trkpt lat="46.38983" lon="5.39866">
        <ele>405.4</ele>
        <time>2021-12-17T14:07:56Z</time>
      </trkpt>
      <trkpt lat="46.39038" lon="5.39876">
        <ele>405.2</ele>
        <time>2021-12-17T14:08:03Z</time>
      </trkpt>
      <trkpt lat="46.39056" lon="5.39878">
        <ele>404.8</ele>
        <time>2021-12-17T14:08:05Z</time>
      </trkpt>
      <trkpt lat="46.39115" lon="5.39888">
        <ele>404.4</ele>
        <time>2021-12-17T14:08:13Z</time>
      </trkpt>
      <trkpt lat="46.39136" lon="5.39891">
        <ele>404.6</ele>
        <time>2021-12-17T14:08:16Z</time>
      </trkpt>
      <trkpt lat="46.39192" lon="5.39901">
        <ele>405.4</ele>
        <time>2021-12-17T14:08:24Z</time>
      </trkpt>
      <trkpt lat="46.39205" lon="5.39903">
        <ele>405.4</ele>
        <time>2021-12-17T14:08:26Z</time>
      </trkpt>
      <trkpt lat="46.39239" lon="5.39908">
        <ele>406.2</ele>
        <time>2021-12-17T14:08:31Z</time>
      </trkpt>
      <trkpt lat="46.39267" lon="5.39913">
        <ele>406.4</ele>
        <time>2021-12-17T14:08:35Z</time>
      </trkpt>
      <trkpt lat="46.39318" lon="5.39922">
        <ele>407.2</ele>
        <time>2021-12-17T14:08:43Z</time>
      </trkpt>
      <trkpt lat="46.39326" lon="5.39924">
        <ele>407.2</ele>
        <time>2021-12-17T14:08:44Z</time>
      </trkpt>
      <trkpt lat="46.39384" lon="5.39933">
        <ele>407.6</ele>
        <time>2021-12-17T14:08:53Z</time>
      </trkpt>
      <trkpt lat="46.39442" lon="5.39943">
        <ele>407.8</ele>
        <time>2021-12-17T14:09:02Z</time>
      </trkpt>
      <trkpt lat="46.39461" lon="5.39946">
        <ele>408.2</ele>
        <time>2021-12-17T14:09:05Z</time>
      </trkpt>
      <trkpt lat="46.39503" lon="5.39951">
        <ele>408.6</ele>
        <time>2021-12-17T14:09:12Z</time>
      </trkpt>
      <trkpt lat="46.39527" lon="5.39952">
        <ele>409.4</ele>
        <time>2021-12-17T14:09:16Z</time>
      </trkpt>
      <trkpt lat="46.39573" lon="5.39953">
        <ele>410.2</ele>
        <time>2021-12-17T14:09:23Z</time>
      </trkpt>
      <trkpt lat="46.39594" lon="5.39952">
        <ele>410.4</ele>
        <time>2021-12-17T14:09:26Z</time>
      </trkpt>
      <trkpt lat="46.39623" lon="5.3995">
        <ele>410.4</ele>
        <time>2021-12-17T14:09:30Z</time>
      </trkpt>
      <trkpt lat="46.39682" lon="5.3994">
        <ele>410.4</ele>
        <time>2021-12-17T14:09:38Z</time>
      </trkpt>
      <trkpt lat="46.39694" lon="5.39938">
        <ele>410.4</ele>
        <time>2021-12-17T14:09:40Z</time>
      </trkpt>
      <trkpt lat="46.39751" lon="5.39929">
        <ele>411</ele>
        <time>2021-12-17T14:09:48Z</time>
      </trkpt>
      <trkpt lat="46.39795" lon="5.39922">
        <ele>411.4</ele>
        <time>2021-12-17T14:09:55Z</time>
      </trkpt>
      <trkpt lat="46.39808" lon="5.3992">
        <ele>411.6</ele>
        <time>2021-12-17T14:09:57Z</time>
      </trkpt>
      <trkpt lat="46.39866" lon="5.3991">
        <ele>412.6</ele>
        <time>2021-12-17T14:10:07Z</time>
      </trkpt>
      <trkpt lat="46.3988" lon="5.39909">
        <ele>412.6</ele>
        <time>2021-12-17T14:10:09Z</time>
      </trkpt>
      <trkpt lat="46.3992" lon="5.39908">
        <ele>413</ele>
        <time>2021-12-17T14:10:15Z</time>
      </trkpt>
      <trkpt lat="46.39976" lon="5.3991">
        <ele>412.4</ele>
        <time>2021-12-17T14:10:23Z</time>
      </trkpt>
      <trkpt lat="46.39983" lon="5.39911">
        <ele>412.2</ele>
        <time>2021-12-17T14:10:24Z</time>
      </trkpt>
      <trkpt lat="46.40035" lon="5.39912">
        <ele>411.8</ele>
        <time>2021-12-17T14:10:32Z</time>
      </trkpt>
      <trkpt lat="46.40067" lon="5.39905">
        <ele>412</ele>
        <time>2021-12-17T14:10:37Z</time>
      </trkpt>
      <trkpt lat="46.40073" lon="5.39903">
        <ele>412</ele>
        <time>2021-12-17T14:10:38Z</time>
      </trkpt>
      <trkpt lat="46.40095" lon="5.3989">
        <ele>412.4</ele>
        <time>2021-12-17T14:10:42Z</time>
      </trkpt>
      <trkpt lat="46.40136" lon="5.39857">
        <ele>413.2</ele>
        <time>2021-12-17T14:10:50Z</time>
      </trkpt>
      <trkpt lat="46.40153" lon="5.39846">
        <ele>413.8</ele>
        <time>2021-12-17T14:10:53Z</time>
      </trkpt>
      <trkpt lat="46.40182" lon="5.3983">
        <ele>414.2</ele>
        <time>2021-12-17T14:10:58Z</time>
      </trkpt>
      <trkpt lat="46.40224" lon="5.39821">
        <ele>414.4</ele>
        <time>2021-12-17T14:11:04Z</time>
      </trkpt>
      <trkpt lat="46.40275" lon="5.39827">
        <ele>413.6</ele>
        <time>2021-12-17T14:11:11Z</time>
      </trkpt>
      <trkpt lat="46.40294" lon="5.39837">
        <ele>413.6</ele>
        <time>2021-12-17T14:11:14Z</time>
      </trkpt>
      <trkpt lat="46.40306" lon="5.39845">
        <ele>413.6</ele>
        <time>2021-12-17T14:11:16Z</time>
      </trkpt>
      <trkpt lat="46.40346" lon="5.39866">
        <ele>414</ele>
        <time>2021-12-17T14:11:23Z</time>
      </trkpt>
      <trkpt lat="46.40378" lon="5.39876">
        <ele>414.6</ele>
        <time>2021-12-17T14:11:29Z</time>
      </trkpt>
      <trkpt lat="46.40384" lon="5.39878">
        <ele>414.8</ele>
        <time>2021-12-17T14:11:30Z</time>
      </trkpt>
      <trkpt lat="46.40423" lon="5.39892">
        <ele>416</ele>
        <time>2021-12-17T14:11:37Z</time>
      </trkpt>
      <trkpt lat="46.4044" lon="5.39898">
        <ele>416.2</ele>
        <time>2021-12-17T14:11:40Z</time>
      </trkpt>
      <trkpt lat="46.40485" lon="5.39915">
        <ele>416.8</ele>
        <time>2021-12-17T14:11:48Z</time>
      </trkpt>
      <trkpt lat="46.40496" lon="5.3992">
        <ele>417</ele>
        <time>2021-12-17T14:11:50Z</time>
      </trkpt>
      <trkpt lat="46.40526" lon="5.39939">
        <ele>417.4</ele>
        <time>2021-12-17T14:11:56Z</time>
      </trkpt>
      <trkpt lat="46.40551" lon="5.39961">
        <ele>418</ele>
        <time>2021-12-17T14:12:01Z</time>
      </trkpt>
      <trkpt lat="46.40566" lon="5.39976">
        <ele>418.4</ele>
        <time>2021-12-17T14:12:04Z</time>
      </trkpt>
      <trkpt lat="46.40593" lon="5.39994">
        <ele>418.2</ele>
        <time>2021-12-17T14:12:09Z</time>
      </trkpt>
      <trkpt lat="46.40599" lon="5.39996">
        <ele>418.2</ele>
        <time>2021-12-17T14:12:10Z</time>
      </trkpt>
      <trkpt lat="46.40641" lon="5.40007">
        <ele>418.6</ele>
        <time>2021-12-17T14:12:17Z</time>
      </trkpt>
      <trkpt lat="46.40686" lon="5.40036">
        <ele>418.8</ele>
        <time>2021-12-17T14:12:25Z</time>
      </trkpt>
      <trkpt lat="46.40714" lon="5.40056">
        <ele>419.2</ele>
        <time>2021-12-17T14:12:30Z</time>
      </trkpt>
      <trkpt lat="46.40741" lon="5.40074">
        <ele>419.6</ele>
        <time>2021-12-17T14:12:35Z</time>
      </trkpt>
      <trkpt lat="46.40796" lon="5.40111">
        <ele>420.2</ele>
        <time>2021-12-17T14:12:45Z</time>
      </trkpt>
      <trkpt lat="46.40825" lon="5.4013">
        <ele>420.4</ele>
        <time>2021-12-17T14:12:51Z</time>
      </trkpt>
      <trkpt lat="46.40831" lon="5.40133">
        <ele>420.6</ele>
        <time>2021-12-17T14:12:52Z</time>
      </trkpt>
      <trkpt lat="46.40853" lon="5.40139">
        <ele>421</ele>
        <time>2021-12-17T14:12:56Z</time>
      </trkpt>
      <trkpt lat="46.40865" lon="5.4014">
        <ele>421.4</ele>
        <time>2021-12-17T14:12:58Z</time>
      </trkpt>
      <trkpt lat="46.40891" lon="5.40145">
        <ele>422</ele>
        <time>2021-12-17T14:13:03Z</time>
      </trkpt>
      <trkpt lat="46.40911" lon="5.4015">
        <ele>422.6</ele>
        <time>2021-12-17T14:13:07Z</time>
      </trkpt>
      <trkpt lat="46.40927" lon="5.40153">
        <ele>423.4</ele>
        <time>2021-12-17T14:13:10Z</time>
      </trkpt>
      <trkpt lat="46.40938" lon="5.40155">
        <ele>423.8</ele>
        <time>2021-12-17T14:13:12Z</time>
      </trkpt>
      <trkpt lat="46.40975" lon="5.40165">
        <ele>425</ele>
        <time>2021-12-17T14:13:19Z</time>
      </trkpt>
      <trkpt lat="46.41021" lon="5.40174">
        <ele>425.6</ele>
        <time>2021-12-17T14:13:27Z</time>
      </trkpt>
      <trkpt lat="46.4108" lon="5.40185">
        <ele>425.8</ele>
        <time>2021-12-17T14:13:37Z</time>
      </trkpt>
      <trkpt lat="46.41085" lon="5.40185">
        <ele>425.8</ele>
        <time>2021-12-17T14:13:38Z</time>
      </trkpt>
      <trkpt lat="46.41103" lon="5.40186">
        <ele>426</ele>
        <time>2021-12-17T14:13:41Z</time>
      </trkpt>
      <trkpt lat="46.41108" lon="5.40185">
        <ele>426</ele>
        <time>2021-12-17T14:13:42Z</time>
      </trkpt>
      <trkpt lat="46.4112" lon="5.40181">
        <ele>426.4</ele>
        <time>2021-12-17T14:13:44Z</time>
      </trkpt>
      <trkpt lat="46.41164" lon="5.40159">
        <ele>426.8</ele>
        <time>2021-12-17T14:13:52Z</time>
      </trkpt>
      <trkpt lat="46.41192" lon="5.40144">
        <ele>427</ele>
        <time>2021-12-17T14:13:57Z</time>
      </trkpt>
      <trkpt lat="46.41226" lon="5.40128">
        <ele>427.2</ele>
        <time>2021-12-17T14:14:03Z</time>
      </trkpt>
      <trkpt lat="46.41272" lon="5.40117">
        <ele>427.6</ele>
        <time>2021-12-17T14:14:11Z</time>
      </trkpt>
      <trkpt lat="46.41293" lon="5.40115">
        <ele>428.2</ele>
        <time>2021-12-17T14:14:15Z</time>
      </trkpt>
      <trkpt lat="46.41319" lon="5.40114">
        <ele>428.6</ele>
        <time>2021-12-17T14:14:20Z</time>
      </trkpt>
      <trkpt lat="46.41346" lon="5.40114">
        <ele>429.2</ele>
        <time>2021-12-17T14:14:25Z</time>
      </trkpt>
      <trkpt lat="46.41373" lon="5.40115">
        <ele>430</ele>
        <time>2021-12-17T14:14:30Z</time>
      </trkpt>
      <trkpt lat="46.41387" lon="5.40116">
        <ele>430.2</ele>
        <time>2021-12-17T14:14:33Z</time>
      </trkpt>
      <trkpt lat="46.41422" lon="5.40116">
        <ele>431.4</ele>
        <time>2021-12-17T14:14:40Z</time>
      </trkpt>
      <trkpt lat="46.41454" lon="5.40113">
        <ele>432.6</ele>
        <time>2021-12-17T14:14:47Z</time>
      </trkpt>
      <trkpt lat="46.41467" lon="5.40112">
        <ele>433.2</ele>
        <time>2021-12-17T14:14:50Z</time>
      </trkpt>
      <trkpt lat="46.41481" lon="5.40111">
        <ele>433.6</ele>
        <time>2021-12-17T14:14:53Z</time>
      </trkpt>
      <trkpt lat="46.41505" lon="5.40109">
        <ele>434.8</ele>
        <time>2021-12-17T14:14:58Z</time>
      </trkpt>
      <trkpt lat="46.41514" lon="5.40108">
        <ele>435.2</ele>
        <time>2021-12-17T14:15:00Z</time>
      </trkpt>
      <trkpt lat="46.41519" lon="5.40108">
        <ele>435.2</ele>
        <time>2021-12-17T14:15:01Z</time>
      </trkpt>
      <trkpt lat="46.41538" lon="5.40106">
        <ele>436</ele>
        <time>2021-12-17T14:15:05Z</time>
      </trkpt>
      <trkpt lat="46.41552" lon="5.40103">
        <ele>436.4</ele>
        <time>2021-12-17T14:15:08Z</time>
      </trkpt>
      <trkpt lat="46.41588" lon="5.40096">
        <ele>437</ele>
        <time>2021-12-17T14:15:16Z</time>
      </trkpt>
      <trkpt lat="46.41597" lon="5.40094">
        <ele>437.4</ele>
        <time>2021-12-17T14:15:18Z</time>
      </trkpt>
      <trkpt lat="46.41609" lon="5.4009">
        <ele>438</ele>
        <time>2021-12-17T14:15:21Z</time>
      </trkpt>
      <trkpt lat="46.41629" lon="5.4008">
        <ele>439.2</ele>
        <time>2021-12-17T14:15:26Z</time>
      </trkpt>
      <trkpt lat="46.41648" lon="5.4007">
        <ele>440.2</ele>
        <time>2021-12-17T14:15:31Z</time>
      </trkpt>
      <trkpt lat="46.41664" lon="5.40058">
        <ele>441.2</ele>
        <time>2021-12-17T14:15:36Z</time>
      </trkpt>
      <trkpt lat="46.41681" lon="5.40044">
        <ele>442.4</ele>
        <time>2021-12-17T14:15:41Z</time>
      </trkpt>
      <trkpt lat="46.41699" lon="5.40033">
        <ele>443.6</ele>
        <time>2021-12-17T14:15:46Z</time>
      </trkpt>
      <trkpt lat="46.41721" lon="5.40023">
        <ele>444.8</ele>
        <time>2021-12-17T14:15:52Z</time>
      </trkpt>
      <trkpt lat="46.41724" lon="5.40022">
        <ele>445</ele>
        <time>2021-12-17T14:15:53Z</time>
      </trkpt>
      <trkpt lat="46.4174" lon="5.4002">
        <ele>446</ele>
        <time>2021-12-17T14:15:57Z</time>
      </trkpt>
      <trkpt lat="46.41756" lon="5.40021">
        <ele>447</ele>
        <time>2021-12-17T14:16:01Z</time>
      </trkpt>
      <trkpt lat="46.41782" lon="5.40029">
        <ele>448.2</ele>
        <time>2021-12-17T14:16:08Z</time>
      </trkpt>
      <trkpt lat="46.41792" lon="5.40032">
        <ele>449</ele>
        <time>2021-12-17T14:16:11Z</time>
      </trkpt>
      <trkpt lat="46.418" lon="5.40035">
        <ele>449.2</ele>
        <time>2021-12-17T14:16:13Z</time>
      </trkpt>
      <trkpt lat="46.4182" lon="5.4004">
        <ele>450.2</ele>
        <time>2021-12-17T14:16:18Z</time>
      </trkpt>
      <trkpt lat="46.41839" lon="5.40046">
        <ele>451</ele>
        <time>2021-12-17T14:16:23Z</time>
      </trkpt>
      <trkpt lat="46.41849" lon="5.40048">
        <ele>451.4</ele>
        <time>2021-12-17T14:16:26Z</time>
      </trkpt>
      <trkpt lat="46.41869" lon="5.40053">
        <ele>452.6</ele>
        <time>2021-12-17T14:16:31Z</time>
      </trkpt>
      <trkpt lat="46.4188" lon="5.40055">
        <ele>453.4</ele>
        <time>2021-12-17T14:16:34Z</time>
      </trkpt>
      <trkpt lat="46.41883" lon="5.40055">
        <ele>453.8</ele>
        <time>2021-12-17T14:16:35Z</time>
      </trkpt>
      <trkpt lat="46.41911" lon="5.40057">
        <ele>455</ele>
        <time>2021-12-17T14:16:42Z</time>
      </trkpt>
      <trkpt lat="46.41919" lon="5.40057">
        <ele>455.4</ele>
        <time>2021-12-17T14:16:44Z</time>
      </trkpt>
      <trkpt lat="46.41939" lon="5.40054">
        <ele>456.2</ele>
        <time>2021-12-17T14:16:49Z</time>
      </trkpt>
      <trkpt lat="46.41956" lon="5.40053">
        <ele>457.2</ele>
        <time>2021-12-17T14:16:53Z</time>
      </trkpt>
      <trkpt lat="46.4196" lon="5.40053">
        <ele>457.4</ele>
        <time>2021-12-17T14:16:54Z</time>
      </trkpt>
      <trkpt lat="46.4198" lon="5.40054">
        <ele>458.2</ele>
        <time>2021-12-17T14:16:59Z</time>
      </trkpt>
      <trkpt lat="46.41995" lon="5.40057">
        <ele>459</ele>
        <time>2021-12-17T14:17:03Z</time>
      </trkpt>
      <trkpt lat="46.41999" lon="5.40057">
        <ele>459.2</ele>
        <time>2021-12-17T14:17:04Z</time>
      </trkpt>
      <trkpt lat="46.42018" lon="5.40061">
        <ele>460.2</ele>
        <time>2021-12-17T14:17:09Z</time>
      </trkpt>
      <trkpt lat="46.42034" lon="5.40065">
        <ele>461.2</ele>
        <time>2021-12-17T14:17:13Z</time>
      </trkpt>
      <trkpt lat="46.42038" lon="5.40066">
        <ele>461.4</ele>
        <time>2021-12-17T14:17:14Z</time>
      </trkpt>
      <trkpt lat="46.42064" lon="5.40076">
        <ele>462.6</ele>
        <time>2021-12-17T14:17:21Z</time>
      </trkpt>
      <trkpt lat="46.42071" lon="5.40078">
        <ele>463</ele>
        <time>2021-12-17T14:17:23Z</time>
      </trkpt>
      <trkpt lat="46.42079" lon="5.40081">
        <ele>463.6</ele>
        <time>2021-12-17T14:17:25Z</time>
      </trkpt>
      <trkpt lat="46.42098" lon="5.40086">
        <ele>464.6</ele>
        <time>2021-12-17T14:17:30Z</time>
      </trkpt>
      <trkpt lat="46.42102" lon="5.40086">
        <ele>464.8</ele>
        <time>2021-12-17T14:17:31Z</time>
      </trkpt>
      <trkpt lat="46.42127" lon="5.40086">
        <ele>465.8</ele>
        <time>2021-12-17T14:17:37Z</time>
      </trkpt>
      <trkpt lat="46.42155" lon="5.40079">
        <ele>467.2</ele>
        <time>2021-12-17T14:17:44Z</time>
      </trkpt>
      <trkpt lat="46.42159" lon="5.40078">
        <ele>467.2</ele>
        <time>2021-12-17T14:17:45Z</time>
      </trkpt>
      <trkpt lat="46.42179" lon="5.40071">
        <ele>468.2</ele>
        <time>2021-12-17T14:17:50Z</time>
      </trkpt>
      <trkpt lat="46.42199" lon="5.40063">
        <ele>469.2</ele>
        <time>2021-12-17T14:17:55Z</time>
      </trkpt>
      <trkpt lat="46.42204" lon="5.40062">
        <ele>469.4</ele>
        <time>2021-12-17T14:17:56Z</time>
      </trkpt>
      <trkpt lat="46.42226" lon="5.40055">
        <ele>470.4</ele>
        <time>2021-12-17T14:18:01Z</time>
      </trkpt>
      <trkpt lat="46.42247" lon="5.4005">
        <ele>471</ele>
        <time>2021-12-17T14:18:05Z</time>
      </trkpt>
      <trkpt lat="46.42289" lon="5.40037">
        <ele>471.4</ele>
        <time>2021-12-17T14:18:13Z</time>
      </trkpt>
      <trkpt lat="46.42311" lon="5.4003">
        <ele>471.6</ele>
        <time>2021-12-17T14:18:17Z</time>
      </trkpt>
      <trkpt lat="46.42322" lon="5.40026">
        <ele>471.8</ele>
        <time>2021-12-17T14:18:19Z</time>
      </trkpt>
      <trkpt lat="46.4237" lon="5.40011">
        <ele>472.6</ele>
        <time>2021-12-17T14:18:28Z</time>
      </trkpt>
      <trkpt lat="46.42373" lon="5.40009">
        <ele>472.8</ele>
        <time>2021-12-17T14:18:29Z</time>
      </trkpt>
      <trkpt lat="46.42379" lon="5.40007">
        <ele>473</ele>
        <time>2021-12-17T14:18:30Z</time>
      </trkpt>
      <trkpt lat="46.42387" lon="5.40004">
        <ele>473.4</ele>
        <time>2021-12-17T14:18:32Z</time>
      </trkpt>
      <trkpt lat="46.42393" lon="5.39997">
        <ele>473.8</ele>
        <time>2021-12-17T14:18:34Z</time>
      </trkpt>
      <trkpt lat="46.42395" lon="5.39989">
        <ele>474.2</ele>
        <time>2021-12-17T14:18:35Z</time>
      </trkpt>
      <trkpt lat="46.42396" lon="5.39982">
        <ele>474.2</ele>
        <time>2021-12-17T14:18:36Z</time>
      </trkpt>
      <trkpt lat="46.42397" lon="5.39958">
        <ele>474.8</ele>
        <time>2021-12-17T14:18:39Z</time>
      </trkpt>
      <trkpt lat="46.42397" lon="5.39938">
        <ele>475</ele>
        <time>2021-12-17T14:18:41Z</time>
      </trkpt>
      <trkpt lat="46.42398" lon="5.3988">
        <ele>475.2</ele>
        <time>2021-12-17T14:18:48Z</time>
      </trkpt>
      <trkpt lat="46.424" lon="5.39826">
        <ele>476</ele>
        <time>2021-12-17T14:18:55Z</time>
      </trkpt>
      <trkpt lat="46.42401" lon="5.39818">
        <ele>476.2</ele>
        <time>2021-12-17T14:18:56Z</time>
      </trkpt>
      <trkpt lat="46.42401" lon="5.39811">
        <ele>476.4</ele>
        <time>2021-12-17T14:18:57Z</time>
      </trkpt>
      <trkpt lat="46.42406" lon="5.39798">
        <ele>476.6</ele>
        <time>2021-12-17T14:18:59Z</time>
      </trkpt>
      <trkpt lat="46.4241" lon="5.39794">
        <ele>476.8</ele>
        <time>2021-12-17T14:19:00Z</time>
      </trkpt>
      <trkpt lat="46.42415" lon="5.39791">
        <ele>477.2</ele>
        <time>2021-12-17T14:19:01Z</time>
      </trkpt>
      <trkpt lat="46.42424" lon="5.3979">
        <ele>477.8</ele>
        <time>2021-12-17T14:19:03Z</time>
      </trkpt>
      <trkpt lat="46.42447" lon="5.39798">
        <ele>478.4</ele>
        <time>2021-12-17T14:19:07Z</time>
      </trkpt>
      <trkpt lat="46.42453" lon="5.39802">
        <ele>478.4</ele>
        <time>2021-12-17T14:19:08Z</time>
      </trkpt>
      <trkpt lat="46.42471" lon="5.39819">
        <ele>478.4</ele>
        <time>2021-12-17T14:19:11Z</time>
      </trkpt>
      <trkpt lat="46.42476" lon="5.39826">
        <ele>478.4</ele>
        <time>2021-12-17T14:19:12Z</time>
      </trkpt>
      <trkpt lat="46.4251" lon="5.39872">
        <ele>478.2</ele>
        <time>2021-12-17T14:19:19Z</time>
      </trkpt>
      <trkpt lat="46.42516" lon="5.39877">
        <ele>478</ele>
        <time>2021-12-17T14:19:20Z</time>
      </trkpt>
      <trkpt lat="46.42558" lon="5.3991">
        <ele>477.6</ele>
        <time>2021-12-17T14:19:27Z</time>
      </trkpt>
      <trkpt lat="46.42563" lon="5.39915">
        <ele>477.6</ele>
        <time>2021-12-17T14:19:28Z</time>
      </trkpt>
      <trkpt lat="46.42597" lon="5.39939">
        <ele>477.6</ele>
        <time>2021-12-17T14:19:34Z</time>
      </trkpt>
      <trkpt lat="46.4264" lon="5.3996">
        <ele>478</ele>
        <time>2021-12-17T14:19:42Z</time>
      </trkpt>
      <trkpt lat="46.42687" lon="5.39983">
        <ele>478.6</ele>
        <time>2021-12-17T14:19:50Z</time>
      </trkpt>
      <trkpt lat="46.42693" lon="5.39986">
        <ele>478.6</ele>
        <time>2021-12-17T14:19:51Z</time>
      </trkpt>
      <trkpt lat="46.42752" lon="5.4001">
        <ele>478.8</ele>
        <time>2021-12-17T14:20:01Z</time>
      </trkpt>
      <trkpt lat="46.42796" lon="5.40028">
        <ele>479.4</ele>
        <time>2021-12-17T14:20:09Z</time>
      </trkpt>
      <trkpt lat="46.42841" lon="5.40044">
        <ele>479.4</ele>
        <time>2021-12-17T14:20:16Z</time>
      </trkpt>
      <trkpt lat="46.42892" lon="5.40056">
        <ele>479.2</ele>
        <time>2021-12-17T14:20:24Z</time>
      </trkpt>
      <trkpt lat="46.42937" lon="5.40059">
        <ele>479.4</ele>
        <time>2021-12-17T14:20:32Z</time>
      </trkpt>
      <trkpt lat="46.42948" lon="5.40059">
        <ele>479.6</ele>
        <time>2021-12-17T14:20:34Z</time>
      </trkpt>
      <trkpt lat="46.42979" lon="5.40064">
        <ele>480.4</ele>
        <time>2021-12-17T14:20:40Z</time>
      </trkpt>
      <trkpt lat="46.4299" lon="5.40066">
        <ele>480.8</ele>
        <time>2021-12-17T14:20:42Z</time>
      </trkpt>
      <trkpt lat="46.43025" lon="5.40074">
        <ele>481.8</ele>
        <time>2021-12-17T14:20:48Z</time>
      </trkpt>
      <trkpt lat="46.43042" lon="5.40076">
        <ele>482</ele>
        <time>2021-12-17T14:20:51Z</time>
      </trkpt>
      <trkpt lat="46.43083" lon="5.40077">
        <ele>482.2</ele>
        <time>2021-12-17T14:20:58Z</time>
      </trkpt>
      <trkpt lat="46.43119" lon="5.40086">
        <ele>481.8</ele>
        <time>2021-12-17T14:21:03Z</time>
      </trkpt>
      <trkpt lat="46.43163" lon="5.40092">
        <ele>480.6</ele>
        <time>2021-12-17T14:21:09Z</time>
      </trkpt>
      <trkpt lat="46.4317" lon="5.40093">
        <ele>480.4</ele>
        <time>2021-12-17T14:21:10Z</time>
      </trkpt>
      <trkpt lat="46.43203" lon="5.40106">
        <ele>480.4</ele>
        <time>2021-12-17T14:21:15Z</time>
      </trkpt>
      <trkpt lat="46.43216" lon="5.40115">
        <ele>480.4</ele>
        <time>2021-12-17T14:21:17Z</time>
      </trkpt>
      <trkpt lat="46.43236" lon="5.40121">
        <ele>480.2</ele>
        <time>2021-12-17T14:21:20Z</time>
      </trkpt>
      <trkpt lat="46.43277" lon="5.40119">
        <ele>479.8</ele>
        <time>2021-12-17T14:21:26Z</time>
      </trkpt>
      <trkpt lat="46.43333" lon="5.40116">
        <ele>479.2</ele>
        <time>2021-12-17T14:21:34Z</time>
      </trkpt>
      <trkpt lat="46.4334" lon="5.40116">
        <ele>479.2</ele>
        <time>2021-12-17T14:21:35Z</time>
      </trkpt>
      <trkpt lat="46.43394" lon="5.40125">
        <ele>479</ele>
        <time>2021-12-17T14:21:43Z</time>
      </trkpt>
      <trkpt lat="46.43429" lon="5.40138">
        <ele>478.6</ele>
        <time>2021-12-17T14:21:48Z</time>
      </trkpt>
      <trkpt lat="46.43442" lon="5.40144">
        <ele>478.6</ele>
        <time>2021-12-17T14:21:50Z</time>
      </trkpt>
      <trkpt lat="46.43477" lon="5.40162">
        <ele>478.6</ele>
        <time>2021-12-17T14:21:56Z</time>
      </trkpt>
      <trkpt lat="46.43508" lon="5.40173">
        <ele>479</ele>
        <time>2021-12-17T14:22:01Z</time>
      </trkpt>
      <trkpt lat="46.43566" lon="5.40179">
        <ele>479.6</ele>
        <time>2021-12-17T14:22:10Z</time>
      </trkpt>
      <trkpt lat="46.43573" lon="5.4018">
        <ele>479.8</ele>
        <time>2021-12-17T14:22:11Z</time>
      </trkpt>
      <trkpt lat="46.43621" lon="5.40189">
        <ele>479.6</ele>
        <time>2021-12-17T14:22:18Z</time>
      </trkpt>
      <trkpt lat="46.43651" lon="5.40186">
        <ele>479.8</ele>
        <time>2021-12-17T14:22:23Z</time>
      </trkpt>
      <trkpt lat="46.43699" lon="5.40179">
        <ele>480.4</ele>
        <time>2021-12-17T14:22:31Z</time>
      </trkpt>
      <trkpt lat="46.43723" lon="5.40175">
        <ele>480.6</ele>
        <time>2021-12-17T14:22:35Z</time>
      </trkpt>
      <trkpt lat="46.43745" lon="5.40172">
        <ele>481.2</ele>
        <time>2021-12-17T14:22:39Z</time>
      </trkpt>
      <trkpt lat="46.43779" lon="5.40164">
        <ele>481.8</ele>
        <time>2021-12-17T14:22:44Z</time>
      </trkpt>
      <trkpt lat="46.43786" lon="5.40161">
        <ele>482</ele>
        <time>2021-12-17T14:22:45Z</time>
      </trkpt>
      <trkpt lat="46.43816" lon="5.4015">
        <ele>482.2</ele>
        <time>2021-12-17T14:22:50Z</time>
      </trkpt>
      <trkpt lat="46.43863" lon="5.40135">
        <ele>482.4</ele>
        <time>2021-12-17T14:22:57Z</time>
      </trkpt>
      <trkpt lat="46.4387" lon="5.40131">
        <ele>482.4</ele>
        <time>2021-12-17T14:22:58Z</time>
      </trkpt>
      <trkpt lat="46.43891" lon="5.40116">
        <ele>482</ele>
        <time>2021-12-17T14:23:01Z</time>
      </trkpt>
      <trkpt lat="46.43926" lon="5.40089">
        <ele>481.2</ele>
        <time>2021-12-17T14:23:07Z</time>
      </trkpt>
      <trkpt lat="46.43939" lon="5.40085">
        <ele>481.2</ele>
        <time>2021-12-17T14:23:09Z</time>
      </trkpt>
      <trkpt lat="46.43953" lon="5.40085">
        <ele>481.2</ele>
        <time>2021-12-17T14:23:11Z</time>
      </trkpt>
      <trkpt lat="46.43991" lon="5.40084">
        <ele>481</ele>
        <time>2021-12-17T14:23:16Z</time>
      </trkpt>
      <trkpt lat="46.44037" lon="5.40074">
        <ele>480.8</ele>
        <time>2021-12-17T14:23:23Z</time>
      </trkpt>
      <trkpt lat="46.44093" lon="5.4006">
        <ele>481.8</ele>
        <time>2021-12-17T14:23:32Z</time>
      </trkpt>
      <trkpt lat="46.44124" lon="5.40051">
        <ele>482</ele>
        <time>2021-12-17T14:23:37Z</time>
      </trkpt>
      <trkpt lat="46.44136" lon="5.40045">
        <ele>482.2</ele>
        <time>2021-12-17T14:23:39Z</time>
      </trkpt>
      <trkpt lat="46.44172" lon="5.40014">
        <ele>482.6</ele>
        <time>2021-12-17T14:23:46Z</time>
      </trkpt>
      <trkpt lat="46.44186" lon="5.40001">
        <ele>483</ele>
        <time>2021-12-17T14:23:49Z</time>
      </trkpt>
      <trkpt lat="46.44223" lon="5.3997">
        <ele>483.8</ele>
        <time>2021-12-17T14:23:56Z</time>
      </trkpt>
      <trkpt lat="46.44236" lon="5.39961">
        <ele>484</ele>
        <time>2021-12-17T14:23:58Z</time>
      </trkpt>
      <trkpt lat="46.44256" lon="5.39954">
        <ele>483.8</ele>
        <time>2021-12-17T14:24:01Z</time>
      </trkpt>
      <trkpt lat="46.44299" lon="5.39953">
        <ele>483.8</ele>
        <time>2021-12-17T14:24:08Z</time>
      </trkpt>
      <trkpt lat="46.44315" lon="5.39953">
        <ele>484.2</ele>
        <time>2021-12-17T14:24:11Z</time>
      </trkpt>
      <trkpt lat="46.44331" lon="5.39952">
        <ele>484.6</ele>
        <time>2021-12-17T14:24:14Z</time>
      </trkpt>
      <trkpt lat="46.44341" lon="5.39951">
        <ele>485.2</ele>
        <time>2021-12-17T14:24:16Z</time>
      </trkpt>
      <trkpt lat="46.44367" lon="5.3995">
        <ele>486.4</ele>
        <time>2021-12-17T14:24:21Z</time>
      </trkpt>
      <trkpt lat="46.44372" lon="5.3995">
        <ele>486.6</ele>
        <time>2021-12-17T14:24:22Z</time>
      </trkpt>
      <trkpt lat="46.4441" lon="5.39948">
        <ele>487.4</ele>
        <time>2021-12-17T14:24:28Z</time>
      </trkpt>
      <trkpt lat="46.44447" lon="5.3994">
        <ele>487</ele>
        <time>2021-12-17T14:24:33Z</time>
      </trkpt>
      <trkpt lat="46.44491" lon="5.39919">
        <ele>486.6</ele>
        <time>2021-12-17T14:24:40Z</time>
      </trkpt>
      <trkpt lat="46.44537" lon="5.39896">
        <ele>487.6</ele>
        <time>2021-12-17T14:24:48Z</time>
      </trkpt>
      <trkpt lat="46.44543" lon="5.39893">
        <ele>487.6</ele>
        <time>2021-12-17T14:24:49Z</time>
      </trkpt>
      <trkpt lat="46.4458" lon="5.39876">
        <ele>488</ele>
        <time>2021-12-17T14:24:55Z</time>
      </trkpt>
      <trkpt lat="46.44592" lon="5.39868">
        <ele>488.2</ele>
        <time>2021-12-17T14:24:57Z</time>
      </trkpt>
      <trkpt lat="46.44606" lon="5.39853">
        <ele>488.2</ele>
        <time>2021-12-17T14:25:00Z</time>
      </trkpt>
      <trkpt lat="46.4463" lon="5.39824">
        <ele>488.8</ele>
        <time>2021-12-17T14:25:05Z</time>
      </trkpt>
      <trkpt lat="46.4464" lon="5.39814">
        <ele>489</ele>
        <time>2021-12-17T14:25:07Z</time>
      </trkpt>
      <trkpt lat="46.44654" lon="5.39804">
        <ele>489</ele>
        <time>2021-12-17T14:25:09Z</time>
      </trkpt>
      <trkpt lat="46.44669" lon="5.39797">
        <ele>489</ele>
        <time>2021-12-17T14:25:11Z</time>
      </trkpt>
      <trkpt lat="46.44685" lon="5.39794">
        <ele>488.4</ele>
        <time>2021-12-17T14:25:13Z</time>
      </trkpt>
      <trkpt lat="46.44701" lon="5.39795">
        <ele>487.4</ele>
        <time>2021-12-17T14:25:15Z</time>
      </trkpt>
      <trkpt lat="46.44734" lon="5.39797">
        <ele>487</ele>
        <time>2021-12-17T14:25:20Z</time>
      </trkpt>
      <trkpt lat="46.44767" lon="5.39799">
        <ele>488</ele>
        <time>2021-12-17T14:25:26Z</time>
      </trkpt>
      <trkpt lat="46.44772" lon="5.39799">
        <ele>488.2</ele>
        <time>2021-12-17T14:25:27Z</time>
      </trkpt>
      <trkpt lat="46.44777" lon="5.39799">
        <ele>488.4</ele>
        <time>2021-12-17T14:25:28Z</time>
      </trkpt>
      <trkpt lat="46.44793" lon="5.39798">
        <ele>489.4</ele>
        <time>2021-12-17T14:25:31Z</time>
      </trkpt>
      <trkpt lat="46.44798" lon="5.39797">
        <ele>489.6</ele>
        <time>2021-12-17T14:25:32Z</time>
      </trkpt>
      <trkpt lat="46.44804" lon="5.39795">
        <ele>489.8</ele>
        <time>2021-12-17T14:25:33Z</time>
      </trkpt>
      <trkpt lat="46.44817" lon="5.39789">
        <ele>490</ele>
        <time>2021-12-17T14:25:35Z</time>
      </trkpt>
      <trkpt lat="46.4483" lon="5.39779">
        <ele>490</ele>
        <time>2021-12-17T14:25:37Z</time>
      </trkpt>
      <trkpt lat="46.4485" lon="5.39765">
        <ele>489.8</ele>
        <time>2021-12-17T14:25:40Z</time>
      </trkpt>
      <trkpt lat="46.44864" lon="5.39758">
        <ele>489.6</ele>
        <time>2021-12-17T14:25:42Z</time>
      </trkpt>
      <trkpt lat="46.44895" lon="5.39751">
        <ele>489.4</ele>
        <time>2021-12-17T14:25:47Z</time>
      </trkpt>
      <trkpt lat="46.44937" lon="5.39737">
        <ele>490.2</ele>
        <time>2021-12-17T14:25:54Z</time>
      </trkpt>
      <trkpt lat="46.44971" lon="5.39728">
        <ele>490.6</ele>
        <time>2021-12-17T14:25:59Z</time>
      </trkpt>
      <trkpt lat="46.44977" lon="5.39725">
        <ele>490.6</ele>
        <time>2021-12-17T14:26:00Z</time>
      </trkpt>
      <trkpt lat="46.44995" lon="5.3971">
        <ele>490.6</ele>
        <time>2021-12-17T14:26:03Z</time>
      </trkpt>
      <trkpt lat="46.45023" lon="5.39679">
        <ele>491</ele>
        <time>2021-12-17T14:26:09Z</time>
      </trkpt>
      <trkpt lat="46.45046" lon="5.3966">
        <ele>492</ele>
        <time>2021-12-17T14:26:14Z</time>
      </trkpt>
      <trkpt lat="46.4505" lon="5.39656">
        <ele>492.2</ele>
        <time>2021-12-17T14:26:15Z</time>
      </trkpt>
      <trkpt lat="46.45067" lon="5.39644">
        <ele>493</ele>
        <time>2021-12-17T14:26:19Z</time>
      </trkpt>
      <trkpt lat="46.45094" lon="5.39624">
        <ele>494.2</ele>
        <time>2021-12-17T14:26:25Z</time>
      </trkpt>
      <trkpt lat="46.45133" lon="5.39602">
        <ele>495</ele>
        <time>2021-12-17T14:26:33Z</time>
      </trkpt>
      <trkpt lat="46.45163" lon="5.39588">
        <ele>495.2</ele>
        <time>2021-12-17T14:26:38Z</time>
      </trkpt>
      <trkpt lat="46.45181" lon="5.39579">
        <ele>495</ele>
        <time>2021-12-17T14:26:41Z</time>
      </trkpt>
      <trkpt lat="46.45221" lon="5.39561">
        <ele>494</ele>
        <time>2021-12-17T14:26:47Z</time>
      </trkpt>
      <trkpt lat="46.45228" lon="5.39558">
        <ele>493.6</ele>
        <time>2021-12-17T14:26:48Z</time>
      </trkpt>
      <trkpt lat="46.45257" lon="5.39539">
        <ele>492.4</ele>
        <time>2021-12-17T14:26:52Z</time>
      </trkpt>
      <trkpt lat="46.45264" lon="5.39533">
        <ele>492.2</ele>
        <time>2021-12-17T14:26:53Z</time>
      </trkpt>
      <trkpt lat="46.45283" lon="5.39513">
        <ele>491.4</ele>
        <time>2021-12-17T14:26:56Z</time>
      </trkpt>
      <trkpt lat="46.45306" lon="5.39484">
        <ele>490.4</ele>
        <time>2021-12-17T14:27:00Z</time>
      </trkpt>
      <trkpt lat="46.45311" lon="5.39476">
        <ele>490.4</ele>
        <time>2021-12-17T14:27:01Z</time>
      </trkpt>
      <trkpt lat="46.45329" lon="5.39441">
        <ele>490</ele>
        <time>2021-12-17T14:27:05Z</time>
      </trkpt>
      <trkpt lat="46.45354" lon="5.39369">
        <ele>489.4</ele>
        <time>2021-12-17T14:27:12Z</time>
      </trkpt>
      <trkpt lat="46.45359" lon="5.39358">
        <ele>489.2</ele>
        <time>2021-12-17T14:27:13Z</time>
      </trkpt>
      <trkpt lat="46.45371" lon="5.39324">
        <ele>488</ele>
        <time>2021-12-17T14:27:16Z</time>
      </trkpt>
      <trkpt lat="46.4538" lon="5.39301">
        <ele>487</ele>
        <time>2021-12-17T14:27:18Z</time>
      </trkpt>
      <trkpt lat="46.45387" lon="5.39281">
        <ele>486</ele>
        <time>2021-12-17T14:27:20Z</time>
      </trkpt>
      <trkpt lat="46.45399" lon="5.39244">
        <ele>484.8</ele>
        <time>2021-12-17T14:27:23Z</time>
      </trkpt>
      <trkpt lat="46.45402" lon="5.39235">
        <ele>484.4</ele>
        <time>2021-12-17T14:27:24Z</time>
      </trkpt>
      <trkpt lat="46.45406" lon="5.39224">
        <ele>484</ele>
        <time>2021-12-17T14:27:25Z</time>
      </trkpt>
      <trkpt lat="46.45411" lon="5.39211">
        <ele>483.2</ele>
        <time>2021-12-17T14:27:26Z</time>
      </trkpt>
      <trkpt lat="46.45429" lon="5.39159">
        <ele>482.2</ele>
        <time>2021-12-17T14:27:31Z</time>
      </trkpt>
      <trkpt lat="46.45432" lon="5.39149">
        <ele>482</ele>
        <time>2021-12-17T14:27:32Z</time>
      </trkpt>
      <trkpt lat="46.45449" lon="5.39107">
        <ele>481.2</ele>
        <time>2021-12-17T14:27:36Z</time>
      </trkpt>
      <trkpt lat="46.45456" lon="5.39099">
        <ele>480.8</ele>
        <time>2021-12-17T14:27:37Z</time>
      </trkpt>
      <trkpt lat="46.45463" lon="5.39093">
        <ele>480.8</ele>
        <time>2021-12-17T14:27:38Z</time>
      </trkpt>
      <trkpt lat="46.45476" lon="5.39091">
        <ele>480.2</ele>
        <time>2021-12-17T14:27:40Z</time>
      </trkpt>
      <trkpt lat="46.45485" lon="5.39096">
        <ele>479.6</ele>
        <time>2021-12-17T14:27:41Z</time>
      </trkpt>
      <trkpt lat="46.45492" lon="5.39102">
        <ele>479.2</ele>
        <time>2021-12-17T14:27:42Z</time>
      </trkpt>
      <trkpt lat="46.45498" lon="5.39109">
        <ele>479</ele>
        <time>2021-12-17T14:27:43Z</time>
      </trkpt>
      <trkpt lat="46.45502" lon="5.39115">
        <ele>478.8</ele>
        <time>2021-12-17T14:27:44Z</time>
      </trkpt>
      <trkpt lat="46.45531" lon="5.39145">
        <ele>478.6</ele>
        <time>2021-12-17T14:27:49Z</time>
      </trkpt>
      <trkpt lat="46.45558" lon="5.39171">
        <ele>479.4</ele>
        <time>2021-12-17T14:27:54Z</time>
      </trkpt>
      <trkpt lat="46.45569" lon="5.39183">
        <ele>480</ele>
        <time>2021-12-17T14:27:56Z</time>
      </trkpt>
      <trkpt lat="46.45587" lon="5.39204">
        <ele>481.2</ele>
        <time>2021-12-17T14:28:00Z</time>
      </trkpt>
      <trkpt lat="46.45603" lon="5.39222">
        <ele>482.2</ele>
        <time>2021-12-17T14:28:04Z</time>
      </trkpt>
      <trkpt lat="46.45611" lon="5.39228">
        <ele>482.8</ele>
        <time>2021-12-17T14:28:06Z</time>
      </trkpt>
      <trkpt lat="46.45615" lon="5.39232">
        <ele>483.2</ele>
        <time>2021-12-17T14:28:07Z</time>
      </trkpt>
      <trkpt lat="46.45617" lon="5.39234">
        <ele>483.4</ele>
        <time>2021-12-17T14:28:08Z</time>
      </trkpt>
      <trkpt lat="46.45622" lon="5.39239">
        <ele>483.6</ele>
        <time>2021-12-17T14:28:09Z</time>
      </trkpt>
      <trkpt lat="46.45629" lon="5.39246">
        <ele>484</ele>
        <time>2021-12-17T14:28:11Z</time>
      </trkpt>
      <trkpt lat="46.45636" lon="5.39252">
        <ele>484.4</ele>
        <time>2021-12-17T14:28:13Z</time>
      </trkpt>
      <trkpt lat="46.45653" lon="5.39267">
        <ele>485.4</ele>
        <time>2021-12-17T14:28:17Z</time>
      </trkpt>
      <trkpt lat="46.45658" lon="5.3927">
        <ele>485.6</ele>
        <time>2021-12-17T14:28:18Z</time>
      </trkpt>
      <trkpt lat="46.45673" lon="5.39287">
        <ele>486.6</ele>
        <time>2021-12-17T14:28:23Z</time>
      </trkpt>
      <trkpt lat="46.45691" lon="5.39308">
        <ele>487.4</ele>
        <time>2021-12-17T14:28:29Z</time>
      </trkpt>
      <trkpt lat="46.45694" lon="5.39311">
        <ele>487.6</ele>
        <time>2021-12-17T14:28:30Z</time>
      </trkpt>
      <trkpt lat="46.45713" lon="5.3933">
        <ele>488.8</ele>
        <time>2021-12-17T14:28:36Z</time>
      </trkpt>
      <trkpt lat="46.45721" lon="5.39339">
        <ele>489.2</ele>
        <time>2021-12-17T14:28:39Z</time>
      </trkpt>
      <trkpt lat="46.45728" lon="5.39347">
        <ele>489.8</ele>
        <time>2021-12-17T14:28:42Z</time>
      </trkpt>
      <trkpt lat="46.45744" lon="5.39366">
        <ele>491</ele>
        <time>2021-12-17T14:28:48Z</time>
      </trkpt>
      <trkpt lat="46.45752" lon="5.39381">
        <ele>492.2</ele>
        <time>2021-12-17T14:28:52Z</time>
      </trkpt>
      <trkpt lat="46.4576" lon="5.39398">
        <ele>493.4</ele>
        <time>2021-12-17T14:28:56Z</time>
      </trkpt>
      <trkpt lat="46.45761" lon="5.39403">
        <ele>493.4</ele>
        <time>2021-12-17T14:28:57Z</time>
      </trkpt>
      <trkpt lat="46.45769" lon="5.39431">
        <ele>494.4</ele>
        <time>2021-12-17T14:29:03Z</time>
      </trkpt>
      <trkpt lat="46.45772" lon="5.39446">
        <ele>495.4</ele>
        <time>2021-12-17T14:29:06Z</time>
      </trkpt>
      <trkpt lat="46.45773" lon="5.39451">
        <ele>495.4</ele>
        <time>2021-12-17T14:29:07Z</time>
      </trkpt>
      <trkpt lat="46.45773" lon="5.39477">
        <ele>496.6</ele>
        <time>2021-12-17T14:29:12Z</time>
      </trkpt>
      <trkpt lat="46.45772" lon="5.39488">
        <ele>497</ele>
        <time>2021-12-17T14:29:14Z</time>
      </trkpt>
      <trkpt lat="46.45771" lon="5.39511">
        <ele>497.8</ele>
        <time>2021-12-17T14:29:18Z</time>
      </trkpt>
      <trkpt lat="46.45766" lon="5.3954">
        <ele>498.6</ele>
        <time>2021-12-17T14:29:23Z</time>
      </trkpt>
      <trkpt lat="46.45764" lon="5.39559">
        <ele>498.8</ele>
        <time>2021-12-17T14:29:26Z</time>
      </trkpt>
      <trkpt lat="46.45761" lon="5.39593">
        <ele>499.6</ele>
        <time>2021-12-17T14:29:31Z</time>
      </trkpt>
      <trkpt lat="46.45763" lon="5.3962">
        <ele>499.8</ele>
        <time>2021-12-17T14:29:35Z</time>
      </trkpt>
      <trkpt lat="46.45765" lon="5.39633">
        <ele>500</ele>
        <time>2021-12-17T14:29:37Z</time>
      </trkpt>
      <trkpt lat="46.45766" lon="5.39638">
        <ele>500.2</ele>
        <time>2021-12-17T14:29:38Z</time>
      </trkpt>
      <trkpt lat="46.45772" lon="5.39657">
        <ele>500.8</ele>
        <time>2021-12-17T14:29:41Z</time>
      </trkpt>
      <trkpt lat="46.45774" lon="5.39663">
        <ele>500.8</ele>
        <time>2021-12-17T14:29:42Z</time>
      </trkpt>
      <trkpt lat="46.45785" lon="5.39685">
        <ele>501.2</ele>
        <time>2021-12-17T14:29:46Z</time>
      </trkpt>
      <trkpt lat="46.45794" lon="5.39698">
        <ele>501.8</ele>
        <time>2021-12-17T14:29:49Z</time>
      </trkpt>
      <trkpt lat="46.45819" lon="5.39726">
        <ele>502.8</ele>
        <time>2021-12-17T14:29:56Z</time>
      </trkpt>
      <trkpt lat="46.45823" lon="5.39729">
        <ele>503</ele>
        <time>2021-12-17T14:29:57Z</time>
      </trkpt>
      <trkpt lat="46.45842" lon="5.39744">
        <ele>504.2</ele>
        <time>2021-12-17T14:30:02Z</time>
      </trkpt>
      <trkpt lat="46.45862" lon="5.39761">
        <ele>505</ele>
        <time>2021-12-17T14:30:07Z</time>
      </trkpt>
      <trkpt lat="46.45878" lon="5.39776">
        <ele>505.2</ele>
        <time>2021-12-17T14:30:11Z</time>
      </trkpt>
      <trkpt lat="46.45898" lon="5.39794">
        <ele>505.8</ele>
        <time>2021-12-17T14:30:16Z</time>
      </trkpt>
      <trkpt lat="46.45931" lon="5.3982">
        <ele>506.2</ele>
        <time>2021-12-17T14:30:23Z</time>
      </trkpt>
      <trkpt lat="46.45973" lon="5.39854">
        <ele>506.8</ele>
        <time>2021-12-17T14:30:32Z</time>
      </trkpt>
      <trkpt lat="46.46015" lon="5.39889">
        <ele>507.4</ele>
        <time>2021-12-17T14:30:41Z</time>
      </trkpt>
      <trkpt lat="46.46066" lon="5.39931">
        <ele>508.2</ele>
        <time>2021-12-17T14:30:52Z</time>
      </trkpt>
      <trkpt lat="46.46074" lon="5.39938">
        <ele>508.4</ele>
        <time>2021-12-17T14:30:54Z</time>
      </trkpt>
      <trkpt lat="46.46101" lon="5.39961">
        <ele>509</ele>
        <time>2021-12-17T14:31:00Z</time>
      </trkpt>
      <trkpt lat="46.46139" lon="5.39993">
        <ele>509.4</ele>
        <time>2021-12-17T14:31:08Z</time>
      </trkpt>
      <trkpt lat="46.46143" lon="5.39997">
        <ele>509.6</ele>
        <time>2021-12-17T14:31:09Z</time>
      </trkpt>
      <trkpt lat="46.46173" lon="5.40028">
        <ele>509.8</ele>
        <time>2021-12-17T14:31:16Z</time>
      </trkpt>
      <trkpt lat="46.4619" lon="5.40066">
        <ele>510.4</ele>
        <time>2021-12-17T14:31:22Z</time>
      </trkpt>
      <trkpt lat="46.46191" lon="5.40071">
        <ele>510.6</ele>
        <time>2021-12-17T14:31:23Z</time>
      </trkpt>
      <trkpt lat="46.46196" lon="5.40106">
        <ele>511.4</ele>
        <time>2021-12-17T14:31:28Z</time>
      </trkpt>
      <trkpt lat="46.46197" lon="5.40113">
        <ele>511.6</ele>
        <time>2021-12-17T14:31:29Z</time>
      </trkpt>
      <trkpt lat="46.46197" lon="5.40125">
        <ele>512</ele>
        <time>2021-12-17T14:31:31Z</time>
      </trkpt>
      <trkpt lat="46.46199" lon="5.40131">
        <ele>512</ele>
        <time>2021-12-17T14:31:32Z</time>
      </trkpt>
      <trkpt lat="46.46202" lon="5.40135">
        <ele>512.2</ele>
        <time>2021-12-17T14:31:33Z</time>
      </trkpt>
      <trkpt lat="46.4621" lon="5.40139">
        <ele>512.4</ele>
        <time>2021-12-17T14:31:35Z</time>
      </trkpt>
      <trkpt lat="46.46218" lon="5.40133">
        <ele>512.6</ele>
        <time>2021-12-17T14:31:37Z</time>
      </trkpt>
      <trkpt lat="46.46226" lon="5.40124">
        <ele>512.8</ele>
        <time>2021-12-17T14:31:39Z</time>
      </trkpt>
      <trkpt lat="46.4623" lon="5.40119">
        <ele>513</ele>
        <time>2021-12-17T14:31:40Z</time>
      </trkpt>
      <trkpt lat="46.46246" lon="5.40103">
        <ele>513.4</ele>
        <time>2021-12-17T14:31:44Z</time>
      </trkpt>
      <trkpt lat="46.4625" lon="5.401">
        <ele>513.4</ele>
        <time>2021-12-17T14:31:45Z</time>
      </trkpt>
      <trkpt lat="46.46259" lon="5.40095">
        <ele>513.6</ele>
        <time>2021-12-17T14:31:47Z</time>
      </trkpt>
      <trkpt lat="46.46263" lon="5.40094">
        <ele>513.6</ele>
        <time>2021-12-17T14:31:48Z</time>
      </trkpt>
      <trkpt lat="46.46272" lon="5.40093">
        <ele>514</ele>
        <time>2021-12-17T14:31:50Z</time>
      </trkpt>
      <trkpt lat="46.46296" lon="5.40096">
        <ele>514.8</ele>
        <time>2021-12-17T14:31:56Z</time>
      </trkpt>
      <trkpt lat="46.463" lon="5.40096">
        <ele>515</ele>
        <time>2021-12-17T14:31:57Z</time>
      </trkpt>
      <trkpt lat="46.46312" lon="5.40097">
        <ele>516</ele>
        <time>2021-12-17T14:32:00Z</time>
      </trkpt>
      <trkpt lat="46.46332" lon="5.40094">
        <ele>517.2</ele>
        <time>2021-12-17T14:32:05Z</time>
      </trkpt>
      <trkpt lat="46.4635" lon="5.40092">
        <ele>518.4</ele>
        <time>2021-12-17T14:32:09Z</time>
      </trkpt>
      <trkpt lat="46.46357" lon="5.4009">
        <ele>518.6</ele>
        <time>2021-12-17T14:32:11Z</time>
      </trkpt>
      <trkpt lat="46.46362" lon="5.4009">
        <ele>518.8</ele>
        <time>2021-12-17T14:32:12Z</time>
      </trkpt>
      <trkpt lat="46.46378" lon="5.40087">
        <ele>519.4</ele>
        <time>2021-12-17T14:32:16Z</time>
      </trkpt>
      <trkpt lat="46.46383" lon="5.40086">
        <ele>519.6</ele>
        <time>2021-12-17T14:32:17Z</time>
      </trkpt>
      <trkpt lat="46.46414" lon="5.40081">
        <ele>520.6</ele>
        <time>2021-12-17T14:32:25Z</time>
      </trkpt>
      <trkpt lat="46.46418" lon="5.4008">
        <ele>520.6</ele>
        <time>2021-12-17T14:32:26Z</time>
      </trkpt>
      <trkpt lat="46.46433" lon="5.40077">
        <ele>521.6</ele>
        <time>2021-12-17T14:32:30Z</time>
      </trkpt>
      <trkpt lat="46.46462" lon="5.40072">
        <ele>522.8</ele>
        <time>2021-12-17T14:32:37Z</time>
      </trkpt>
      <trkpt lat="46.46491" lon="5.40071">
        <ele>523.8</ele>
        <time>2021-12-17T14:32:44Z</time>
      </trkpt>
      <trkpt lat="46.46496" lon="5.40071">
        <ele>524</ele>
        <time>2021-12-17T14:32:45Z</time>
      </trkpt>
      <trkpt lat="46.46518" lon="5.40078">
        <ele>524.6</ele>
        <time>2021-12-17T14:32:50Z</time>
      </trkpt>
      <trkpt lat="46.46526" lon="5.40082">
        <ele>524.8</ele>
        <time>2021-12-17T14:32:52Z</time>
      </trkpt>
      <trkpt lat="46.46529" lon="5.40084">
        <ele>525</ele>
        <time>2021-12-17T14:32:53Z</time>
      </trkpt>
      <trkpt lat="46.46561" lon="5.401">
        <ele>526</ele>
        <time>2021-12-17T14:33:01Z</time>
      </trkpt>
      <trkpt lat="46.46568" lon="5.40104">
        <ele>526.2</ele>
        <time>2021-12-17T14:33:03Z</time>
      </trkpt>
      <trkpt lat="46.46591" lon="5.40115">
        <ele>526.6</ele>
        <time>2021-12-17T14:33:09Z</time>
      </trkpt>
      <trkpt lat="46.46602" lon="5.40121">
        <ele>527.2</ele>
        <time>2021-12-17T14:33:12Z</time>
      </trkpt>
      <trkpt lat="46.46621" lon="5.4013">
        <ele>528.2</ele>
        <time>2021-12-17T14:33:17Z</time>
      </trkpt>
      <trkpt lat="46.46625" lon="5.40132">
        <ele>528.2</ele>
        <time>2021-12-17T14:33:18Z</time>
      </trkpt>
      <trkpt lat="46.46647" lon="5.40143">
        <ele>529.4</ele>
        <time>2021-12-17T14:33:24Z</time>
      </trkpt>
      <trkpt lat="46.46657" lon="5.40148">
        <ele>530</ele>
        <time>2021-12-17T14:33:27Z</time>
      </trkpt>
      <trkpt lat="46.46662" lon="5.40149">
        <ele>530.4</ele>
        <time>2021-12-17T14:33:28Z</time>
      </trkpt>
      <trkpt lat="46.46676" lon="5.40156">
        <ele>531.4</ele>
        <time>2021-12-17T14:33:32Z</time>
      </trkpt>
      <trkpt lat="46.46692" lon="5.40164">
        <ele>532.6</ele>
        <time>2021-12-17T14:33:37Z</time>
      </trkpt>
      <trkpt lat="46.46698" lon="5.40168">
        <ele>533.2</ele>
        <time>2021-12-17T14:33:39Z</time>
      </trkpt>
      <trkpt lat="46.46704" lon="5.40171">
        <ele>533.8</ele>
        <time>2021-12-17T14:33:41Z</time>
      </trkpt>
      <trkpt lat="46.46713" lon="5.40176">
        <ele>534.4</ele>
        <time>2021-12-17T14:33:44Z</time>
      </trkpt>
      <trkpt lat="46.4672" lon="5.40181">
        <ele>535</ele>
        <time>2021-12-17T14:33:47Z</time>
      </trkpt>
      <trkpt lat="46.46729" lon="5.40185">
        <ele>536</ele>
        <time>2021-12-17T14:33:51Z</time>
      </trkpt>
      <trkpt lat="46.46747" lon="5.40195">
        <ele>537</ele>
        <time>2021-12-17T14:33:57Z</time>
      </trkpt>
      <trkpt lat="46.46751" lon="5.40198">
        <ele>537.2</ele>
        <time>2021-12-17T14:33:58Z</time>
      </trkpt>
      <trkpt lat="46.46772" lon="5.40211">
        <ele>538.4</ele>
        <time>2021-12-17T14:34:04Z</time>
      </trkpt>
      <trkpt lat="46.46786" lon="5.40219">
        <ele>539.2</ele>
        <time>2021-12-17T14:34:08Z</time>
      </trkpt>
      <trkpt lat="46.46791" lon="5.40222">
        <ele>539.4</ele>
        <time>2021-12-17T14:34:09Z</time>
      </trkpt>
      <trkpt lat="46.46807" lon="5.40231">
        <ele>540.4</ele>
        <time>2021-12-17T14:34:13Z</time>
      </trkpt>
      <trkpt lat="46.4681" lon="5.40233">
        <ele>541</ele>
        <time>2021-12-17T14:34:14Z</time>
      </trkpt>
      <trkpt lat="46.46829" lon="5.40242">
        <ele>542</ele>
        <time>2021-12-17T14:34:19Z</time>
      </trkpt>
      <trkpt lat="46.46845" lon="5.40248">
        <ele>543</ele>
        <time>2021-12-17T14:34:24Z</time>
      </trkpt>
      <trkpt lat="46.46857" lon="5.40252">
        <ele>544</ele>
        <time>2021-12-17T14:34:28Z</time>
      </trkpt>
      <trkpt lat="46.4686" lon="5.40253">
        <ele>544.4</ele>
        <time>2021-12-17T14:34:29Z</time>
      </trkpt>
      <trkpt lat="46.4687" lon="5.4026">
        <ele>545.2</ele>
        <time>2021-12-17T14:34:33Z</time>
      </trkpt>
      <trkpt lat="46.46875" lon="5.40262">
        <ele>545.4</ele>
        <time>2021-12-17T14:34:34Z</time>
      </trkpt>
      <trkpt lat="46.46887" lon="5.40267">
        <ele>545.8</ele>
        <time>2021-12-17T14:34:37Z</time>
      </trkpt>
      <trkpt lat="46.46908" lon="5.40276">
        <ele>546.6</ele>
        <time>2021-12-17T14:34:42Z</time>
      </trkpt>
      <trkpt lat="46.46917" lon="5.4028">
        <ele>546.8</ele>
        <time>2021-12-17T14:34:44Z</time>
      </trkpt>
      <trkpt lat="46.46942" lon="5.40289">
        <ele>547.6</ele>
        <time>2021-12-17T14:34:50Z</time>
      </trkpt>
      <trkpt lat="46.46949" lon="5.40292">
        <ele>548</ele>
        <time>2021-12-17T14:34:52Z</time>
      </trkpt>
      <trkpt lat="46.46963" lon="5.40298">
        <ele>548.8</ele>
        <time>2021-12-17T14:34:56Z</time>
      </trkpt>
      <trkpt lat="46.46974" lon="5.40304">
        <ele>549</ele>
        <time>2021-12-17T14:34:59Z</time>
      </trkpt>
      <trkpt lat="46.46989" lon="5.40311">
        <ele>549.8</ele>
        <time>2021-12-17T14:35:03Z</time>
      </trkpt>
      <trkpt lat="46.47001" lon="5.40315">
        <ele>550.6</ele>
        <time>2021-12-17T14:35:06Z</time>
      </trkpt>
      <trkpt lat="46.47017" lon="5.40318">
        <ele>551</ele>
        <time>2021-12-17T14:35:10Z</time>
      </trkpt>
      <trkpt lat="46.47027" lon="5.40319">
        <ele>551.2</ele>
        <time>2021-12-17T14:35:12Z</time>
      </trkpt>
      <trkpt lat="46.47031" lon="5.4032">
        <ele>551.4</ele>
        <time>2021-12-17T14:35:13Z</time>
      </trkpt>
      <trkpt lat="46.47063" lon="5.40323">
        <ele>551.4</ele>
        <time>2021-12-17T14:35:19Z</time>
      </trkpt>
      <trkpt lat="46.47098" lon="5.40325">
        <ele>549.8</ele>
        <time>2021-12-17T14:35:24Z</time>
      </trkpt>
      <trkpt lat="46.47104" lon="5.40326">
        <ele>549.6</ele>
        <time>2021-12-17T14:35:25Z</time>
      </trkpt>
      <trkpt lat="46.47129" lon="5.4033">
        <ele>548.6</ele>
        <time>2021-12-17T14:35:28Z</time>
      </trkpt>
      <trkpt lat="46.47142" lon="5.40332">
        <ele>548</ele>
        <time>2021-12-17T14:35:30Z</time>
      </trkpt>
      <trkpt lat="46.47158" lon="5.40338">
        <ele>547.4</ele>
        <time>2021-12-17T14:35:32Z</time>
      </trkpt>
      <trkpt lat="46.47175" lon="5.40345">
        <ele>546.8</ele>
        <time>2021-12-17T14:35:34Z</time>
      </trkpt>
      <trkpt lat="46.47183" lon="5.40351">
        <ele>546.4</ele>
        <time>2021-12-17T14:35:35Z</time>
      </trkpt>
      <trkpt lat="46.47198" lon="5.40367">
        <ele>544.8</ele>
        <time>2021-12-17T14:35:37Z</time>
      </trkpt>
      <trkpt lat="46.47214" lon="5.40391">
        <ele>543</ele>
        <time>2021-12-17T14:35:39Z</time>
      </trkpt>
      <trkpt lat="46.47222" lon="5.40402">
        <ele>542.4</ele>
        <time>2021-12-17T14:35:40Z</time>
      </trkpt>
      <trkpt lat="46.47241" lon="5.40421">
        <ele>541.8</ele>
        <time>2021-12-17T14:35:42Z</time>
      </trkpt>
      <trkpt lat="46.47251" lon="5.40427">
        <ele>541.6</ele>
        <time>2021-12-17T14:35:43Z</time>
      </trkpt>
      <trkpt lat="46.47277" lon="5.40434">
        <ele>540.4</ele>
        <time>2021-12-17T14:35:45Z</time>
      </trkpt>
      <trkpt lat="46.47302" lon="5.40439">
        <ele>539.2</ele>
        <time>2021-12-17T14:35:47Z</time>
      </trkpt>
      <trkpt lat="46.47324" lon="5.40443">
        <ele>538</ele>
        <time>2021-12-17T14:35:49Z</time>
      </trkpt>
      <trkpt lat="46.47344" lon="5.40446">
        <ele>537.2</ele>
        <time>2021-12-17T14:35:51Z</time>
      </trkpt>
      <trkpt lat="46.47355" lon="5.40447">
        <ele>537</ele>
        <time>2021-12-17T14:35:52Z</time>
      </trkpt>
      <trkpt lat="46.47386" lon="5.40449">
        <ele>536</ele>
        <time>2021-12-17T14:35:55Z</time>
      </trkpt>
      <trkpt lat="46.47406" lon="5.40446">
        <ele>534.8</ele>
        <time>2021-12-17T14:35:57Z</time>
      </trkpt>
      <trkpt lat="46.47416" lon="5.40445">
        <ele>534.4</ele>
        <time>2021-12-17T14:35:58Z</time>
      </trkpt>
      <trkpt lat="46.47438" lon="5.40445">
        <ele>533.6</ele>
        <time>2021-12-17T14:36:00Z</time>
      </trkpt>
      <trkpt lat="46.47456" lon="5.40445">
        <ele>532.4</ele>
        <time>2021-12-17T14:36:02Z</time>
      </trkpt>
      <trkpt lat="46.47465" lon="5.40446">
        <ele>531.8</ele>
        <time>2021-12-17T14:36:03Z</time>
      </trkpt>
      <trkpt lat="46.47473" lon="5.40448">
        <ele>530.8</ele>
        <time>2021-12-17T14:36:04Z</time>
      </trkpt>
      <trkpt lat="46.47485" lon="5.40452">
        <ele>530</ele>
        <time>2021-12-17T14:36:06Z</time>
      </trkpt>
      <trkpt lat="46.47491" lon="5.40456">
        <ele>529</ele>
        <time>2021-12-17T14:36:07Z</time>
      </trkpt>
      <trkpt lat="46.47495" lon="5.40459">
        <ele>528.4</ele>
        <time>2021-12-17T14:36:08Z</time>
      </trkpt>
      <trkpt lat="46.475" lon="5.40465">
        <ele>527.8</ele>
        <time>2021-12-17T14:36:09Z</time>
      </trkpt>
      <trkpt lat="46.4751" lon="5.40476">
        <ele>527.4</ele>
        <time>2021-12-17T14:36:10Z</time>
      </trkpt>
      <trkpt lat="46.47515" lon="5.4048">
        <ele>526.6</ele>
        <time>2021-12-17T14:36:12Z</time>
      </trkpt>
      <trkpt lat="46.47525" lon="5.4048">
        <ele>525.8</ele>
        <time>2021-12-17T14:36:14Z</time>
      </trkpt>
      <trkpt lat="46.47529" lon="5.40476">
        <ele>525.2</ele>
        <time>2021-12-17T14:36:15Z</time>
      </trkpt>
      <trkpt lat="46.47536" lon="5.40467">
        <ele>524.6</ele>
        <time>2021-12-17T14:36:17Z</time>
      </trkpt>
      <trkpt lat="46.47538" lon="5.40461">
        <ele>524.2</ele>
        <time>2021-12-17T14:36:18Z</time>
      </trkpt>
      <trkpt lat="46.47543" lon="5.40448">
        <ele>523</ele>
        <time>2021-12-17T14:36:20Z</time>
      </trkpt>
      <trkpt lat="46.47543" lon="5.40429">
        <ele>522.4</ele>
        <time>2021-12-17T14:36:22Z</time>
      </trkpt>
      <trkpt lat="46.47536" lon="5.40408">
        <ele>521.8</ele>
        <time>2021-12-17T14:36:24Z</time>
      </trkpt>
      <trkpt lat="46.47532" lon="5.40398">
        <ele>521.4</ele>
        <time>2021-12-17T14:36:25Z</time>
      </trkpt>
      <trkpt lat="46.47525" lon="5.40378">
        <ele>520.6</ele>
        <time>2021-12-17T14:36:27Z</time>
      </trkpt>
      <trkpt lat="46.47521" lon="5.40356">
        <ele>520</ele>
        <time>2021-12-17T14:36:29Z</time>
      </trkpt>
      <trkpt lat="46.47521" lon="5.40342">
        <ele>520</ele>
        <time>2021-12-17T14:36:30Z</time>
      </trkpt>
      <trkpt lat="46.47523" lon="5.4033">
        <ele>519.6</ele>
        <time>2021-12-17T14:36:31Z</time>
      </trkpt>
      <trkpt lat="46.47533" lon="5.40308">
        <ele>518.4</ele>
        <time>2021-12-17T14:36:33Z</time>
      </trkpt>
      <trkpt lat="46.47547" lon="5.40287">
        <ele>517.6</ele>
        <time>2021-12-17T14:36:35Z</time>
      </trkpt>
      <trkpt lat="46.47555" lon="5.40278">
        <ele>517</ele>
        <time>2021-12-17T14:36:36Z</time>
      </trkpt>
      <trkpt lat="46.47565" lon="5.40271">
        <ele>516.6</ele>
        <time>2021-12-17T14:36:37Z</time>
      </trkpt>
      <trkpt lat="46.47586" lon="5.40262">
        <ele>516</ele>
        <time>2021-12-17T14:36:39Z</time>
      </trkpt>
      <trkpt lat="46.47606" lon="5.40256">
        <ele>514.4</ele>
        <time>2021-12-17T14:36:41Z</time>
      </trkpt>
      <trkpt lat="46.47637" lon="5.4025">
        <ele>513.2</ele>
        <time>2021-12-17T14:36:44Z</time>
      </trkpt>
      <trkpt lat="46.47648" lon="5.40248">
        <ele>512.8</ele>
        <time>2021-12-17T14:36:45Z</time>
      </trkpt>
      <trkpt lat="46.47668" lon="5.40247">
        <ele>511.6</ele>
        <time>2021-12-17T14:36:47Z</time>
      </trkpt>
      <trkpt lat="46.47687" lon="5.40247">
        <ele>510.4</ele>
        <time>2021-12-17T14:36:49Z</time>
      </trkpt>
      <trkpt lat="46.47711" lon="5.40232">
        <ele>509.2</ele>
        <time>2021-12-17T14:36:52Z</time>
      </trkpt>
      <trkpt lat="46.47715" lon="5.40217">
        <ele>509</ele>
        <time>2021-12-17T14:36:53Z</time>
      </trkpt>
      <trkpt lat="46.47716" lon="5.40199">
        <ele>508.4</ele>
        <time>2021-12-17T14:36:54Z</time>
      </trkpt>
      <trkpt lat="46.47719" lon="5.40184">
        <ele>508</ele>
        <time>2021-12-17T14:36:55Z</time>
      </trkpt>
      <trkpt lat="46.47724" lon="5.40171">
        <ele>507.6</ele>
        <time>2021-12-17T14:36:56Z</time>
      </trkpt>
      <trkpt lat="46.4774" lon="5.40152">
        <ele>506.8</ele>
        <time>2021-12-17T14:36:58Z</time>
      </trkpt>
      <trkpt lat="46.47755" lon="5.40131">
        <ele>506.2</ele>
        <time>2021-12-17T14:37:00Z</time>
      </trkpt>
      <trkpt lat="46.4776" lon="5.40117">
        <ele>505.8</ele>
        <time>2021-12-17T14:37:01Z</time>
      </trkpt>
      <trkpt lat="46.47764" lon="5.40104">
        <ele>505.4</ele>
        <time>2021-12-17T14:37:02Z</time>
      </trkpt>
      <trkpt lat="46.47767" lon="5.40087">
        <ele>504.4</ele>
        <time>2021-12-17T14:37:03Z</time>
      </trkpt>
      <trkpt lat="46.47768" lon="5.40072">
        <ele>503.8</ele>
        <time>2021-12-17T14:37:04Z</time>
      </trkpt>
      <trkpt lat="46.47767" lon="5.40058">
        <ele>502.8</ele>
        <time>2021-12-17T14:37:05Z</time>
      </trkpt>
      <trkpt lat="46.47766" lon="5.40033">
        <ele>501.8</ele>
        <time>2021-12-17T14:37:07Z</time>
      </trkpt>
      <trkpt lat="46.47767" lon="5.40021">
        <ele>500.8</ele>
        <time>2021-12-17T14:37:08Z</time>
      </trkpt>
      <trkpt lat="46.4777" lon="5.4001">
        <ele>500.6</ele>
        <time>2021-12-17T14:37:09Z</time>
      </trkpt>
      <trkpt lat="46.47774" lon="5.40001">
        <ele>499.8</ele>
        <time>2021-12-17T14:37:10Z</time>
      </trkpt>
      <trkpt lat="46.4778" lon="5.39996">
        <ele>499.2</ele>
        <time>2021-12-17T14:37:11Z</time>
      </trkpt>
      <trkpt lat="46.47788" lon="5.39992">
        <ele>498.6</ele>
        <time>2021-12-17T14:37:12Z</time>
      </trkpt>
      <trkpt lat="46.47817" lon="5.39979">
        <ele>497.6</ele>
        <time>2021-12-17T14:37:15Z</time>
      </trkpt>
      <trkpt lat="46.47827" lon="5.39973">
        <ele>496.8</ele>
        <time>2021-12-17T14:37:16Z</time>
      </trkpt>
      <trkpt lat="46.47858" lon="5.39956">
        <ele>495</ele>
        <time>2021-12-17T14:37:19Z</time>
      </trkpt>
      <trkpt lat="46.47879" lon="5.39945">
        <ele>493.8</ele>
        <time>2021-12-17T14:37:21Z</time>
      </trkpt>
      <trkpt lat="46.47912" lon="5.39928">
        <ele>492.6</ele>
        <time>2021-12-17T14:37:24Z</time>
      </trkpt>
      <trkpt lat="46.47933" lon="5.39916">
        <ele>490.8</ele>
        <time>2021-12-17T14:37:26Z</time>
      </trkpt>
      <trkpt lat="46.47954" lon="5.39905">
        <ele>489.4</ele>
        <time>2021-12-17T14:37:28Z</time>
      </trkpt>
      <trkpt lat="46.47964" lon="5.399">
        <ele>489</ele>
        <time>2021-12-17T14:37:29Z</time>
      </trkpt>
      <trkpt lat="46.47974" lon="5.39894">
        <ele>488.4</ele>
        <time>2021-12-17T14:37:30Z</time>
      </trkpt>
      <trkpt lat="46.48005" lon="5.39883">
        <ele>487.2</ele>
        <time>2021-12-17T14:37:33Z</time>
      </trkpt>
      <trkpt lat="46.48025" lon="5.39884">
        <ele>486.4</ele>
        <time>2021-12-17T14:37:35Z</time>
      </trkpt>
      <trkpt lat="46.48035" lon="5.39888">
        <ele>486.4</ele>
        <time>2021-12-17T14:37:36Z</time>
      </trkpt>
      <trkpt lat="46.48044" lon="5.39893">
        <ele>486</ele>
        <time>2021-12-17T14:37:37Z</time>
      </trkpt>
      <trkpt lat="46.48062" lon="5.39903">
        <ele>485.8</ele>
        <time>2021-12-17T14:37:39Z</time>
      </trkpt>
      <trkpt lat="46.48069" lon="5.39906">
        <ele>485.8</ele>
        <time>2021-12-17T14:37:40Z</time>
      </trkpt>
      <trkpt lat="46.4808" lon="5.39908">
        <ele>485.6</ele>
        <time>2021-12-17T14:37:41Z</time>
      </trkpt>
      <trkpt lat="46.48107" lon="5.39907">
        <ele>485.8</ele>
        <time>2021-12-17T14:37:44Z</time>
      </trkpt>
      <trkpt lat="46.48147" lon="5.39894">
        <ele>486</ele>
        <time>2021-12-17T14:37:49Z</time>
      </trkpt>
      <trkpt lat="46.48191" lon="5.39864">
        <ele>486</ele>
        <time>2021-12-17T14:37:54Z</time>
      </trkpt>
      <trkpt lat="46.48191" lon="5.39864">
        <ele>486</ele>
        <time>2021-12-17T14:37:55Z</time>
      </trkpt>
      <trkpt lat="46.48196" lon="5.39856">
        <ele>486</ele>
        <time>2021-12-17T14:37:56Z</time>
      </trkpt>
      <trkpt lat="46.48198" lon="5.39834">
        <ele>485.8</ele>
        <time>2021-12-17T14:37:57Z</time>
      </trkpt>
      <trkpt lat="46.48196" lon="5.39822">
        <ele>485.6</ele>
        <time>2021-12-17T14:37:59Z</time>
      </trkpt>
      <trkpt lat="46.4819" lon="5.39789">
        <ele>485.4</ele>
        <time>2021-12-17T14:38:02Z</time>
      </trkpt>
      <trkpt lat="46.48183" lon="5.39743">
        <ele>485</ele>
        <time>2021-12-17T14:38:06Z</time>
      </trkpt>
      <trkpt lat="46.48178" lon="5.39695">
        <ele>484.6</ele>
        <time>2021-12-17T14:38:10Z</time>
      </trkpt>
      <trkpt lat="46.48178" lon="5.39682">
        <ele>484.4</ele>
        <time>2021-12-17T14:38:11Z</time>
      </trkpt>
      <trkpt lat="46.48181" lon="5.39656">
        <ele>484.2</ele>
        <time>2021-12-17T14:38:13Z</time>
      </trkpt>
      <trkpt lat="46.48189" lon="5.39629">
        <ele>483.8</ele>
        <time>2021-12-17T14:38:15Z</time>
      </trkpt>
      <trkpt lat="46.48204" lon="5.39593">
        <ele>482.4</ele>
        <time>2021-12-17T14:38:18Z</time>
      </trkpt>
      <trkpt lat="46.4821" lon="5.39576">
        <ele>481.8</ele>
        <time>2021-12-17T14:38:19Z</time>
      </trkpt>
      <trkpt lat="46.48214" lon="5.39561">
        <ele>480.8</ele>
        <time>2021-12-17T14:38:20Z</time>
      </trkpt>
      <trkpt lat="46.4822" lon="5.3953">
        <ele>479.2</ele>
        <time>2021-12-17T14:38:22Z</time>
      </trkpt>
      <trkpt lat="46.48228" lon="5.39499">
        <ele>477</ele>
        <time>2021-12-17T14:38:24Z</time>
      </trkpt>
      <trkpt lat="46.48233" lon="5.39487">
        <ele>476</ele>
        <time>2021-12-17T14:38:25Z</time>
      </trkpt>
      <trkpt lat="46.4824" lon="5.39476">
        <ele>475.6</ele>
        <time>2021-12-17T14:38:26Z</time>
      </trkpt>
      <trkpt lat="46.48247" lon="5.39467">
        <ele>474.8</ele>
        <time>2021-12-17T14:38:27Z</time>
      </trkpt>
      <trkpt lat="46.48255" lon="5.39462">
        <ele>474.6</ele>
        <time>2021-12-17T14:38:28Z</time>
      </trkpt>
      <trkpt lat="46.48263" lon="5.39458">
        <ele>472.4</ele>
        <time>2021-12-17T14:38:29Z</time>
      </trkpt>
      <trkpt lat="46.48272" lon="5.39458">
        <ele>471.4</ele>
        <time>2021-12-17T14:38:30Z</time>
      </trkpt>
      <trkpt lat="46.4829" lon="5.39457">
        <ele>469.8</ele>
        <time>2021-12-17T14:38:31Z</time>
      </trkpt>
      <trkpt lat="46.4829" lon="5.39457">
        <ele>469.2</ele>
        <time>2021-12-17T14:38:32Z</time>
      </trkpt>
      <trkpt lat="46.48297" lon="5.39452">
        <ele>468.2</ele>
        <time>2021-12-17T14:38:33Z</time>
      </trkpt>
      <trkpt lat="46.48307" lon="5.39434">
        <ele>467.4</ele>
        <time>2021-12-17T14:38:34Z</time>
      </trkpt>
      <trkpt lat="46.48307" lon="5.39434">
        <ele>467</ele>
        <time>2021-12-17T14:38:35Z</time>
      </trkpt>
      <trkpt lat="46.48311" lon="5.39421">
        <ele>466</ele>
        <time>2021-12-17T14:38:36Z</time>
      </trkpt>
      <trkpt lat="46.4832" lon="5.39392">
        <ele>464.4</ele>
        <time>2021-12-17T14:38:38Z</time>
      </trkpt>
      <trkpt lat="46.4833" lon="5.39366">
        <ele>463</ele>
        <time>2021-12-17T14:38:40Z</time>
      </trkpt>
      <trkpt lat="46.48343" lon="5.39342">
        <ele>462</ele>
        <time>2021-12-17T14:38:42Z</time>
      </trkpt>
      <trkpt lat="46.48351" lon="5.39332">
        <ele>460.6</ele>
        <time>2021-12-17T14:38:43Z</time>
      </trkpt>
      <trkpt lat="46.4836" lon="5.39326">
        <ele>460.2</ele>
        <time>2021-12-17T14:38:44Z</time>
      </trkpt>
      <trkpt lat="46.48368" lon="5.39323">
        <ele>458.8</ele>
        <time>2021-12-17T14:38:45Z</time>
      </trkpt>
      <trkpt lat="46.4838" lon="5.39321">
        <ele>458.2</ele>
        <time>2021-12-17T14:38:46Z</time>
      </trkpt>
      <trkpt lat="46.4839" lon="5.39321">
        <ele>457.2</ele>
        <time>2021-12-17T14:38:47Z</time>
      </trkpt>
      <trkpt lat="46.48412" lon="5.39325">
        <ele>456.6</ele>
        <time>2021-12-17T14:38:48Z</time>
      </trkpt>
      <trkpt lat="46.48412" lon="5.39325">
        <ele>455.4</ele>
        <time>2021-12-17T14:38:49Z</time>
      </trkpt>
      <trkpt lat="46.48435" lon="5.39325">
        <ele>454.6</ele>
        <time>2021-12-17T14:38:51Z</time>
      </trkpt>
      <trkpt lat="46.48447" lon="5.39323">
        <ele>452.8</ele>
        <time>2021-12-17T14:38:52Z</time>
      </trkpt>
      <trkpt lat="46.48459" lon="5.3932">
        <ele>452</ele>
        <time>2021-12-17T14:38:53Z</time>
      </trkpt>
      <trkpt lat="46.48471" lon="5.39317">
        <ele>450.8</ele>
        <time>2021-12-17T14:38:54Z</time>
      </trkpt>
      <trkpt lat="46.48508" lon="5.39308">
        <ele>449.6</ele>
        <time>2021-12-17T14:38:56Z</time>
      </trkpt>
      <trkpt lat="46.4852" lon="5.39305">
        <ele>447.4</ele>
        <time>2021-12-17T14:38:58Z</time>
      </trkpt>
      <trkpt lat="46.48533" lon="5.39301">
        <ele>446.6</ele>
        <time>2021-12-17T14:38:59Z</time>
      </trkpt>
      <trkpt lat="46.48558" lon="5.39296">
        <ele>445.4</ele>
        <time>2021-12-17T14:39:00Z</time>
      </trkpt>
      <trkpt lat="46.48583" lon="5.39292">
        <ele>443.8</ele>
        <time>2021-12-17T14:39:02Z</time>
      </trkpt>
      <trkpt lat="46.48595" lon="5.39289">
        <ele>442.8</ele>
        <time>2021-12-17T14:39:03Z</time>
      </trkpt>
      <trkpt lat="46.48607" lon="5.39287">
        <ele>440.6</ele>
        <time>2021-12-17T14:39:05Z</time>
      </trkpt>
      <trkpt lat="46.48644" lon="5.39281">
        <ele>438.8</ele>
        <time>2021-12-17T14:39:07Z</time>
      </trkpt>
      <trkpt lat="46.48644" lon="5.39281">
        <ele>437.8</ele>
        <time>2021-12-17T14:39:08Z</time>
      </trkpt>
      <trkpt lat="46.48667" lon="5.39283">
        <ele>436.4</ele>
        <time>2021-12-17T14:39:09Z</time>
      </trkpt>
      <trkpt lat="46.48677" lon="5.39285">
        <ele>435.4</ele>
        <time>2021-12-17T14:39:10Z</time>
      </trkpt>
      <trkpt lat="46.48687" lon="5.39289">
        <ele>435</ele>
        <time>2021-12-17T14:39:11Z</time>
      </trkpt>
      <trkpt lat="46.48697" lon="5.39293">
        <ele>434</ele>
        <time>2021-12-17T14:39:12Z</time>
      </trkpt>
      <trkpt lat="46.48705" lon="5.39297">
        <ele>433.6</ele>
        <time>2021-12-17T14:39:13Z</time>
      </trkpt>
      <trkpt lat="46.48713" lon="5.39302">
        <ele>432.2</ele>
        <time>2021-12-17T14:39:14Z</time>
      </trkpt>
      <trkpt lat="46.48713" lon="5.39302">
        <ele>431.2</ele>
        <time>2021-12-17T14:39:15Z</time>
      </trkpt>
      <trkpt lat="46.48725" lon="5.39308">
        <ele>430</ele>
        <time>2021-12-17T14:39:16Z</time>
      </trkpt>
      <trkpt lat="46.48731" lon="5.39308">
        <ele>429.6</ele>
        <time>2021-12-17T14:39:17Z</time>
      </trkpt>
      <trkpt lat="46.48731" lon="5.39308">
        <ele>428</ele>
        <time>2021-12-17T14:39:18Z</time>
      </trkpt>
      <trkpt lat="46.48739" lon="5.39303">
        <ele>426.8</ele>
        <time>2021-12-17T14:39:19Z</time>
      </trkpt>
      <trkpt lat="46.48739" lon="5.39296">
        <ele>426.4</ele>
        <time>2021-12-17T14:39:20Z</time>
      </trkpt>
      <trkpt lat="46.48736" lon="5.39287">
        <ele>425.4</ele>
        <time>2021-12-17T14:39:21Z</time>
      </trkpt>
      <trkpt lat="46.48732" lon="5.39279">
        <ele>424.4</ele>
        <time>2021-12-17T14:39:23Z</time>
      </trkpt>
      <trkpt lat="46.48726" lon="5.3927">
        <ele>423.8</ele>
        <time>2021-12-17T14:39:24Z</time>
      </trkpt>
      <trkpt lat="46.48711" lon="5.39252">
        <ele>422.8</ele>
        <time>2021-12-17T14:39:25Z</time>
      </trkpt>
      <trkpt lat="46.48703" lon="5.39241">
        <ele>421.8</ele>
        <time>2021-12-17T14:39:26Z</time>
      </trkpt>
      <trkpt lat="46.48696" lon="5.3923">
        <ele>419.8</ele>
        <time>2021-12-17T14:39:28Z</time>
      </trkpt>
      <trkpt lat="46.48673" lon="5.39197">
        <ele>418.6</ele>
        <time>2021-12-17T14:39:30Z</time>
      </trkpt>
      <trkpt lat="46.48648" lon="5.39162">
        <ele>417.2</ele>
        <time>2021-12-17T14:39:33Z</time>
      </trkpt>
      <trkpt lat="46.48627" lon="5.3914">
        <ele>415.6</ele>
        <time>2021-12-17T14:39:35Z</time>
      </trkpt>
      <trkpt lat="46.48605" lon="5.39122">
        <ele>413.4</ele>
        <time>2021-12-17T14:39:37Z</time>
      </trkpt>
      <trkpt lat="46.48594" lon="5.39113">
        <ele>412.2</ele>
        <time>2021-12-17T14:39:39Z</time>
      </trkpt>
      <trkpt lat="46.48571" lon="5.39094">
        <ele>410.4</ele>
        <time>2021-12-17T14:39:41Z</time>
      </trkpt>
      <trkpt lat="46.48547" lon="5.39078">
        <ele>409.8</ele>
        <time>2021-12-17T14:39:42Z</time>
      </trkpt>
      <trkpt lat="46.48547" lon="5.39078">
        <ele>407.8</ele>
        <time>2021-12-17T14:39:43Z</time>
      </trkpt>
      <trkpt lat="46.48534" lon="5.39071">
        <ele>406.4</ele>
        <time>2021-12-17T14:39:44Z</time>
      </trkpt>
      <trkpt lat="46.48512" lon="5.39051">
        <ele>405.6</ele>
        <time>2021-12-17T14:39:45Z</time>
      </trkpt>
      <trkpt lat="46.48503" lon="5.39036">
        <ele>404.4</ele>
        <time>2021-12-17T14:39:46Z</time>
      </trkpt>
      <trkpt lat="46.48493" lon="5.38999">
        <ele>402.4</ele>
        <time>2021-12-17T14:39:48Z</time>
      </trkpt>
      <trkpt lat="46.48493" lon="5.38999">
        <ele>401</ele>
        <time>2021-12-17T14:39:49Z</time>
      </trkpt>
      <trkpt lat="46.48482" lon="5.38964">
        <ele>399.8</ele>
        <time>2021-12-17T14:39:50Z</time>
      </trkpt>
      <trkpt lat="46.48482" lon="5.38964">
        <ele>399.6</ele>
        <time>2021-12-17T14:39:51Z</time>
      </trkpt>
      <trkpt lat="46.48468" lon="5.38935">
        <ele>398.4</ele>
        <time>2021-12-17T14:39:52Z</time>
      </trkpt>
      <trkpt lat="46.48461" lon="5.38923">
        <ele>397.2</ele>
        <time>2021-12-17T14:39:53Z</time>
      </trkpt>
      <trkpt lat="46.48455" lon="5.3891">
        <ele>396.4</ele>
        <time>2021-12-17T14:39:54Z</time>
      </trkpt>
      <trkpt lat="46.48452" lon="5.38897">
        <ele>394.4</ele>
        <time>2021-12-17T14:39:55Z</time>
      </trkpt>
      <trkpt lat="46.48452" lon="5.38885">
        <ele>393.8</ele>
        <time>2021-12-17T14:39:56Z</time>
      </trkpt>
      <trkpt lat="46.48454" lon="5.38874">
        <ele>393</ele>
        <time>2021-12-17T14:39:57Z</time>
      </trkpt>
      <trkpt lat="46.48459" lon="5.38865">
        <ele>392.2</ele>
        <time>2021-12-17T14:39:58Z</time>
      </trkpt>
      <trkpt lat="46.48459" lon="5.38865">
        <ele>390.8</ele>
        <time>2021-12-17T14:39:59Z</time>
      </trkpt>
      <trkpt lat="46.48473" lon="5.3885">
        <ele>390.4</ele>
        <time>2021-12-17T14:40:00Z</time>
      </trkpt>
      <trkpt lat="46.48481" lon="5.38844">
        <ele>389.6</ele>
        <time>2021-12-17T14:40:01Z</time>
      </trkpt>
      <trkpt lat="46.48487" lon="5.3884">
        <ele>389</ele>
        <time>2021-12-17T14:40:02Z</time>
      </trkpt>
      <trkpt lat="46.48496" lon="5.38835">
        <ele>387.6</ele>
        <time>2021-12-17T14:40:04Z</time>
      </trkpt>
      <trkpt lat="46.48544" lon="5.38803">
        <ele>386.2</ele>
        <time>2021-12-17T14:40:08Z</time>
      </trkpt>
      <trkpt lat="46.48562" lon="5.38791">
        <ele>384.4</ele>
        <time>2021-12-17T14:40:10Z</time>
      </trkpt>
      <trkpt lat="46.4857" lon="5.38785">
        <ele>383.2</ele>
        <time>2021-12-17T14:40:11Z</time>
      </trkpt>
      <trkpt lat="46.48585" lon="5.38779">
        <ele>381.8</ele>
        <time>2021-12-17T14:40:13Z</time>
      </trkpt>
      <trkpt lat="46.48599" lon="5.38781">
        <ele>380.4</ele>
        <time>2021-12-17T14:40:15Z</time>
      </trkpt>
      <trkpt lat="46.48606" lon="5.38782">
        <ele>380</ele>
        <time>2021-12-17T14:40:16Z</time>
      </trkpt>
      <trkpt lat="46.48613" lon="5.38779">
        <ele>378.6</ele>
        <time>2021-12-17T14:40:17Z</time>
      </trkpt>
      <trkpt lat="46.48618" lon="5.38774">
        <ele>377.4</ele>
        <time>2021-12-17T14:40:19Z</time>
      </trkpt>
      <trkpt lat="46.48628" lon="5.38754">
        <ele>375.8</ele>
        <time>2021-12-17T14:40:20Z</time>
      </trkpt>
      <trkpt lat="46.48633" lon="5.38742">
        <ele>375.2</ele>
        <time>2021-12-17T14:40:21Z</time>
      </trkpt>
      <trkpt lat="46.48637" lon="5.38729">
        <ele>374.4</ele>
        <time>2021-12-17T14:40:22Z</time>
      </trkpt>
      <trkpt lat="46.48639" lon="5.38719">
        <ele>373.8</ele>
        <time>2021-12-17T14:40:23Z</time>
      </trkpt>
      <trkpt lat="46.48639" lon="5.38719">
        <ele>372.8</ele>
        <time>2021-12-17T14:40:24Z</time>
      </trkpt>
      <trkpt lat="46.48643" lon="5.38686">
        <ele>372.4</ele>
        <time>2021-12-17T14:40:25Z</time>
      </trkpt>
      <trkpt lat="46.48643" lon="5.38671">
        <ele>371.2</ele>
        <time>2021-12-17T14:40:26Z</time>
      </trkpt>
      <trkpt lat="46.48639" lon="5.38644">
        <ele>370.2</ele>
        <time>2021-12-17T14:40:28Z</time>
      </trkpt>
      <trkpt lat="46.48635" lon="5.3863">
        <ele>369.8</ele>
        <time>2021-12-17T14:40:29Z</time>
      </trkpt>
      <trkpt lat="46.48627" lon="5.38599">
        <ele>368.6</ele>
        <time>2021-12-17T14:40:31Z</time>
      </trkpt>
      <trkpt lat="46.48624" lon="5.38585">
        <ele>367.6</ele>
        <time>2021-12-17T14:40:33Z</time>
      </trkpt>
      <trkpt lat="46.48613" lon="5.38543">
        <ele>365.8</ele>
        <time>2021-12-17T14:40:35Z</time>
      </trkpt>
      <trkpt lat="46.48609" lon="5.38529">
        <ele>364.6</ele>
        <time>2021-12-17T14:40:37Z</time>
      </trkpt>
      <trkpt lat="46.48601" lon="5.38502">
        <ele>363.4</ele>
        <time>2021-12-17T14:40:38Z</time>
      </trkpt>
    </trkseg>
  </trk>
</gpx>